GFSGL_sfc_wetblb_000.txt.gz
Wetbulb
50.85 50.84 50.66 51.17 51.82 51.74 51.44 51.86 52.03 52.23 51.88 51.68 51.58 51.55 51.69 52.24 53.46 54.61 56.35 58.03 59.09 59.73 60.03 60.19 60.18 60.84 60.06 59.22 58.53 57.90 56.73 56.27 53.74 55.32 56.93 56.16 49.05 47.53 48.18 46.34 47.17 47.11 49.48
50.36 50.48 50.49 50.79 50.79 50.33 50.47 51.11 51.97 51.73 52.55 52.57 52.66 52.69 52.50 51.96 52.30 52.28 53.33 54.63 55.36 56.01 57.48 58.70 58.88 59.63 59.52 59.57 58.54 57.41 56.96 57.03 55.35 53.91 55.88 55.41 47.93 45.50 46.53 44.35 45.14 45.88 46.11
50.46 50.04 49.91 49.74 49.56 49.31 49.89 50.93 51.50 51.32 51.24 51.60 52.02 51.84 52.30 52.76 52.67 52.51 52.60 53.10 53.76 54.83 55.76 56.30 57.21 57.95 58.05 58.52 58.61 58.04 57.41 56.79 56.67 55.32 54.53 55.68 48.46 45.19 43.72 44.13 43.26 43.81 43.88
49.44 48.66 48.16 48.44 48.22 48.23 48.64 49.01 49.32 49.67 49.48 49.91 50.43 50.85 51.33 51.91 52.32 52.48 52.53 51.74 52.28 53.75 54.80 55.57 56.33 56.61 57.14 57.83 57.84 57.79 57.51 56.70 56.04 55.21 54.54 53.81 45.01 43.17 44.29 42.76 40.27 41.83 40.57
46.27 46.20 46.82 47.43 47.11 46.86 46.60 46.87 47.56 47.89 48.30 48.61 48.58 48.90 49.35 50.17 51.18 51.06 51.01 51.01 50.63 51.04 52.04 53.19 54.16 53.85 52.10 54.72 57.02 57.35 57.22 56.33 55.69 54.77 53.44 50.65 43.73 40.49 41.33 42.99 42.65 40.64 40.74
43.80 44.15 45.70 45.26 45.08 44.83 44.89 45.25 45.92 46.14 46.48 46.78 46.70 47.40 47.30 48.95 49.72 50.16 50.25 49.70 49.45 49.64 49.98 51.30 52.49 51.54 53.35 53.57 53.75 53.27 55.04 55.68 54.79 54.30 53.64 51.62 49.15 47.26 44.12 43.19 42.15 37.33 34.81
42.29 42.87 42.51 41.71 41.39 41.97 42.83 42.80 42.78 42.48 42.91 43.71 44.86 45.65 45.83 46.41 48.74 49.77 49.79 48.38 48.52 48.67 49.30 50.05 50.89 52.88 51.83 53.87 54.18 53.78 53.31 53.17 53.82 55.47 53.89 52.93 51.45 49.50 45.47 42.12 41.79 38.91 34.37
39.13 39.02 39.29 39.32 39.00 39.45 39.65 39.53 39.82 40.57 40.66 41.16 42.43 43.95 44.27 45.77 47.67 48.69 48.11 46.78 45.63 46.48 47.27 47.52 49.66 50.60 52.14 52.60 53.06 52.98 53.92 54.84 54.58 53.93 54.60 55.00 54.09 51.87 47.33 44.80 41.93 33.51 30.88
36.39 35.80 36.85 37.26 36.77 37.13 36.97 36.88 37.46 38.29 38.89 39.12 40.56 41.40 42.66 43.56 45.46 46.55 44.85 42.99 43.88 44.03 46.59 46.98 47.54 48.11 48.86 50.26 50.34 50.63 51.24 53.04 46.43 48.09 50.75 51.42 51.41 49.61 46.19 38.71 33.83 32.99 27.91
33.45 33.99 34.86 35.36 35.11 34.62 34.93 35.07 36.00 36.93 37.24 38.41 38.07 40.02 42.42 40.68 43.46 45.00 43.93 42.37 40.35 42.17 43.19 43.21 45.29 45.98 47.20 47.65 47.68 48.17 48.48 50.11 41.52 39.85 40.96 43.32 44.84 44.65 43.85 41.32 35.19 32.56 29.80
32.83 33.04 33.11 33.54 33.33 33.88 33.94 34.39 34.38 34.36 35.70 35.64 36.17 37.60 37.81 38.70 38.66 43.31 43.17 40.88 40.31 38.94 37.40 39.48 42.14 44.75 45.37 45.61 45.70 45.44 45.82 49.52 42.62 38.94 36.16 34.37 34.27 33.67 34.09 34.45 35.25 33.91 30.45
32.09 31.96 31.90 32.07 32.64 33.30 31.93 32.46 32.70 32.66 32.43 33.76 34.29 34.70 36.65 36.04 40.09 40.57 41.98 42.87 42.15 37.46 36.70 37.94 40.22 42.13 43.12 43.95 44.65 46.05 46.86 47.64 38.09 34.37 32.71 32.02 31.30 31.30 31.81 32.32 32.33 31.53 31.54
30.43 30.02 30.54 31.11 31.22 31.51 30.72 30.60 30.39 31.43 31.36 31.87 32.14 32.32 32.08 33.92 35.75 39.37 41.06 41.85 41.13 38.11 37.55 39.11 41.35 42.23 43.09 43.40 44.28 44.90 46.17 39.92 35.23 32.94 32.45 31.61 31.41 31.28 30.95 30.25 30.18 30.06 30.06
28.65 28.82 29.45 29.19 30.23 30.17 30.84 30.96 30.08 29.61 30.35 30.84 30.36 29.93 30.91 32.43 33.38 34.80 36.82 37.56 38.83 37.07 37.99 38.89 41.40 43.57 44.53 44.16 43.63 43.19 36.57 35.94 34.81 34.22 32.75 31.82 31.24 29.76 28.44 28.74 26.98 27.02 26.12
28.36 28.35 28.37 29.09 28.58 28.69 29.57 29.24 29.53 31.14 32.63 31.40 31.30 31.45 30.55 30.63 32.96 38.16 38.40 36.63 35.81 36.37 38.96 39.15 38.92 38.40 38.97 39.25 36.78 33.47 33.49 34.97 32.28 31.51 30.35 29.45 28.88 28.42 27.40 28.04 27.11 27.13 26.43
27.21 27.52 27.59 27.98 27.82 28.11 27.67 28.10 33.25 34.53 35.75 36.24 36.56 35.67 34.10 36.96 37.78 38.65 38.41 38.21 38.33 39.71 36.43 35.62 35.71 34.92 35.16 35.85 33.50 32.03 32.14 31.42 30.22 30.15 29.34 28.89 27.83 27.31 26.63 27.68 27.38 26.65 25.41
26.44 26.82 27.10 27.75 26.78 26.53 26.86 26.87 26.00 29.88 33.61 34.08 35.21 36.07 36.24 36.41 37.34 36.90 37.14 37.06 37.09 37.42 33.13 33.88 34.10 33.55 33.15 34.08 32.53 31.70 30.70 29.91 29.66 28.99 28.41 27.96 27.83 26.99 27.13 26.49 26.50 25.94 23.79
26.85 29.96 26.98 26.21 26.25 26.61 26.73 26.95 27.27 26.41 26.13 27.74 32.41 33.23 34.10 35.11 35.37 35.80 35.25 34.30 31.92 33.00 31.66 31.47 33.24 33.39 32.62 32.18 32.53 31.25 29.01 28.63 28.39 28.30 28.01 27.61 27.45 26.82 26.05 25.73 25.47 22.91 22.07
26.35 26.08 26.32 26.39 26.87 27.88 27.32 26.83 26.97 27.30 27.26 26.96 28.36 30.45 32.13 33.13 33.60 33.86 33.63 29.53 29.63 29.72 29.78 30.62 32.63 33.37 32.60 32.16 31.69 29.68 29.09 28.47 28.25 27.85 27.70 27.47 27.30 26.83 26.06 25.37 24.19 25.82 23.82
26.02 28.83 28.99 26.66 26.27 26.27 26.29 26.12 26.10 26.01 26.52 27.26 26.37 26.42 28.22 29.12 26.85 26.76 27.78 28.11 28.24 28.43 29.13 30.30 32.34 33.31 32.63 31.93 30.33 29.07 28.33 29.21 27.79 27.86 27.47 27.57 27.44 27.23 25.61 24.27 23.58 21.97 21.32
25.48 25.71 28.78 26.26 25.39 25.69 25.52 25.08 25.26 25.78 25.41 25.19 25.47 27.98 31.82 28.00 25.50 25.51 26.41 27.14 27.08 28.13 28.86 30.24 31.98 32.82 32.39 32.08 29.82 28.90 28.63 27.94 28.02 27.39 27.40 27.23 27.03 25.43 24.87 24.15 22.38 22.81 19.83
25.51 25.41 25.46 25.03 25.20 24.86 24.87 25.82 25.99 25.59 25.33 25.49 26.23 27.71 30.76 26.69 25.16 25.02 25.82 26.75 27.17 28.73 29.58 31.34 31.66 32.59 32.01 31.59 30.20 29.37 28.23 27.28 27.24 27.32 26.88 26.80 25.86 24.72 23.75 22.21 21.94 19.47 16.34
25.12 24.56 24.41 24.34 24.72 26.33 25.13 25.41 25.86 25.68 25.58 25.66 25.73 26.01 26.20 25.72 25.44 24.79 25.56 26.52 27.89 28.76 30.63 30.53 30.34 32.02 32.07 31.78 31.15 30.32 28.31 27.51 27.82 27.98 26.86 25.91 24.72 23.29 22.66 21.96 19.28 17.05 16.59
24.67 24.13 24.28 24.35 24.48 25.07 24.58 23.68 23.87 25.43 25.14 25.24 25.78 26.40 25.57 25.47 25.23 25.11 25.40 26.03 26.60 28.77 28.73 27.20 29.39 31.73 31.42 31.11 30.48 30.46 29.81 29.11 29.10 28.42 27.65 25.65 24.04 24.06 22.23 18.05 16.82 14.33 13.91
25.34 24.23 24.25 24.07 23.58 23.23 23.40 23.75 23.61 24.00 24.20 24.26 25.24 25.69 25.53 25.37 24.92 24.38 24.62 25.15 26.09 27.95 25.71 26.05 29.71 31.48 31.12 30.54 29.76 29.68 29.42 30.41 28.88 28.56 27.43 25.43 23.77 21.72 17.72 16.53 15.97 14.27 13.79
25.07 24.26 23.80 23.81 23.65 23.49 22.96 21.99 21.07 21.31 21.37 22.91 24.36 24.73 24.54 24.14 24.20 22.28 23.24 24.30 26.42 25.37 24.15 25.79 28.39 31.33 30.25 30.03 29.45 29.84 31.85 31.52 29.89 29.90 26.98 24.91 22.44 19.51 17.22 16.56 14.13 15.37 13.31

GFSGL_sfc_wetblb_003.txt.gz
Wetbulb
49.86 49.71 49.33 49.53 49.85 50.36 50.08 50.30 50.52 50.94 50.98 51.08 51.15 51.03 51.11 51.21 51.26 50.80 51.10 51.58 51.50 52.40 53.74 54.66 55.82 57.47 57.71 58.16 58.62 58.66 57.85 57.02 54.13 55.45 56.46 56.83 52.28 53.72 51.20 51.62 51.80 51.27 52.07
48.97 48.70 48.67 49.06 48.81 48.34 48.36 48.65 49.11 48.87 49.59 49.56 49.85 50.00 50.14 50.33 50.65 50.47 50.43 51.00 50.81 51.05 52.14 53.20 54.12 55.67 55.47 56.56 57.00 56.76 57.21 57.61 55.83 53.73 55.48 55.93 53.10 49.99 51.67 48.80 48.82 49.63 49.36
46.44 46.70 46.63 47.32 46.63 46.00 46.16 46.60 46.89 46.91 47.16 47.67 48.22 48.20 48.19 48.56 48.55 48.92 49.58 50.02 50.38 51.62 51.62 52.10 52.95 53.75 53.57 54.12 54.83 55.18 55.77 56.32 56.57 55.47 54.86 56.62 56.05 46.46 44.35 44.79 45.09 45.78 46.83
44.03 44.03 43.72 45.06 44.12 44.04 44.48 44.87 45.15 45.63 45.75 46.46 47.00 46.70 46.75 47.58 47.89 47.86 48.04 47.13 47.56 49.21 50.27 50.88 51.40 51.93 52.21 52.59 53.20 53.71 54.34 54.28 54.48 54.18 54.42 54.83 55.18 47.43 47.50 47.35 42.26 43.51 43.73
42.05 41.71 41.78 41.51 41.01 41.09 41.52 42.38 43.15 43.51 44.16 44.76 44.05 43.91 46.10 46.28 47.61 46.81 46.29 46.55 47.53 48.18 48.74 49.39 50.17 50.09 49.11 51.00 51.93 52.30 52.69 52.44 52.68 52.31 52.30 53.30 53.53 43.83 43.55 45.09 46.12 45.00 42.76
38.28 38.33 39.11 38.69 38.74 38.77 39.06 39.42 40.15 40.52 40.94 41.52 41.31 43.17 42.49 45.46 47.08 47.61 47.60 47.19 48.10 45.15 43.69 45.50 47.45 47.97 49.24 51.20 52.40 52.15 52.41 51.82 50.88 50.56 51.17 50.99 51.69 52.03 50.02 47.67 45.84 39.47 37.65
36.17 36.61 36.06 36.31 36.23 36.46 36.98 37.22 37.28 37.28 37.91 37.56 39.55 40.02 40.72 42.23 45.43 47.58 47.43 45.40 41.82 41.60 43.18 43.12 45.16 47.09 46.81 48.31 48.82 49.67 50.31 51.40 51.57 51.65 50.90 51.47 52.09 52.98 52.46 49.36 46.95 44.73 43.12
34.15 33.03 33.71 33.94 33.82 34.50 34.62 34.54 34.63 35.47 35.12 35.83 36.99 37.43 38.34 39.33 43.62 45.76 47.01 40.44 39.73 41.02 41.45 42.02 43.50 41.13 42.90 45.27 46.25 46.39 46.30 47.73 49.30 51.19 51.72 52.20 53.40 54.04 53.93 51.95 48.73 40.79 33.15
30.98 30.79 31.70 32.03 31.81 32.23 31.94 32.01 33.01 33.42 33.81 34.04 35.06 36.11 35.26 36.96 41.66 44.40 41.72 39.15 38.01 38.42 40.57 41.15 38.95 38.68 42.64 44.48 43.19 42.95 43.40 44.09 46.34 47.42 47.93 47.68 48.57 50.52 52.04 42.04 36.21 35.44 31.26
29.59 30.46 30.99 31.24 30.97 30.46 30.62 30.80 31.85 32.13 32.59 33.66 33.00 33.68 37.03 36.29 39.73 40.56 39.11 37.47 35.97 36.84 38.70 38.05 40.11 40.27 42.45 42.84 40.39 40.49 39.85 40.45 42.32 43.80 45.79 47.28 44.26 46.53 49.40 47.63 44.27 38.82 31.82
30.11 30.44 30.48 30.46 29.79 30.24 30.34 30.48 30.52 30.60 30.99 30.42 31.16 32.50 33.37 35.21 34.25 38.79 39.51 36.99 35.34 36.75 36.90 36.89 37.16 39.97 41.52 41.65 43.25 41.91 41.90 43.62 43.58 43.63 44.41 37.08 34.32 34.41 34.69 35.74 37.70 39.52 33.52
28.97 29.12 29.20 29.22 30.16 31.17 29.01 29.08 29.30 29.18 28.54 28.75 29.17 30.87 32.50 32.56 35.73 36.33 37.67 38.67 38.97 36.56 36.04 36.51 36.35 39.48 39.91 42.28 43.24 44.80 44.79 44.08 42.87 42.12 37.04 33.22 31.89 31.78 31.96 32.24 32.71 32.41 32.59
27.30 27.55 28.04 28.79 28.97 29.17 28.04 27.95 27.92 28.48 27.69 27.91 29.22 29.17 30.10 32.00 32.44 36.28 37.21 37.98 38.75 36.49 36.05 37.10 38.93 39.01 41.02 40.15 40.55 41.73 41.38 37.87 38.56 35.54 32.61 31.57 31.73 31.86 30.92 29.58 30.29 30.74 30.69
26.43 26.71 27.35 27.21 28.25 28.27 28.65 28.61 27.53 26.90 27.31 28.30 28.50 28.82 29.56 30.54 31.53 32.85 34.07 34.58 36.50 35.31 35.74 35.32 38.00 38.44 39.16 38.19 37.16 37.86 35.08 34.73 34.57 33.28 31.88 31.44 30.96 29.93 28.68 29.26 27.46 27.83 27.13
26.03 26.52 26.65 27.18 26.74 26.78 27.60 27.15 27.31 28.63 30.08 29.02 29.32 29.69 29.08 29.31 31.50 35.81 35.04 33.35 33.58 34.50 35.49 35.28 33.56 32.96 33.52 33.59 34.39 34.20 35.06 34.04 31.85 31.56 30.46 29.75 29.18 28.31 27.14 27.63 27.16 27.10 25.23
25.83 26.36 26.49 26.89 26.41 26.58 25.80 26.06 31.27 32.42 33.29 33.59 33.81 32.85 32.23 34.44 35.21 35.43 35.03 35.94 35.76 35.10 33.20 30.53 29.60 30.07 30.80 32.02 31.70 32.44 33.24 33.88 30.84 30.56 29.67 29.31 27.96 26.81 26.07 26.73 26.91 26.65 25.51
24.67 25.30 26.00 27.01 25.67 24.99 25.00 24.95 24.48 28.46 32.33 32.45 33.08 33.46 33.58 33.89 33.68 33.76 34.42 34.28 33.50 33.22 29.70 28.74 28.33 29.29 29.72 31.94 32.12 31.81 31.46 32.81 30.60 29.71 28.96 28.15 27.62 26.78 26.88 25.94 26.36 26.41 25.26
25.70 29.39 26.47 25.54 25.08 25.03 25.35 25.76 25.95 25.27 24.89 26.00 30.54 31.66 32.51 32.53 32.60 33.22 33.31 31.22 27.04 29.45 28.08 27.19 27.74 29.12 29.88 31.35 31.84 31.40 31.60 30.61 28.75 28.43 27.85 27.51 27.56 27.24 26.16 25.92 26.05 25.06 22.53
25.43 25.10 25.17 25.67 26.00 27.09 26.67 26.05 25.92 25.60 25.20 25.24 26.50 29.00 30.16 31.83 32.47 32.64 31.64 25.97 25.10 26.51 27.10 26.98 28.31 28.67 29.79 31.20 31.76 31.72 30.59 29.14 28.36 27.63 27.37 27.23 26.97 26.73 26.03 26.12 25.40 25.02 22.00
24.49 28.32 28.29 26.01 25.73 25.61 25.58 25.25 24.92 24.50 24.40 24.61 25.12 25.03 26.68 28.04 26.84 25.65 25.80 25.16 24.75 26.75 26.89 27.02 27.61 28.15 30.17 29.62 31.24 31.30 29.73 28.74 27.50 27.28 26.91 27.00 27.14 27.07 26.03 25.13 22.49 20.06 17.15
25.15 25.11 28.22 25.81 24.60 25.21 25.10 24.19 24.04 24.54 24.97 25.25 25.12 26.94 30.64 27.02 25.77 25.18 24.80 24.51 24.67 26.30 26.17 26.66 27.33 27.84 27.56 28.97 30.92 30.40 29.33 27.76 27.44 26.89 26.93 26.84 26.91 25.67 25.32 23.06 21.68 20.28 17.51
25.13 25.00 24.94 24.61 25.05 24.72 24.48 25.11 24.82 24.21 24.42 24.25 24.41 25.95 29.33 26.39 26.18 25.21 24.72 24.42 24.95 26.16 26.96 27.04 27.80 25.54 26.62 28.33 30.55 29.59 29.11 27.27 26.82 26.91 26.61 26.39 25.94 24.95 22.32 21.38 19.82 17.32 16.06
24.90 24.22 24.02 24.13 24.64 26.04 24.36 24.30 24.77 24.24 23.52 23.78 23.94 24.49 24.74 24.82 25.76 25.62 24.99 24.83 25.07 25.19 25.96 27.86 25.82 24.51 26.59 28.90 31.36 30.28 28.70 27.24 27.50 27.77 26.40 25.80 24.59 22.38 21.55 18.45 16.81 15.52 14.04
24.71 24.21 24.57 24.93 24.49 24.65 24.12 23.29 23.40 24.80 24.32 23.91 22.87 23.08 23.14 24.79 25.09 24.82 24.50 24.33 24.44 24.55 25.59 26.02 24.76 24.21 26.77 27.83 30.54 30.45 29.22 28.68 28.80 28.03 27.48 25.17 22.61 21.45 18.75 16.68 14.97 11.47 12.58
25.61 24.78 24.45 24.05 23.70 23.22 23.19 23.45 23.64 23.69 22.81 22.43 22.57 22.89 22.96 23.76 23.63 23.48 23.45 23.26 23.05 23.93 25.06 24.25 23.82 24.69 26.26 27.23 29.50 29.49 28.82 30.27 28.58 28.01 26.87 21.90 19.09 16.14 15.48 13.57 12.85 12.03 12.03
24.77 24.44 24.29 24.06 23.35 23.04 22.75 21.81 20.75 20.48 19.94 20.88 21.75 21.40 22.09 22.65 23.39 22.42 21.56 21.70 23.02 24.19 22.62 23.21 23.73 24.57 25.01 29.01 29.13 29.55 31.46 31.31 29.83 29.35 24.85 21.39 19.02 16.48 15.13 13.93 12.39 14.02 12.39

GFSGL_sfc_wetblb_006.txt.gz
Wetbulb
46.23 46.24 45.75 46.64 46.40 45.74 45.21 45.36 45.28 45.37 45.62 45.80 46.32 46.83 47.34 47.90 47.63 47.34 47.38 47.80 47.74 48.36 49.43 49.55 50.53 51.77 52.50 53.64 54.57 54.78 54.33 54.16 51.85 52.98 55.67 57.42 57.01 55.30 54.52 54.14 54.62 54.56 54.60
44.13 43.95 43.72 44.82 43.76 42.78 42.44 42.86 43.54 43.04 43.73 43.94 44.85 45.12 45.10 44.73 45.49 45.88 45.93 46.39 46.44 45.19 45.94 47.53 48.91 50.75 50.58 51.51 51.93 51.71 51.96 52.77 52.04 50.06 52.55 53.69 54.73 56.31 55.80 54.93 53.39 53.56 53.88
42.14 41.77 41.37 41.57 39.94 39.04 39.57 40.48 41.01 41.07 41.46 41.71 42.40 41.90 41.74 42.60 44.30 44.11 45.09 44.83 44.28 44.84 45.58 46.84 48.12 48.59 47.60 48.47 49.37 49.43 50.08 51.17 51.78 50.85 50.62 52.72 53.44 54.65 52.74 51.86 53.25 52.30 51.92
40.21 39.33 39.37 37.64 37.13 37.46 38.00 38.15 38.37 39.04 38.97 39.05 39.47 39.21 40.12 42.31 41.50 43.23 44.44 42.36 44.01 44.87 46.79 47.69 46.82 44.56 44.55 46.24 46.93 47.04 48.34 49.07 49.83 49.64 50.04 50.14 51.29 52.31 50.86 51.76 49.04 46.10 48.12
37.02 36.94 36.24 36.25 36.02 35.94 35.84 35.89 36.42 36.70 36.75 37.26 36.80 36.93 37.78 40.19 39.97 42.38 40.80 40.68 42.41 44.50 43.80 42.05 42.97 43.25 45.55 47.36 44.84 42.90 46.10 45.62 45.76 46.73 47.33 49.21 49.83 49.33 47.66 47.63 47.45 49.91 45.78
34.50 34.38 34.26 33.51 33.38 33.23 33.45 33.77 34.04 34.05 34.19 34.85 34.62 35.06 36.86 36.95 41.17 43.16 42.14 39.74 42.61 40.88 38.47 39.25 41.46 42.35 44.97 43.71 43.79 45.05 45.12 44.14 44.53 44.36 44.55 45.23 46.59 48.63 50.12 50.41 49.94 47.56 45.63
32.98 31.78 31.78 31.83 31.41 31.54 32.05 32.10 31.82 31.66 32.53 32.38 32.77 33.80 33.01 34.58 40.60 41.55 42.62 38.24 38.18 38.37 37.57 37.10 37.90 41.16 40.16 37.69 40.36 42.95 41.64 43.74 45.24 43.74 42.34 43.00 44.36 46.44 49.33 48.84 48.97 48.96 47.73
30.07 29.81 30.66 30.68 30.22 30.55 30.39 30.12 30.03 30.67 30.46 30.66 31.44 31.93 32.35 33.26 38.77 40.54 41.33 34.95 33.59 34.18 35.80 35.55 37.31 37.90 37.73 38.83 38.41 37.74 38.55 40.18 41.29 42.69 42.68 42.75 43.86 45.76 46.91 47.00 47.49 46.66 36.68
28.69 28.73 29.63 29.69 29.26 29.36 28.74 28.73 29.35 29.42 29.46 29.95 31.04 30.84 30.42 31.23 37.57 39.79 37.51 33.28 33.42 33.84 34.89 35.46 37.77 37.56 39.88 40.54 37.46 36.73 37.55 39.19 42.99 44.55 44.99 45.20 45.69 46.39 46.89 45.55 43.48 39.39 35.70
27.77 28.50 28.97 29.14 28.77 28.04 28.07 28.06 29.23 29.10 29.43 30.30 29.79 30.08 32.20 30.58 35.20 37.08 36.02 33.24 31.96 32.69 33.92 35.39 39.07 38.10 39.31 39.10 36.43 36.34 36.22 38.55 40.15 40.67 41.41 43.12 44.83 44.87 44.41 42.25 42.96 40.80 37.56
27.89 28.18 28.30 28.33 27.78 28.02 28.31 28.46 28.23 27.98 28.44 27.82 28.19 28.87 29.54 30.90 32.03 36.19 36.54 33.56 32.67 33.01 33.28 34.13 34.63 37.71 37.91 38.54 39.33 38.39 38.11 39.50 39.28 37.39 38.58 40.73 42.28 35.83 35.46 34.74 35.34 38.46 36.25
26.93 27.29 27.36 27.19 28.13 29.26 26.91 27.10 27.30 27.06 26.42 26.42 26.67 27.95 30.16 30.92 34.32 34.91 36.42 36.83 36.61 32.88 32.61 33.03 33.69 37.04 38.54 39.55 38.69 39.73 39.76 38.71 35.96 34.46 34.70 35.34 34.72 33.89 33.20 32.51 32.70 32.90 33.50
25.39 25.55 26.17 26.95 26.83 27.04 25.74 26.08 25.93 26.41 25.61 25.53 26.51 27.22 28.23 30.29 30.90 34.97 36.01 36.55 36.16 33.33 32.92 34.65 35.39 36.64 36.81 35.81 36.40 37.53 37.61 33.93 33.04 32.56 33.10 33.51 34.00 32.42 30.34 29.98 30.50 29.92 28.96
24.22 24.78 25.52 25.25 26.61 26.50 26.88 26.87 25.77 24.86 25.20 25.82 26.87 26.83 27.76 28.75 29.84 31.20 32.46 32.10 33.99 33.33 33.79 31.45 33.89 33.94 34.00 33.43 33.40 33.97 33.13 32.90 32.94 32.88 32.39 33.18 32.26 29.83 28.64 29.01 28.29 28.39 26.44
23.83 24.20 25.15 25.75 25.29 25.47 26.30 25.77 25.57 26.80 28.31 27.86 27.91 28.14 27.43 27.92 29.41 33.54 32.64 31.29 32.93 31.75 31.27 29.72 29.08 28.04 27.97 28.92 29.75 31.16 32.26 32.33 31.66 32.31 31.73 30.78 30.25 28.31 27.18 27.90 27.96 27.28 25.10
24.14 24.90 25.02 25.52 25.07 25.50 24.78 24.73 29.92 31.14 32.18 32.25 32.25 31.07 30.06 32.38 33.53 33.18 33.36 34.68 33.51 32.23 27.80 26.24 25.51 25.00 25.76 26.97 27.80 29.13 30.49 31.87 31.61 31.53 30.17 29.68 28.61 26.90 26.18 26.82 27.49 26.48 24.22
23.51 24.31 24.46 26.02 24.83 24.16 23.96 23.73 23.35 27.32 30.99 30.99 31.21 31.63 31.81 32.19 32.09 32.08 33.07 33.36 31.40 30.18 24.32 25.85 24.44 24.36 25.44 26.74 27.01 28.51 28.56 30.71 31.87 30.21 29.01 28.50 27.72 26.51 27.43 25.88 26.66 26.35 24.90
23.74 28.15 25.33 24.43 24.12 24.14 24.46 24.86 25.10 24.08 23.39 24.24 28.67 29.81 30.90 31.26 31.11 31.79 32.58 30.33 25.42 26.13 24.40 25.05 23.72 24.13 25.23 26.31 26.74 26.94 27.69 30.24 30.09 29.53 28.13 27.36 26.87 27.02 25.90 25.70 26.16 24.99 22.35
23.97 23.81 23.96 24.49 25.14 26.15 25.62 25.03 24.78 24.39 23.84 23.63 24.69 27.48 28.97 30.35 30.93 31.35 30.80 25.59 23.82 23.43 24.24 23.71 24.00 24.20 25.34 26.92 24.84 26.32 27.43 29.36 30.23 28.19 27.17 26.65 26.41 26.48 25.92 25.95 26.21 25.26 22.97
23.73 27.40 27.73 25.21 24.73 24.73 24.57 24.26 24.24 23.66 23.33 23.31 24.16 24.05 25.35 26.13 25.17 24.74 25.24 25.20 24.14 24.20 24.05 23.53 23.55 24.51 26.37 24.18 24.55 25.73 26.94 28.89 28.65 27.23 26.58 26.39 26.60 26.79 25.75 25.29 24.61 22.87 20.75
24.22 24.21 27.42 24.71 23.71 24.14 24.37 23.83 23.52 23.83 23.83 23.26 23.13 25.57 29.15 25.34 23.52 22.66 24.23 24.89 24.14 23.60 23.64 23.84 23.21 24.47 25.64 24.14 24.20 25.32 26.53 28.23 28.34 26.74 26.44 26.38 26.47 25.10 24.29 23.24 22.32 20.40 18.31
24.01 24.16 24.08 23.62 24.11 23.98 24.06 24.89 24.32 23.02 23.10 23.32 23.36 24.78 28.03 23.41 22.11 22.47 25.37 24.17 23.83 24.04 24.53 23.95 23.23 25.31 24.67 23.71 24.11 25.47 25.84 27.73 27.60 26.60 26.11 25.84 25.37 23.87 22.38 20.77 19.11 16.97 15.00
23.81 23.22 23.26 23.54 24.09 25.70 24.51 24.21 24.20 23.49 22.92 23.27 23.90 23.40 22.59 22.30 22.50 22.59 23.14 23.60 23.60 23.62 24.23 23.77 24.20 24.16 24.06 24.48 25.39 26.01 27.10 27.80 27.62 27.45 26.25 25.35 23.55 22.68 21.12 18.00 15.82 15.27 15.89
23.92 23.87 23.83 24.19 24.14 24.42 23.78 23.19 23.29 24.23 23.82 23.48 22.46 22.20 22.06 22.57 22.19 22.43 23.08 23.32 22.94 23.05 23.26 23.41 24.03 23.04 23.40 24.23 25.71 26.32 29.54 28.76 28.45 27.69 26.67 23.87 23.26 20.89 18.23 15.13 14.52 11.68 12.28
24.15 23.33 23.31 22.87 23.06 22.71 22.56 22.48 22.53 22.67 21.86 21.73 21.89 22.27 22.55 22.45 21.96 21.98 22.56 22.29 21.63 21.53 22.11 22.91 23.41 23.48 23.46 23.79 24.75 27.52 29.53 30.79 28.15 27.16 25.07 22.42 18.68 15.45 13.97 13.36 12.49 12.61 11.83
23.46 22.89 22.12 21.43 20.53 20.40 20.59 20.24 19.69 19.66 19.47 20.44 21.05 20.98 21.67 21.62 21.62 21.76 21.38 21.08 21.37 21.79 20.53 22.42 22.93 22.80 23.27 24.79 26.66 30.46 32.29 30.99 28.98 27.71 22.91 20.38 17.75 15.55 15.08 13.22 12.96 14.08 13.54

GFSGL_sfc_wetblb_009.txt.gz
Wetbulb
42.61 42.24 41.89 41.90 41.18 40.04 39.23 39.39 39.69 40.04 40.28 40.35 40.53 40.81 40.46 40.38 41.18 42.51 42.28 43.06 43.67 43.38 42.94 43.83 44.15 46.17 48.04 48.68 48.30 48.42 47.93 48.46 46.22 47.89 49.93 51.57 52.21 52.72 54.25 55.31 54.66 54.98 55.41
40.80 40.01 40.00 38.54 37.48 36.80 37.01 37.42 37.79 37.10 37.95 38.06 37.81 37.59 37.03 37.88 39.12 39.58 38.69 41.62 40.24 39.66 41.72 42.72 43.66 47.27 46.24 45.81 44.50 44.74 46.24 46.52 45.19 43.62 46.34 47.71 49.42 51.92 52.94 53.65 54.21 55.10 54.47
38.47 37.94 36.79 35.68 34.99 34.63 34.98 35.50 35.50 35.35 35.32 35.31 35.61 35.19 35.19 35.93 37.68 37.31 37.73 39.40 37.46 37.91 40.09 41.33 44.57 42.90 42.41 40.45 41.68 43.98 44.25 42.84 43.01 43.42 45.24 47.23 47.94 49.94 51.00 52.16 52.56 53.73 54.51
36.25 35.60 33.85 33.39 33.11 33.19 33.18 33.31 33.53 33.80 33.19 33.15 33.88 33.85 34.14 34.80 35.61 35.62 37.01 36.54 36.66 38.52 40.55 43.46 39.99 39.41 39.91 39.89 41.69 37.98 37.89 38.67 40.41 39.99 41.15 43.44 44.86 46.40 48.18 48.34 49.04 50.88 49.68
34.18 32.80 32.03 32.11 31.73 31.33 31.16 31.43 31.92 32.00 32.00 32.29 32.36 32.32 32.79 33.41 34.60 34.81 35.77 35.84 36.92 35.10 35.28 36.82 36.87 38.32 40.30 42.47 40.83 38.16 36.85 37.28 37.95 36.52 38.17 39.89 40.29 41.91 42.54 45.33 45.66 47.59 49.46
31.63 30.27 30.93 30.62 30.29 29.96 30.17 30.34 30.46 30.36 30.33 30.66 30.52 30.67 30.93 32.89 36.51 37.85 37.67 36.34 34.54 32.53 31.68 33.02 35.23 36.95 37.18 41.94 41.49 41.26 40.34 36.97 35.48 35.92 36.52 36.15 37.95 39.79 41.64 42.76 42.57 42.08 41.75
29.65 29.49 29.68 29.69 29.28 29.14 29.39 29.19 28.74 28.46 28.87 28.72 29.04 29.73 29.72 30.50 35.76 37.36 38.08 35.20 32.52 31.80 32.29 32.94 33.51 35.46 36.72 37.57 39.43 40.53 39.54 39.80 39.52 36.92 36.12 37.52 38.03 40.08 40.81 40.05 40.26 41.34 42.62
28.08 28.07 28.68 28.58 28.14 28.37 27.92 27.44 27.35 28.05 27.77 27.86 28.32 29.17 29.16 30.37 34.99 36.39 36.92 33.06 32.23 32.18 32.47 32.72 32.75 33.43 35.68 36.55 36.22 35.35 35.07 35.38 36.17 37.83 39.25 40.20 40.99 41.56 42.53 42.44 42.07 42.03 43.13
26.84 26.78 27.52 27.60 27.30 27.37 26.66 26.47 27.12 27.37 27.16 27.49 28.58 28.35 27.85 28.57 34.00 35.25 34.82 32.26 31.82 31.80 33.01 33.33 34.02 33.65 36.72 37.76 34.78 33.42 32.93 33.88 38.38 41.50 41.44 41.89 42.30 41.34 42.06 41.96 40.41 39.76 39.14
26.08 26.55 26.88 27.13 26.73 26.09 25.76 26.07 27.20 26.80 27.27 28.12 27.54 27.90 29.91 28.18 32.65 35.02 34.46 32.25 31.10 31.64 33.41 33.53 35.88 34.75 36.70 37.30 33.65 32.94 32.99 34.94 37.13 37.17 36.62 37.18 37.87 37.93 40.65 40.27 38.49 35.48 35.55
26.22 26.40 26.48 26.38 25.54 25.61 25.78 26.25 26.40 25.93 26.38 25.71 26.14 26.87 27.57 29.47 30.37 34.55 35.28 32.54 31.68 32.32 31.43 31.03 31.93 35.65 36.50 35.80 36.61 33.79 34.07 35.79 35.93 34.77 33.93 34.00 34.42 35.39 35.68 36.79 36.25 33.93 32.41
25.43 25.38 25.31 24.98 26.16 27.77 24.58 25.03 25.13 25.02 24.38 24.48 24.71 25.99 28.28 29.19 32.50 33.28 34.97 35.16 35.15 31.07 30.17 31.18 31.92 34.35 34.24 34.77 33.68 34.41 35.02 35.30 33.24 32.13 31.35 31.70 32.40 32.69 33.83 34.29 32.31 32.03 32.35
23.76 23.44 23.87 24.43 24.72 24.91 23.22 24.49 24.08 24.55 23.89 23.55 24.41 25.28 26.71 28.55 29.10 33.27 34.31 35.02 34.28 31.34 32.03 32.74 33.03 32.79 32.87 31.06 31.93 33.42 33.79 30.85 31.37 30.44 30.52 30.94 32.24 32.96 33.03 29.90 30.79 30.19 28.34
22.26 22.18 23.68 22.72 25.44 25.06 24.62 24.95 24.26 23.22 23.46 24.41 25.39 25.98 26.42 27.04 27.95 29.07 30.95 30.39 32.34 31.92 32.95 28.97 29.74 30.61 31.05 29.51 28.59 29.56 29.56 29.64 29.97 30.23 30.43 31.65 32.25 31.33 29.95 29.20 28.10 28.08 25.97
22.46 22.82 22.73 23.81 22.72 23.66 24.52 24.50 24.39 25.26 26.81 26.92 26.78 26.94 26.07 25.72 27.50 31.86 31.67 29.65 29.98 33.40 30.25 26.12 24.53 25.40 24.23 24.61 25.45 27.10 27.43 28.12 28.24 28.87 30.04 29.96 28.92 29.02 28.48 28.10 27.85 27.36 24.92
22.90 23.67 23.65 24.31 23.45 24.20 23.87 23.71 28.91 30.07 31.22 31.42 31.37 29.98 28.86 31.03 32.16 32.44 32.23 32.60 33.45 32.09 26.53 23.31 22.48 23.28 23.02 23.49 24.06 24.61 26.37 26.97 26.48 27.60 29.70 29.24 27.83 27.68 27.61 26.91 27.45 25.99 24.22
22.26 23.24 23.26 24.64 22.99 22.71 22.88 22.97 22.47 26.33 30.01 30.16 30.34 30.53 30.64 30.93 31.27 31.17 31.60 31.94 31.55 29.79 23.86 22.63 22.39 22.42 23.08 23.23 23.26 24.46 24.40 24.61 26.86 27.35 29.21 28.85 27.69 27.17 27.21 25.85 26.69 25.93 23.71
22.37 27.27 24.46 23.33 23.26 23.41 23.55 24.01 24.11 23.18 22.70 23.40 27.77 28.69 29.78 30.27 30.14 30.53 30.92 29.34 24.25 25.81 23.98 22.51 21.97 22.68 23.05 22.43 23.03 24.23 23.54 24.28 25.38 26.89 28.63 27.56 26.85 26.40 25.70 25.62 26.06 23.70 22.52
22.94 22.73 23.25 23.85 24.19 25.57 24.82 24.11 23.80 23.53 23.19 22.80 23.83 26.42 27.81 29.19 29.85 29.98 28.47 22.54 22.08 24.04 23.30 22.21 22.91 23.39 22.96 22.33 23.95 23.98 23.64 23.65 25.77 26.46 27.89 26.79 26.32 26.13 25.69 25.85 26.13 25.64 23.19
22.66 26.73 26.87 24.66 24.13 23.94 23.62 23.30 23.30 23.06 22.72 23.05 23.10 22.86 24.15 25.31 25.05 21.77 22.12 21.90 23.61 23.69 22.69 22.12 23.10 23.39 22.47 22.88 23.78 23.48 23.01 23.28 24.57 26.53 26.86 26.37 26.39 26.48 25.68 25.30 24.44 22.36 20.92
23.08 23.30 26.72 24.00 23.00 23.43 23.39 23.00 23.03 23.47 23.56 22.78 22.40 24.61 28.48 24.98 21.72 20.93 21.21 21.77 22.36 22.27 22.09 22.96 23.18 22.75 22.83 23.46 23.18 22.67 22.74 23.10 24.45 27.36 26.27 25.99 25.76 24.05 24.09 23.54 21.94 20.77 19.19
23.04 23.05 23.09 22.79 23.45 23.39 23.55 24.42 24.39 23.38 23.03 22.71 22.55 24.25 27.65 23.04 21.47 21.39 21.69 21.73 22.55 22.92 23.14 23.23 22.79 22.81 23.29 23.07 22.96 22.60 22.44 23.18 24.95 26.84 25.95 25.36 24.27 23.40 22.27 20.63 19.24 16.58 15.78
22.92 22.37 22.47 23.01 23.88 25.23 23.88 24.09 23.91 22.86 22.83 22.82 23.18 23.08 22.38 21.98 22.29 22.00 21.85 22.13 22.47 22.67 22.78 22.77 22.80 22.89 23.10 23.57 24.17 23.94 23.00 23.52 27.08 27.19 26.04 24.21 23.09 21.87 20.31 17.87 15.04 13.09 13.57
23.22 23.18 23.30 22.93 22.84 22.94 22.27 21.70 22.15 22.59 22.05 21.95 21.58 21.94 21.72 22.00 21.75 21.50 21.57 21.92 22.17 21.96 21.72 22.28 22.86 22.11 22.58 23.20 24.00 24.38 25.47 27.68 28.29 27.17 25.72 23.24 20.95 19.00 16.79 13.42 12.63 10.84 12.57
23.15 22.43 22.17 21.55 21.02 20.13 19.82 19.96 20.24 20.37 20.45 20.63 21.05 21.49 21.66 21.69 21.37 21.23 21.15 21.39 21.07 20.58 21.15 21.58 22.09 22.47 22.47 22.76 23.23 24.51 27.12 31.26 28.42 26.27 23.28 19.73 16.10 12.96 12.33 13.11 13.48 12.57 12.89
22.25 21.27 20.31 19.68 18.90 18.86 18.95 18.88 18.54 18.74 18.98 19.91 20.65 21.15 21.63 21.11 20.85 21.11 21.30 21.02 20.59 19.87 19.46 21.30 21.79 21.99 22.21 23.49 24.44 26.95 32.87 31.35 28.20 26.28 20.95 18.37 15.51 14.88 15.19 13.30 13.94 20.02 20.68

GFSGL_sfc_wetblb_012.txt.gz
Wetbulb
39.23 38.48 36.69 35.97 35.36 34.76 34.35 34.39 34.33 34.46 34.72 34.83 34.64 34.88 34.51 34.47 35.05 35.05 36.95 36.08 37.68 37.23 36.47 37.01 38.61 40.98 43.01 43.27 44.30 41.33 40.05 42.03 40.84 41.66 41.83 42.31 42.13 45.17 48.72 50.89 51.56 52.22 53.59
37.86 36.20 34.53 33.83 33.10 32.17 32.17 32.62 33.07 32.14 33.24 33.16 33.00 33.10 32.93 33.28 33.46 34.07 33.26 33.83 35.53 34.12 35.28 36.86 38.12 41.91 38.19 39.82 39.72 37.29 38.99 42.65 36.82 34.68 37.30 38.75 40.77 42.00 44.27 46.07 47.84 50.13 51.14
35.37 33.16 31.87 31.24 30.53 29.87 30.28 31.41 31.84 31.58 31.47 31.47 31.64 31.43 31.46 31.94 32.27 32.11 32.88 33.65 33.78 34.40 35.73 35.11 33.00 35.36 34.43 34.76 34.58 35.16 39.69 39.25 36.76 35.76 35.89 38.75 38.21 39.24 42.05 43.60 43.66 44.82 48.20
32.77 31.12 30.16 29.74 29.36 29.35 29.72 30.11 30.40 30.53 29.67 29.99 30.37 30.51 30.68 31.06 31.46 32.24 33.14 33.47 34.01 35.34 33.82 32.60 32.18 32.43 32.71 33.95 33.86 34.47 38.63 36.37 35.88 35.31 35.59 35.60 35.86 37.89 38.93 38.35 38.38 41.72 42.37
30.32 29.73 29.38 29.68 29.42 29.06 28.99 28.98 29.09 29.06 29.34 29.54 29.46 29.56 29.79 30.65 32.30 32.56 33.31 33.35 33.29 32.66 32.05 32.21 33.10 34.76 36.96 36.74 35.33 34.88 35.91 35.35 35.64 35.24 34.18 33.65 33.57 33.75 34.08 37.11 37.68 40.02 41.47
29.41 29.96 29.37 28.96 28.70 28.38 28.25 28.31 28.13 28.05 28.00 28.22 28.06 28.20 28.27 30.76 34.50 36.17 35.52 32.80 32.49 31.36 30.74 31.62 32.41 34.56 34.80 37.87 38.07 38.39 37.36 34.24 33.11 32.90 32.68 31.13 31.75 32.91 35.84 37.46 38.21 37.16 35.47
29.92 27.91 28.09 28.12 27.71 27.60 27.69 27.19 26.88 26.55 26.54 26.63 26.85 27.38 27.40 28.28 34.00 35.62 36.10 32.61 31.49 31.13 31.03 31.15 31.76 33.69 34.74 33.72 36.02 37.30 36.76 37.74 37.20 33.75 31.29 31.76 32.14 34.60 37.46 35.72 35.90 36.17 36.51
26.94 26.59 27.17 27.05 26.49 26.64 25.92 25.26 25.04 25.89 25.50 25.78 26.24 27.04 27.16 28.47 33.33 34.67 35.42 31.80 31.11 31.22 31.49 31.71 31.78 33.07 33.12 33.48 32.91 32.70 33.35 32.62 33.03 34.62 34.81 35.16 36.08 38.63 37.48 36.91 36.96 36.25 37.51
27.94 26.66 25.98 25.93 25.43 25.36 24.62 24.25 24.93 25.14 25.40 25.75 26.76 26.52 25.89 26.65 32.52 33.85 33.54 30.73 30.49 30.53 31.71 32.19 33.34 31.52 34.58 36.04 32.90 31.24 30.18 32.02 35.34 36.73 37.75 38.24 38.81 38.71 37.99 35.69 33.44 33.11 33.13
27.26 25.20 25.35 25.44 24.74 24.03 23.68 24.08 24.85 24.87 25.81 26.44 25.90 25.99 28.08 26.44 31.07 33.78 33.10 30.56 29.67 29.77 31.29 32.48 33.74 32.89 35.47 35.38 31.00 30.11 28.68 27.72 29.78 31.61 32.74 34.24 34.83 34.52 36.68 35.18 34.44 31.47 31.45
25.04 25.04 24.97 24.76 23.79 23.83 23.73 23.92 24.73 24.49 24.64 24.00 24.25 25.21 25.59 27.33 28.83 33.39 33.95 30.98 29.78 30.43 29.58 28.89 30.01 34.60 34.82 33.36 33.41 29.25 28.37 31.26 31.74 30.16 29.91 31.01 32.14 32.69 33.48 34.08 34.37 32.62 30.63
24.03 23.88 23.69 23.39 24.69 26.39 22.87 23.39 23.17 23.13 22.80 23.11 23.30 24.12 26.42 27.65 31.35 32.03 33.45 33.60 33.70 30.17 28.11 28.93 30.62 33.66 32.00 31.77 31.15 32.01 32.26 31.93 28.02 27.62 27.64 28.76 29.56 30.45 31.65 32.68 32.88 33.08 31.83
22.41 22.22 22.36 23.10 23.33 23.48 21.64 22.99 22.93 23.39 22.85 22.36 23.20 24.01 25.62 27.40 27.80 31.95 32.78 33.50 33.69 30.20 29.41 32.92 31.76 31.09 30.21 28.83 30.02 30.60 29.97 26.05 26.14 25.97 26.16 27.53 28.29 30.39 32.06 31.15 31.67 30.75 28.97
20.79 21.01 21.97 21.45 23.87 23.23 23.90 23.85 22.31 22.39 21.86 23.60 24.36 25.07 25.26 26.08 26.56 27.56 29.10 29.73 31.33 30.13 32.27 29.72 28.88 28.72 28.75 27.94 26.40 25.78 24.42 25.25 25.90 26.38 25.83 26.38 27.73 29.22 29.18 29.75 28.92 27.33 24.93
21.42 21.99 21.88 22.84 21.07 22.53 23.63 22.63 22.89 24.01 25.64 25.53 25.91 26.03 25.09 25.00 26.68 30.94 30.80 28.94 29.18 30.51 29.89 26.57 24.30 23.35 22.41 22.72 23.12 23.25 23.58 24.18 25.53 25.08 24.30 24.54 25.68 28.11 27.95 28.33 27.71 26.95 24.93
21.47 22.93 22.92 23.43 22.19 23.43 22.64 22.52 28.09 29.36 30.44 30.57 30.70 29.33 28.28 30.36 31.39 31.70 31.45 31.68 32.08 30.62 25.20 22.79 22.36 21.62 21.11 21.63 21.80 22.12 22.48 23.81 24.32 23.97 24.06 24.69 24.81 27.17 26.18 27.53 27.04 26.00 24.08
21.17 22.16 22.50 23.54 21.65 21.43 21.76 22.20 21.68 25.42 29.09 29.35 29.69 30.08 30.13 30.35 30.62 30.43 30.96 30.98 29.40 27.70 22.08 23.53 21.44 21.22 20.99 21.43 21.82 21.63 20.57 22.88 24.42 23.94 23.61 24.66 25.90 26.72 26.32 26.01 26.15 25.53 23.17
21.28 26.52 23.67 22.23 22.32 22.69 22.91 23.32 23.11 22.00 21.57 22.71 27.20 28.27 29.43 29.59 29.39 29.88 30.12 27.65 21.97 23.16 22.40 22.15 20.69 21.04 21.17 21.65 21.54 20.94 21.54 22.98 23.18 23.48 23.74 24.25 26.73 25.70 25.11 25.36 25.41 23.31 22.33
22.30 22.20 22.47 23.20 23.48 24.85 24.10 23.22 22.88 22.81 22.64 22.32 23.61 26.23 27.11 28.54 29.27 29.88 27.85 21.55 20.35 20.47 21.26 21.14 21.68 21.30 22.07 21.77 21.43 21.40 22.30 22.49 23.55 22.68 23.35 25.49 25.93 25.64 25.30 25.74 25.81 25.73 23.33
21.74 25.81 26.04 23.81 23.29 23.09 22.75 22.62 22.59 22.39 22.30 22.77 23.15 22.55 23.69 25.07 24.86 21.52 21.76 21.35 21.30 21.31 21.26 21.32 21.70 22.16 21.81 21.50 21.27 21.98 22.12 22.07 22.03 22.36 23.33 25.98 25.43 25.14 24.63 23.95 23.39 21.89 21.09
22.06 22.16 25.90 22.90 22.13 22.66 22.80 22.59 22.85 23.17 22.72 22.58 22.44 24.29 28.10 24.51 20.97 20.66 20.95 21.53 21.41 21.24 21.40 21.52 21.80 21.55 21.52 21.50 21.87 21.75 21.64 21.73 22.25 22.97 25.09 25.37 24.20 22.92 23.22 22.68 21.82 20.84 19.52
21.88 22.17 22.21 22.02 22.74 22.81 23.17 23.88 22.65 22.29 22.46 21.57 22.19 23.57 26.33 22.11 21.08 21.13 21.62 21.48 21.79 22.00 22.37 22.30 21.43 21.31 21.46 21.84 21.88 21.60 21.37 21.35 22.13 23.26 25.63 24.46 23.12 22.69 21.39 20.12 19.03 18.27 17.67
22.12 21.58 21.69 22.06 23.03 24.32 22.08 22.33 21.63 21.03 21.18 21.01 21.19 21.47 21.41 21.40 21.43 21.16 20.94 21.32 21.65 22.11 22.25 22.07 21.37 21.24 22.09 22.72 23.26 22.86 21.74 21.77 23.43 26.07 24.86 22.85 22.14 20.01 18.44 16.79 15.95 16.69 18.52
22.43 21.84 21.85 22.01 21.69 21.70 20.54 19.78 20.12 20.99 20.68 20.59 20.33 20.82 20.68 20.92 20.81 20.90 21.14 21.40 21.27 21.54 21.44 21.18 21.15 20.62 21.42 22.53 23.03 23.34 23.97 25.02 28.11 25.92 22.06 18.19 16.20 15.92 15.94 16.50 16.88 16.76 16.64
21.97 21.50 21.30 20.31 19.71 18.88 18.55 18.61 19.19 19.43 19.22 19.37 19.74 20.26 20.74 21.28 20.76 20.57 20.74 21.14 21.07 20.68 20.36 20.08 20.56 21.27 21.73 21.80 22.18 23.54 25.35 32.19 27.03 22.38 17.71 14.74 15.16 17.64 18.47 18.19 16.72 12.21 12.61
21.46 20.71 19.66 18.73 17.98 17.99 17.97 17.75 17.69 17.96 18.04 19.14 19.93 20.24 20.16 19.91 20.43 20.87 20.96 20.90 20.04 19.53 18.65 19.98 20.41 20.95 21.45 22.61 23.95 27.04 32.27 30.18 25.67 25.80 18.63 17.93 19.69 20.98 18.29 13.05 16.49 21.95 20.30

GFSGL_sfc_wetblb_015.txt.gz
Wetbulb
38.37 36.95 36.10 35.79 35.69 35.61 35.22 35.31 35.34 35.53 35.40 35.02 34.83 34.89 34.85 34.76 35.17 35.11 35.27 35.98 35.30 36.44 37.18 37.63 38.03 38.98 37.36 38.39 40.66 40.54 38.96 37.76 34.89 38.01 42.87 43.65 42.04 41.92 43.62 44.57 45.00 45.60 48.99
36.55 35.43 34.71 34.63 34.41 33.95 33.85 34.17 34.53 33.89 34.37 33.95 33.86 33.67 33.69 33.66 34.00 33.71 33.59 34.73 34.74 34.90 35.69 37.20 35.45 35.41 34.57 35.74 36.58 35.92 36.76 37.36 36.60 35.04 39.54 39.66 39.47 41.25 42.45 41.92 42.45 46.05 46.02
34.75 34.05 33.55 33.20 33.11 32.90 32.96 33.23 33.42 33.22 33.16 33.15 32.86 32.39 32.33 32.63 32.73 33.32 34.07 34.51 34.91 35.20 35.63 35.03 34.00 33.81 33.36 34.76 35.17 35.48 36.84 36.55 37.05 35.83 35.12 38.57 39.40 40.45 39.40 40.05 41.09 42.09 43.92
33.58 33.00 32.51 32.50 32.36 32.35 32.51 32.54 32.38 32.45 31.92 31.94 32.08 31.88 31.85 31.86 32.20 33.21 34.17 34.58 34.65 34.91 34.91 34.38 33.92 33.57 33.30 34.47 34.95 35.67 35.81 35.76 36.08 34.98 34.84 35.55 36.76 37.85 37.48 34.95 36.25 39.37 40.01
32.37 32.06 31.75 32.14 32.14 32.01 31.78 31.64 31.60 31.45 31.31 31.36 30.94 31.10 31.27 31.34 32.31 33.45 34.33 34.17 33.78 33.51 33.87 33.85 34.20 34.97 36.00 36.40 35.44 35.00 35.22 34.23 33.82 33.36 32.89 33.71 33.75 33.81 33.33 35.23 33.34 36.27 39.07
31.44 30.91 31.28 31.14 31.16 30.97 30.91 30.66 30.44 30.37 30.50 30.26 29.95 29.86 29.88 30.83 33.34 35.15 35.14 34.01 33.42 32.81 32.43 33.24 33.96 34.79 35.34 37.04 36.58 36.85 36.12 33.13 32.36 32.60 31.73 31.05 31.86 33.24 34.97 34.81 35.01 32.84 33.30
30.53 30.06 30.18 30.20 29.84 29.92 29.93 29.52 29.26 29.09 29.39 29.07 29.24 29.44 29.23 29.93 32.99 34.47 35.11 33.67 32.86 32.31 32.15 32.85 33.14 34.12 35.07 34.48 35.49 36.19 36.12 35.81 35.02 32.99 31.08 31.15 31.59 32.56 33.73 33.63 33.32 33.78 33.53
29.28 29.14 29.22 29.13 28.80 29.10 28.74 28.34 28.33 28.79 28.45 28.42 28.55 28.92 28.85 29.55 32.23 33.65 34.40 32.96 32.47 32.10 32.18 32.63 32.59 33.25 33.88 33.23 33.35 34.06 32.63 32.38 33.29 33.71 32.48 32.36 33.74 34.81 34.71 34.27 34.19 34.29 35.30
28.90 28.34 28.28 28.19 27.85 27.85 27.51 27.50 28.05 28.22 28.25 28.23 28.50 28.20 27.69 28.09 31.70 32.76 33.39 32.04 31.46 31.37 32.50 32.60 33.35 32.42 33.77 35.08 34.01 30.64 30.05 31.00 33.42 33.79 34.35 35.12 35.26 35.46 35.66 33.78 32.47 31.24 30.23
27.80 27.41 27.78 27.83 27.30 26.83 27.18 27.32 27.98 28.06 27.66 28.08 27.46 27.63 28.53 27.82 30.52 32.88 32.90 31.53 30.45 30.63 31.52 32.75 33.21 32.49 34.21 35.71 31.28 29.19 27.35 28.66 30.15 30.94 31.17 31.34 32.61 32.90 34.72 33.99 33.34 30.08 29.97
27.13 27.16 27.33 27.43 26.56 27.39 27.34 27.38 27.30 26.96 26.84 26.27 26.11 27.05 27.50 28.76 29.81 32.71 33.23 31.06 30.31 30.32 30.84 30.36 31.19 33.16 35.83 33.24 32.44 29.07 28.36 30.39 29.93 28.14 28.07 28.90 30.07 31.01 32.65 32.73 34.34 31.47 29.96
26.30 26.03 26.36 26.50 26.53 27.40 26.17 26.70 26.52 25.87 25.21 25.00 25.35 26.14 28.14 29.17 31.14 31.61 32.73 32.90 32.88 30.19 29.44 30.31 31.17 35.11 32.38 31.46 30.08 30.54 31.30 30.39 26.97 25.69 26.06 26.41 27.89 28.40 29.53 30.45 30.97 32.06 33.43
25.10 25.10 25.34 25.97 26.23 26.53 25.77 25.77 25.44 25.39 24.67 24.39 25.07 25.77 27.03 28.77 29.28 31.37 32.18 32.80 33.00 30.21 30.56 32.14 32.25 31.01 30.81 29.21 29.10 29.57 29.15 26.02 24.86 24.36 24.92 25.73 27.42 27.78 28.31 29.44 30.77 32.65 32.14
24.10 24.46 25.49 25.27 27.03 26.77 25.86 25.88 24.92 24.39 24.20 25.14 25.68 26.02 26.45 27.49 28.22 29.21 29.89 30.59 31.40 30.80 32.08 28.91 28.92 28.98 29.21 28.01 26.81 26.60 25.93 25.63 24.70 24.58 24.47 26.57 27.17 26.82 26.72 28.66 29.44 29.96 29.69
24.33 24.60 24.85 25.25 24.43 24.72 25.29 25.14 25.33 26.70 27.19 26.63 26.82 26.97 26.19 25.97 27.75 30.89 30.48 29.09 29.70 30.67 28.57 26.65 25.26 25.45 24.04 23.99 24.19 24.50 24.90 24.99 24.22 24.34 24.36 24.80 25.20 25.69 25.96 28.26 29.79 29.55 27.64
23.68 24.82 24.61 25.44 24.91 24.76 24.06 24.25 27.89 28.98 30.01 30.14 30.26 29.15 28.61 30.14 31.15 31.25 30.99 31.17 31.65 30.10 25.76 23.18 22.32 23.49 22.25 22.31 22.24 22.60 23.64 23.91 23.69 23.80 24.31 24.41 24.17 24.85 25.57 28.83 29.15 28.22 26.04
23.32 23.58 24.11 25.12 23.26 22.95 23.49 23.55 22.97 26.38 28.56 28.77 29.08 29.62 29.86 30.18 30.20 29.99 30.34 30.94 29.40 27.76 22.86 21.95 21.89 21.77 21.83 22.10 22.14 22.35 21.77 23.01 23.73 23.87 23.85 24.27 24.28 24.76 27.06 26.85 27.67 26.33 24.37
23.28 26.04 24.88 23.47 23.94 24.20 24.23 24.58 24.42 23.06 22.45 23.55 27.28 28.09 29.23 29.30 29.10 29.65 30.09 28.05 23.19 24.02 22.52 21.88 21.35 21.76 21.87 21.74 21.93 21.88 22.36 22.71 22.93 23.57 23.58 23.45 24.16 26.10 26.10 26.86 25.83 24.62 23.92
23.52 23.77 24.16 24.71 24.78 25.49 25.19 24.17 23.92 23.65 23.27 23.26 24.65 26.40 27.26 28.11 29.17 29.16 27.75 22.95 21.74 21.63 22.26 21.91 22.23 21.92 21.90 21.96 21.81 22.12 22.21 22.11 23.20 22.55 23.06 23.52 25.89 25.68 25.74 25.67 25.41 26.42 24.61
23.50 25.62 26.09 24.82 24.12 23.90 23.58 23.36 23.26 23.22 23.30 23.38 22.96 23.11 24.28 25.56 24.54 23.02 23.22 22.92 22.41 22.37 22.14 21.72 21.91 22.13 21.82 21.53 21.63 21.80 21.82 21.96 21.86 22.22 22.70 24.03 25.89 25.55 24.45 24.11 23.40 22.78 21.97
23.14 22.99 25.63 23.74 22.83 23.48 23.56 23.20 23.63 23.66 22.45 22.42 22.44 23.69 26.91 23.81 22.00 21.80 22.05 22.23 22.02 21.94 21.99 22.00 21.81 21.82 21.64 21.44 21.49 21.63 21.55 21.49 21.97 22.57 23.33 25.67 25.36 24.16 23.42 22.73 21.91 21.60 22.21
22.92 22.89 22.97 22.83 23.49 23.15 23.49 24.29 23.01 22.51 22.09 21.20 21.79 22.61 25.23 22.42 21.91 21.83 22.04 22.13 22.57 22.98 23.13 22.52 21.81 21.72 21.56 21.55 21.58 21.23 21.12 21.20 22.09 23.27 24.55 25.83 24.35 23.41 22.14 21.37 21.47 22.54 23.05
23.10 22.59 22.64 22.80 23.18 24.24 22.43 22.89 21.80 21.31 21.15 21.14 21.21 21.21 21.38 21.14 21.27 21.47 21.74 22.20 22.42 22.54 23.02 22.77 21.88 21.28 22.01 22.20 22.69 22.63 21.67 21.99 23.64 25.49 25.33 23.67 22.21 21.74 20.80 19.92 19.85 21.54 22.16
23.52 22.83 22.31 22.45 22.22 22.19 21.17 20.34 20.94 20.87 20.89 20.27 20.18 20.34 20.47 20.73 21.04 21.00 21.16 21.78 22.26 22.49 22.60 21.99 21.60 20.96 21.39 21.94 22.74 23.36 24.24 25.63 28.94 24.59 21.67 21.37 21.08 22.15 22.33 22.20 21.98 20.67 21.43
22.90 22.30 21.80 21.13 20.40 19.74 19.21 19.04 19.38 19.37 19.09 19.09 19.31 19.87 20.62 20.60 19.96 20.52 21.37 21.92 22.05 21.39 21.08 21.22 21.28 21.79 21.65 21.63 22.32 23.98 26.74 30.14 27.66 23.17 22.46 21.64 23.11 22.40 22.15 22.69 22.64 23.35 22.96
21.94 21.15 20.14 19.46 18.74 18.68 18.47 17.99 17.90 18.30 18.32 19.19 19.83 19.89 19.31 19.28 20.25 20.69 21.08 21.24 20.22 20.46 20.56 21.15 21.32 21.55 21.75 23.02 24.44 28.48 29.85 28.75 26.77 26.24 24.49 24.49 24.21 25.11 25.12 24.29 25.95 27.06 28.15

GFSGL_sfc_wetblb_018.txt.gz
Wetbulb
42.19 41.31 40.50 39.37 38.87 39.01 38.62 38.44 38.38 38.42 38.17 37.79 37.61 37.46 37.40 37.29 37.60 37.35 37.28 37.41 37.15 37.65 38.45 38.23 37.86 39.60 37.91 37.52 37.57 37.31 36.35 36.56 34.52 37.10 39.02 40.78 39.80 41.16 42.37 42.67 43.69 43.11 44.42
40.71 39.60 38.62 38.36 38.49 38.16 37.71 37.71 37.73 37.25 37.67 37.11 36.83 36.56 36.51 36.46 36.61 36.06 35.87 36.56 36.50 36.44 36.92 36.98 36.60 37.14 36.24 36.56 36.41 35.65 36.29 37.24 35.84 33.80 36.71 37.80 37.98 39.15 40.72 40.45 41.17 41.71 41.84
39.08 38.50 38.09 37.70 37.60 37.23 37.09 37.06 36.95 36.65 36.61 36.60 36.27 35.63 35.41 35.46 35.21 35.63 35.71 36.05 36.47 36.62 36.58 36.07 35.79 35.58 34.70 35.44 35.58 35.79 36.67 36.43 36.81 35.29 34.48 37.52 37.96 38.98 38.14 38.78 38.80 39.15 40.42
37.66 37.39 36.83 36.60 36.59 36.61 36.62 36.32 36.04 36.06 35.69 35.51 35.47 35.10 34.96 34.81 34.83 35.00 35.18 35.72 36.00 36.24 36.29 36.15 35.49 34.84 34.46 34.45 34.89 34.78 35.35 34.83 35.47 34.51 34.48 34.84 35.94 37.19 37.27 35.99 35.77 38.32 38.29
36.73 36.42 35.67 35.81 36.08 36.08 35.80 35.68 35.62 35.38 35.19 35.12 34.45 34.51 34.62 34.46 34.35 34.07 34.68 34.88 34.89 34.91 35.58 35.21 35.26 35.38 35.72 36.06 35.20 34.74 34.31 33.79 33.85 33.57 32.95 32.93 32.78 33.31 32.88 35.12 33.95 35.24 36.26
35.79 34.95 34.92 34.97 34.78 34.88 35.05 34.70 34.73 34.69 34.74 34.50 34.12 33.82 33.52 33.61 34.44 34.54 34.71 33.94 34.25 34.17 33.42 34.10 34.60 34.84 35.15 36.39 36.57 36.43 35.32 33.32 32.72 32.85 31.96 30.01 30.98 32.25 33.51 32.94 32.63 31.32 29.49
34.64 34.03 33.81 33.90 33.72 34.00 34.15 33.90 33.79 33.72 34.16 33.76 33.62 33.37 32.80 33.13 33.94 34.03 34.47 33.75 33.76 33.62 33.33 33.15 33.30 34.14 34.74 34.34 35.23 35.60 35.76 36.68 35.66 32.31 30.70 30.90 30.99 32.52 33.10 32.03 32.31 31.91 31.41
33.83 33.51 33.36 33.15 32.92 33.40 33.35 33.35 33.54 33.68 33.28 33.02 32.84 32.62 32.26 32.33 33.02 33.42 33.73 33.52 33.40 33.35 33.27 33.21 32.85 33.14 34.15 34.06 33.78 33.51 34.39 33.50 33.68 33.41 32.37 32.45 33.22 34.26 33.60 32.86 32.67 33.10 34.41
32.98 32.61 32.62 32.65 32.20 32.44 32.44 32.58 32.96 32.66 32.52 32.29 32.13 31.65 31.10 31.31 32.47 32.45 33.06 32.73 32.14 32.18 32.91 33.15 33.12 32.96 34.14 34.53 32.97 32.88 31.37 31.77 33.11 33.26 33.85 34.39 33.91 33.79 33.46 31.99 31.02 29.21 29.94
32.21 31.97 32.48 32.48 32.00 31.79 32.15 32.10 32.53 32.40 31.54 31.65 31.18 31.58 31.40 30.70 32.30 32.84 33.05 32.35 30.74 31.46 32.21 32.59 33.82 33.36 34.06 34.49 32.66 30.58 28.58 29.04 30.05 31.08 31.74 31.46 31.23 31.92 33.02 31.65 31.51 28.21 28.83
32.05 32.05 32.21 32.41 31.92 32.01 32.09 32.24 31.85 31.28 30.83 30.69 30.31 30.94 31.12 31.79 31.87 33.04 33.12 31.55 31.08 31.19 31.70 32.00 32.55 33.47 33.99 33.10 32.35 30.07 29.47 30.05 29.94 29.28 28.46 28.57 29.42 30.38 30.90 31.80 31.29 29.32 27.37
31.55 31.37 31.62 31.97 31.70 31.48 31.44 31.53 31.22 30.55 29.52 29.24 29.20 29.65 31.25 31.84 32.31 32.41 32.97 32.96 32.78 30.69 30.19 31.84 32.11 32.99 31.69 31.09 30.73 31.23 30.99 30.33 28.67 26.87 26.41 26.72 27.10 27.51 28.83 29.91 30.05 30.30 30.76
31.00 31.00 31.21 31.45 31.54 31.83 30.83 30.03 29.55 29.62 28.54 28.10 28.21 28.48 29.28 30.42 31.10 32.31 32.70 32.89 33.01 30.57 31.46 32.21 32.57 30.93 30.18 29.60 30.11 29.84 29.35 27.71 26.44 25.36 25.46 25.72 26.85 27.63 28.53 29.17 30.23 30.61 30.89
30.15 30.59 31.01 30.65 30.53 30.93 30.55 30.10 28.96 28.38 27.84 27.72 27.85 27.80 28.43 28.91 29.75 30.92 31.10 32.15 32.05 31.58 32.09 30.93 29.92 29.39 29.02 28.64 27.82 28.14 27.78 27.02 25.84 25.54 25.46 26.36 27.07 26.80 27.09 28.43 27.95 29.10 29.09
30.08 30.39 30.28 30.13 30.14 29.72 29.66 29.22 28.51 29.30 29.04 27.58 28.15 28.21 27.76 27.28 28.68 31.13 30.75 29.90 30.40 30.94 30.02 28.45 27.01 26.21 25.00 25.51 26.01 26.29 26.74 26.33 25.39 25.52 24.79 24.56 25.18 26.05 26.55 28.25 28.26 28.91 28.63
28.88 29.53 29.40 29.12 29.40 28.63 28.09 28.19 30.32 30.19 30.43 30.31 30.26 29.60 29.31 30.42 31.10 31.34 30.91 31.02 31.84 30.78 27.12 24.85 23.91 24.31 23.82 23.99 23.84 24.18 24.96 24.94 24.56 24.48 24.27 24.50 24.56 24.84 25.07 26.98 29.04 29.00 26.25
28.09 28.34 28.93 28.79 28.09 27.47 27.38 26.91 25.92 28.70 30.02 29.75 29.71 29.79 29.92 30.07 30.18 29.95 30.32 30.82 29.74 28.46 23.99 23.79 23.50 23.55 23.42 23.59 23.47 23.23 22.81 23.68 24.37 23.92 23.87 24.04 23.65 24.37 26.03 27.69 27.36 26.86 25.85
28.45 27.98 27.83 27.80 27.81 27.44 27.21 26.96 26.74 25.39 24.77 26.09 29.13 29.27 29.45 29.34 28.96 29.34 29.72 28.51 24.54 25.18 24.30 23.59 22.95 23.33 23.13 22.84 22.96 22.68 22.59 22.92 23.01 23.52 23.29 23.38 24.09 24.80 25.96 26.02 26.58 27.08 25.58
27.67 27.79 27.77 27.97 27.81 27.52 27.24 26.59 26.34 25.94 25.47 25.62 26.93 27.70 28.58 28.22 28.70 28.99 28.23 23.97 22.72 23.11 23.56 23.30 23.66 23.23 23.04 23.13 22.91 22.42 22.23 22.25 23.20 22.62 23.07 23.64 24.60 26.39 25.55 25.62 25.11 25.38 24.67
28.04 27.27 27.16 27.04 26.96 26.59 26.23 25.75 25.43 25.33 25.17 25.17 24.71 24.90 25.69 26.22 25.25 24.39 24.23 24.00 23.39 23.21 23.43 23.13 23.39 23.48 23.13 22.84 22.40 22.24 22.01 22.01 21.95 22.74 23.61 24.89 26.40 26.82 25.39 23.96 23.24 23.14 23.93
27.24 26.85 26.91 26.51 26.14 25.99 25.58 25.12 25.38 25.22 24.15 24.13 24.01 25.17 26.94 24.39 23.14 22.76 23.14 23.25 23.24 23.44 23.20 23.35 23.27 23.22 23.06 22.78 22.41 21.97 21.53 21.64 22.85 23.91 24.85 25.39 26.88 25.45 24.57 23.93 23.67 25.37 25.74
26.84 26.36 26.14 25.70 25.78 25.24 25.26 25.57 24.86 24.26 23.64 23.21 23.77 24.22 25.85 23.69 23.17 22.88 23.00 23.51 24.02 24.23 24.32 23.94 23.33 23.11 23.05 22.57 22.21 21.74 21.81 22.50 23.76 24.86 25.50 26.31 25.72 25.02 25.05 24.26 24.12 25.74 26.56
26.61 26.13 25.86 25.64 25.38 25.51 24.71 24.90 23.92 23.53 23.10 22.87 23.04 22.78 22.27 22.05 22.02 22.72 22.59 23.04 23.52 23.77 24.28 23.95 23.01 22.64 23.31 23.38 23.99 24.24 23.40 23.71 25.33 27.08 26.19 23.73 24.54 25.66 25.76 25.67 25.46 25.35 25.77
26.83 26.10 25.15 24.80 24.30 24.13 23.57 23.06 23.11 22.73 22.46 21.88 21.56 21.23 21.20 21.72 21.57 21.50 22.13 23.13 23.30 23.46 23.55 23.05 22.92 22.66 23.19 23.71 24.61 25.51 26.80 28.21 29.99 28.45 25.13 24.57 25.75 26.63 26.55 26.51 26.72 26.05 26.04
26.12 25.01 24.08 23.46 22.85 22.45 22.15 22.01 21.73 21.51 20.89 20.47 20.35 20.60 21.15 21.22 20.66 21.75 22.59 22.79 22.71 21.98 21.90 22.22 23.17 23.42 23.51 23.25 24.12 25.92 28.20 29.86 28.77 28.12 27.93 27.12 27.34 27.62 27.75 27.55 27.50 28.23 27.56
24.46 23.34 22.71 22.61 22.07 21.88 21.26 20.64 20.60 20.56 20.27 20.60 20.83 21.06 20.66 20.60 21.53 22.00 22.04 21.56 21.23 21.12 21.33 22.25 22.73 23.28 23.49 24.51 25.86 28.23 29.70 30.07 31.24 31.05 28.78 28.82 28.52 29.14 29.56 29.66 29.48 29.43 29.51

GFSGL_sfc_wetblb_021.txt.gz
Wetbulb
44.67 43.84 42.57 41.38 41.01 41.00 40.14 39.45 38.98 38.88 38.62 38.28 38.00 37.78 37.72 37.54 37.66 37.25 37.02 37.23 36.70 37.03 37.83 37.62 37.34 37.94 37.29 37.46 37.33 36.74 35.64 35.33 31.29 33.81 36.52 38.25 37.40 37.20 38.32 39.30 39.75 40.02 40.53
43.31 42.23 41.11 41.01 40.66 39.85 38.91 38.48 38.43 37.86 38.16 37.79 37.54 37.12 36.98 36.79 36.71 35.91 35.48 36.04 35.51 35.61 36.40 36.49 36.22 37.08 36.03 36.39 35.83 35.00 34.70 34.96 32.90 31.15 33.92 34.57 35.06 36.65 37.01 36.90 37.85 39.36 38.55
41.89 41.20 40.48 39.68 39.16 38.40 37.97 37.86 37.78 37.39 37.13 37.27 37.01 36.24 35.92 36.00 35.71 35.49 35.42 34.76 35.12 35.60 35.75 35.56 35.40 35.50 34.40 34.60 34.48 33.76 34.02 34.79 34.31 32.28 31.31 34.13 34.56 35.81 35.13 35.35 34.66 35.69 38.14
40.42 39.77 38.84 38.21 37.82 37.53 37.42 37.22 36.99 36.91 36.45 36.42 36.32 35.86 35.73 35.56 35.53 35.31 34.53 34.19 34.52 34.93 35.45 35.41 35.45 34.79 33.88 33.53 33.38 33.34 34.02 33.14 32.88 32.04 31.35 31.80 32.97 34.36 33.90 31.10 30.73 33.93 33.72
38.88 38.12 37.27 37.31 37.29 36.94 36.64 36.47 36.47 36.34 36.25 36.28 35.67 35.59 35.73 35.56 35.19 34.66 34.11 33.61 33.40 33.54 34.34 34.99 35.21 35.88 36.36 35.63 33.96 33.32 32.80 32.18 31.34 30.64 30.57 30.95 31.53 29.71 29.00 30.45 29.57 30.76 31.82
37.65 36.58 36.50 36.20 35.96 35.91 35.85 35.55 35.52 35.57 35.71 35.75 35.34 35.14 34.63 34.71 36.38 36.10 34.81 32.89 32.97 32.74 32.78 33.89 34.45 35.46 35.16 36.21 36.24 36.31 35.19 31.57 30.10 30.03 29.95 29.70 28.10 28.86 28.98 28.95 28.73 27.88 26.13
36.44 35.67 35.26 35.24 34.86 34.94 35.05 34.82 34.75 34.83 35.26 34.77 34.78 34.56 33.79 33.83 35.66 35.48 34.96 32.63 32.21 32.77 32.68 32.73 32.95 34.13 34.26 33.43 34.93 35.73 35.13 35.53 35.49 31.17 28.79 28.10 26.95 28.32 29.32 28.63 29.41 28.30 26.69
35.28 34.94 34.78 34.42 33.99 34.27 34.18 34.12 34.48 34.56 34.13 33.84 33.79 33.67 32.98 33.24 34.87 34.55 34.21 32.61 32.48 32.68 32.64 32.62 32.15 32.21 33.03 33.07 32.43 31.89 32.77 32.81 31.85 31.89 30.62 29.59 29.94 31.07 31.25 30.36 28.51 28.59 30.01
34.47 34.25 34.02 33.81 33.19 33.31 33.08 33.30 33.77 33.54 33.28 33.03 33.10 32.54 32.06 32.07 34.00 34.08 33.51 32.09 31.67 31.49 32.35 32.48 32.07 31.93 34.07 34.88 32.00 31.02 29.00 29.15 32.63 33.62 33.62 33.66 33.62 33.66 32.60 29.20 26.79 26.18 24.78
33.70 33.37 33.76 33.72 33.13 32.68 32.83 32.84 33.35 33.30 32.65 32.67 32.09 32.44 33.02 31.50 33.84 34.21 33.58 31.90 30.33 30.51 31.43 32.14 33.71 32.55 34.28 34.81 31.06 28.45 25.91 26.66 28.69 28.70 28.76 29.33 30.20 29.71 31.97 29.62 28.41 24.96 24.63
33.51 33.48 33.44 33.61 33.10 33.07 32.77 33.09 32.79 32.32 31.97 31.51 31.01 31.67 31.74 32.56 32.61 34.21 34.11 31.59 30.54 29.80 29.90 30.07 31.19 33.38 34.10 33.81 32.67 28.27 27.33 30.06 28.74 26.78 26.08 26.58 27.17 27.94 28.39 28.79 28.75 27.00 24.85
33.14 32.79 32.94 33.15 33.18 32.95 32.50 32.55 32.08 31.44 30.48 29.95 29.83 29.99 31.63 32.18 33.34 33.23 33.92 33.58 33.05 29.85 28.99 29.94 30.47 34.06 32.23 31.70 30.39 30.95 31.31 30.25 26.15 25.19 24.93 24.83 24.99 25.38 26.40 27.09 27.58 27.84 28.64
32.41 32.34 32.51 32.86 32.90 32.89 31.63 30.99 30.54 30.44 29.35 28.72 28.47 28.43 29.11 30.70 30.91 32.74 32.90 33.00 32.97 30.19 30.16 31.10 33.63 31.15 30.59 29.26 29.54 30.10 29.55 25.52 24.83 24.18 24.04 23.82 24.78 25.57 26.13 26.33 27.57 28.29 28.27
31.56 31.78 32.23 31.78 31.87 31.87 31.93 31.34 30.07 29.25 28.29 27.84 27.43 27.24 27.78 28.30 28.95 29.76 30.01 30.29 31.47 30.31 31.28 30.97 29.60 29.27 29.22 28.02 27.01 26.72 25.59 25.37 24.81 24.00 23.59 24.21 24.99 24.71 24.76 26.40 25.89 26.35 26.30
31.07 31.23 31.43 31.46 30.90 30.65 30.86 30.37 29.56 30.09 29.80 27.80 27.89 27.86 26.40 26.03 27.88 30.89 30.55 28.89 28.89 30.20 29.73 27.15 25.57 24.50 23.46 23.78 24.04 24.24 24.43 24.66 24.15 23.87 23.20 22.82 23.32 24.00 24.21 25.53 25.95 27.39 26.62
29.60 30.33 30.65 30.14 30.38 30.16 29.39 29.27 32.10 32.05 32.17 31.72 31.41 30.07 29.51 30.85 31.59 31.52 31.07 30.84 31.52 30.91 26.34 23.55 22.38 22.56 22.08 22.19 22.03 22.25 23.29 23.97 23.29 23.09 22.71 22.71 22.72 22.76 23.03 25.29 27.67 27.35 25.59
28.91 29.13 29.45 29.30 29.03 28.52 28.38 27.59 26.20 29.29 31.16 31.24 31.30 31.29 31.17 30.76 30.75 30.29 30.32 30.60 29.98 28.52 23.25 22.48 22.06 21.99 21.63 21.82 21.98 22.22 21.74 22.74 23.34 22.59 22.32 22.82 22.68 23.19 24.06 25.57 25.09 25.55 25.33
29.34 30.16 29.13 28.87 28.52 28.26 27.83 27.36 27.21 25.93 25.15 26.43 29.81 30.14 30.40 30.22 29.61 29.56 29.75 28.35 23.84 24.66 23.20 22.10 21.64 21.82 21.81 21.75 22.21 22.07 22.09 22.19 21.92 22.28 22.42 22.13 22.98 23.41 24.04 24.22 23.63 23.03 23.43
28.52 28.71 28.73 28.31 28.12 28.29 27.85 27.28 26.81 26.34 25.81 25.89 26.89 27.95 28.72 29.03 29.15 28.94 28.11 23.58 22.16 22.02 22.40 22.20 22.41 22.05 22.11 22.56 22.65 22.43 22.09 21.55 22.55 21.66 21.90 22.78 23.73 24.31 24.50 24.29 23.45 25.54 26.44
29.09 29.42 28.85 27.60 27.24 26.96 26.87 26.24 25.70 25.61 25.33 25.18 24.69 24.58 25.62 25.85 24.02 23.17 23.70 23.32 22.58 22.50 22.42 21.87 22.05 22.45 22.74 22.65 22.41 22.07 21.50 21.25 21.31 21.85 22.69 23.83 24.91 25.67 24.69 24.21 23.51 23.04 24.67
28.12 27.90 28.63 27.26 26.70 26.60 26.08 25.60 25.65 25.10 24.49 24.26 24.06 25.52 27.91 24.28 22.49 22.42 22.39 22.46 22.29 22.02 21.81 22.16 22.27 22.57 22.73 22.49 22.17 21.64 21.19 21.38 22.09 22.77 23.53 24.80 25.42 23.49 25.14 25.61 24.90 25.27 26.44
27.30 27.15 26.85 26.28 26.42 25.92 25.72 25.86 25.21 24.71 24.09 23.52 23.69 24.43 26.36 23.20 22.37 22.10 22.35 22.25 22.37 22.78 23.26 22.78 22.34 22.50 22.49 22.44 22.35 22.06 21.81 21.81 22.81 24.11 25.14 25.66 23.68 23.90 26.11 25.83 25.96 25.94 26.14
26.65 26.55 26.53 26.37 26.03 26.16 25.01 25.02 24.34 23.97 23.45 23.15 23.03 22.48 22.32 21.84 21.78 21.77 21.46 21.83 22.48 22.54 23.09 22.77 22.27 22.08 22.86 23.42 23.85 23.66 22.71 23.22 25.44 27.61 25.82 24.58 23.51 24.28 26.72 26.28 26.37 25.16 24.87
26.90 26.74 25.87 25.26 24.58 24.36 23.80 23.28 23.39 23.57 22.93 22.40 21.79 21.64 21.40 21.40 21.20 20.84 21.46 22.26 22.19 22.31 22.28 22.12 22.33 22.12 22.83 22.97 23.60 24.23 25.27 26.65 29.43 28.76 28.29 26.45 25.47 26.71 27.11 26.66 27.06 26.48 25.50
26.78 25.73 24.51 23.60 23.07 22.78 22.61 22.46 22.22 22.01 21.74 21.31 21.08 21.17 21.29 21.11 20.70 21.22 21.67 21.82 21.36 21.11 21.08 21.30 22.03 22.53 22.46 22.24 22.94 24.73 26.57 31.65 31.01 31.23 30.11 28.18 27.87 28.35 29.16 28.36 28.50 26.54 24.07
25.17 23.96 23.03 22.85 22.37 22.23 21.72 21.23 21.11 21.08 20.71 20.98 21.21 20.94 20.71 20.69 20.90 21.25 21.16 20.48 20.42 19.93 20.05 20.84 21.20 21.52 21.92 23.48 25.02 27.43 30.92 32.69 32.60 32.74 31.08 29.68 29.23 29.47 28.76 29.34 29.06 28.80 28.68

GFSGL_sfc_wetblb_024.txt.gz
Wetbulb
39.70 38.33 36.85 36.46 36.53 35.97 34.97 34.42 34.13 34.41 33.93 33.77 33.88 33.47 33.33 33.29 33.06 32.04 31.67 32.73 32.21 31.44 32.38 33.04 33.27 34.03 33.70 33.53 33.76 33.40 32.16 31.62 28.41 30.59 32.41 33.59 33.69 33.25 34.36 35.30 36.56 36.21 37.13
38.57 37.38 36.63 36.45 35.77 34.44 33.95 33.88 34.34 32.97 33.64 33.38 33.34 33.06 32.91 32.91 32.29 31.28 31.21 31.51 30.53 30.71 31.56 31.99 32.07 34.33 32.32 32.92 32.39 31.45 31.19 31.46 29.39 27.28 30.92 31.80 31.50 33.00 33.31 32.99 35.29 36.90 35.60
37.90 36.63 35.76 34.91 34.00 33.19 33.01 33.68 33.70 33.14 32.52 32.68 32.90 32.27 32.29 32.79 32.32 31.46 31.88 30.36 30.83 31.08 31.39 31.29 31.49 31.71 31.14 31.67 31.06 30.51 30.90 31.88 31.35 30.45 29.03 31.43 31.75 32.28 32.05 33.29 33.76 32.99 34.22
36.71 35.57 34.24 33.45 32.98 32.81 32.98 33.06 33.02 32.69 32.16 31.96 32.15 32.36 32.51 32.54 32.53 32.60 31.35 30.71 30.55 31.20 31.54 31.58 31.47 31.44 31.09 30.91 31.10 30.97 32.11 31.16 30.37 29.35 29.67 29.63 29.88 31.33 31.73 30.31 28.12 29.88 28.92
35.35 34.56 33.41 33.60 33.30 33.13 32.79 32.94 32.98 32.45 32.37 32.20 32.05 31.85 31.73 32.39 33.79 32.26 32.24 30.63 29.85 30.01 30.56 31.07 31.96 33.69 36.34 34.89 32.80 31.54 31.18 29.74 29.73 30.58 29.10 28.37 28.76 27.85 27.03 27.78 25.77 26.81 28.10
34.16 33.46 34.01 33.35 32.93 32.67 32.31 32.06 31.29 31.03 30.79 31.10 30.66 30.63 29.92 33.06 36.21 36.68 35.20 30.95 29.97 29.49 28.98 30.47 31.20 33.01 33.19 35.70 35.56 35.63 34.47 31.14 29.72 28.85 28.35 26.77 25.80 26.38 27.25 26.04 25.37 24.66 23.56
33.38 33.22 33.40 32.92 32.32 31.90 31.38 30.61 29.90 29.38 29.50 29.15 29.03 29.18 28.34 28.60 35.52 36.28 35.97 31.29 29.69 29.37 29.42 29.61 30.00 31.84 32.08 30.47 33.40 35.24 35.06 35.44 34.47 29.68 25.57 25.14 24.92 27.29 28.01 26.40 26.72 26.70 26.04
32.84 33.74 33.55 32.26 30.97 30.36 29.51 28.86 28.43 28.75 28.07 27.71 27.87 28.11 27.83 30.08 35.02 35.31 35.33 30.65 29.66 29.50 29.74 29.66 29.35 29.31 30.58 31.94 31.27 30.90 31.04 31.04 29.43 29.60 28.01 28.44 29.55 29.67 29.25 28.51 27.31 26.29 26.68
32.60 31.97 31.46 30.62 29.32 29.10 28.03 27.33 27.77 27.47 27.05 26.75 28.17 27.83 26.89 28.00 34.05 34.80 33.82 29.97 29.50 29.04 30.03 30.25 30.39 30.17 33.14 34.40 31.00 30.40 28.21 27.67 30.90 32.35 33.33 33.66 32.65 32.37 31.41 27.81 25.04 24.13 22.17
31.05 30.55 30.13 30.01 28.94 27.66 27.19 27.02 27.57 27.33 28.09 29.13 28.58 27.66 29.83 27.59 32.80 34.73 33.69 30.46 28.69 28.58 29.37 29.97 32.68 31.73 33.63 34.38 30.50 27.90 25.41 24.75 26.69 28.29 26.35 26.45 28.03 27.47 31.04 27.94 26.43 23.10 22.36
30.69 30.45 30.03 29.29 28.14 27.80 27.41 27.18 26.76 26.27 26.79 25.64 26.37 26.34 25.98 27.77 29.22 34.09 34.05 30.38 29.00 28.48 28.40 28.09 28.97 32.35 34.18 33.50 32.70 27.02 26.41 29.16 27.90 23.84 23.63 24.22 25.25 26.05 26.45 26.85 26.93 25.23 22.61
29.84 29.51 28.69 27.90 29.38 30.27 26.58 26.11 26.05 25.32 24.33 24.07 24.20 25.46 27.05 27.53 31.84 32.03 33.32 33.10 32.66 28.79 27.78 27.80 28.24 32.97 31.93 31.43 29.43 30.50 31.02 29.61 23.83 22.92 23.17 23.73 23.24 23.14 24.17 25.17 25.91 26.14 26.74
27.99 27.16 27.20 28.03 28.16 27.79 25.81 25.10 24.58 24.60 23.40 23.54 24.45 24.57 25.24 27.44 27.45 31.50 32.27 32.85 32.60 29.28 28.21 30.16 32.76 31.06 29.95 27.62 28.68 29.41 28.84 23.24 22.98 22.74 22.88 22.20 23.16 23.89 24.55 24.70 25.78 26.73 26.96
26.22 26.08 26.78 26.19 27.53 26.31 26.79 26.02 24.00 23.11 23.48 24.58 24.72 24.52 24.91 25.54 25.98 27.13 28.71 28.84 30.52 28.87 30.37 29.38 28.41 28.02 27.97 26.91 25.28 24.72 23.42 23.67 23.79 23.35 22.71 23.24 23.85 23.41 23.23 24.67 23.72 24.40 25.41
25.31 25.31 25.78 26.30 25.27 24.81 25.27 24.30 23.41 24.34 26.47 26.52 26.02 25.65 24.59 24.60 26.65 31.31 30.64 28.40 28.21 29.40 28.89 24.83 22.81 22.26 21.42 21.67 22.07 22.43 23.40 23.66 23.42 23.16 22.41 21.93 22.14 22.68 22.81 24.06 24.97 25.72 23.99
24.13 24.87 24.69 24.45 24.05 24.21 23.25 24.86 30.37 31.48 32.11 32.04 31.91 30.12 28.63 31.12 32.00 31.79 31.28 31.15 31.15 30.35 24.65 21.23 20.51 20.55 20.29 20.84 21.03 21.61 22.51 23.44 22.82 22.55 21.90 21.64 21.52 21.50 21.73 24.29 24.90 23.97 22.55
22.84 23.65 23.49 24.85 23.07 22.15 23.54 23.26 22.72 26.51 30.51 30.61 30.93 31.10 31.27 30.95 30.81 30.44 30.62 30.33 29.09 27.55 21.17 20.61 20.43 20.60 20.56 20.95 21.39 21.64 21.20 22.34 22.88 21.82 21.48 21.64 21.34 21.33 22.74 22.85 24.37 23.67 22.48
23.76 29.22 24.43 23.18 22.77 23.01 23.34 23.47 23.43 22.76 22.23 23.29 28.00 29.33 29.81 29.88 29.55 29.83 29.63 27.46 21.93 23.08 21.33 20.90 20.28 20.43 20.77 21.20 21.62 21.55 21.58 21.61 21.23 21.77 21.51 21.15 21.84 22.25 22.46 23.27 23.84 22.76 23.28
23.65 23.15 23.31 23.31 23.21 24.95 24.14 23.45 23.12 23.01 22.64 22.56 23.70 26.10 27.25 28.69 29.27 28.65 27.66 21.76 20.78 20.59 21.02 20.45 20.68 20.93 21.58 21.94 21.96 21.64 21.24 20.76 22.18 20.75 21.14 21.72 22.48 22.92 23.22 23.28 23.93 26.02 26.17
23.48 28.48 28.23 23.60 22.86 22.55 22.44 22.87 22.79 22.49 22.13 22.18 21.98 22.05 23.25 24.54 21.74 20.93 21.55 21.55 20.98 20.76 20.38 20.19 21.17 21.67 21.74 21.64 21.28 20.92 20.64 20.53 20.56 20.99 21.60 22.26 23.26 24.48 22.20 22.62 24.27 23.82 24.09
22.61 22.61 27.80 22.80 22.09 22.46 22.80 22.59 22.59 22.15 21.72 21.69 21.63 23.41 27.71 22.93 20.02 20.12 20.37 20.95 20.26 19.94 20.34 21.13 21.16 21.50 21.57 21.11 20.84 20.63 20.56 20.38 21.08 21.72 22.32 23.79 25.07 23.08 23.05 23.74 25.07 25.49 25.43
22.22 22.06 22.28 21.94 22.60 22.29 22.37 22.81 22.07 21.91 21.53 20.95 21.24 22.52 25.96 21.25 20.45 20.36 20.84 20.05 20.40 21.39 22.07 21.69 21.36 21.29 21.34 21.12 20.96 20.76 20.06 19.92 20.98 22.04 23.05 25.77 25.26 24.38 23.29 24.93 25.10 24.88 24.24
22.02 21.82 22.09 21.84 21.96 24.26 21.41 21.57 21.10 21.01 20.96 20.90 20.81 20.95 20.88 20.47 20.50 20.26 19.60 20.31 21.13 21.47 21.90 21.50 21.10 20.76 21.26 21.72 22.02 21.64 20.91 21.04 22.62 23.72 25.33 26.83 26.21 24.90 25.67 25.51 25.59 25.13 25.05
22.06 21.58 21.14 20.28 19.97 21.33 20.11 20.19 20.59 21.84 21.37 20.88 20.29 20.25 20.29 20.47 19.87 19.53 20.18 20.72 21.10 20.95 20.82 20.69 20.70 20.25 20.72 20.89 21.77 22.57 23.34 24.35 25.82 29.21 29.85 28.35 25.92 26.20 26.97 26.88 25.83 22.99 25.36
21.62 20.60 19.56 18.31 18.71 19.00 19.17 19.24 19.58 19.73 20.00 19.98 19.80 20.32 20.30 19.95 19.40 19.56 20.18 20.51 19.98 19.77 19.29 19.43 20.19 20.48 20.16 20.61 21.28 22.62 24.55 30.09 32.30 31.62 31.12 27.94 25.50 25.42 26.74 25.68 24.78 25.94 24.04
20.34 19.36 18.43 17.90 17.42 17.73 18.34 18.12 18.03 18.69 18.78 19.57 20.11 19.54 19.65 19.32 19.25 19.48 19.39 19.18 18.87 18.12 18.07 19.14 19.53 19.73 20.22 21.61 22.93 25.72 30.85 33.96 33.82 34.55 31.54 29.62 28.27 27.00 26.82 25.99 26.75 26.28 25.42

GFSGL_sfc_wetblb_027.txt.gz
Wetbulb
36.43 35.34 34.76 34.57 34.31 33.56 32.90 32.47 32.21 32.32 32.10 32.05 31.95 31.72 31.68 31.61 31.45 30.36 30.07 30.68 29.72 28.80 29.03 30.26 30.32 31.22 31.06 31.48 31.76 31.66 30.93 30.01 26.61 29.14 31.20 32.05 31.73 32.22 33.04 33.47 34.61 33.78 34.40
35.94 35.21 34.56 34.25 33.23 32.21 31.91 32.18 32.50 31.51 31.78 31.56 31.86 32.11 31.66 32.02 31.46 30.06 29.17 29.13 28.23 28.21 28.87 29.18 29.61 31.85 29.90 30.52 30.68 30.22 29.89 30.21 28.37 26.36 29.44 30.49 31.03 31.98 31.95 31.98 32.97 34.46 34.62
35.55 34.37 33.55 32.70 32.06 31.25 31.29 32.14 32.28 31.63 31.24 31.81 31.76 31.58 31.64 32.02 30.95 29.94 29.53 28.51 28.73 28.59 28.75 28.99 29.36 29.34 28.64 29.51 29.84 29.69 30.18 31.27 30.87 29.61 29.18 30.74 30.57 32.23 31.13 31.29 31.18 31.89 33.39
34.60 33.39 32.27 31.73 31.44 31.28 31.67 31.81 31.81 31.59 31.08 31.10 31.57 31.38 31.32 30.76 30.73 30.57 29.62 29.02 28.33 29.00 29.52 29.53 29.36 29.18 28.99 29.53 30.10 30.06 31.34 29.83 29.36 28.11 27.97 29.70 29.44 30.71 30.81 27.00 26.19 28.45 28.15
33.57 32.76 32.04 32.03 32.08 31.73 31.73 31.31 31.43 31.18 31.34 31.09 30.50 29.98 29.69 30.48 32.62 31.99 31.70 29.93 27.88 27.54 28.30 29.44 30.20 31.66 34.19 33.54 31.60 29.76 29.30 28.54 29.29 29.86 28.11 28.50 27.85 25.20 24.10 25.81 24.74 26.67 27.76
32.59 32.13 32.64 32.09 31.79 31.24 31.01 30.54 30.13 30.00 29.39 29.03 28.41 28.19 27.69 31.35 35.21 36.20 34.94 30.76 28.54 27.73 27.51 29.18 29.67 31.93 31.72 34.72 34.51 34.86 33.87 30.23 28.56 28.78 28.07 24.87 24.35 24.79 25.54 25.04 25.69 25.40 23.46
31.86 31.88 32.43 33.47 31.41 30.89 30.38 29.59 28.56 27.80 27.06 26.72 26.81 26.91 26.36 26.49 34.90 35.82 35.83 31.27 28.79 27.37 27.96 28.33 28.93 30.85 31.39 29.46 32.56 34.30 33.71 35.07 34.61 30.14 26.14 24.96 24.61 25.38 26.73 27.37 26.21 24.65 24.20
31.48 32.54 33.24 31.68 30.39 29.59 28.52 27.44 26.37 26.46 25.92 25.59 25.88 26.13 25.56 28.16 34.37 34.82 35.16 30.38 27.96 27.42 27.82 28.28 28.18 28.59 29.85 30.92 29.90 29.82 31.00 30.95 29.38 29.33 27.49 27.33 28.67 29.80 28.27 27.06 25.77 25.52 26.00
31.03 30.53 30.61 30.22 28.80 28.11 26.35 25.55 25.79 25.50 25.09 24.84 25.99 25.37 24.36 25.17 33.00 34.04 33.14 29.22 28.59 28.03 29.04 28.79 29.91 29.14 32.10 33.40 30.07 29.94 27.77 26.98 30.06 32.00 33.02 32.73 31.62 31.48 30.41 26.88 24.29 22.91 20.93
30.08 30.08 29.75 29.35 27.88 26.15 25.47 25.29 25.71 25.07 25.93 26.53 26.08 25.10 27.74 24.32 31.08 33.28 32.36 29.16 27.47 27.44 28.54 29.06 31.70 30.38 32.64 34.25 30.01 27.24 23.51 23.71 26.36 27.55 24.59 25.32 27.15 26.90 30.38 27.03 25.15 21.02 20.70
30.01 29.58 29.19 28.19 26.65 26.28 25.62 25.06 24.68 24.42 24.31 22.96 22.70 22.91 23.45 25.46 27.06 32.69 32.94 29.31 27.97 28.53 27.38 26.98 27.44 31.78 34.56 32.32 31.66 25.19 25.12 28.57 26.88 22.77 22.77 23.61 24.66 25.32 25.26 25.41 25.89 23.97 21.29
29.08 28.73 27.80 26.41 27.85 28.55 24.93 24.46 24.02 23.31 22.09 21.37 20.99 22.51 23.74 24.71 30.21 31.29 32.78 32.86 32.61 28.50 27.05 26.83 27.79 33.00 30.97 30.10 28.17 29.74 30.30 28.89 23.35 22.44 22.47 22.77 22.68 22.84 23.98 24.97 25.64 25.70 26.17
27.26 25.94 25.85 26.74 26.38 25.81 24.09 23.64 22.76 22.45 21.36 22.56 22.86 23.86 24.55 26.04 25.34 31.12 32.25 32.91 32.41 29.09 28.07 30.26 30.99 29.65 28.58 26.46 27.82 28.68 28.22 22.79 22.75 22.26 21.90 21.78 22.86 23.96 24.59 24.36 25.32 26.06 26.25
24.90 25.02 25.24 24.57 26.48 24.40 24.55 23.96 21.69 21.09 21.18 24.10 24.55 24.29 24.10 25.10 25.64 26.84 28.68 28.13 30.21 29.33 29.98 26.45 26.84 26.81 26.97 26.01 24.57 24.38 23.56 23.71 23.54 22.67 22.01 22.70 23.62 23.13 22.75 24.05 22.93 23.49 24.33
24.27 23.77 23.42 24.36 23.23 22.86 23.34 21.92 22.02 22.96 25.97 25.70 25.17 25.19 23.99 24.17 26.29 30.87 30.03 28.00 28.43 28.99 27.74 23.30 21.81 21.55 20.73 21.25 22.11 22.58 23.02 23.19 22.75 22.45 22.03 21.53 21.86 22.29 22.31 23.25 23.11 23.86 22.35
23.18 23.64 23.26 23.45 22.25 22.54 21.00 22.06 28.66 30.14 31.00 31.00 30.89 29.11 27.58 30.35 31.32 31.17 31.04 31.11 30.68 29.51 23.74 20.38 19.84 20.13 19.86 20.32 20.47 21.01 22.00 22.71 22.13 22.03 21.47 21.32 21.23 21.23 21.14 23.13 23.57 23.17 22.98
22.07 22.76 22.42 23.12 21.28 20.26 20.92 21.92 21.34 25.02 29.40 29.56 29.73 30.02 30.19 30.03 30.06 30.11 30.41 29.65 28.04 26.80 20.41 20.00 19.51 19.59 19.71 20.27 20.67 21.00 20.42 21.42 22.15 21.05 20.83 21.60 20.90 20.94 22.05 21.95 23.16 23.52 22.82
22.66 27.86 23.40 21.69 21.69 21.47 21.45 21.82 22.10 21.73 21.16 22.08 26.64 28.02 28.84 28.99 29.07 29.52 28.62 26.25 20.71 22.01 20.51 19.53 19.10 19.67 20.20 20.60 20.85 20.55 20.59 20.51 20.19 20.87 21.42 20.44 21.09 21.13 20.92 22.10 22.06 22.43 24.43
22.76 22.32 22.51 22.55 22.37 24.49 22.83 22.26 22.08 21.99 21.58 21.33 22.44 24.94 26.18 27.85 28.79 27.61 26.57 20.35 19.62 19.67 19.47 19.26 20.06 20.38 20.83 20.95 20.76 20.42 19.92 19.74 21.39 20.37 20.34 20.80 21.36 21.68 22.00 22.06 21.82 25.85 26.82
22.24 27.05 27.01 22.73 22.08 21.85 21.96 21.93 21.95 21.57 21.00 20.84 20.76 21.03 22.26 24.22 20.73 19.94 20.62 20.50 20.01 19.34 19.44 19.68 20.45 20.99 20.66 20.39 20.00 19.64 19.37 19.35 19.31 19.61 20.12 20.95 21.64 23.24 23.57 22.41 22.08 22.99 23.93
21.40 21.53 27.07 21.17 21.47 22.06 21.90 21.74 21.49 20.62 20.37 20.43 20.50 22.51 27.13 22.31 19.21 19.48 19.62 19.84 19.22 19.41 19.96 20.61 20.40 20.21 20.33 19.93 19.41 19.14 18.93 19.12 19.53 20.28 20.26 21.50 22.36 24.32 25.20 24.34 23.36 24.77 24.24
21.58 21.28 21.60 21.35 22.34 21.75 21.52 21.70 20.51 20.50 20.24 19.82 20.25 21.70 25.23 20.57 20.00 19.80 19.85 19.44 20.10 20.86 21.26 20.89 20.12 19.84 19.99 19.52 19.38 19.02 18.60 18.67 19.75 20.68 20.79 21.41 22.55 26.47 25.63 24.39 24.95 25.01 25.05
21.53 21.04 20.96 20.94 21.02 22.85 19.70 20.07 19.67 19.85 19.88 19.98 19.94 20.07 20.11 19.82 19.84 19.15 19.11 19.83 20.36 20.40 20.92 20.48 19.97 19.45 19.85 20.41 20.94 20.63 19.65 19.92 21.25 21.87 21.54 22.76 26.44 25.83 26.11 24.92 24.98 24.84 24.11
21.21 20.47 20.04 19.14 18.79 19.85 18.54 19.08 19.31 20.63 20.22 19.58 19.49 19.64 19.48 19.43 18.72 18.90 19.41 19.63 19.81 19.70 19.82 19.68 19.50 18.86 19.48 20.07 20.92 21.71 22.12 22.85 23.88 26.23 29.62 29.43 26.60 26.01 25.69 25.31 24.04 25.10 25.25
20.14 19.04 18.17 16.98 17.22 17.58 17.76 17.90 18.49 18.59 18.62 19.28 19.38 19.59 18.89 18.75 18.79 18.92 18.85 19.07 18.77 18.47 18.23 18.48 18.87 19.66 19.78 20.00 20.27 21.22 23.29 28.84 31.64 32.07 31.96 29.35 28.01 26.64 25.39 24.28 23.27 24.69 23.81
18.93 18.02 17.27 16.84 16.28 16.83 17.05 16.84 16.77 18.05 18.59 18.79 18.71 17.70 18.40 18.55 18.70 18.23 18.21 17.76 17.40 17.00 16.75 17.78 18.92 19.20 19.55 20.41 21.62 24.79 30.17 33.11 34.15 34.05 31.34 29.87 29.51 27.99 27.09 24.67 25.50 23.08 23.48

GFSGL_sfc_wetblb_030.txt.gz
Wetbulb
34.78 33.89 33.33 32.95 32.68 32.21 31.65 31.28 31.26 31.08 30.83 30.84 30.62 30.40 30.31 30.24 30.23 29.09 28.79 29.27 28.20 27.47 27.82 27.97 28.32 28.92 29.11 29.20 29.52 29.46 28.79 28.62 25.51 27.95 30.21 31.31 30.77 31.08 32.34 33.01 33.79 32.91 33.73
34.27 33.63 32.92 32.56 31.85 31.07 30.97 31.12 31.30 30.42 30.60 30.16 30.47 30.42 30.29 30.46 30.12 29.18 28.15 27.71 26.98 27.07 27.43 27.45 27.69 30.66 27.90 28.42 28.53 28.09 28.39 28.97 27.44 25.75 29.01 29.78 29.81 30.93 31.00 30.64 32.78 34.23 32.83
34.18 32.94 32.10 31.50 30.94 30.26 30.46 30.96 31.15 30.36 29.90 30.20 30.24 30.08 30.13 30.57 29.82 28.90 27.97 27.51 27.54 27.54 27.37 27.26 27.57 27.67 27.09 27.78 27.98 27.95 28.82 30.28 29.74 27.47 26.34 29.04 29.33 30.64 30.36 31.06 29.65 29.00 30.60
33.24 32.06 31.17 30.81 30.44 30.26 30.62 30.67 30.82 30.47 29.55 29.68 29.71 29.83 29.93 29.20 28.94 28.88 28.87 28.19 27.66 28.06 28.23 28.21 27.88 27.69 27.43 27.73 28.91 28.70 30.09 27.92 27.75 27.08 27.24 28.77 28.95 29.89 30.51 25.84 24.96 27.04 26.49
32.34 31.78 30.99 30.87 30.80 30.68 30.45 30.23 30.02 30.10 29.77 29.42 28.92 28.55 28.02 28.63 31.23 31.09 30.65 28.79 27.30 26.64 27.12 27.77 28.78 30.84 34.07 33.17 31.10 29.86 29.01 28.13 28.74 28.70 26.70 26.78 27.50 25.03 23.89 25.25 24.24 25.11 26.07
31.84 31.25 31.50 31.00 31.71 31.05 29.92 29.34 28.88 28.48 28.15 27.97 27.02 26.44 25.96 29.97 34.20 35.76 34.32 29.83 28.02 26.59 26.64 27.92 28.47 31.21 30.80 34.21 33.91 34.23 33.07 29.32 27.31 26.47 28.09 24.40 24.09 24.42 25.29 24.47 24.53 24.94 21.07
31.22 31.00 31.09 32.63 32.02 29.85 29.16 28.42 27.71 26.52 26.38 25.63 25.36 25.25 24.78 24.94 34.00 35.03 35.29 30.47 27.30 26.43 26.24 27.05 27.67 29.86 30.58 28.96 31.74 33.26 32.73 34.14 34.12 28.33 24.42 23.97 23.75 24.84 26.35 26.38 24.33 23.32 22.87
30.40 31.01 32.70 31.95 29.48 28.63 27.49 26.62 25.66 25.50 24.84 24.33 24.39 24.71 23.90 25.95 33.11 34.19 34.51 28.54 27.36 26.96 26.81 26.52 26.36 28.00 28.57 29.85 28.84 28.81 30.65 27.99 27.54 27.20 26.10 26.94 28.61 28.64 26.80 26.13 25.33 25.24 25.62
30.29 31.16 30.65 29.35 28.00 26.94 26.04 25.10 24.76 24.46 23.72 23.55 24.36 23.69 22.43 23.37 31.93 33.26 32.21 28.03 27.57 26.78 27.70 26.96 28.89 27.93 31.21 33.30 31.40 27.21 26.06 25.02 28.81 31.17 32.46 31.59 30.93 30.99 29.78 26.66 23.62 21.96 19.56
30.23 29.18 28.52 28.11 27.18 25.77 24.75 24.48 24.61 23.55 24.08 24.44 23.45 23.03 26.28 23.15 29.79 32.72 31.95 28.55 26.60 26.68 27.86 28.76 31.24 29.92 32.88 34.05 28.23 25.56 22.03 22.76 26.19 26.88 24.20 25.06 26.55 26.26 29.77 26.37 24.87 20.45 19.94
28.67 28.27 28.06 26.78 25.83 25.44 24.47 23.65 23.22 23.00 23.17 21.54 21.84 21.60 21.75 23.72 24.96 32.21 32.84 29.35 27.79 28.52 27.32 26.76 27.00 31.95 32.66 31.49 30.89 24.09 24.57 28.49 26.56 22.40 22.36 23.27 24.46 24.96 25.16 25.53 25.86 23.78 20.94
27.90 27.20 26.12 25.52 27.13 26.90 23.52 23.10 22.64 21.72 20.61 20.17 19.92 21.45 23.16 23.38 29.55 30.94 32.68 32.94 32.70 27.57 26.48 26.90 28.20 31.28 30.20 29.48 27.64 29.47 30.33 28.60 22.65 22.24 22.32 22.47 22.42 22.79 23.82 24.70 25.41 25.37 25.52
25.76 24.92 24.81 24.99 24.75 23.91 22.37 21.92 20.75 20.91 19.94 19.87 22.05 22.83 23.90 25.57 23.59 30.61 32.02 32.73 31.74 28.92 27.86 29.76 30.21 29.14 28.13 25.99 27.41 28.66 28.02 22.53 22.22 21.86 21.56 21.42 22.42 23.46 24.11 24.00 24.83 25.26 25.28
24.02 23.23 23.37 23.10 24.75 22.74 23.61 22.69 20.18 20.04 19.87 23.76 23.97 23.44 22.96 24.13 24.78 26.04 28.03 27.12 29.93 28.62 29.14 25.85 26.46 26.25 26.38 25.49 24.29 23.84 22.84 22.88 22.85 22.06 21.28 22.12 22.98 22.52 22.33 23.63 22.59 22.63 22.35
23.06 23.33 22.78 23.68 21.74 21.65 21.99 20.50 20.82 22.00 24.81 24.60 23.91 23.96 22.90 23.15 25.42 30.20 29.35 27.81 27.69 28.22 27.27 22.70 21.09 20.69 20.06 20.60 21.34 21.79 22.34 22.54 21.90 21.55 21.04 20.75 20.97 21.41 21.71 22.66 23.05 23.31 21.72
23.21 23.42 22.98 22.84 20.81 21.76 20.28 20.05 27.03 29.22 30.13 30.20 30.14 28.25 26.59 29.46 30.62 30.54 30.82 30.68 30.10 28.82 23.02 19.48 18.91 19.19 19.08 19.45 19.79 20.55 21.26 21.84 21.07 20.87 20.13 19.96 19.95 20.74 20.23 22.33 22.59 22.69 22.05
21.65 22.61 22.13 21.97 20.31 19.23 19.57 20.37 20.06 23.90 28.53 28.75 29.04 29.19 29.41 29.20 29.42 29.81 30.00 29.11 27.29 25.97 19.58 19.11 18.60 18.80 18.86 19.50 19.84 19.88 18.97 20.00 20.50 19.68 19.04 20.15 20.83 19.86 21.14 20.38 21.24 22.67 21.80
22.10 27.56 22.62 20.92 20.97 20.51 20.75 21.20 20.87 20.80 20.18 21.06 25.58 26.90 27.83 28.26 28.60 29.19 28.07 25.43 19.72 21.02 19.73 18.63 18.13 18.86 19.31 19.49 19.53 19.00 18.95 19.10 18.94 18.89 20.51 19.38 19.87 20.06 20.00 20.39 22.18 21.51 23.41
22.55 22.21 22.48 22.12 21.87 23.78 21.94 21.43 21.07 20.86 20.61 20.02 20.90 23.55 25.10 27.05 28.41 26.86 25.72 19.66 18.87 18.74 18.75 18.56 19.31 19.48 19.64 19.71 19.44 19.23 19.00 18.67 20.45 19.57 18.53 19.18 20.06 20.39 20.39 21.50 23.47 25.72 26.13
21.99 26.31 26.46 22.42 21.39 21.23 21.23 21.07 20.79 20.18 19.44 19.33 19.43 20.01 21.09 23.89 19.81 19.16 20.03 19.83 19.24 18.81 18.92 18.84 19.36 19.79 19.48 19.22 19.02 18.87 18.31 18.31 18.15 18.55 18.78 19.44 20.10 21.09 20.92 23.13 24.69 22.98 23.54
21.41 21.47 26.34 21.26 20.98 21.25 20.95 20.35 20.32 19.45 19.19 19.23 19.32 21.52 26.44 22.17 18.43 18.90 19.14 18.90 18.68 18.74 18.96 19.31 19.24 19.13 19.06 18.82 18.54 18.09 17.87 18.00 18.54 19.10 19.08 19.84 20.83 20.80 21.66 25.49 24.62 25.02 24.86
21.53 21.48 21.66 20.90 21.35 20.70 20.26 19.86 18.95 19.15 19.01 18.70 19.31 20.57 24.28 19.96 19.20 19.23 18.79 18.84 19.44 19.69 20.03 19.83 19.05 18.91 19.45 19.25 19.01 18.33 17.86 17.95 18.65 19.37 19.83 20.19 21.21 21.83 23.73 24.97 24.76 24.97 24.61
21.50 20.60 20.21 19.93 19.79 21.37 18.60 18.89 18.74 18.82 18.87 19.05 18.87 19.04 19.36 19.10 18.82 17.90 18.25 19.00 19.16 19.14 19.54 19.30 18.76 18.52 19.48 19.84 20.08 19.84 18.89 18.94 20.39 21.27 20.63 21.42 22.95 25.94 25.85 25.11 24.36 24.49 23.32
19.96 19.08 18.41 17.51 17.31 18.34 17.57 18.04 18.04 19.56 19.21 18.45 18.50 18.98 18.79 18.33 17.59 17.95 18.62 18.75 18.60 18.56 18.27 18.13 18.56 18.64 18.72 19.19 20.38 21.15 21.48 22.01 22.96 24.84 27.52 29.82 28.11 27.63 26.15 24.76 23.92 24.86 22.09
18.51 17.33 16.73 15.72 16.06 16.25 16.41 16.60 17.23 17.62 17.65 18.23 18.10 18.23 17.68 17.56 17.80 18.15 17.86 17.74 17.50 16.67 16.90 17.53 18.31 19.19 19.43 19.41 19.64 20.52 22.76 28.62 31.90 31.28 31.32 29.69 28.97 28.60 27.72 25.59 20.41 21.79 22.45
17.37 16.68 16.09 15.73 15.20 15.56 15.66 15.32 15.60 16.34 16.41 17.04 17.71 16.68 16.94 17.38 17.61 17.05 16.78 16.49 15.86 15.81 15.95 17.45 18.35 18.77 19.05 19.80 21.29 24.25 29.76 33.18 33.54 33.48 29.92 28.48 28.94 28.40 28.94 21.85 22.44 23.58 22.68

GFSGL_sfc_wetblb_033.txt.gz
Wetbulb
34.16 33.20 32.52 31.64 31.42 31.22 30.76 30.48 30.43 30.25 30.10 30.02 29.64 29.31 29.17 29.10 28.89 27.91 27.54 28.19 26.96 26.63 26.74 26.85 27.12 27.79 27.36 27.42 27.70 27.81 27.16 26.95 23.92 26.45 28.93 30.30 30.19 29.81 30.77 31.70 32.83 32.29 33.02
33.28 32.67 31.57 31.21 30.82 30.31 30.14 30.21 30.40 29.54 29.66 29.33 29.20 29.07 28.87 28.99 28.42 27.34 26.64 26.86 26.47 25.99 26.55 26.24 26.58 29.93 26.82 26.94 26.73 26.55 26.96 27.54 25.90 24.70 28.04 28.26 28.00 29.44 29.88 29.64 31.62 33.89 34.69
32.98 31.94 30.77 30.28 30.03 29.54 29.59 29.99 30.09 29.45 28.79 28.80 28.88 28.50 28.31 28.66 28.01 27.36 26.99 26.85 26.65 26.56 26.52 26.15 26.66 26.61 25.90 26.73 26.83 26.83 27.40 29.38 29.08 27.18 25.52 28.19 28.71 29.82 29.60 30.81 30.05 29.17 29.92
32.24 31.15 30.11 29.76 29.49 29.45 29.63 29.61 29.57 28.91 28.14 28.03 28.03 27.93 27.91 27.44 27.52 27.67 27.99 27.45 26.91 27.41 27.38 27.04 26.78 26.67 26.28 26.64 28.16 28.38 29.70 27.54 27.18 26.58 26.72 27.58 28.07 29.36 29.45 25.34 24.37 26.62 26.13
31.58 30.77 29.93 29.78 29.90 29.75 30.11 29.80 28.80 28.20 27.78 27.61 27.30 26.96 26.34 27.33 30.05 29.68 29.43 27.96 26.52 25.76 26.10 26.33 27.67 29.92 33.05 32.23 30.49 28.31 28.12 27.50 27.34 26.83 25.64 26.99 24.37 23.79 22.51 24.35 23.75 24.89 26.26
31.19 30.14 30.30 30.07 30.39 31.08 30.85 28.00 27.38 26.93 26.78 26.30 25.49 25.19 24.67 28.65 33.12 35.18 33.97 28.66 26.57 25.59 25.25 26.47 26.66 30.11 29.70 33.62 33.26 33.59 32.51 28.58 27.61 28.15 24.19 23.04 22.12 22.67 24.00 23.87 24.79 24.06 20.42
30.62 30.08 30.23 31.08 31.01 30.76 29.05 27.21 26.64 25.27 24.55 24.41 24.38 24.21 23.48 23.53 32.74 34.63 34.90 29.08 26.07 25.59 25.30 26.36 26.83 29.03 29.96 28.03 30.89 32.97 32.88 33.62 32.03 27.19 23.27 22.29 22.37 24.24 26.96 25.40 23.99 23.62 22.57
29.49 30.06 31.10 31.09 30.31 27.87 26.56 25.02 24.35 24.13 23.75 24.04 23.74 23.37 22.57 24.75 32.62 33.70 34.13 27.42 25.92 25.53 25.77 25.82 25.55 26.42 28.12 29.44 29.03 30.66 27.00 26.66 26.43 26.63 25.47 26.13 28.29 28.18 26.68 26.04 25.32 25.34 25.54
29.17 29.61 30.96 30.36 27.33 25.84 24.60 23.82 23.78 23.71 23.71 22.66 23.06 22.46 21.35 22.09 31.24 32.82 32.01 27.20 26.53 25.45 26.02 26.83 28.26 28.30 31.09 33.33 30.15 25.90 25.14 24.74 28.39 30.87 32.41 31.53 30.74 30.88 29.97 26.95 23.34 21.64 19.54
28.93 30.31 29.51 26.96 25.70 24.54 23.77 23.49 23.98 22.76 23.59 23.86 22.92 22.05 24.79 22.04 29.14 32.34 31.68 28.06 26.35 26.63 27.86 28.04 30.78 29.84 32.66 33.57 28.05 25.25 21.93 22.57 25.91 27.21 24.07 24.70 26.53 26.09 29.86 26.42 24.88 20.51 19.89
28.45 27.65 26.50 25.47 24.75 24.30 23.66 23.44 22.05 21.64 22.06 20.35 21.06 20.48 20.97 23.03 24.47 31.89 32.53 28.77 27.22 27.62 25.95 26.57 27.03 31.67 32.78 31.66 30.96 24.41 24.39 28.58 26.42 22.05 22.30 23.16 24.22 24.70 24.97 25.28 25.63 23.70 20.76
26.69 26.00 24.81 24.03 26.38 25.87 22.68 21.64 21.20 20.56 19.57 19.37 19.46 21.45 23.04 22.79 29.02 30.39 32.22 32.58 32.31 26.78 26.58 26.58 27.29 31.44 30.27 29.63 27.70 29.23 30.40 28.56 22.14 21.74 21.63 22.06 21.62 21.97 23.13 23.89 24.73 25.17 25.69
24.65 23.68 23.42 24.17 23.92 23.12 21.29 20.81 19.75 19.87 19.24 19.38 21.66 21.95 22.89 25.02 22.97 30.10 31.59 32.18 31.61 29.01 27.61 29.41 30.17 29.17 28.08 25.66 26.99 28.49 27.64 21.85 21.46 20.95 20.91 20.51 21.24 22.18 23.00 23.22 24.27 24.93 24.68
22.74 22.32 22.77 22.74 22.72 21.54 23.25 22.27 19.25 19.53 19.67 23.04 23.15 22.73 22.08 23.32 23.74 25.17 26.75 26.35 29.82 28.39 28.75 25.46 26.46 25.98 25.93 25.05 23.55 23.20 22.01 22.15 22.39 21.33 20.30 20.98 21.62 21.02 20.80 22.23 21.46 21.56 22.13
22.36 22.81 22.37 23.08 20.82 20.69 21.52 19.62 20.24 21.40 23.98 23.97 23.23 23.24 22.39 22.43 24.85 29.80 29.10 27.60 27.53 28.17 27.14 22.59 20.46 19.99 19.39 19.85 20.44 21.02 21.42 21.59 20.93 20.29 19.71 19.25 19.64 19.68 20.09 21.61 21.45 21.94 20.21
22.58 23.28 23.26 22.20 19.91 21.39 19.60 19.55 26.60 28.63 29.77 29.88 29.83 27.86 26.19 28.95 30.23 30.27 30.69 30.69 30.13 28.94 22.79 18.79 18.33 18.40 18.27 18.60 18.95 19.39 20.27 20.74 19.85 19.94 19.05 18.79 18.03 18.97 19.29 20.95 21.12 21.15 20.99
21.47 22.67 21.61 21.08 19.34 18.46 19.10 20.40 19.43 23.78 28.07 28.30 28.40 28.66 28.87 28.81 29.08 29.56 29.93 28.97 27.27 25.63 18.87 18.32 17.89 18.07 18.10 18.64 18.92 19.01 18.11 19.20 19.85 18.69 18.19 18.21 19.56 18.23 19.39 19.14 19.98 21.26 22.11
21.88 27.81 21.78 19.85 20.30 20.25 20.55 20.48 20.22 19.85 19.38 20.12 24.69 26.09 27.30 27.80 28.15 29.03 27.89 25.31 19.13 20.30 18.97 18.10 17.67 18.17 18.46 18.63 18.91 18.51 18.43 18.51 18.21 17.86 19.30 18.49 18.02 18.30 18.21 18.69 20.22 20.84 24.25
22.36 21.74 21.84 21.70 21.19 23.23 21.36 20.90 20.27 20.03 19.66 18.83 19.53 22.36 24.27 26.27 28.11 26.73 25.34 19.15 18.35 18.05 18.25 18.00 18.56 18.49 18.67 19.17 19.12 18.66 18.20 17.98 19.76 19.04 17.38 17.91 18.53 18.80 18.16 19.25 20.58 25.23 27.11
21.53 26.14 25.95 21.82 20.82 20.75 20.63 20.06 19.74 19.12 18.03 18.06 18.33 19.12 20.14 23.17 19.87 18.59 19.35 19.28 18.54 18.11 18.25 18.02 18.44 18.79 18.99 18.82 18.19 17.87 17.74 17.90 17.72 17.96 17.76 18.49 19.03 19.41 19.35 20.07 20.76 22.79 23.84
20.55 20.95 25.67 20.67 20.32 20.44 19.86 19.25 19.10 18.61 18.18 18.20 18.31 20.66 25.84 22.21 18.11 18.09 18.41 18.00 17.95 18.02 18.09 18.20 18.20 18.37 18.39 18.10 17.89 17.79 17.65 17.55 18.16 18.33 18.50 19.01 19.91 19.70 20.72 21.67 22.06 24.77 24.57
21.06 20.62 20.70 19.78 20.01 19.10 19.01 18.72 17.93 18.16 18.04 17.75 18.50 19.69 23.76 19.45 18.60 18.55 17.94 17.84 18.63 19.06 19.19 18.86 18.16 18.24 18.68 18.41 18.45 17.96 17.42 17.18 17.99 18.89 19.29 20.10 20.69 21.17 22.12 23.04 24.89 24.52 24.37
20.06 19.17 18.65 18.08 18.06 20.22 17.45 17.86 17.87 17.78 18.00 18.17 17.95 18.07 18.51 18.15 18.14 17.09 17.22 18.10 18.50 18.16 18.49 18.51 18.06 17.58 18.54 19.42 20.09 19.66 18.37 18.39 19.77 20.69 19.89 20.26 21.57 22.71 26.08 25.89 24.42 23.88 22.57
18.49 17.43 16.64 16.08 16.05 17.15 16.43 17.03 17.09 18.61 18.25 17.36 17.30 17.69 17.44 17.51 16.62 16.86 17.69 17.97 17.21 17.24 17.40 17.63 17.96 17.82 18.00 19.09 20.02 20.73 20.93 21.43 22.35 24.68 28.01 29.76 28.29 28.43 27.86 26.65 25.59 23.04 21.20
17.06 16.03 15.62 14.73 14.98 15.07 15.27 15.48 16.15 16.20 16.21 16.70 16.73 17.23 16.95 16.41 16.48 16.96 17.09 16.44 16.16 15.84 16.18 16.98 17.58 18.31 19.05 19.10 19.28 19.88 22.43 29.03 32.06 32.08 31.49 29.01 28.68 28.45 28.08 26.46 25.97 22.15 20.35
16.16 15.65 15.12 14.69 14.15 14.35 14.47 14.09 13.87 14.28 14.13 15.28 16.38 15.39 15.69 15.71 16.32 16.20 15.53 15.51 14.95 15.06 15.03 16.37 17.50 18.29 18.62 19.19 20.81 24.13 29.81 33.55 33.73 34.00 29.38 27.63 28.69 29.01 29.20 23.93 22.16 21.76 18.26

GFSGL_sfc_wetblb_036.txt.gz
Wetbulb
33.83 32.86 32.24 31.14 30.66 30.40 30.15 29.56 29.46 29.47 29.61 29.39 29.21 28.81 28.40 27.99 27.60 26.61 26.19 27.19 26.35 26.14 26.13 25.89 26.26 26.67 26.37 26.52 26.66 26.89 26.09 25.90 23.16 25.76 28.21 29.28 29.03 29.03 29.76 30.53 31.59 31.22 31.84
32.77 32.06 31.02 30.67 30.10 29.63 29.12 29.11 29.53 28.75 29.00 28.84 28.70 28.25 27.77 27.75 26.88 25.82 25.61 26.10 25.69 25.47 25.84 25.59 25.64 29.09 25.81 26.13 26.27 25.78 25.74 26.61 25.24 23.59 26.66 27.65 27.50 28.90 29.36 29.45 31.38 33.17 32.67
32.30 31.28 30.27 29.48 29.22 28.47 28.58 29.03 29.15 28.64 28.24 28.27 28.08 27.37 26.95 27.21 26.50 26.10 25.98 25.95 26.02 25.89 25.71 25.25 25.33 25.24 24.70 25.52 25.66 25.61 26.46 28.21 28.41 26.68 25.07 27.65 28.24 29.45 29.28 29.03 27.92 27.69 29.01
31.48 30.64 29.50 28.73 28.48 28.37 28.53 28.60 28.65 28.28 27.95 27.32 26.89 26.71 26.55 26.12 26.48 26.67 27.35 26.99 26.34 26.31 26.16 26.03 25.73 25.50 25.12 25.55 26.22 26.81 28.62 26.21 26.24 26.10 26.68 27.06 28.41 27.43 26.11 23.72 23.11 25.58 25.48
30.97 30.27 28.98 28.76 28.86 28.60 28.53 28.52 28.20 28.08 27.12 26.80 26.16 25.65 25.19 26.36 29.21 28.81 28.96 27.70 26.10 25.13 25.57 26.02 26.51 28.52 32.81 32.26 30.17 28.21 27.71 27.03 26.63 27.30 26.47 24.49 23.40 22.74 21.83 23.61 22.96 24.36 26.21
30.71 29.35 29.45 29.12 29.01 28.68 28.34 28.50 27.93 26.69 25.82 25.23 24.61 24.22 23.65 27.83 32.36 34.79 33.76 27.98 26.82 25.76 24.89 26.03 25.75 29.36 28.77 33.48 33.29 33.58 32.52 29.16 28.78 25.05 23.49 22.23 22.06 22.28 23.62 23.69 25.02 22.91 20.77
29.91 29.44 29.46 29.63 28.91 28.29 29.07 28.44 26.42 24.72 23.75 23.48 23.32 23.10 22.62 22.67 32.36 34.41 34.63 28.72 26.44 24.90 24.91 25.32 26.24 28.65 29.57 26.78 30.62 33.02 33.16 33.31 31.58 26.72 22.88 22.19 22.20 23.91 26.33 24.88 23.67 23.28 22.76
29.10 29.28 29.75 29.13 27.99 28.47 27.94 25.58 24.18 23.25 22.73 22.16 22.37 22.49 21.51 23.85 32.28 33.39 33.84 27.10 25.54 24.86 25.08 24.89 24.49 25.32 26.93 29.61 29.04 30.64 27.03 26.41 26.30 26.59 25.49 26.25 28.44 28.25 26.46 26.00 25.65 25.47 25.46
28.54 28.48 28.66 28.63 28.63 27.52 25.09 23.28 22.78 22.49 21.87 21.51 22.51 21.44 20.50 21.51 31.17 32.45 31.77 26.17 25.59 25.17 26.03 25.19 25.74 27.71 31.12 33.26 30.52 26.77 25.36 24.96 28.49 30.92 32.35 31.83 30.92 31.02 29.95 26.83 23.16 21.53 19.58
28.05 28.24 28.31 28.89 27.39 24.39 23.06 22.80 22.32 21.60 23.40 23.59 22.46 21.46 24.67 21.14 29.07 31.92 31.43 27.42 25.38 26.27 26.62 26.42 30.37 29.97 32.58 33.74 28.12 25.47 22.17 22.61 25.29 27.24 23.57 24.09 25.84 25.32 29.42 25.44 23.84 20.01 19.44
28.13 27.74 27.85 27.06 23.98 23.22 22.38 21.75 21.05 20.89 21.44 19.68 20.84 20.46 20.97 22.72 24.10 31.45 32.28 28.21 26.57 27.16 25.92 26.44 27.12 31.41 32.54 31.66 31.03 24.32 24.19 28.57 26.39 21.59 21.50 22.14 23.33 23.68 23.57 23.75 24.28 22.62 19.93
26.27 26.77 25.38 23.59 25.91 24.38 21.52 20.62 20.11 19.67 19.16 18.97 19.41 21.48 22.68 22.18 28.51 29.89 31.91 32.24 31.88 26.92 26.41 26.72 26.93 31.52 30.44 29.68 27.67 29.02 30.27 28.32 21.68 20.98 20.89 21.31 21.06 20.72 21.89 22.44 23.11 23.56 24.26
24.88 23.18 22.94 23.29 22.71 22.76 20.54 19.75 19.23 19.31 18.94 19.10 21.41 21.79 22.61 25.04 22.38 29.62 31.24 31.77 31.69 28.88 27.66 29.31 30.53 29.42 28.12 25.39 26.64 28.12 27.29 21.05 20.85 20.46 20.40 19.92 20.32 20.93 21.63 21.66 22.20 22.88 23.73
21.92 21.79 22.21 22.94 21.24 20.58 23.20 21.92 19.19 19.21 19.22 22.43 22.59 22.41 21.75 22.82 23.00 24.74 25.87 26.16 29.69 28.60 28.92 25.93 26.63 25.82 25.59 24.64 22.92 22.61 21.50 21.43 21.86 20.84 19.67 20.10 20.64 19.77 19.51 20.79 20.29 20.74 20.96
21.78 22.27 22.33 22.13 20.14 20.06 21.23 19.22 19.45 20.80 22.95 23.69 23.01 23.22 21.93 22.01 24.62 29.55 28.99 27.46 27.92 28.31 27.37 22.51 19.95 19.43 18.79 19.20 19.71 20.30 20.87 21.00 20.46 19.93 19.22 18.69 18.97 18.88 18.48 20.27 20.28 20.57 18.92
22.02 23.06 23.44 21.17 19.15 21.06 19.09 18.90 26.21 28.32 29.55 29.62 29.47 27.44 25.86 28.57 29.94 30.13 30.42 30.72 30.04 28.87 22.61 18.26 17.72 17.99 17.76 17.93 18.25 18.73 19.68 20.49 19.50 19.55 18.68 18.43 17.42 17.41 18.45 19.61 19.22 19.14 19.53
21.09 21.93 21.17 20.39 18.89 18.07 18.36 19.51 18.86 22.98 27.34 27.62 27.78 28.04 28.34 28.46 28.87 29.12 29.96 28.85 27.14 25.50 18.41 17.68 17.44 17.60 17.63 17.93 18.14 18.22 17.63 18.91 19.63 18.66 18.03 17.29 18.76 18.33 18.04 17.24 17.88 18.90 19.79
23.03 27.77 21.29 19.42 19.71 19.25 19.77 19.89 19.54 18.84 18.40 19.04 23.94 25.48 26.70 27.44 27.79 28.99 28.12 25.19 18.67 19.79 18.35 17.59 17.17 17.61 17.68 17.58 18.11 17.98 18.17 18.17 17.97 17.61 18.69 18.85 17.42 17.37 16.68 16.73 17.56 18.24 20.91
22.15 21.68 21.17 20.86 20.41 22.66 20.79 20.08 19.33 18.96 18.38 17.58 18.50 21.55 23.67 25.75 27.71 27.07 25.30 18.43 17.69 17.42 17.66 17.51 17.90 17.78 17.79 18.42 18.49 18.29 17.95 17.73 19.44 19.14 17.34 17.80 17.92 17.89 16.89 17.54 18.33 23.25 24.79
21.16 26.64 25.52 21.09 20.24 20.02 19.63 18.84 18.64 17.74 16.76 17.00 17.39 18.26 19.40 22.51 20.58 18.34 18.65 18.49 17.76 17.39 17.61 17.40 17.74 18.06 18.30 18.01 17.71 17.70 17.50 17.52 17.49 17.69 17.72 18.14 18.24 18.60 18.19 18.73 19.75 20.32 21.17
20.13 20.50 25.17 19.86 19.19 19.07 18.29 18.06 17.99 17.78 17.24 17.29 17.40 19.79 25.43 21.93 17.54 17.44 17.81 17.56 17.18 17.35 17.57 17.60 17.63 17.74 17.80 17.69 17.65 17.34 17.24 17.34 17.89 18.08 17.89 18.38 19.12 19.07 20.33 20.99 21.66 22.67 24.34
20.36 19.68 19.59 18.34 18.23 17.57 18.20 17.84 16.93 17.24 17.13 16.92 17.65 18.81 23.10 18.67 17.66 17.44 17.29 16.98 17.62 18.15 18.49 17.89 17.33 17.76 18.14 17.83 17.81 17.39 16.90 17.11 17.84 18.37 18.68 19.52 20.13 20.83 21.41 21.48 22.57 24.72 23.40
18.79 17.80 16.99 16.47 16.76 19.50 16.56 16.92 16.96 16.91 17.13 17.20 16.91 17.09 17.48 17.03 16.97 16.44 16.28 17.01 17.46 17.44 17.50 17.80 17.54 16.97 18.05 18.87 19.19 18.79 18.14 18.16 19.50 19.98 19.43 20.13 21.22 22.16 25.08 26.39 25.48 24.08 21.68
17.08 16.01 15.42 15.04 15.07 16.39 15.45 16.28 16.13 17.51 17.11 16.15 16.08 16.50 16.31 16.43 15.71 15.80 16.45 16.84 16.67 16.36 16.98 17.28 17.40 17.24 17.38 17.64 18.95 20.43 20.91 21.26 21.86 23.54 26.23 29.67 27.54 27.79 27.52 26.48 25.88 23.34 20.93
15.87 15.08 14.78 13.95 14.03 14.06 14.50 14.50 14.99 14.88 14.75 15.23 15.33 15.96 15.64 15.24 15.23 15.49 15.99 15.75 15.23 15.32 15.99 16.65 17.10 17.35 17.61 17.85 18.68 19.77 21.96 28.58 31.86 32.53 30.83 28.70 27.96 28.54 28.60 25.84 22.80 17.85 15.75
15.38 14.93 14.27 13.74 13.17 13.47 13.43 12.94 12.63 12.94 12.73 13.82 15.09 14.27 14.17 14.42 14.95 15.43 15.01 14.99 14.66 15.13 15.22 16.09 17.19 17.43 17.42 18.48 20.13 23.47 29.76 32.35 34.46 34.84 30.79 27.69 27.70 29.20 29.54 25.02 20.66 18.38 16.28

GFSGL_sfc_wetblb_039.txt.gz
Wetbulb
37.81 37.18 36.62 35.52 35.16 35.27 34.68 34.43 34.51 34.67 34.64 34.38 34.26 33.87 33.64 33.15 32.82 32.67 32.26 32.53 31.81 32.18 32.76 32.13 31.58 32.26 31.90 32.09 32.17 31.70 30.66 30.07 27.22 29.68 32.00 33.26 32.32 32.49 33.15 34.22 34.37 33.83 35.10
36.70 35.98 34.81 34.37 34.30 33.96 33.56 33.63 34.34 33.71 34.09 33.61 33.46 32.93 32.55 32.16 31.90 31.47 31.15 31.66 31.48 31.25 31.51 31.05 30.78 31.59 30.91 31.23 30.79 30.10 30.19 30.76 29.01 26.70 29.54 31.01 30.98 32.41 32.60 32.53 33.04 33.42 33.07
35.18 34.46 33.88 33.53 33.46 33.06 32.92 33.27 33.47 33.16 32.83 32.80 32.64 31.93 31.36 31.12 30.95 31.17 31.41 31.88 31.96 31.68 31.19 30.44 30.48 30.09 29.39 30.00 30.14 29.95 30.36 30.27 30.31 29.16 28.35 31.07 31.75 32.65 31.41 31.30 30.38 30.80 31.51
34.38 34.01 33.19 32.95 32.78 32.78 32.73 32.68 32.68 32.72 32.16 31.84 31.56 30.84 30.35 30.29 30.53 31.22 32.24 32.72 32.26 31.98 31.12 31.03 30.55 30.08 29.56 29.93 30.23 30.59 30.84 30.25 30.02 29.35 29.05 29.64 29.98 30.94 30.34 28.21 27.90 30.22 29.72
33.56 33.30 32.20 32.14 32.38 32.17 31.96 31.92 31.90 31.98 31.42 31.10 30.42 29.76 29.65 30.30 31.24 33.23 33.76 33.18 31.99 31.35 31.11 30.92 31.15 31.76 33.17 33.21 31.80 30.92 30.42 29.90 30.09 29.42 28.57 28.22 27.52 27.37 26.18 28.08 26.91 28.22 29.57
33.13 31.78 31.93 31.79 31.82 31.58 31.32 31.04 30.94 30.46 30.16 29.85 29.11 28.50 28.55 29.72 32.22 34.66 34.94 33.18 31.89 30.69 29.93 30.55 30.80 31.05 30.98 33.25 33.24 33.57 32.74 30.29 30.21 29.01 27.57 26.18 25.97 26.51 27.77 27.11 26.99 25.69 23.41
31.91 31.71 31.64 31.83 31.14 30.89 30.92 30.67 29.98 29.24 29.20 28.51 28.26 28.05 27.63 27.79 32.25 34.32 34.49 32.86 31.06 30.63 30.18 29.93 29.61 30.31 31.40 30.22 31.63 33.19 33.48 34.78 33.09 30.18 26.71 25.92 25.87 27.70 28.33 27.87 26.80 26.20 24.89
31.52 31.48 31.72 31.11 30.11 30.21 30.17 29.38 28.82 28.70 28.06 27.89 27.57 27.15 26.74 27.71 31.94 33.28 33.58 31.89 30.87 30.57 30.24 29.89 29.28 29.40 30.21 30.71 31.06 31.65 31.09 30.04 29.63 29.36 28.90 29.09 30.15 31.06 29.28 28.40 27.76 27.35 27.85
31.03 30.85 30.55 30.37 29.77 29.87 28.52 28.27 27.83 27.77 27.46 26.96 27.05 26.39 26.29 27.45 30.55 32.29 32.43 30.92 29.97 29.82 30.05 30.11 29.99 29.78 31.81 33.34 31.44 29.60 28.10 28.02 30.16 31.21 32.31 32.41 31.33 31.20 30.24 28.04 26.11 23.40 21.90
30.45 30.06 30.29 30.42 29.97 28.32 27.74 27.40 26.71 26.74 27.14 27.11 26.24 26.87 26.66 26.54 29.33 31.78 31.98 30.42 29.03 29.19 30.15 30.25 31.07 31.04 32.51 33.53 30.10 28.32 25.65 25.52 27.26 29.38 26.94 26.91 27.55 27.35 29.39 27.24 25.99 22.15 21.98
29.82 29.68 29.51 29.57 28.02 27.49 26.79 26.35 25.79 25.81 25.51 25.02 25.64 26.30 26.59 27.42 28.47 31.21 31.92 30.42 29.33 29.25 28.58 28.71 29.68 31.58 32.89 32.16 31.37 27.43 25.84 29.36 28.60 24.99 24.57 25.03 25.67 26.30 26.30 26.31 25.93 24.33 21.76
29.13 28.66 28.15 27.83 28.22 26.59 25.85 25.22 24.94 24.69 24.35 24.19 24.77 26.49 27.52 27.26 28.88 30.14 31.60 32.09 32.07 28.95 28.21 29.32 29.51 31.87 30.80 30.04 28.73 28.77 30.30 29.27 24.54 23.17 23.18 23.62 24.05 24.11 24.94 25.26 25.47 25.39 25.81
28.05 27.17 26.39 26.30 26.02 25.90 25.36 24.68 25.08 24.06 23.71 24.06 25.21 25.33 25.85 27.43 27.22 29.58 30.98 31.57 31.60 29.77 30.00 30.30 30.97 29.72 28.44 26.41 26.73 28.35 27.38 23.56 22.62 21.88 22.79 23.08 23.64 24.25 24.14 24.21 25.11 25.13 25.19
26.22 25.57 25.77 25.37 24.70 24.70 26.14 25.22 24.15 23.94 24.07 25.17 25.10 24.93 25.25 25.64 26.19 27.36 28.41 29.58 30.37 29.80 29.90 28.70 27.68 26.42 25.78 25.21 23.96 24.09 23.64 23.42 23.09 22.78 22.32 23.00 23.69 23.19 22.82 23.98 22.16 23.04 22.78
24.95 25.26 25.42 24.68 24.11 24.01 24.48 24.19 25.01 25.48 26.24 26.60 26.26 25.89 24.62 24.33 26.27 30.01 29.65 28.62 29.50 29.15 28.44 25.13 22.28 21.50 20.82 21.12 21.60 22.13 22.61 22.70 22.14 22.20 21.87 21.43 21.53 21.95 21.61 23.11 22.68 22.64 20.54
24.87 25.47 24.99 24.15 23.32 24.01 23.08 23.26 26.58 28.40 28.98 29.10 28.89 28.04 27.41 28.69 29.78 30.03 30.25 30.70 30.15 28.98 24.28 20.34 19.59 19.88 19.32 19.36 19.43 20.04 21.09 21.84 21.56 21.67 21.11 20.90 20.43 20.29 20.77 22.70 22.45 21.19 20.45
23.83 24.24 25.36 22.99 22.57 22.33 22.43 22.75 21.55 24.25 26.52 26.87 27.27 27.83 28.14 28.22 28.69 29.03 29.85 28.99 27.42 25.62 20.15 19.27 18.71 18.83 18.82 19.48 19.82 20.07 19.83 21.06 21.32 20.91 20.70 20.25 20.90 21.53 20.35 20.15 20.71 21.18 21.15
25.87 27.00 23.56 22.89 23.09 23.20 23.12 22.43 21.83 20.81 19.97 20.84 24.33 25.74 26.48 27.15 27.57 28.71 28.03 25.54 20.00 20.74 19.54 18.70 18.51 18.91 19.18 19.31 19.76 20.01 20.37 20.48 20.41 20.09 20.89 21.48 20.29 20.18 19.89 19.94 20.61 20.24 21.66
24.17 24.09 23.56 23.21 23.17 24.27 22.48 21.59 21.35 20.74 19.87 19.40 20.47 22.52 23.94 25.39 27.44 26.79 25.02 19.65 18.50 18.28 18.66 18.41 18.91 19.17 19.34 19.92 20.09 20.03 19.72 19.39 20.86 20.71 19.61 20.15 20.57 20.70 19.70 20.47 21.20 23.70 25.17
24.13 27.64 25.70 22.52 21.83 21.33 20.73 20.39 20.13 19.34 18.88 19.14 19.17 19.52 20.66 23.67 21.79 19.71 19.68 19.38 18.65 18.38 18.58 18.36 19.00 19.39 19.41 19.56 19.49 19.47 19.09 19.14 19.39 19.72 20.00 20.64 21.05 21.36 20.74 21.22 22.36 22.94 23.78
22.20 22.45 24.78 21.10 20.32 19.83 19.80 19.83 19.22 19.10 18.66 18.64 18.67 20.33 24.86 22.01 18.85 18.29 18.55 18.69 18.21 18.02 18.22 18.70 18.86 18.90 19.05 19.35 19.30 18.96 18.56 18.82 19.47 19.74 20.15 20.77 21.46 21.34 22.80 23.29 23.94 24.78 25.45
21.42 20.77 20.32 19.16 19.05 18.90 20.37 19.14 18.56 18.37 18.19 17.93 18.48 19.12 22.47 19.06 18.37 18.09 18.24 18.23 18.62 19.01 19.47 19.18 18.52 18.76 19.35 19.13 19.01 18.84 18.54 18.49 19.26 20.37 20.87 21.38 22.35 23.70 24.24 24.66 25.33 26.65 27.13
19.78 18.84 18.14 17.89 17.95 20.00 17.79 18.14 18.03 17.68 17.78 17.78 17.57 17.25 17.59 17.49 17.43 17.60 17.39 17.99 18.45 18.70 19.12 18.77 18.43 18.22 19.36 20.00 20.49 20.02 18.81 18.99 20.68 21.76 21.22 22.01 23.50 25.13 27.27 28.79 28.62 27.02 26.30
18.12 17.51 17.04 16.73 16.69 17.68 16.59 17.27 16.87 17.42 17.20 16.36 16.33 16.66 16.61 16.97 16.46 16.56 17.18 17.67 17.94 18.05 18.07 18.28 18.66 18.42 18.76 19.12 20.01 21.07 21.37 21.83 22.96 24.75 27.33 29.51 30.12 30.06 29.48 29.62 27.92 25.49 25.04
17.24 16.71 16.18 15.45 15.16 15.16 15.33 15.25 15.42 15.23 14.84 15.27 15.45 16.06 16.37 16.02 15.79 16.53 16.93 17.48 17.16 16.88 17.37 18.17 18.84 18.86 18.78 19.23 19.54 20.28 21.99 27.51 31.83 32.07 33.50 31.70 29.79 29.40 29.97 29.59 26.36 25.39 23.24
16.54 15.88 15.31 15.00 14.47 14.49 14.14 13.72 13.55 13.71 13.54 14.30 15.25 15.55 14.91 15.12 15.90 16.64 16.84 17.21 16.83 16.86 16.95 17.96 19.23 19.24 19.46 20.11 21.38 24.39 29.87 32.58 34.15 35.02 32.58 30.66 29.56 30.21 30.74 28.34 26.25 25.22 24.25

GFSGL_sfc_wetblb_042.txt.gz
Wetbulb
47.71 44.72 42.37 38.91 38.95 39.25 40.54 41.45 40.80 40.31 39.97 39.44 39.20 38.88 38.25 37.66 37.51 37.59 36.96 36.61 35.73 36.26 36.75 35.96 35.28 35.76 35.20 35.25 35.17 34.48 33.32 32.75 29.92 32.41 34.19 35.37 34.57 34.81 35.48 36.72 36.46 35.78 36.96
43.39 42.20 38.83 39.06 39.16 40.22 40.46 40.02 40.00 39.28 39.46 38.85 38.40 37.75 36.98 36.43 36.60 36.07 35.46 35.87 35.48 35.25 35.46 35.11 34.57 34.73 33.93 34.15 33.84 32.93 32.68 33.28 31.51 29.75 32.07 33.15 33.50 34.79 34.85 33.96 35.06 35.11 34.87
40.77 38.47 37.88 39.63 40.07 39.52 39.18 38.98 39.06 38.66 38.17 37.83 37.52 36.52 35.73 35.44 35.33 35.34 35.30 35.60 35.85 35.69 35.39 34.57 34.13 33.58 32.64 33.24 33.03 32.71 33.08 32.85 32.88 31.47 31.09 33.64 34.64 34.51 33.87 34.25 33.11 33.60 34.29
37.77 37.73 38.85 39.91 39.15 38.46 38.38 38.24 38.05 38.03 37.42 36.84 36.39 35.30 34.87 34.76 34.53 34.56 35.53 35.94 36.15 35.79 35.40 34.74 34.06 33.07 32.58 32.62 32.71 32.81 32.67 31.87 32.07 31.52 31.74 32.28 33.11 33.95 33.61 31.53 30.07 32.53 32.29
36.51 37.44 38.62 38.70 38.19 37.53 37.12 37.35 37.22 37.20 36.48 35.83 34.94 34.49 34.56 34.30 34.18 35.05 36.06 36.34 35.65 35.02 34.94 34.43 34.07 33.73 33.53 33.90 32.66 32.17 31.78 31.11 31.02 31.20 30.67 31.39 30.81 30.64 29.36 30.71 29.75 31.18 31.94
36.03 35.89 37.29 36.90 36.87 36.48 36.53 36.34 36.20 35.38 35.15 34.77 34.04 33.66 33.29 33.29 32.14 34.43 35.41 35.36 35.02 34.13 33.02 33.50 33.72 33.52 33.28 33.98 34.24 34.08 33.03 31.08 31.11 31.93 30.17 28.76 28.33 29.18 30.19 29.62 28.56 28.66 25.40
36.87 36.75 36.49 36.46 35.75 35.69 35.87 35.48 34.78 34.21 34.69 33.86 33.25 33.05 32.79 32.83 31.95 34.08 34.63 34.59 34.11 33.38 32.95 32.63 32.40 32.89 33.08 32.16 32.85 33.87 34.28 34.76 34.51 32.04 28.84 28.15 27.86 29.25 29.89 29.47 29.10 27.77 27.29
36.68 36.27 36.29 35.70 34.73 34.99 34.94 34.14 33.40 33.91 33.56 33.37 33.20 32.67 32.20 32.37 31.54 33.11 33.78 34.06 33.64 33.35 33.05 32.76 32.19 32.09 32.38 32.06 31.58 32.50 32.91 32.54 32.02 31.76 30.39 30.25 31.06 31.97 31.45 29.84 29.10 28.42 29.57
35.75 35.15 34.83 34.77 34.08 34.31 33.37 32.51 33.05 33.24 33.28 33.25 32.51 31.63 31.52 32.16 30.83 32.22 32.90 33.02 32.66 32.56 32.86 33.06 32.68 31.79 32.87 33.68 32.10 31.50 30.10 30.52 32.52 32.45 32.78 33.76 33.88 32.81 31.66 29.45 27.63 25.91 24.33
34.52 34.24 34.67 34.84 34.22 33.42 31.95 32.80 32.64 33.10 32.42 32.36 31.55 31.98 30.46 31.15 31.12 31.73 32.50 32.19 31.33 31.61 32.49 32.77 33.04 32.43 33.29 33.56 31.67 29.63 28.15 28.19 28.83 30.22 31.01 30.55 30.64 30.38 31.36 29.46 28.36 25.17 24.49
33.90 33.26 32.93 33.05 31.83 32.16 33.04 32.92 32.23 32.17 31.75 31.53 30.87 31.94 31.42 31.28 31.23 31.42 32.02 31.50 31.06 30.59 30.62 30.57 31.74 32.84 33.11 32.96 32.01 29.03 27.78 29.65 30.00 28.75 27.86 28.17 28.79 29.02 29.36 29.34 28.55 27.12 24.47
31.61 30.91 30.59 31.06 31.78 32.70 32.47 31.82 31.32 31.39 31.07 30.44 30.46 31.07 31.90 31.69 30.95 30.87 31.64 32.09 32.34 30.32 29.50 30.71 31.58 32.36 31.87 31.10 29.95 29.68 30.37 30.33 27.53 26.11 25.69 25.88 26.76 27.36 28.21 28.37 27.90 27.68 27.64
30.41 30.01 31.00 32.00 31.95 32.19 32.06 31.21 31.77 30.86 30.00 29.59 29.29 29.15 29.73 30.58 30.83 30.77 31.48 32.08 32.35 30.93 30.89 31.63 32.09 31.00 29.93 28.21 28.34 28.86 28.34 26.71 25.52 24.24 24.32 25.78 27.02 27.66 27.25 27.00 28.09 28.48 27.67
30.77 31.25 31.68 31.40 30.97 31.31 31.17 31.17 30.88 30.17 29.40 28.76 28.54 28.16 28.57 29.01 29.52 30.24 30.56 30.93 31.48 31.04 31.20 31.10 29.84 28.80 27.86 27.53 26.77 27.01 26.78 26.28 25.13 24.66 24.80 25.81 26.75 26.54 25.82 27.10 25.26 24.89 25.02
31.86 31.62 31.33 31.07 30.84 30.41 30.16 30.72 30.65 30.90 29.64 28.34 28.48 28.15 27.09 26.79 28.27 30.32 30.50 29.55 30.51 30.44 29.85 27.50 25.98 25.09 24.39 24.63 24.97 25.37 25.79 25.70 24.54 24.62 24.41 24.16 24.15 24.90 24.98 26.32 25.49 25.58 23.20
30.71 30.68 30.71 30.46 30.42 29.94 29.59 29.86 27.99 28.27 28.40 28.38 28.42 28.14 28.44 29.31 29.87 30.02 30.15 30.80 30.41 29.83 25.87 23.88 23.30 23.42 22.79 22.77 22.60 22.81 23.76 24.55 24.26 24.25 23.71 23.72 23.38 23.35 23.85 25.51 25.80 24.38 22.90
30.96 30.19 29.66 29.74 29.33 28.81 28.79 27.63 26.27 28.37 27.71 27.19 27.12 27.70 28.13 28.06 28.52 28.84 29.80 29.06 28.31 26.44 23.01 22.65 22.08 22.26 22.05 22.25 22.59 22.89 23.23 23.96 24.30 23.99 23.71 23.39 23.81 24.32 23.33 23.49 24.34 24.73 24.63
30.05 28.97 29.34 28.93 28.63 28.50 27.57 26.52 26.15 24.87 24.25 25.44 27.19 26.68 26.92 27.05 27.61 28.66 27.85 26.17 23.17 23.72 22.69 21.90 21.54 21.93 21.86 21.89 22.66 23.10 23.51 23.60 23.49 23.27 23.54 24.05 23.27 23.31 23.16 23.39 24.24 23.65 24.58
29.51 29.07 28.81 28.12 28.03 26.81 26.25 25.57 25.44 24.77 24.20 24.14 25.08 26.06 26.24 26.48 28.01 27.46 25.99 22.52 21.34 21.38 21.80 21.53 22.02 21.87 21.98 22.64 23.10 23.25 22.92 22.52 23.34 23.21 22.79 23.26 23.75 23.90 23.51 23.80 24.28 25.75 26.57
29.74 28.15 26.83 26.96 26.25 25.35 24.98 24.50 24.06 23.64 23.47 23.55 23.34 23.18 23.97 24.97 23.71 22.49 22.72 22.37 21.74 21.48 21.43 21.28 21.79 22.14 22.43 22.77 22.91 22.82 22.59 22.52 22.40 22.83 23.21 23.69 24.32 24.68 24.11 24.43 25.34 25.74 26.44
27.66 27.24 25.15 25.57 24.77 24.06 24.09 23.70 23.29 23.07 22.53 22.42 22.55 23.55 24.94 22.88 21.38 21.33 21.51 21.65 21.36 21.31 21.25 21.43 21.80 22.28 22.68 22.71 22.71 22.49 22.06 22.12 22.49 22.90 23.25 23.71 24.44 24.39 25.78 26.48 27.45 27.93 27.62
26.30 25.29 24.49 23.62 23.43 23.32 23.82 23.17 22.62 22.03 21.77 21.55 21.97 22.31 23.53 21.77 21.45 21.21 21.39 21.53 21.97 22.20 22.32 21.88 22.26 22.50 22.64 22.29 22.33 21.64 21.49 21.27 22.24 23.05 23.44 23.68 24.36 25.50 26.71 27.88 28.39 29.68 27.92
24.83 23.81 23.33 23.17 22.54 22.53 22.34 22.34 21.89 21.33 21.22 21.20 21.09 20.44 20.76 20.58 20.72 20.78 20.77 21.33 21.83 21.85 22.26 22.04 21.84 21.71 22.84 23.33 23.73 23.08 21.73 21.68 22.92 23.61 22.95 23.66 24.57 26.18 27.94 30.28 30.46 28.30 27.73
23.56 23.14 22.42 22.09 21.50 21.81 21.20 21.20 20.81 20.27 19.91 19.66 19.74 19.88 19.92 20.09 19.98 20.11 20.81 21.44 21.60 21.78 22.25 22.21 22.09 21.83 22.14 22.38 23.45 24.18 24.36 24.46 24.91 24.57 25.91 29.12 31.28 31.77 31.04 30.76 29.47 29.13 28.00
22.78 22.17 21.41 20.92 20.23 20.05 19.96 19.82 19.49 19.24 18.94 18.87 18.77 19.11 19.66 19.73 19.76 20.61 21.14 21.66 21.53 21.28 21.65 21.94 22.51 22.59 22.39 22.58 22.76 23.34 24.86 28.00 31.03 32.01 33.55 32.33 31.64 31.32 31.49 30.63 28.82 28.70 28.12
21.36 20.71 20.43 20.34 19.91 19.56 19.02 18.66 18.73 18.66 18.39 18.63 19.08 19.61 19.17 19.00 19.88 20.85 21.30 21.80 21.49 21.13 20.61 22.24 23.31 23.09 23.13 23.67 24.62 26.29 30.19 33.08 34.51 34.15 32.68 31.82 31.41 31.43 30.84 29.40 28.87 28.66 27.99

GFSGL_sfc_wetblb_045.txt.gz
Wetbulb
54.86 51.16 47.36 43.73 41.23 40.59 39.88 40.41 39.62 40.94 40.65 41.10 40.71 40.14 39.60 38.90 38.45 38.06 37.43 37.05 36.49 36.99 37.40 36.76 36.16 36.49 35.75 35.54 35.37 34.62 33.35 32.69 28.93 31.33 33.90 35.27 34.23 33.95 35.23 35.78 36.59 35.54 35.47
50.20 46.77 43.40 41.61 40.85 40.42 40.32 39.84 40.90 40.12 41.06 40.36 39.90 39.20 38.45 37.83 37.38 36.70 36.05 36.63 36.19 35.86 36.13 35.93 35.28 35.66 34.78 34.67 34.06 33.24 32.87 33.00 31.12 28.66 31.87 32.09 32.69 34.26 34.18 34.32 34.99 36.16 34.18
46.56 43.41 40.86 40.40 40.07 39.58 39.45 40.84 40.52 40.57 39.35 39.20 38.95 38.02 37.27 36.62 36.10 35.97 36.01 36.09 36.27 36.34 36.11 35.40 34.82 34.39 33.21 33.38 33.18 32.47 32.79 33.50 32.64 30.59 29.54 32.36 32.43 33.58 33.29 34.13 33.15 33.32 34.43
43.74 41.78 40.01 40.00 39.00 39.18 39.36 40.34 39.72 39.22 38.42 38.22 37.89 36.90 36.14 35.61 35.33 35.21 36.15 36.23 36.60 36.55 36.43 35.84 34.95 34.00 32.88 32.49 32.08 31.93 32.42 31.28 31.31 29.80 29.31 29.68 31.08 33.33 32.20 29.90 29.42 31.13 30.76
41.38 40.09 38.63 39.42 39.05 39.90 39.24 39.05 38.78 38.55 37.86 37.21 36.23 35.62 35.41 35.26 34.97 34.37 35.44 35.87 35.59 35.42 35.62 35.28 34.96 35.35 34.98 34.55 32.74 31.90 31.59 30.33 29.61 29.13 28.70 29.81 29.34 28.50 27.82 29.10 27.98 28.97 29.50
39.45 38.21 38.15 38.56 39.10 38.43 38.07 37.87 37.40 36.64 36.20 35.98 35.13 34.77 34.50 34.34 32.92 34.20 35.07 34.30 34.36 34.18 33.68 33.79 34.13 34.63 34.29 35.12 35.27 35.23 33.85 30.52 29.63 30.11 29.01 27.87 27.79 28.05 28.46 27.77 26.84 26.02 25.40
37.43 36.71 37.60 38.10 37.65 37.54 37.52 36.74 36.01 35.55 35.69 34.91 34.42 34.04 33.67 33.83 32.29 33.88 34.58 33.61 33.11 33.59 33.13 32.90 32.63 33.50 33.78 32.60 33.65 34.53 34.15 34.89 34.77 31.29 28.66 27.94 27.17 28.07 27.89 26.72 27.91 27.08 25.38
35.90 36.24 36.82 37.40 36.57 36.59 36.27 35.28 34.80 35.07 34.83 34.38 33.75 33.41 33.22 33.64 31.59 32.84 33.84 32.84 33.20 33.34 33.35 33.00 32.29 32.19 32.80 32.54 31.81 30.99 31.45 32.21 31.99 31.69 30.39 29.61 29.53 30.56 30.81 31.06 28.34 27.17 27.66
35.70 36.12 37.12 36.67 36.07 35.57 34.38 33.89 34.12 34.06 33.82 33.59 32.96 32.69 32.51 32.65 31.72 32.13 32.70 31.89 32.02 31.91 33.12 33.15 32.85 32.27 33.84 34.55 31.64 29.82 30.15 29.51 32.86 33.59 33.23 33.60 34.53 34.69 32.98 29.34 25.93 25.17 23.24
36.73 36.46 36.59 36.45 35.52 34.04 33.50 33.44 33.77 33.95 32.77 32.64 32.37 32.76 32.55 31.11 32.70 32.16 32.30 31.09 30.04 30.88 31.82 32.13 33.93 32.89 34.37 34.36 31.25 29.28 26.77 27.24 27.80 28.45 29.57 30.38 30.97 30.03 32.49 29.78 27.93 25.05 23.52
36.39 35.94 35.13 34.46 33.41 33.79 33.75 33.69 33.22 32.58 32.26 32.29 31.68 32.76 32.73 32.52 31.72 32.14 32.34 30.51 30.21 29.97 29.81 29.95 31.22 33.53 33.72 33.96 33.31 28.92 27.52 29.41 29.16 28.03 27.17 27.19 27.44 27.72 28.63 29.24 28.75 26.76 23.93
32.88 32.27 31.88 32.41 33.46 33.70 32.87 32.57 32.13 31.95 31.78 31.56 31.39 31.25 32.26 32.49 32.58 32.08 31.96 32.20 32.66 30.14 29.13 30.05 30.72 32.90 33.17 32.39 30.69 30.61 31.00 30.74 26.95 25.83 25.01 24.70 25.08 26.01 27.20 27.64 27.19 27.15 27.18
30.71 30.74 31.71 32.69 33.05 33.45 32.76 31.96 31.83 31.52 30.78 30.31 29.57 29.37 29.92 30.88 31.04 32.38 32.35 32.74 32.72 30.58 30.64 31.59 32.60 32.16 31.36 29.29 29.43 30.12 29.77 26.23 25.33 24.07 24.02 24.68 25.74 26.30 26.43 26.40 27.31 27.72 27.55
31.06 31.85 32.09 31.76 31.96 32.01 31.55 31.56 31.29 30.63 29.61 28.82 28.45 28.13 28.41 28.82 29.30 29.92 30.03 30.23 31.24 30.50 31.04 29.91 30.10 29.88 29.47 28.43 27.21 27.05 26.35 25.87 25.40 24.64 24.05 24.78 25.68 25.00 24.45 25.55 24.73 24.93 24.17
32.10 31.70 31.59 31.43 31.63 31.02 30.74 30.95 30.64 31.00 29.10 27.53 27.61 27.05 26.29 25.89 27.70 30.27 29.96 28.87 29.24 30.18 29.61 27.08 25.52 24.93 24.20 24.39 24.62 24.90 25.19 25.14 24.30 24.62 24.49 23.75 23.28 23.51 23.49 24.44 24.39 24.52 23.13
30.96 31.01 31.32 31.09 31.03 30.69 30.31 30.40 29.41 28.82 28.52 28.99 28.83 27.81 27.65 29.34 30.02 29.99 30.14 30.77 30.93 30.46 25.85 23.31 22.92 23.12 22.60 22.58 22.36 22.55 23.41 24.35 24.15 24.38 23.19 22.90 22.50 22.09 22.41 23.86 24.36 23.20 22.53
31.36 30.46 29.90 31.07 30.41 29.64 29.15 27.79 26.46 29.08 29.97 29.24 28.26 28.21 28.65 28.46 28.72 29.03 30.03 29.69 28.86 27.52 22.74 22.42 21.93 22.12 21.99 22.31 22.51 22.55 22.18 23.45 24.32 23.71 23.05 22.21 22.28 22.86 22.75 21.99 22.68 22.87 22.93
30.58 31.56 30.46 29.85 28.92 28.53 27.37 26.67 26.46 25.42 24.45 25.54 28.28 28.21 28.49 28.21 28.28 29.17 28.77 26.98 23.11 23.97 22.70 21.93 21.45 21.83 21.89 22.05 22.39 22.25 22.45 22.81 22.75 22.57 22.43 22.92 22.47 22.16 21.86 21.68 22.35 22.75 23.07
30.49 29.87 29.35 28.52 27.80 26.70 26.47 26.02 25.90 25.31 24.64 24.62 25.51 26.87 27.35 27.61 28.43 28.34 27.21 22.73 21.51 21.38 21.92 21.61 21.98 21.88 22.20 22.47 22.55 22.61 22.51 21.98 23.16 23.18 21.83 22.10 22.68 22.97 21.90 22.33 23.23 26.13 26.68
29.00 28.11 28.00 27.21 26.42 25.80 25.61 25.07 24.69 24.12 23.88 23.80 23.51 23.54 24.28 24.61 23.11 22.41 23.01 22.65 21.95 21.65 21.72 21.44 21.84 22.26 22.32 22.60 22.55 22.42 21.87 21.80 21.75 21.90 21.99 22.55 23.24 23.46 22.97 23.31 23.81 24.29 24.88
28.61 27.19 25.97 26.09 25.28 24.54 24.47 24.36 23.86 23.42 22.84 22.65 22.84 24.33 26.25 23.00 21.36 21.48 21.65 21.83 21.71 21.66 21.62 21.59 21.68 22.03 22.50 22.66 22.58 21.64 21.40 21.30 21.46 21.87 22.18 22.64 23.29 22.92 24.01 24.42 25.41 26.39 26.78
26.99 25.93 25.11 24.27 24.10 23.93 23.97 23.51 23.14 22.67 22.25 22.03 22.36 23.13 25.00 22.25 21.59 21.36 21.62 21.75 22.22 22.53 22.76 22.51 22.00 22.24 22.77 22.49 22.07 21.60 21.09 20.84 21.46 22.18 22.56 23.09 23.26 23.75 24.65 25.05 26.21 27.89 28.44
25.66 24.69 24.25 23.95 23.39 23.74 23.40 23.20 22.68 22.19 21.49 21.38 21.37 21.21 21.47 21.03 20.89 20.85 20.94 21.64 22.30 22.56 23.09 23.02 22.58 22.01 22.83 23.34 23.60 23.13 21.79 21.71 22.89 23.66 22.88 22.91 23.54 24.33 25.05 26.78 29.29 28.05 27.24
24.59 23.96 23.18 22.99 22.52 22.04 22.07 21.56 21.51 21.80 21.07 20.52 20.30 20.49 20.24 20.37 20.14 20.44 21.44 22.13 22.38 22.72 23.13 23.06 22.94 22.58 22.57 22.70 23.61 24.03 24.57 25.01 25.56 26.20 27.73 27.45 30.01 30.56 30.15 29.39 28.21 26.98 27.06
23.67 22.99 22.44 21.89 21.29 20.99 20.87 20.71 20.42 20.36 20.19 20.05 19.84 19.89 20.30 20.34 19.96 20.58 21.59 22.19 22.21 22.53 22.68 22.60 22.76 22.99 23.44 23.75 23.63 24.32 26.16 30.16 32.18 32.44 31.37 30.74 30.33 30.23 29.98 28.75 27.60 27.23 27.04
22.17 21.64 21.40 21.29 20.74 20.56 20.15 19.81 19.89 19.87 19.42 19.69 19.82 20.21 19.98 19.66 19.94 20.83 21.40 21.73 21.92 21.53 20.90 22.35 23.43 23.55 24.11 24.34 25.87 27.68 31.48 33.57 34.91 34.11 31.04 29.17 28.75 29.63 30.27 29.34 28.80 27.89 26.32

GFSGL_sfc_wetblb_048.txt.gz
Wetbulb
54.31 48.32 42.53 40.20 40.68 41.20 41.18 40.79 40.52 40.80 40.30 40.00 39.45 38.53 36.98 35.41 35.07 34.20 33.26 33.40 32.41 32.20 32.32 32.18 32.06 31.91 30.73 30.19 29.92 29.55 28.38 27.45 25.73 28.38 30.12 31.20 29.02 30.16 32.37 32.77 33.87 33.30 34.21
45.58 41.62 38.96 38.80 38.91 39.26 39.21 39.37 40.21 39.66 39.94 38.83 38.58 36.82 35.71 34.76 33.75 32.66 32.12 32.62 31.95 31.55 31.82 31.50 31.28 34.05 29.67 29.56 28.53 27.84 27.54 27.58 27.17 25.87 28.82 29.23 28.55 30.16 30.95 30.85 33.07 35.42 33.82
41.27 38.87 37.86 38.47 39.16 38.99 39.26 39.86 40.10 39.88 38.51 38.24 36.81 35.36 34.11 34.25 33.70 32.53 32.44 31.99 31.90 31.91 31.84 31.09 30.74 30.26 28.43 28.19 27.73 27.07 27.51 30.53 28.45 27.19 26.89 29.23 29.24 30.13 30.17 31.86 31.54 31.05 32.61
38.45 38.35 38.58 39.12 39.04 39.03 39.12 38.93 38.36 37.91 36.61 36.11 34.43 33.91 33.93 33.64 33.27 32.92 33.51 32.45 31.87 32.29 32.64 31.80 30.86 30.09 28.88 27.54 28.34 27.43 29.06 27.29 27.88 27.18 26.81 27.19 28.36 30.57 30.13 27.70 27.00 28.16 28.25
38.25 38.66 38.24 38.63 38.61 38.40 37.72 37.46 36.46 37.03 35.16 34.48 33.00 33.19 33.08 33.21 33.91 32.68 33.17 32.41 31.11 30.56 30.67 31.45 31.25 32.93 35.95 34.55 31.78 27.76 27.73 27.38 26.82 27.12 27.37 27.57 28.01 27.23 26.40 27.64 25.60 26.48 27.26
38.74 38.82 38.38 37.55 37.41 36.93 36.49 35.87 35.00 33.34 33.05 33.64 32.08 32.93 31.14 33.66 34.45 34.62 34.40 31.68 30.55 29.47 28.69 29.56 30.02 33.36 32.33 35.57 35.63 35.61 33.96 29.54 27.81 26.63 27.45 27.36 26.98 26.48 26.90 25.57 24.83 23.65 23.36
37.74 37.51 37.17 36.72 36.17 35.85 35.39 34.66 32.98 32.74 31.95 32.14 31.42 30.90 31.53 31.72 33.81 33.91 34.30 31.05 29.46 28.64 28.22 28.33 29.13 32.12 32.15 29.16 32.70 34.60 33.60 34.63 34.41 30.51 27.35 26.36 25.64 26.64 24.96 24.47 26.04 27.14 26.44
36.86 36.27 36.30 35.89 34.96 34.58 33.91 32.82 31.96 32.73 31.16 30.03 31.13 31.73 31.24 32.27 33.15 32.97 33.79 29.42 28.41 28.07 28.25 28.12 27.40 27.47 28.74 31.25 29.64 26.68 27.65 28.61 29.99 30.66 28.66 28.16 28.06 29.05 30.14 30.65 28.75 26.44 26.65
35.00 35.01 35.24 35.14 34.10 33.57 32.34 31.65 30.69 29.75 31.61 31.12 31.44 30.41 28.25 27.74 32.41 32.53 31.80 28.28 27.82 26.07 28.63 28.25 29.34 28.15 32.74 34.90 30.74 26.50 27.86 28.07 31.72 33.16 33.07 33.54 34.03 34.09 32.79 28.79 25.14 23.82 22.71
34.42 34.81 35.26 34.43 33.20 31.13 29.60 30.17 32.02 31.66 30.86 30.76 28.97 28.21 31.44 26.89 32.64 32.97 31.76 28.16 25.33 25.88 26.79 28.22 32.73 31.56 34.09 34.36 30.48 29.11 25.71 25.19 25.77 26.27 27.56 27.94 28.85 26.89 31.37 26.98 25.96 23.82 22.94
35.45 34.43 32.98 31.99 31.11 31.64 32.00 31.60 30.84 29.30 28.51 27.30 26.93 27.42 27.86 28.53 27.61 33.10 33.24 28.10 26.37 26.71 25.93 26.35 27.02 32.91 33.78 34.33 34.04 27.30 26.29 29.04 28.97 25.89 24.50 24.64 25.10 25.19 25.83 26.33 27.43 26.10 23.07
31.12 31.08 31.60 32.26 33.01 32.20 30.02 28.62 27.83 27.49 26.52 26.03 25.83 25.33 26.59 26.62 32.31 31.93 33.29 32.92 32.39 27.28 26.04 26.08 27.05 32.95 33.18 32.70 30.91 31.23 31.72 31.12 24.42 23.58 23.25 22.96 23.29 23.94 24.88 25.56 25.94 25.57 25.92
30.86 30.66 31.09 31.26 30.30 29.57 27.86 27.06 26.55 26.90 25.62 24.69 24.62 23.58 23.39 25.28 24.58 31.99 32.34 32.51 32.02 28.78 27.86 30.16 32.32 32.01 31.19 28.71 29.43 30.56 29.74 23.44 22.93 22.16 22.42 22.95 23.37 24.10 24.61 24.24 24.57 24.64 24.27
30.37 29.54 28.84 28.40 27.73 27.44 27.44 27.42 26.19 25.11 23.94 23.31 22.70 21.78 21.47 22.43 23.23 24.42 27.05 25.52 29.45 28.26 29.41 26.54 29.07 28.97 28.90 27.60 25.75 24.84 23.67 23.42 23.58 22.83 22.30 23.41 24.17 23.29 22.19 22.89 22.76 22.77 22.29
28.85 27.35 27.38 27.69 26.93 25.95 25.79 24.47 23.58 24.35 24.77 22.92 22.50 22.54 21.07 20.88 24.15 29.66 29.08 27.20 27.33 29.31 28.92 24.42 22.39 21.30 21.34 21.91 22.26 22.50 22.82 22.85 22.42 22.61 22.40 22.50 22.25 21.88 21.73 22.33 22.05 22.48 21.51
27.47 26.94 26.36 25.50 25.24 24.74 23.83 23.41 29.98 29.26 29.22 29.04 28.83 26.52 25.06 28.40 30.01 30.18 30.32 31.05 31.04 30.41 24.01 20.24 19.69 20.41 20.26 20.58 20.60 20.83 21.67 22.65 22.08 22.57 22.21 21.77 21.34 21.07 20.70 21.98 22.97 21.14 20.24
25.29 24.98 25.49 25.49 23.64 22.93 22.38 21.38 20.12 24.00 30.64 30.44 29.73 29.34 29.59 29.34 29.48 29.62 30.32 30.02 28.77 27.17 19.94 18.83 19.38 19.77 19.78 20.10 20.04 20.05 19.99 21.21 21.93 21.52 21.15 20.80 20.79 21.03 22.05 20.57 21.05 21.04 20.69
26.23 30.99 23.68 23.06 22.80 22.07 21.25 20.76 20.50 20.07 19.19 19.72 26.22 28.01 29.09 29.01 28.89 29.22 28.98 26.51 20.90 21.97 19.64 19.10 18.94 19.56 19.67 19.59 19.98 20.37 20.76 20.99 20.99 20.65 20.85 21.82 21.37 20.65 20.07 20.18 20.78 20.79 21.39
24.36 23.24 22.63 22.35 21.70 22.76 21.34 21.09 20.54 20.08 19.42 18.86 19.77 23.59 25.58 27.57 27.87 27.28 26.71 20.26 19.13 18.93 19.35 19.27 19.84 19.70 19.77 20.57 20.97 20.95 20.93 20.84 22.19 22.48 21.10 21.40 21.56 21.51 20.45 20.91 21.29 24.80 25.57
24.02 28.60 25.73 21.63 21.13 20.77 20.58 20.55 19.92 19.29 18.74 18.69 18.78 19.50 20.02 21.79 18.98 19.60 19.98 19.48 19.04 19.22 19.70 19.48 19.90 20.30 20.59 20.71 20.68 20.73 20.61 20.69 20.63 21.03 21.23 21.71 22.09 22.16 21.28 21.47 22.00 21.99 22.97
22.31 21.99 26.35 21.06 20.10 20.08 20.02 19.67 19.44 19.31 18.89 18.75 18.78 21.66 26.91 20.78 17.82 17.77 18.62 18.99 19.02 19.14 19.38 19.87 20.02 20.57 20.88 20.80 20.89 20.57 19.97 20.19 20.92 21.19 21.15 21.80 22.48 22.07 22.86 22.81 22.81 24.08 25.10
21.34 20.63 20.77 19.55 20.08 20.20 19.91 19.71 19.00 19.41 18.99 18.26 18.46 20.89 24.75 19.75 17.63 17.78 18.79 18.85 19.54 20.33 21.41 21.63 21.17 21.42 21.78 21.55 21.28 20.57 19.90 20.08 20.75 21.43 22.01 22.83 23.21 23.33 23.19 23.20 23.80 24.47 26.93
20.34 20.01 19.68 19.35 19.63 21.58 18.96 19.08 18.85 18.66 18.38 18.15 17.86 19.32 19.67 18.84 18.48 17.39 18.15 19.20 19.86 20.46 21.67 22.30 21.94 21.45 22.20 22.71 22.84 22.15 21.05 21.14 22.73 23.61 22.96 23.45 24.84 25.68 26.35 27.89 28.06 27.17 26.34
19.41 18.83 18.46 18.10 18.37 18.03 17.69 18.05 17.96 20.15 19.52 18.89 18.13 19.19 17.99 18.26 18.22 18.28 18.56 19.20 20.24 20.51 21.42 22.17 22.49 22.24 21.85 21.90 22.95 24.36 24.69 25.03 26.10 28.25 30.62 30.31 28.24 28.82 28.59 28.62 28.46 27.38 26.91
18.48 17.79 17.57 16.38 16.82 16.46 16.94 17.09 17.31 17.82 18.33 18.82 18.78 18.86 18.45 18.60 17.99 17.77 18.22 19.12 19.43 19.95 20.93 21.48 21.51 21.84 22.48 22.31 23.19 24.01 25.39 30.68 32.86 32.84 31.68 28.95 27.74 27.63 29.05 29.32 28.58 28.04 26.16
17.91 17.67 16.90 16.17 15.57 15.93 16.43 15.46 14.62 14.59 14.14 17.11 17.32 16.18 17.20 17.43 17.46 17.20 17.66 18.58 19.66 20.15 20.12 20.93 21.45 21.06 21.26 22.32 24.71 27.69 32.00 33.90 34.75 34.67 30.89 28.80 28.39 28.77 29.16 27.36 26.30 25.82 24.95

GFSGL_sfc_wetblb_051.txt.gz
Wetbulb
49.79 46.60 45.59 43.52 43.56 42.70 42.40 41.60 41.75 41.08 40.94 40.20 39.55 39.05 38.46 36.94 36.32 35.34 34.01 33.96 32.71 32.38 32.14 31.58 31.54 31.12 29.87 29.00 28.73 28.31 27.20 25.80 23.92 26.35 27.17 28.32 27.08 27.83 30.42 31.05 31.90 31.75 32.85
43.29 43.38 41.61 41.62 40.79 41.92 40.44 41.12 40.89 40.04 40.27 39.40 39.00 38.32 36.78 36.01 34.96 34.57 33.62 32.54 32.09 32.14 31.60 31.48 31.43 33.42 29.68 29.01 27.77 26.77 25.87 25.96 24.58 24.59 27.01 27.72 27.29 28.40 29.18 28.84 31.37 33.52 33.06
41.09 40.76 40.11 39.54 39.93 39.39 40.55 40.06 40.02 39.25 39.27 38.27 37.28 35.84 35.26 34.90 33.74 31.79 32.10 32.16 32.72 31.78 31.76 31.50 30.94 30.13 28.46 27.75 26.73 25.95 26.43 29.18 26.61 25.92 26.06 28.35 27.74 29.05 28.77 29.90 30.39 30.68 31.76
38.91 39.08 38.68 38.57 39.01 39.37 39.47 39.47 39.34 38.86 37.95 36.74 35.81 35.00 34.56 34.17 33.67 32.92 32.85 32.81 31.64 31.90 31.96 31.09 30.20 29.12 27.73 26.86 26.99 26.57 27.61 25.66 25.53 25.70 26.12 25.98 27.72 29.57 28.93 27.23 26.82 28.67 27.76
39.06 39.27 38.68 39.86 39.57 38.85 38.35 38.29 37.40 37.27 35.93 35.17 34.26 33.77 33.50 33.23 33.21 31.83 33.56 31.85 31.30 30.82 30.34 30.22 30.21 31.65 35.60 34.01 31.03 27.14 26.23 25.58 25.00 24.21 25.41 25.78 27.29 26.75 25.66 26.67 25.54 26.24 26.91
37.92 37.63 38.81 38.02 37.71 37.39 36.55 36.17 35.21 34.31 33.84 33.58 32.95 32.51 31.60 33.88 36.34 36.26 34.21 31.89 30.49 29.11 27.72 28.58 28.43 32.35 31.72 35.35 35.35 35.43 33.87 28.57 23.84 23.45 26.55 26.10 25.52 25.34 25.95 25.64 24.79 23.45 22.72
37.39 36.97 36.64 36.55 35.73 35.24 35.07 34.44 33.42 32.80 32.61 31.55 31.22 30.33 30.32 32.28 35.52 35.03 34.73 30.88 28.52 27.30 26.95 27.29 27.59 30.68 30.57 27.58 31.63 34.69 33.76 34.77 34.41 29.89 26.44 25.72 25.18 25.76 25.27 23.58 25.70 26.80 26.08
35.68 35.51 35.64 34.86 34.23 34.27 33.82 32.94 32.44 32.30 31.24 30.99 30.99 31.02 30.17 33.11 34.54 34.00 34.10 28.02 27.35 27.15 27.08 26.70 25.91 26.17 27.33 30.60 28.49 27.10 28.18 27.76 28.16 29.63 28.26 27.36 27.45 29.02 30.03 29.71 27.65 25.76 25.87
34.06 34.15 33.68 34.17 33.51 33.07 32.11 31.57 31.53 31.39 31.28 31.19 31.28 30.03 28.37 30.10 33.29 32.97 31.17 27.73 27.11 25.90 27.43 27.33 28.30 27.22 32.00 34.46 30.03 25.89 26.36 27.33 31.56 32.91 33.27 33.64 33.77 33.44 31.88 28.11 23.62 22.62 20.96
33.51 32.92 33.91 33.55 32.92 32.02 31.90 31.56 31.58 31.42 30.95 30.41 29.24 28.63 30.60 26.25 32.65 33.08 31.77 27.98 25.73 25.98 26.20 26.54 31.68 30.80 33.44 34.40 30.91 28.32 24.91 24.34 25.18 25.55 26.43 26.52 27.69 26.14 30.61 26.23 24.03 21.68 21.30
35.06 34.87 34.45 34.11 32.81 31.95 31.19 31.37 30.74 29.77 28.79 26.90 25.61 26.14 26.85 27.89 27.23 33.44 33.75 27.46 26.00 24.91 25.04 25.40 25.96 32.19 33.63 34.11 33.47 26.62 26.04 29.27 27.95 22.83 23.43 23.71 24.38 24.52 25.34 25.64 25.57 24.64 22.38
34.08 33.33 32.14 31.61 32.37 31.98 30.11 28.58 27.64 26.89 24.92 25.04 25.31 24.70 25.24 25.10 31.63 32.01 33.42 32.85 32.23 26.09 25.25 25.12 25.83 32.32 32.49 31.99 29.89 30.92 31.57 30.05 23.49 22.72 22.38 22.21 22.75 23.24 23.94 24.50 25.13 24.84 24.84
30.61 30.83 30.98 31.20 29.96 28.48 26.27 25.46 25.23 25.85 25.00 23.32 23.48 22.25 22.10 23.52 22.44 30.26 31.40 32.09 31.34 27.89 26.88 29.59 31.96 31.01 29.58 27.00 28.76 29.79 28.95 22.63 22.07 20.96 21.35 21.83 22.39 23.22 23.78 23.45 23.48 23.14 22.56
30.13 29.70 28.58 26.98 26.31 26.30 26.86 26.18 24.80 23.89 22.47 22.37 22.03 20.56 20.00 21.12 22.28 23.67 25.93 24.99 28.90 28.16 28.89 25.62 27.72 26.92 27.09 26.38 24.76 24.16 22.88 22.50 22.42 22.25 21.47 22.49 23.10 22.95 22.00 22.24 21.05 21.34 20.72
28.58 26.61 26.59 26.44 25.29 24.22 24.43 23.39 23.02 23.25 23.77 22.00 21.89 22.29 20.65 20.59 24.06 29.30 28.87 27.30 27.74 28.72 27.53 22.34 20.80 20.70 20.56 21.14 21.51 21.82 22.10 22.11 21.48 21.45 21.19 21.55 21.67 21.66 21.30 21.97 20.74 20.73 20.17
25.86 25.61 25.13 24.21 23.68 22.93 22.13 22.18 30.31 29.91 30.25 29.57 29.05 26.35 24.84 28.37 30.37 30.34 30.71 30.91 30.31 29.35 21.56 19.41 18.84 19.43 19.33 19.57 19.60 19.80 20.60 21.66 20.89 21.20 20.63 20.40 20.05 19.84 19.84 21.06 22.39 20.94 19.25
24.97 24.88 25.17 23.43 21.81 21.23 20.27 19.60 19.05 22.69 28.79 29.54 29.83 29.97 29.96 29.59 29.43 29.63 29.63 29.07 27.47 25.96 19.27 18.38 18.28 18.73 18.77 19.10 19.04 18.97 18.99 20.33 20.81 20.56 20.15 20.20 20.15 20.11 21.47 19.80 19.69 20.05 19.63
25.94 28.89 22.72 21.62 21.04 19.85 19.56 19.53 19.46 19.09 18.15 18.66 24.87 27.43 28.36 28.41 28.55 28.23 27.57 24.95 20.30 21.20 18.73 18.04 18.12 18.71 18.87 18.63 18.86 19.21 19.68 19.87 19.82 20.11 20.92 21.94 21.77 20.82 19.84 19.61 19.75 19.65 19.78
23.34 22.12 21.14 20.61 20.99 21.85 20.39 20.27 19.38 18.98 18.33 17.70 18.63 22.41 24.63 27.38 27.49 26.14 25.64 19.45 18.10 18.04 18.49 18.57 19.14 18.98 18.91 19.36 19.56 19.61 19.49 19.50 21.62 21.57 20.01 20.79 21.51 21.42 20.09 20.31 20.57 24.05 24.72
24.02 27.86 23.96 20.26 20.01 19.82 19.84 19.68 19.00 18.32 17.68 17.72 17.78 18.52 19.53 21.17 17.40 18.37 18.77 18.24 17.94 18.19 18.70 18.61 19.15 19.57 19.63 19.50 19.43 19.40 19.10 19.11 19.13 19.47 20.34 21.31 21.95 22.11 21.22 21.20 21.68 21.43 21.43
21.03 22.22 25.66 19.86 19.26 19.47 19.34 18.86 18.48 18.42 17.93 17.67 17.52 20.48 26.27 18.99 16.37 16.69 17.26 17.58 17.84 18.02 18.57 19.41 19.87 20.20 20.29 19.93 19.87 19.42 19.17 19.07 19.56 20.66 21.28 21.85 22.48 22.27 23.42 23.36 23.08 22.86 22.88
20.13 19.69 20.02 18.86 19.03 19.45 19.42 18.59 18.13 18.35 17.80 17.15 17.30 19.62 24.14 18.55 16.36 16.59 17.68 17.65 18.47 19.32 20.77 20.83 20.34 20.68 20.86 20.43 20.34 19.96 19.53 19.52 20.49 21.56 22.30 23.45 23.87 23.80 24.30 24.66 24.83 25.31 26.40
19.45 19.20 18.57 18.32 18.62 20.73 17.74 18.00 17.72 17.58 17.39 17.14 16.95 18.57 18.86 18.07 17.68 16.80 17.30 17.94 18.44 19.39 20.64 20.90 20.65 20.46 21.42 21.98 22.10 22.06 20.96 21.17 22.93 23.92 23.54 24.35 26.31 27.92 27.84 27.10 27.17 26.96 26.65
18.42 17.83 17.36 17.02 17.92 16.30 16.64 16.87 16.71 19.13 18.90 18.20 17.49 18.49 17.46 17.65 17.56 17.51 17.53 17.70 18.37 19.17 19.96 20.29 20.85 20.67 20.68 20.80 22.40 23.55 23.95 24.89 26.18 28.30 31.44 30.25 28.17 27.70 27.48 27.72 27.55 26.14 26.08
17.42 16.81 16.38 15.07 15.77 15.26 15.90 16.33 16.65 17.03 17.13 17.66 17.65 17.94 17.33 17.39 16.82 16.72 16.97 17.22 17.78 17.99 18.98 19.77 20.29 20.36 20.55 20.60 21.38 22.48 24.77 30.07 32.62 32.14 32.40 28.31 28.19 28.32 28.22 28.11 26.73 25.75 25.25
16.89 16.58 15.69 15.12 14.69 15.09 15.34 14.04 12.33 12.42 12.54 15.72 16.15 14.60 15.51 15.79 16.29 15.98 16.02 16.64 17.60 18.25 18.31 19.52 20.10 19.79 19.94 21.13 22.83 25.99 30.95 33.12 34.55 35.71 34.21 30.59 29.33 29.52 29.56 28.58 26.10 24.88 25.03

GFSGL_sfc_wetblb_054.txt.gz
Wetbulb
47.61 46.03 45.91 45.62 45.72 45.45 45.70 45.35 44.12 42.95 42.58 41.61 40.29 39.94 39.04 37.99 37.74 36.34 34.77 34.72 33.96 33.50 33.35 32.95 31.19 30.85 30.42 28.83 28.46 27.95 26.75 25.32 22.87 24.90 25.65 27.05 26.30 27.19 29.13 29.69 30.87 30.36 31.23
45.16 44.28 43.89 43.81 44.45 43.45 44.16 43.30 42.46 41.61 41.62 40.66 39.43 38.55 37.91 37.26 34.61 34.23 34.85 34.52 33.88 32.93 31.30 30.36 30.90 33.02 29.34 28.24 27.10 26.66 25.64 25.27 24.06 23.54 25.09 25.39 25.55 27.30 27.21 27.31 30.24 32.06 31.43
42.84 42.53 42.02 42.11 42.04 41.81 40.51 40.81 40.97 40.62 39.46 38.76 37.86 36.52 35.81 35.11 34.33 33.84 33.50 32.89 32.93 32.74 32.44 30.64 30.61 29.08 27.87 27.40 26.33 25.56 25.34 27.96 25.28 24.57 25.16 26.04 26.20 26.42 27.76 28.20 28.16 29.54 31.09
41.21 40.26 39.74 40.44 40.06 40.32 40.06 39.78 39.46 39.09 37.98 37.16 36.56 35.49 34.67 34.20 34.45 34.44 34.21 33.48 32.64 32.18 31.46 30.17 29.42 29.05 28.07 26.98 26.99 26.20 26.99 25.55 25.24 24.85 25.30 24.74 24.67 27.38 26.84 25.80 25.85 27.62 27.16
39.48 38.68 37.90 38.96 40.20 38.98 38.72 38.19 37.96 37.08 35.82 35.10 34.41 34.60 34.85 34.75 34.89 33.54 33.65 32.25 31.42 31.04 29.41 29.07 29.44 31.54 35.17 33.89 30.72 27.45 26.64 25.87 25.29 23.21 24.20 21.93 23.11 25.69 24.86 25.98 24.74 25.64 26.48
39.62 38.35 38.78 38.44 37.36 37.55 36.85 36.12 34.88 34.54 34.30 33.96 33.14 33.06 33.43 35.18 37.66 37.23 34.02 31.44 30.51 29.26 27.29 27.45 27.70 30.86 30.51 34.63 35.11 35.26 33.81 28.09 22.24 20.00 20.17 24.31 25.12 25.13 25.97 24.93 24.31 23.05 22.64
37.08 36.97 37.15 36.34 34.82 34.63 34.73 34.26 33.55 32.83 32.94 32.27 31.99 32.09 32.51 34.19 36.80 36.22 35.21 29.58 27.35 26.36 25.56 25.66 26.88 29.66 29.72 27.06 31.27 34.18 33.34 34.85 34.44 30.37 26.33 25.56 25.00 25.80 25.69 23.75 24.94 25.81 25.27
34.63 34.88 35.53 35.05 34.49 34.52 33.94 32.64 32.44 32.50 32.30 32.33 31.98 32.03 31.89 33.41 35.80 34.98 33.80 27.68 26.23 25.92 26.00 25.92 25.10 26.35 27.44 30.06 28.28 26.77 27.17 27.82 27.94 28.39 27.36 27.47 27.48 28.21 29.59 28.94 26.37 25.11 25.29
33.84 34.20 34.48 34.27 33.29 33.00 32.01 31.49 31.31 31.12 31.15 31.04 31.13 30.19 30.70 30.73 34.36 33.90 30.79 26.12 26.38 25.65 26.61 26.70 27.71 27.15 31.46 33.93 29.43 25.88 26.77 26.86 31.38 33.23 33.44 33.88 33.97 33.64 32.01 27.21 23.08 22.32 20.31
33.48 33.54 33.60 33.16 32.21 31.51 32.12 32.52 32.59 32.22 31.15 31.19 29.47 27.94 30.24 25.36 33.72 33.27 31.48 26.89 25.78 25.87 26.00 26.44 30.62 29.98 32.86 33.99 30.45 26.74 23.82 23.98 24.85 25.19 24.77 25.19 27.09 25.46 30.32 25.93 23.20 20.92 20.24
33.96 33.02 32.91 33.79 33.84 33.49 32.59 31.99 31.21 30.17 28.51 26.65 26.11 24.71 24.84 26.68 26.04 33.36 33.84 26.92 26.21 25.23 24.85 25.24 26.02 31.67 33.35 33.58 32.74 25.45 25.39 28.38 25.57 22.25 22.65 22.87 23.64 23.79 24.74 25.07 25.02 23.29 21.59
34.04 34.04 33.91 33.79 34.76 33.38 31.35 29.84 27.97 26.62 23.40 23.32 23.37 22.60 23.69 23.29 30.77 31.39 32.36 32.21 31.58 25.96 25.17 25.42 25.76 32.04 31.68 30.97 28.69 30.04 31.11 29.44 22.68 21.88 21.62 21.40 21.88 22.34 23.07 23.79 24.87 24.70 24.55
33.18 31.93 31.46 31.21 30.26 28.84 26.48 24.72 23.59 23.93 23.56 22.14 22.83 21.15 21.31 23.20 21.76 29.81 31.04 31.54 31.04 27.76 26.77 29.40 31.00 30.12 28.55 26.13 27.87 29.06 28.40 21.83 21.41 20.21 20.44 21.23 21.72 22.29 23.05 23.77 24.17 23.26 21.45
30.44 29.73 28.16 25.93 25.36 25.33 25.62 25.31 23.83 22.42 21.45 22.00 21.92 20.22 19.53 21.21 22.43 24.05 25.98 24.94 28.91 27.90 28.31 23.35 26.25 26.02 26.06 25.65 24.10 23.51 22.53 21.97 21.89 21.45 20.58 21.72 23.04 22.85 22.23 22.50 21.23 21.39 20.62
28.10 25.24 25.46 25.97 24.29 23.17 23.74 22.94 22.28 22.03 23.40 21.79 21.38 21.95 20.47 20.50 23.98 29.09 28.71 27.19 26.14 27.50 24.84 21.26 20.08 20.04 19.68 20.31 20.78 21.15 21.39 21.39 20.76 20.68 20.65 21.02 21.07 21.02 20.42 21.01 20.24 19.72 18.65
24.74 24.80 24.58 23.52 22.44 22.15 21.44 21.25 30.66 30.15 30.46 29.80 29.44 26.33 24.93 28.54 30.44 30.30 30.18 29.95 29.21 28.95 21.17 18.49 17.97 18.41 18.46 18.82 18.94 19.18 19.86 20.80 20.02 20.54 20.29 19.74 19.37 19.25 19.30 20.58 21.58 20.15 18.21
24.65 24.33 24.53 22.30 20.37 19.39 18.79 19.10 18.91 22.16 28.27 29.09 29.42 29.34 29.27 28.83 29.08 29.22 28.57 28.08 26.56 25.23 18.42 17.49 17.31 17.97 18.11 18.51 18.48 18.37 17.90 19.27 19.50 19.54 19.00 19.12 19.79 20.28 21.67 19.60 19.27 19.51 18.94
24.59 28.23 21.37 19.69 19.38 18.37 18.68 19.06 18.93 18.46 17.51 18.10 23.82 26.32 27.53 27.98 28.35 27.66 26.97 23.97 19.24 20.22 17.74 17.10 17.36 18.15 18.49 18.42 18.61 18.36 18.62 18.90 19.22 18.77 19.52 20.91 20.52 19.52 19.16 19.46 19.84 19.38 19.32
22.28 20.80 20.05 19.96 19.95 20.81 20.03 19.51 18.73 18.44 17.51 16.78 17.81 21.47 24.16 27.10 26.24 25.05 24.62 18.28 16.99 16.99 17.44 17.66 18.36 18.33 18.85 19.32 19.16 18.68 18.42 18.31 20.91 20.26 18.42 19.59 20.09 20.60 19.87 20.50 20.71 24.17 24.97
22.38 25.73 22.66 19.80 19.74 19.41 19.22 18.71 18.17 17.51 16.83 16.84 16.76 17.42 18.64 19.89 15.76 16.97 17.60 16.99 16.68 17.05 17.76 17.81 18.51 19.12 19.50 19.14 18.97 18.74 18.37 18.19 17.94 18.58 19.55 20.50 21.90 22.44 21.29 21.40 22.01 22.21 22.32
21.49 22.10 24.71 19.41 18.79 18.92 18.61 17.93 17.69 17.61 16.96 16.63 16.52 19.28 25.58 17.24 15.46 15.74 16.41 16.54 16.70 16.97 17.40 18.39 18.80 18.83 19.02 19.36 19.39 18.82 18.59 18.36 18.44 19.86 20.54 21.98 22.99 23.21 23.79 24.14 24.31 24.52 25.00
19.82 19.21 19.28 17.98 18.59 19.00 17.83 17.69 17.32 17.36 16.85 16.27 16.37 18.59 23.27 17.74 15.68 15.85 17.03 16.97 17.45 18.04 18.80 19.33 18.94 19.13 19.81 19.70 19.65 19.39 19.09 18.28 19.20 21.11 22.42 23.86 24.52 24.46 24.73 26.01 26.57 26.57 26.79
19.07 18.50 17.80 17.58 18.39 20.04 17.05 17.24 16.70 17.06 16.91 16.65 16.44 17.79 18.15 17.25 16.86 15.76 16.52 17.19 17.42 17.79 18.79 19.26 19.44 18.65 19.66 20.88 21.08 21.27 20.11 20.29 22.25 23.76 23.40 24.36 26.94 27.84 27.52 27.22 27.28 26.73 25.81
17.74 17.12 16.75 16.40 17.04 15.51 16.21 16.16 16.36 18.57 18.18 17.38 16.63 17.60 16.71 16.63 16.50 16.59 16.70 16.78 17.00 17.37 18.06 18.44 19.41 19.29 19.64 20.05 21.44 22.49 22.44 23.10 24.71 27.04 30.56 31.07 30.00 28.39 28.47 28.04 27.93 27.30 25.97
16.81 16.25 15.80 14.68 15.24 14.69 15.41 15.66 15.82 16.07 15.98 16.61 16.84 17.00 16.10 15.98 15.62 15.57 16.00 15.96 15.65 16.06 17.21 18.30 19.12 19.17 19.30 19.56 20.60 21.61 23.35 28.64 31.64 31.87 33.53 32.52 30.92 28.70 29.11 29.17 28.82 28.03 26.01
16.28 16.00 15.06 14.48 14.32 14.65 14.85 13.17 10.87 10.88 10.67 14.63 14.88 13.29 14.27 14.59 15.13 14.87 14.65 15.09 15.52 16.48 16.31 17.87 18.84 18.31 18.71 20.00 21.76 24.66 29.78 32.00 33.17 35.52 33.07 31.68 30.90 30.42 30.13 30.35 28.46 28.02 26.62

GFSGL_sfc_wetblb_057.txt.gz
Wetbulb
48.46 46.55 46.18 45.55 44.83 45.32 45.36 44.87 44.17 44.04 43.72 42.91 42.10 41.69 40.15 38.99 38.13 36.72 35.88 35.48 34.17 34.27 33.87 33.52 33.20 33.08 32.34 29.36 29.43 27.68 26.65 25.69 23.47 24.72 25.01 26.00 25.56 26.54 28.56 28.57 29.86 29.05 30.09
44.32 43.51 42.85 43.10 43.43 43.38 42.83 43.02 42.79 43.49 42.73 41.56 41.57 39.61 38.54 37.42 36.58 35.47 35.14 34.72 34.32 34.02 33.44 32.62 32.25 33.36 31.05 29.91 29.06 26.93 25.88 25.28 24.09 23.12 23.51 24.53 25.00 26.48 26.71 26.21 29.46 31.39 30.19
41.97 41.69 41.43 41.65 42.20 44.60 44.19 43.10 43.56 41.52 40.53 40.15 38.96 37.60 36.29 36.10 35.47 35.16 34.74 33.65 33.27 33.22 33.41 32.84 32.14 31.10 29.98 29.02 27.91 26.25 25.77 27.45 24.61 23.33 24.24 24.83 25.27 25.72 25.33 26.90 27.20 27.62 29.97
40.61 40.82 41.01 42.59 42.94 41.99 42.69 42.63 41.16 39.41 38.20 37.10 36.23 35.36 34.73 34.53 34.62 34.58 34.51 34.03 33.97 33.23 32.87 31.94 31.26 30.34 29.16 28.02 27.53 26.50 26.84 24.58 24.38 24.47 25.08 23.99 24.36 25.83 24.87 25.31 25.04 26.60 26.53
38.67 39.61 40.56 41.00 40.69 40.38 39.67 38.89 37.83 36.54 35.26 35.04 34.62 34.66 35.30 35.93 36.03 34.90 34.67 33.81 32.56 31.40 30.69 30.09 29.76 31.37 34.34 33.51 30.70 26.54 25.74 25.19 25.16 23.69 23.50 22.22 20.15 24.13 24.72 25.94 24.62 25.50 25.64
38.03 37.52 38.20 37.89 37.23 36.11 35.43 34.68 34.82 34.51 34.47 34.83 34.84 35.14 35.61 36.92 38.17 36.79 33.79 31.48 30.39 28.81 27.37 26.84 27.08 30.05 30.32 34.01 34.44 35.00 33.55 27.39 21.66 20.58 17.82 22.07 25.10 24.63 25.85 24.93 24.45 23.13 22.73
35.43 35.17 35.21 35.47 34.97 35.12 35.05 34.83 34.39 34.07 34.60 33.95 33.52 33.75 34.18 35.58 36.84 36.48 33.57 30.12 28.41 27.39 26.15 25.46 26.58 29.00 29.09 26.85 30.97 33.78 33.30 34.86 34.41 29.83 26.17 25.58 24.88 25.83 25.78 24.22 25.12 24.37 24.92
34.79 34.84 35.47 35.46 34.58 34.41 33.76 33.05 32.95 33.08 32.58 32.13 32.09 32.30 32.40 34.67 36.41 35.93 33.13 28.67 27.39 26.41 26.19 24.89 24.50 25.60 27.03 29.51 28.12 26.65 27.10 27.53 27.99 28.24 26.61 27.09 27.14 28.08 29.09 28.92 27.11 24.91 25.14
33.91 33.76 34.50 35.08 33.99 33.53 32.46 32.17 32.24 31.96 31.92 31.76 31.79 31.48 31.58 32.51 35.37 35.25 31.11 27.13 27.16 25.55 25.80 25.77 26.95 26.23 30.71 33.36 28.91 26.79 27.57 27.03 30.87 32.91 33.07 33.55 33.70 33.52 31.94 27.00 22.71 21.97 20.42
34.14 34.09 34.21 34.09 33.42 32.36 32.06 31.84 32.02 32.39 31.99 31.75 30.14 29.64 31.41 27.65 33.59 33.60 31.78 27.57 25.68 25.70 26.31 26.17 30.17 29.43 32.77 33.96 30.80 26.24 23.00 23.25 24.27 24.31 24.36 24.78 26.53 24.86 30.03 25.50 22.65 19.29 20.77
34.33 34.16 34.04 34.16 33.13 32.81 32.02 31.98 32.01 31.85 30.48 27.98 25.72 25.39 26.21 27.96 27.16 33.78 33.57 27.24 26.89 25.83 25.33 25.29 26.12 31.81 33.06 32.88 32.10 23.72 24.73 27.77 25.55 21.59 21.93 22.21 23.03 23.23 24.17 24.49 24.57 21.62 21.06
33.07 32.90 32.83 32.99 34.88 34.10 32.28 31.31 29.22 25.76 24.38 24.74 24.13 23.63 23.53 22.82 30.15 30.88 31.97 31.93 31.20 26.15 25.38 25.55 26.06 31.58 31.03 30.26 28.21 29.55 30.81 29.35 22.05 21.27 21.06 20.86 21.31 21.89 22.60 23.10 24.23 24.62 24.94
33.30 33.20 33.19 33.17 31.59 28.03 25.02 23.25 22.21 22.88 22.04 21.40 23.07 21.11 21.46 23.63 22.42 30.03 30.89 31.47 31.19 27.72 26.86 28.58 29.42 28.84 28.13 25.34 27.52 29.21 28.24 21.25 20.92 19.72 19.92 20.71 21.36 21.71 22.09 22.14 23.06 23.69 23.00
31.09 29.54 26.03 23.94 23.52 23.37 24.08 23.34 22.07 21.05 20.72 22.19 21.85 20.65 19.94 21.80 22.72 23.97 25.99 24.58 28.55 27.32 26.71 21.81 25.37 25.33 25.41 25.16 23.57 23.02 21.97 21.47 21.50 21.19 20.02 20.94 21.72 21.12 20.93 21.22 20.22 20.61 20.16
25.33 24.72 24.33 23.70 22.10 21.84 22.69 21.09 20.80 21.09 23.38 21.93 21.24 21.64 20.06 20.23 24.13 28.96 28.53 26.61 25.23 26.65 24.32 20.48 19.36 19.23 18.95 19.69 20.23 20.65 20.81 20.78 20.15 20.06 20.00 20.36 20.50 20.47 19.98 20.39 19.58 19.23 17.95
24.15 23.75 23.09 22.22 21.94 22.62 21.99 21.59 31.25 30.63 30.92 30.44 29.50 26.29 24.95 28.31 29.92 29.98 29.79 29.33 28.34 28.56 20.55 17.73 17.26 17.74 17.95 18.40 18.53 18.73 19.25 20.14 19.17 19.46 19.28 19.11 18.66 18.64 18.92 20.55 21.85 19.86 18.30
23.26 23.37 23.34 20.98 18.95 17.93 17.69 18.77 18.48 22.13 28.47 29.33 29.11 28.57 28.77 28.41 28.89 28.96 28.21 27.52 25.84 24.46 17.64 16.40 16.54 17.35 17.73 18.19 18.14 17.90 17.19 18.40 17.76 18.06 17.59 17.97 18.40 19.10 21.39 18.88 18.98 19.44 19.22
24.04 27.52 20.59 18.52 18.49 17.85 18.56 18.73 18.49 17.93 16.99 17.44 23.26 25.82 27.09 27.91 27.81 26.92 26.62 23.22 18.29 19.33 16.78 16.15 16.56 17.56 18.00 18.15 18.08 17.68 17.58 17.67 17.45 17.48 18.45 20.03 19.60 19.36 19.45 19.06 19.70 19.81 20.10
21.87 20.26 19.44 19.26 19.37 20.67 19.40 18.68 18.12 17.83 16.76 15.97 16.96 20.71 23.62 26.41 25.49 24.51 24.01 17.26 15.91 15.94 16.45 16.74 17.60 17.75 17.98 18.55 18.67 17.85 17.00 17.13 20.15 19.94 17.65 18.10 20.21 21.38 20.83 21.25 21.39 24.97 25.57
22.15 26.01 22.94 19.83 19.43 18.87 18.50 18.01 17.49 16.81 16.00 15.96 15.94 16.57 17.60 18.96 14.96 16.05 16.79 16.16 15.79 16.13 16.83 16.96 17.69 18.32 18.46 18.09 17.67 17.36 17.18 17.32 17.07 17.91 18.53 20.08 21.77 22.98 21.91 22.22 23.12 23.15 23.62
21.59 21.96 24.52 19.00 18.43 18.30 17.71 17.16 17.02 16.80 16.19 15.93 15.76 18.36 25.26 16.50 14.65 14.99 15.50 15.70 15.83 16.15 16.38 17.21 17.76 18.08 17.94 17.52 17.43 16.98 17.23 17.54 18.13 18.87 19.38 21.51 23.02 23.32 24.44 24.30 24.18 24.72 26.45
20.48 19.14 18.67 17.51 18.16 18.20 17.00 17.05 16.59 16.73 16.29 15.71 15.80 17.91 22.78 17.25 15.21 15.21 16.26 16.29 16.77 17.24 17.91 18.25 18.05 18.30 18.48 18.05 18.04 17.76 19.33 18.79 19.19 19.91 21.69 23.46 24.46 25.26 25.84 26.84 26.84 26.87 27.04
18.73 18.15 17.33 17.23 18.03 19.96 16.77 16.63 16.24 16.65 16.59 16.20 15.88 17.10 17.44 16.63 16.05 14.95 15.74 16.42 16.59 16.99 17.89 18.48 18.36 17.67 17.78 18.31 19.88 20.57 19.88 19.35 21.04 22.68 22.32 23.55 26.28 29.64 30.18 28.09 27.48 27.50 27.32
17.37 16.75 16.30 16.14 16.04 15.04 15.80 15.70 15.90 18.07 17.66 16.70 15.95 16.97 16.01 15.71 15.46 15.65 15.82 15.81 16.07 16.39 16.84 17.14 18.08 17.93 18.53 18.58 19.87 21.57 22.28 22.15 23.30 24.74 27.41 30.25 30.82 30.43 29.95 28.60 28.52 28.71 28.19
16.44 15.94 15.58 14.70 15.16 14.48 15.04 15.13 15.33 15.55 15.47 16.00 16.23 16.52 15.39 15.16 14.75 14.69 14.96 14.70 14.35 14.68 15.54 16.82 17.49 18.06 18.26 18.44 19.53 20.63 22.57 27.60 30.39 31.40 32.18 32.36 30.62 29.66 29.69 29.49 29.02 28.63 27.31
15.97 15.78 14.90 14.09 13.87 14.23 14.65 13.42 10.88 10.40 10.18 13.91 14.32 12.44 13.40 13.68 14.29 14.04 13.67 13.77 13.97 14.84 14.65 16.52 17.45 16.30 16.99 18.74 19.85 23.22 28.91 31.12 31.99 34.64 34.42 32.57 30.10 29.72 29.80 29.77 29.78 27.63 27.46

GFSGL_sfc_wetblb_060.txt.gz
Wetbulb
46.38 45.34 45.25 45.42 45.72 45.29 44.84 43.70 43.99 44.98 45.28 44.54 44.35 43.44 42.01 40.94 39.93 38.06 36.72 36.13 35.32 34.75 35.02 34.47 33.89 34.13 33.82 32.64 31.94 30.88 30.23 28.91 24.42 25.49 25.89 26.11 25.97 27.37 29.02 28.17 28.98 27.76 28.95
42.52 42.48 43.63 45.86 45.73 44.85 43.90 42.70 42.78 43.42 43.37 42.34 41.90 40.74 39.32 37.61 36.91 36.15 35.51 35.31 34.70 34.41 33.99 33.47 32.68 34.21 32.14 31.72 31.12 30.15 29.61 26.86 25.55 23.60 24.67 24.63 24.77 26.41 26.23 25.52 28.97 31.08 30.00
40.72 40.67 43.11 43.72 44.96 44.17 43.32 43.39 43.57 42.61 41.60 40.84 39.42 37.56 37.13 36.12 35.64 35.68 35.64 34.65 33.80 34.00 33.96 33.67 32.94 32.31 31.48 30.99 30.06 29.40 27.86 28.50 25.15 23.87 23.39 24.32 24.64 25.14 24.89 25.54 25.90 27.45 29.25
40.46 41.22 43.18 43.41 42.91 43.17 42.54 41.76 40.82 40.07 38.65 37.89 36.98 35.68 35.35 35.13 34.95 34.85 34.83 34.50 34.15 33.56 33.30 32.73 31.81 31.08 30.41 29.59 28.77 27.87 27.49 25.25 24.80 24.12 24.22 22.90 24.11 25.45 23.80 24.54 25.00 25.96 26.50
37.49 38.61 39.77 40.53 40.79 39.80 38.61 37.98 38.16 37.96 37.35 36.09 35.21 35.31 35.62 35.72 36.07 35.36 35.20 34.08 33.12 32.01 31.55 31.27 30.77 31.61 33.98 32.88 31.49 28.68 26.88 26.02 24.97 21.43 23.35 22.83 20.46 22.87 24.56 26.01 24.71 25.37 25.79
35.00 35.93 36.59 36.19 36.43 37.13 36.74 36.21 36.87 35.72 35.24 36.08 35.79 36.48 37.18 38.46 39.50 37.93 34.43 32.14 31.41 30.04 28.62 28.23 28.56 30.27 31.30 32.55 33.47 34.40 33.10 27.56 22.17 19.93 18.53 21.20 23.90 24.08 24.23 24.82 24.43 23.66 23.24
35.10 35.37 35.69 35.78 35.88 35.57 35.93 35.28 34.84 34.55 35.01 34.95 35.45 35.92 36.06 37.25 38.37 37.02 34.32 30.81 29.87 28.59 27.71 27.63 28.20 29.27 29.10 27.27 30.61 33.26 32.80 34.50 34.07 29.45 25.50 24.83 24.38 25.34 25.46 23.98 25.42 25.10 24.87
35.25 35.33 35.46 35.10 34.49 34.75 34.45 34.06 34.05 34.18 33.78 33.73 33.75 34.05 33.86 36.25 38.00 35.46 33.22 29.59 27.99 27.17 26.81 25.75 24.80 26.01 27.15 29.32 28.12 27.55 27.81 27.52 27.96 28.22 26.23 26.33 26.12 27.23 27.92 28.43 26.94 24.94 25.03
34.52 34.91 35.14 34.78 34.19 33.79 32.81 32.69 33.40 33.06 32.53 32.32 32.17 32.42 32.85 34.58 36.57 35.07 30.81 27.72 27.66 26.53 27.04 26.23 27.20 26.46 30.67 33.39 29.27 27.36 27.10 26.20 29.93 32.19 32.63 33.32 33.44 33.19 31.65 26.74 22.51 21.97 20.30
33.93 34.04 34.51 34.31 33.39 32.42 32.64 32.02 31.98 32.30 31.71 31.52 31.11 31.83 33.89 30.20 34.30 34.27 31.11 27.70 25.80 25.84 26.65 26.25 29.98 29.67 32.95 33.64 30.44 25.18 21.83 22.38 23.41 24.02 24.25 24.49 25.88 24.36 29.76 25.16 21.61 18.21 20.30
34.87 34.70 34.17 34.14 33.22 32.88 32.28 32.05 31.98 31.66 30.12 27.73 26.29 26.17 27.14 28.61 30.58 34.70 33.29 26.95 26.84 25.76 25.65 25.92 26.43 31.71 32.59 32.36 31.66 23.44 24.06 27.17 25.54 21.05 21.36 21.70 22.53 22.70 23.73 24.05 24.13 19.19 20.41
34.14 33.32 32.66 33.12 33.94 33.24 31.97 31.05 29.40 26.65 24.72 23.46 22.80 22.76 22.97 22.48 31.12 31.95 32.33 31.91 31.10 26.40 25.66 25.81 25.95 30.84 30.06 29.82 27.80 29.44 31.09 28.78 21.57 20.79 20.58 20.42 20.90 21.45 22.07 22.73 23.30 22.93 23.28
33.80 33.09 33.48 33.37 30.91 27.78 24.88 23.02 22.11 22.73 21.76 21.40 22.39 20.01 20.76 23.38 22.49 30.63 31.01 31.43 30.91 27.36 27.01 28.19 29.01 28.20 27.58 24.83 27.36 28.79 27.62 20.68 20.38 19.30 19.67 20.34 20.59 20.94 21.38 20.97 21.50 21.29 20.33
31.38 28.01 24.21 22.76 22.66 22.58 23.65 22.47 21.03 20.73 20.33 21.65 21.21 20.16 19.71 21.38 22.25 23.76 26.01 24.50 28.42 26.68 25.89 21.55 24.77 24.93 25.11 24.82 23.12 22.50 21.51 21.11 21.45 20.60 19.20 20.23 20.87 18.43 20.05 20.34 19.00 19.33 18.96
24.11 23.97 23.14 22.73 21.41 21.27 21.68 20.17 19.81 19.55 22.36 20.77 20.29 21.12 20.03 20.29 24.21 28.71 28.17 26.39 24.76 26.23 23.65 19.79 18.57 18.58 18.39 19.20 19.82 20.13 20.19 20.23 19.60 19.36 18.78 19.41 19.32 19.57 19.27 19.88 18.78 18.78 18.02
23.20 23.02 22.40 21.93 21.57 22.20 21.71 21.62 31.54 30.87 31.43 30.64 29.28 26.16 24.96 28.37 29.75 29.79 29.46 28.93 27.83 27.95 19.62 16.97 16.46 16.96 17.44 17.99 18.19 18.36 18.78 19.56 18.50 18.52 18.03 17.73 17.41 17.40 18.04 19.85 21.14 19.15 17.78
22.41 22.43 22.45 20.08 18.08 17.48 17.33 18.62 17.79 22.24 29.05 28.97 28.95 28.51 28.60 28.33 28.90 28.53 27.96 27.22 25.43 23.55 16.87 15.33 15.58 16.67 17.11 17.58 17.57 17.16 16.41 17.78 16.48 15.90 15.89 16.34 17.21 19.04 21.91 18.86 19.21 19.71 19.42
23.56 27.06 20.16 17.89 17.99 17.27 17.89 18.03 17.79 17.39 16.48 16.81 22.72 25.53 27.16 27.79 27.28 26.66 26.38 22.09 17.58 18.57 15.92 15.23 15.77 16.88 17.25 17.11 17.12 16.57 16.84 16.96 16.47 16.42 16.48 18.69 19.52 19.52 19.78 20.01 20.84 20.30 20.67
21.87 19.85 18.97 18.68 18.85 19.93 18.61 17.99 17.58 17.22 16.07 15.28 16.18 20.10 23.06 25.97 25.26 24.30 23.52 16.50 14.96 14.95 15.58 15.96 16.88 16.94 17.08 17.44 17.72 17.05 16.31 15.94 19.46 19.30 16.98 17.67 20.06 20.68 20.90 21.90 22.16 25.43 26.35
21.78 25.04 22.46 19.73 19.02 18.21 17.79 17.39 16.90 16.20 15.31 15.32 15.34 15.90 16.95 18.48 14.38 15.33 16.05 15.30 14.86 15.29 16.05 16.14 16.83 17.23 17.61 17.10 16.91 16.58 15.88 15.80 15.35 16.00 17.79 19.90 21.09 22.02 22.37 23.32 24.38 24.31 23.97
21.90 22.20 24.40 18.63 17.96 17.68 17.09 16.64 16.46 16.18 15.58 15.36 15.24 17.74 25.05 15.90 13.84 14.16 14.72 14.88 15.09 15.31 15.52 16.25 16.58 16.95 17.29 16.95 16.53 16.19 16.46 17.81 17.34 18.03 19.17 21.04 21.96 22.49 24.86 25.51 25.33 25.15 25.87
20.63 19.13 18.32 17.31 17.82 17.55 16.53 16.56 16.05 16.24 15.86 15.37 15.41 17.27 22.68 16.80 14.45 14.58 15.56 15.54 16.08 16.41 16.98 17.11 16.77 17.32 17.63 17.23 16.89 16.63 18.18 19.11 19.68 19.47 21.20 22.31 22.95 23.98 25.21 27.51 28.66 27.60 26.96
18.81 17.90 16.99 17.07 17.51 20.15 16.82 16.18 15.86 16.28 16.17 15.85 15.35 16.54 16.84 16.03 15.37 14.20 14.96 15.68 15.74 16.19 16.90 17.18 17.44 16.64 17.52 18.05 18.14 19.19 18.85 19.65 21.32 21.91 21.59 21.99 23.45 25.00 29.73 28.43 27.83 27.46 27.15
17.37 16.67 16.13 15.92 15.74 14.74 15.33 15.27 15.50 17.91 17.62 16.33 15.47 16.43 15.53 15.28 14.81 14.93 15.09 14.99 15.14 15.52 15.67 15.77 16.46 16.52 17.33 18.02 18.97 20.33 21.39 22.20 22.91 22.97 24.09 26.43 29.49 31.63 29.63 28.16 27.64 28.00 28.20
16.34 15.79 15.48 14.90 15.81 14.38 14.66 15.03 14.94 15.20 15.29 15.58 15.68 16.07 15.13 14.69 14.20 13.86 14.10 13.75 13.29 13.52 14.38 15.38 15.89 15.94 15.82 16.96 17.87 18.81 21.24 25.82 28.47 29.67 30.78 31.67 31.88 30.76 29.51 28.94 28.87 29.17 29.24
15.81 15.56 14.74 13.89 13.47 13.73 14.16 13.39 11.28 10.47 10.62 13.50 13.88 12.13 12.97 13.27 13.68 13.24 13.01 12.84 13.02 13.98 13.56 14.95 15.86 15.40 16.70 17.89 18.80 21.99 27.70 30.15 30.90 32.68 33.40 32.84 31.68 30.60 30.10 29.88 30.19 29.69 28.41

GFSGL_sfc_wetblb_063.txt.gz
Wetbulb
46.16 46.62 47.14 47.39 48.22 49.35 50.16 49.90 50.33 49.75 49.79 49.89 48.75 47.71 46.38 45.06 43.68 41.17 39.10 37.98 36.36 35.99 35.80 34.86 34.47 35.25 35.02 33.61 33.67 32.94 32.20 31.30 28.65 30.13 32.65 33.46 32.54 33.68 34.60 35.49 35.33 35.10 35.59
44.40 45.12 45.97 47.51 47.85 47.68 46.99 46.43 47.09 47.06 47.04 46.66 45.96 43.87 42.25 40.81 39.45 37.72 36.96 36.41 35.44 35.02 35.16 34.60 33.96 35.13 33.72 33.47 33.20 32.13 31.76 31.25 29.98 28.45 31.54 31.55 31.59 32.85 33.44 32.90 33.17 34.33 34.74
43.59 44.63 45.74 46.37 46.39 45.57 44.91 45.01 44.96 44.07 43.73 42.91 41.62 39.02 37.91 37.38 36.66 36.69 36.34 35.43 35.31 34.85 34.92 34.29 34.00 34.37 33.17 32.63 31.55 30.90 30.78 31.20 30.65 28.40 28.84 31.01 31.64 31.98 32.14 32.65 32.32 33.14 33.24
41.93 42.52 42.76 43.09 42.47 42.07 42.09 41.76 41.21 40.78 39.36 38.35 37.46 36.48 36.04 36.53 36.49 36.29 35.48 34.92 34.84 34.37 34.38 33.83 32.64 32.11 31.74 31.49 31.24 30.63 31.18 30.13 30.26 29.71 30.15 30.19 30.48 32.14 31.34 29.73 29.96 32.09 31.24
37.56 37.79 38.12 39.27 38.76 37.90 37.26 37.42 37.60 37.00 36.67 36.82 36.37 36.25 36.57 36.88 37.39 36.09 35.82 35.03 34.02 33.18 33.06 32.88 32.56 32.61 33.85 34.23 33.48 32.55 31.82 31.15 30.80 30.52 29.73 29.89 29.66 30.06 29.20 30.42 28.57 29.67 30.82
36.46 36.22 37.07 37.05 36.83 36.66 36.79 36.35 36.57 37.11 37.56 37.53 37.93 37.68 37.55 38.39 40.02 38.92 35.69 33.57 33.02 31.67 30.00 29.74 30.62 32.92 32.82 32.63 33.03 33.89 34.30 32.05 31.12 30.15 29.69 28.54 28.96 29.39 29.76 28.84 28.58 27.63 25.10
35.95 35.85 36.11 36.22 35.59 35.79 36.07 36.09 35.37 34.94 36.22 36.10 36.75 36.91 36.98 38.09 39.85 38.35 35.63 31.55 30.34 29.79 29.76 30.21 30.43 30.63 30.27 29.87 31.34 32.82 33.08 33.87 33.86 32.50 29.83 29.33 28.54 29.55 29.81 28.10 29.02 28.43 26.91
35.49 35.26 35.61 35.31 34.87 35.21 34.49 33.41 32.70 33.56 33.72 32.97 32.19 32.93 35.56 36.08 36.76 35.26 33.81 30.56 30.14 29.70 29.42 29.34 28.77 29.43 29.77 31.66 31.57 31.47 31.28 31.76 31.44 31.20 31.11 30.61 31.00 31.57 31.51 30.81 29.87 28.83 29.11
34.60 34.77 35.07 35.05 34.38 34.11 33.01 33.09 33.72 32.80 32.19 32.24 32.93 33.68 34.48 34.78 35.79 34.47 31.16 30.25 29.35 28.77 29.16 29.30 30.33 29.64 31.14 33.54 32.07 30.63 29.65 29.08 30.50 31.51 32.50 32.91 32.86 32.66 32.01 29.99 27.38 25.71 23.15
33.94 34.21 34.79 34.85 34.02 32.87 33.01 32.22 31.88 32.07 31.80 32.69 32.00 33.10 34.84 33.22 35.37 35.22 31.13 30.07 28.94 28.96 29.37 29.17 30.57 31.14 32.68 33.40 31.02 28.15 25.79 26.77 28.03 28.88 28.67 28.53 28.72 28.22 29.61 28.37 27.10 23.75 23.16
35.26 34.91 34.28 34.23 33.60 33.51 32.57 32.37 32.02 30.73 29.78 28.15 27.50 27.85 29.23 31.63 34.62 34.46 32.85 30.30 29.58 28.65 28.19 28.22 28.91 31.35 31.64 31.04 30.82 27.25 27.35 30.91 27.59 26.39 26.22 26.72 27.00 27.27 27.64 27.88 27.51 25.52 22.69
34.13 33.49 33.09 33.34 34.55 33.91 31.91 30.17 28.72 27.60 26.23 25.25 25.14 25.25 26.02 27.59 32.36 32.90 32.83 32.48 31.81 28.46 27.33 28.27 28.70 29.91 29.15 28.94 28.22 29.76 30.75 28.74 25.66 24.79 24.45 24.75 25.08 25.74 26.50 26.60 26.33 26.30 26.62
34.54 33.90 32.85 30.98 29.23 28.09 26.52 25.84 25.53 25.72 25.08 24.54 24.53 23.75 24.55 26.23 27.14 31.38 31.72 31.39 30.81 28.34 28.70 28.79 28.20 27.51 27.21 25.91 27.58 28.05 26.90 24.69 23.79 23.28 23.41 24.18 24.83 25.39 25.26 25.25 26.13 26.34 25.34
31.14 26.86 26.06 25.57 24.96 25.28 25.98 25.46 24.59 24.14 23.95 24.12 23.91 23.25 23.72 25.10 26.22 27.65 28.37 27.99 28.85 28.00 26.48 25.06 25.55 25.46 25.17 25.30 24.49 24.48 24.30 24.23 24.32 23.72 22.81 23.51 24.24 24.48 24.14 25.26 23.80 24.40 23.15
26.25 26.03 25.39 24.72 23.80 23.90 24.43 24.75 24.81 24.21 25.72 24.31 23.99 24.42 24.08 24.76 27.21 30.07 29.56 28.23 28.11 27.90 25.63 22.93 22.16 21.84 21.97 22.40 22.79 22.97 23.24 23.23 22.88 22.49 21.90 21.83 22.37 22.98 23.17 24.70 23.82 23.20 21.94
25.06 24.88 24.78 24.76 25.34 25.85 25.94 26.06 32.07 31.66 31.50 30.65 29.29 27.50 27.14 28.95 29.78 29.71 29.09 28.69 27.44 27.43 21.98 20.01 20.00 20.53 20.49 20.66 20.82 21.17 21.79 22.02 21.92 21.42 21.05 20.79 20.74 21.15 21.95 24.66 26.60 23.93 22.09
24.68 24.56 25.48 23.28 23.18 23.18 22.61 22.98 22.82 25.57 29.09 28.84 28.78 28.44 28.81 28.63 28.80 27.93 27.77 26.61 25.37 23.39 19.78 19.35 19.27 19.83 20.09 20.41 20.56 20.64 20.31 21.17 20.56 20.01 19.84 20.05 20.60 21.12 23.58 23.92 24.06 24.09 24.37
25.13 27.44 22.93 21.76 21.54 21.19 21.75 21.37 21.41 20.91 20.32 20.44 23.28 26.07 27.21 27.76 26.92 26.39 25.80 22.06 19.68 20.15 19.16 18.87 19.28 19.78 20.06 20.17 20.28 20.17 20.21 20.37 20.19 19.97 20.43 21.43 22.05 21.65 22.43 23.65 24.87 24.77 25.28
24.46 22.71 21.77 21.69 21.72 22.14 21.19 20.65 20.62 20.15 19.21 18.75 19.56 21.61 23.65 25.83 25.37 24.06 22.87 18.75 17.67 17.99 18.60 18.95 19.61 19.85 19.93 20.21 20.22 19.85 19.36 19.03 20.78 22.09 19.97 19.80 21.26 22.90 23.28 24.63 25.55 27.13 27.48
24.06 25.25 23.19 22.43 22.08 20.57 20.31 19.98 19.63 19.11 18.46 18.50 18.39 18.70 19.96 21.18 19.42 18.26 18.56 18.15 18.01 18.10 18.59 18.80 19.51 20.00 19.96 19.82 19.60 19.27 19.12 19.45 19.75 19.75 20.11 21.38 22.86 23.99 23.82 24.64 25.57 25.97 26.48
24.08 25.35 24.70 20.86 20.41 20.07 19.72 19.34 19.11 18.80 18.30 18.13 18.02 19.24 24.60 19.79 17.98 17.57 17.56 17.94 18.18 18.36 18.50 18.87 19.44 19.56 19.67 19.44 19.28 18.89 18.82 19.67 20.97 22.05 21.70 22.67 23.56 23.72 25.31 26.06 26.41 26.98 29.11
23.20 21.96 20.34 19.82 19.86 19.33 19.02 19.10 18.73 18.46 18.18 17.84 18.06 18.57 22.38 19.15 18.02 17.56 17.76 18.21 18.77 19.01 19.28 19.27 19.14 19.36 19.73 19.66 19.63 19.26 19.14 19.85 21.22 22.52 23.35 23.42 23.98 24.72 25.27 25.82 26.74 30.05 28.84
21.79 20.02 19.15 19.25 19.50 21.66 19.58 18.57 18.17 18.30 18.14 18.06 17.71 17.94 18.18 17.96 17.45 17.31 17.37 18.12 18.39 18.52 19.08 19.07 18.88 18.56 19.78 19.85 20.35 20.41 19.64 20.40 22.07 23.12 22.62 22.83 23.93 24.81 25.25 27.57 29.73 28.93 28.15
20.17 19.05 18.61 18.52 18.26 17.60 17.71 17.48 17.58 19.19 19.35 18.11 17.33 17.65 17.39 17.24 16.75 16.80 17.28 17.71 17.64 17.75 18.09 17.96 18.16 17.88 18.19 19.01 20.56 20.90 21.30 21.80 22.91 23.08 23.30 23.78 25.64 28.87 30.34 30.07 29.94 29.51 29.10
18.99 18.12 17.80 17.44 17.81 17.29 16.91 17.68 16.91 17.00 16.98 16.92 16.77 17.00 17.02 16.62 15.97 16.37 16.78 16.91 16.32 16.24 16.62 17.21 17.88 17.91 17.41 18.21 18.49 19.61 21.57 25.14 27.53 29.28 30.58 30.65 30.29 30.77 31.35 30.35 30.09 30.01 30.04
17.98 17.59 17.08 16.39 16.12 16.11 16.23 16.43 16.44 15.88 15.44 15.96 15.98 15.52 15.55 15.26 15.51 15.79 15.81 15.65 15.58 15.95 15.76 16.85 17.62 16.79 17.13 19.05 20.59 22.43 27.92 30.53 30.98 32.31 32.74 32.28 31.75 30.48 30.58 30.71 30.59 30.53 29.92

GFSGL_sfc_wetblb_066.txt.gz
Wetbulb
50.37 50.90 50.74 51.45 52.29 53.08 53.42 53.59 53.74 54.17 54.12 54.34 54.10 52.47 51.71 50.31 49.99 47.88 43.70 41.85 39.99 37.83 39.46 37.02 35.15 36.56 35.73 35.26 35.31 34.97 33.80 34.21 32.48 33.39 32.87 33.39 32.84 33.93 36.87 37.51 37.13 37.13 37.99
49.15 50.52 50.41 51.59 52.12 51.98 51.67 51.38 51.63 51.30 51.69 51.39 50.29 49.27 47.75 45.82 43.63 40.48 38.95 37.85 36.48 35.73 36.17 35.22 35.01 36.56 35.38 35.17 35.05 33.28 33.25 32.62 31.91 30.56 31.95 31.98 33.06 34.38 34.47 34.68 35.90 36.74 36.44
47.95 48.90 48.80 48.60 49.06 48.64 48.43 48.40 47.30 47.09 45.95 45.93 44.89 42.48 41.16 39.50 38.66 37.72 36.92 36.72 36.51 36.31 36.49 35.97 35.17 35.34 34.33 33.93 33.24 32.90 32.60 32.80 31.56 30.98 30.58 33.25 33.09 34.05 34.33 35.51 35.38 35.53 36.19
44.68 45.22 44.26 43.35 43.93 43.78 43.17 42.21 40.47 40.36 39.61 39.03 38.74 38.24 37.78 37.50 37.08 36.66 36.73 36.84 37.43 36.76 36.00 35.76 35.17 34.58 33.55 32.99 33.43 32.59 32.54 32.37 33.66 32.79 32.82 32.85 33.49 34.52 34.38 32.70 32.64 34.11 33.41
42.26 42.22 41.41 40.95 40.62 39.56 38.68 38.43 38.85 38.40 37.70 37.74 37.27 37.36 37.61 37.48 37.52 37.14 37.77 37.77 36.05 34.28 33.70 33.63 33.36 34.29 34.83 34.11 33.88 34.29 33.63 32.63 32.45 32.11 31.79 32.62 32.62 32.58 31.66 32.55 30.72 32.24 33.60
40.75 40.20 40.40 39.40 38.81 37.89 37.87 37.79 37.97 38.30 38.31 38.20 38.08 38.39 38.55 39.29 40.44 39.80 37.25 34.86 33.56 32.08 30.65 31.05 32.93 34.50 34.67 34.00 33.57 34.17 34.61 32.87 32.46 32.40 31.84 30.75 31.86 32.50 32.50 31.17 30.70 28.93 26.91
38.15 38.79 38.57 38.74 38.02 37.52 37.12 36.95 35.09 34.81 35.26 35.11 36.18 37.26 37.19 37.97 39.97 38.67 36.24 32.59 31.69 31.25 30.48 31.19 31.67 32.78 31.67 31.63 32.09 33.00 33.52 33.80 34.09 33.70 31.47 31.48 30.90 31.76 31.51 30.35 29.52 29.23 28.32
37.69 37.84 37.32 37.20 36.18 35.85 35.42 34.45 33.33 33.65 32.99 32.63 32.04 32.06 32.21 34.16 36.77 35.69 33.61 31.25 31.20 31.42 32.06 31.46 31.59 31.44 31.07 32.31 32.98 33.50 33.51 33.77 33.58 32.93 32.47 32.32 32.86 33.51 32.58 32.65 31.56 31.26 32.17
36.28 36.09 36.46 36.24 35.55 35.40 34.35 33.68 34.32 33.75 32.82 32.44 32.95 32.99 33.60 34.07 34.55 33.45 32.28 31.44 30.61 30.77 30.63 31.35 31.51 31.33 31.51 33.77 33.52 32.33 31.88 31.60 32.42 31.77 32.61 33.42 33.72 33.47 33.00 31.48 29.70 29.06 26.77
35.35 35.54 35.99 35.36 35.37 33.79 34.49 33.57 32.70 33.67 32.88 33.96 33.15 34.60 35.38 34.98 35.58 33.60 32.33 32.18 31.37 31.37 31.62 31.40 30.51 32.04 32.65 32.92 32.01 30.71 28.31 28.89 30.67 31.36 31.82 31.90 32.06 31.94 31.17 31.07 30.42 26.44 25.44
36.14 36.33 35.80 35.82 34.78 33.72 32.86 32.80 33.09 33.26 32.78 32.39 32.28 33.07 34.35 35.56 35.02 34.13 32.86 32.39 31.43 30.63 30.13 30.20 30.78 31.03 31.05 30.59 30.53 29.96 28.64 31.91 31.17 30.28 30.16 30.79 31.19 31.47 31.60 31.88 31.22 28.77 25.44
35.26 34.46 34.49 34.94 35.00 34.55 32.88 32.67 32.19 31.37 30.56 30.10 29.94 29.75 30.97 32.68 33.17 33.34 33.19 32.58 31.78 30.20 28.97 30.11 30.50 29.50 28.97 28.75 29.26 29.97 30.79 30.15 29.36 28.62 28.40 28.94 29.24 29.93 30.84 30.56 29.65 29.26 29.25
35.54 34.81 34.77 34.91 33.66 32.90 32.00 31.06 30.73 30.95 30.29 29.59 28.76 28.75 29.05 30.49 31.73 31.45 31.50 31.04 30.70 29.72 29.95 29.21 27.96 27.46 27.58 27.96 28.11 28.15 28.14 28.49 27.74 27.36 27.76 28.43 29.15 29.35 28.73 29.10 31.21 31.23 30.24
34.27 33.74 32.62 31.62 31.17 31.24 31.35 31.73 31.10 30.45 29.92 28.93 28.36 28.14 28.93 29.95 30.91 31.81 31.09 31.31 29.41 29.52 28.34 28.61 26.47 26.24 25.92 26.66 27.29 27.89 27.97 27.78 27.37 27.27 27.05 27.82 28.44 28.16 27.93 29.30 27.81 28.10 26.28
32.57 31.80 31.37 30.59 30.23 29.99 30.40 31.05 30.52 30.25 30.40 29.15 28.83 28.85 28.35 28.46 29.77 30.66 30.12 29.64 29.79 28.99 27.87 26.57 26.42 26.54 26.57 26.80 26.97 27.12 27.30 27.17 26.68 26.86 26.08 26.19 26.47 27.00 27.20 29.55 28.04 27.86 25.95
31.05 30.29 30.03 29.92 30.81 31.50 31.63 31.55 32.60 32.20 31.62 30.69 29.51 29.49 29.43 29.51 29.68 29.37 28.85 28.57 27.30 27.20 25.29 24.23 24.86 25.34 25.04 24.98 25.07 25.54 26.33 25.86 26.35 25.84 25.42 25.28 24.83 25.10 26.43 28.14 29.37 27.16 25.59
30.64 30.07 29.79 30.08 30.61 30.67 30.27 29.77 28.35 29.07 29.34 29.14 28.59 28.48 28.61 28.53 28.32 27.69 27.62 26.51 25.32 24.96 23.87 24.21 23.91 24.36 24.39 24.75 25.10 25.27 25.07 25.80 25.01 24.00 24.15 24.16 24.47 25.44 26.60 26.81 27.60 27.56 26.92
30.34 30.06 29.36 29.51 29.95 29.11 28.37 27.47 27.58 26.51 25.88 25.87 25.24 26.72 27.10 27.64 26.81 26.43 25.77 24.12 23.49 23.61 23.29 23.37 23.77 24.27 24.44 24.52 24.77 24.56 24.51 24.79 24.62 24.28 24.01 24.57 25.35 25.52 25.24 26.17 27.27 25.89 26.01
30.11 29.09 28.69 28.54 28.10 27.63 27.00 26.37 26.50 25.63 25.14 24.87 25.17 24.79 25.13 25.74 25.40 24.15 23.22 22.53 21.59 22.14 23.07 23.37 24.07 24.27 24.63 24.66 24.30 24.04 23.63 23.17 23.90 24.50 24.22 23.95 24.79 25.61 25.46 26.54 26.93 27.76 28.09
29.83 28.59 28.18 27.93 27.68 26.46 26.00 25.51 25.20 24.76 24.39 24.27 23.85 23.57 24.56 24.99 24.53 22.83 22.66 22.23 22.02 22.40 22.76 23.09 24.02 24.53 24.68 24.38 24.01 23.66 23.26 23.78 24.57 24.73 25.32 25.86 26.22 26.38 26.00 26.47 26.90 27.43 27.24
29.83 28.82 28.43 27.46 26.58 26.12 25.86 25.20 24.86 24.29 23.74 23.42 23.16 23.29 24.26 24.61 23.14 22.03 21.80 22.09 22.24 22.40 22.72 23.36 24.03 24.73 25.01 24.63 24.07 23.76 23.57 23.86 24.24 24.77 25.31 26.12 26.30 25.59 26.92 26.34 27.57 27.62 27.84
29.33 29.10 27.37 26.43 25.92 24.94 25.21 24.97 24.31 23.52 23.13 22.83 23.25 22.71 22.79 23.25 22.31 22.03 22.02 22.44 23.02 23.18 23.51 23.33 23.80 24.64 24.97 24.24 23.79 23.54 23.24 23.28 24.43 25.26 25.58 25.88 26.11 26.34 25.97 26.44 27.15 28.53 28.76
28.14 26.48 25.17 25.28 25.48 25.27 24.84 23.97 23.32 23.17 23.02 22.85 22.77 21.97 22.00 21.91 21.69 21.77 21.85 22.27 22.66 22.93 23.30 23.14 23.19 23.17 24.46 24.58 24.73 24.24 23.05 23.56 24.73 25.35 24.46 24.41 25.16 25.32 26.35 27.33 28.57 30.03 30.05
27.06 25.83 25.16 24.95 24.86 25.29 24.58 23.58 23.10 22.17 22.85 22.38 22.06 21.70 21.63 21.43 21.22 21.00 20.99 21.78 22.35 22.57 22.81 22.53 22.47 22.16 22.09 22.38 23.86 24.84 25.43 25.00 25.17 24.60 23.99 23.95 24.60 26.05 27.59 29.42 30.41 29.77 30.07
25.70 24.94 24.45 24.34 23.93 24.59 23.42 23.14 22.39 22.16 21.64 21.35 20.96 20.93 21.24 21.02 20.57 20.77 21.03 21.75 21.63 21.26 21.31 21.62 21.94 22.11 21.87 21.53 21.36 21.87 23.53 25.78 26.73 27.97 29.73 30.37 30.19 30.41 30.60 31.19 30.11 30.75 30.61
24.58 23.99 24.08 23.79 23.63 23.65 22.73 22.02 22.13 22.45 22.06 21.98 21.18 21.25 20.85 20.49 20.37 20.51 20.95 20.79 20.44 20.63 20.35 20.77 21.30 21.13 20.86 21.68 22.47 24.09 27.69 29.88 30.58 31.84 32.07 31.97 31.68 31.00 31.11 31.05 31.00 30.69 30.59

GFSGL_sfc_wetblb_069.txt.gz
Wetbulb
51.29 52.17 52.30 52.69 53.16 53.88 53.98 54.06 54.06 54.47 54.70 54.50 54.34 54.39 53.87 52.95 52.69 49.94 46.44 44.57 41.40 40.47 40.24 38.68 37.61 38.46 37.68 36.97 36.98 36.30 36.15 36.03 34.64 33.30 34.42 34.84 34.05 34.04 34.49 35.94 37.28 36.56 36.71
50.42 51.60 51.31 51.74 52.19 51.82 51.49 51.42 51.78 51.44 52.06 51.53 52.16 51.43 50.03 48.78 46.52 43.80 42.67 40.32 39.27 38.22 37.10 37.42 36.82 37.28 36.81 36.50 35.85 34.83 34.50 33.79 34.08 32.24 32.41 32.29 32.19 33.83 34.57 34.12 35.04 36.54 36.17
48.60 48.95 47.85 47.83 47.61 46.86 46.24 45.93 46.39 46.12 45.13 44.15 43.26 43.10 41.97 41.40 39.83 39.36 38.37 37.40 36.92 36.62 36.90 36.87 37.09 36.33 35.80 34.39 34.20 33.88 33.27 33.60 32.57 31.97 31.50 33.64 33.65 34.16 33.50 34.53 34.54 35.12 36.27
45.96 45.56 44.41 44.03 43.80 43.14 42.62 42.19 41.55 41.05 39.88 39.03 38.80 38.22 37.89 37.71 37.65 37.81 37.69 37.32 37.26 37.07 37.25 37.25 37.12 36.15 34.68 33.54 33.37 32.99 32.88 32.06 32.27 31.97 32.22 33.13 33.52 34.18 33.87 31.98 31.81 33.32 32.36
43.95 43.45 42.33 42.14 41.45 40.88 39.99 39.71 39.31 39.22 39.13 38.92 38.11 38.32 38.42 38.25 38.07 37.61 37.16 36.40 35.31 34.19 34.64 35.31 34.69 35.98 36.58 35.60 34.17 33.69 33.59 32.78 32.59 32.66 31.61 32.09 32.46 31.80 30.64 31.91 30.22 30.96 31.98
42.14 41.60 41.65 41.37 40.79 39.69 39.57 39.52 39.43 39.19 39.33 39.44 38.89 38.87 38.76 39.49 40.49 39.43 36.26 33.87 33.28 32.38 31.57 33.94 34.43 35.51 36.07 36.06 34.90 34.58 34.32 32.66 32.89 32.41 32.33 30.07 30.50 31.46 31.21 29.97 29.23 27.83 26.24
40.46 40.32 40.34 39.89 38.66 38.22 38.11 37.52 36.34 35.82 36.14 34.96 34.85 34.56 34.21 37.03 39.30 38.46 36.04 31.97 31.16 30.98 31.49 31.72 32.10 32.74 32.37 31.62 32.37 32.83 33.26 33.78 34.00 32.63 30.27 30.23 29.46 30.40 29.83 28.31 29.18 29.10 27.81
39.38 38.86 39.28 38.43 36.88 36.45 35.57 34.63 34.25 34.43 33.90 33.51 32.74 33.00 33.07 34.85 36.92 36.36 35.00 32.05 31.94 31.91 31.66 31.54 31.32 30.93 31.14 31.92 32.41 32.56 32.95 33.03 33.38 33.12 31.43 30.93 31.11 31.97 31.78 31.00 30.33 29.77 30.29
37.27 36.87 37.59 36.61 35.51 35.05 34.36 34.15 34.63 33.66 32.96 32.89 33.73 33.27 32.99 33.29 34.85 34.47 33.07 32.15 31.80 30.84 30.83 31.44 31.55 31.46 32.23 33.72 32.83 32.01 31.05 30.70 33.33 32.83 32.58 33.58 34.31 34.75 34.08 30.62 27.79 27.65 26.42
36.15 36.26 36.28 35.72 34.44 34.11 34.28 33.28 33.27 34.11 33.60 33.82 34.80 35.54 35.97 34.29 34.47 33.65 33.09 32.65 31.24 30.82 31.36 31.24 31.34 31.89 32.86 32.90 30.71 29.69 27.47 27.49 28.99 30.70 30.48 31.29 32.46 31.50 33.58 30.20 28.84 26.38 25.99
36.61 36.15 35.56 35.74 34.02 34.33 33.54 33.74 34.38 34.24 34.22 33.72 33.51 34.63 35.01 34.85 34.08 34.36 33.99 32.06 30.60 29.87 29.26 29.18 29.85 31.14 31.03 30.82 30.79 28.53 27.57 30.41 30.87 29.04 28.44 28.67 29.27 29.65 29.94 30.34 30.20 29.91 26.50
36.15 35.37 35.07 35.71 35.72 35.56 34.73 34.25 33.21 32.59 31.64 31.23 30.82 30.55 31.94 32.94 33.75 33.54 33.12 32.30 31.89 29.29 28.17 29.04 29.77 30.08 29.44 29.37 29.04 30.23 31.26 31.02 28.21 27.20 27.05 27.40 28.02 28.85 30.17 30.12 29.45 29.05 29.25
35.98 35.87 36.18 36.31 34.98 34.29 33.11 32.42 31.90 32.13 31.24 30.04 29.04 28.96 28.92 30.33 31.39 31.37 31.36 31.05 30.92 28.90 29.32 29.17 28.89 28.41 28.42 28.65 28.75 29.21 29.34 27.33 26.69 26.22 26.92 27.43 28.44 29.19 28.79 28.49 30.01 30.36 30.17
36.65 36.09 34.16 32.55 32.43 32.57 32.65 32.85 31.86 31.03 30.08 28.95 28.31 28.21 28.60 29.28 30.09 31.10 30.72 30.62 30.35 29.73 29.11 28.95 27.09 27.01 27.84 27.59 27.56 27.82 27.28 26.75 26.16 25.66 26.06 27.00 27.79 27.90 27.30 28.33 27.46 27.59 26.58
34.63 32.68 32.31 32.05 31.82 30.91 31.16 31.69 30.68 30.35 30.66 29.29 28.84 28.46 27.84 27.89 29.07 30.25 29.60 28.59 28.62 28.54 27.67 26.00 25.37 25.55 25.74 26.20 26.36 26.54 26.53 26.39 25.74 26.53 26.00 25.35 25.56 26.12 26.08 27.82 27.35 27.29 26.25
32.17 31.66 31.26 30.76 31.61 31.73 30.92 30.33 32.77 32.15 31.63 31.01 30.44 29.64 29.18 29.34 29.89 29.54 29.11 28.87 27.94 27.81 24.83 23.71 23.92 24.87 24.84 24.84 24.87 25.17 26.01 26.51 26.20 25.96 24.26 24.39 24.15 24.04 24.29 26.27 27.62 26.64 25.58
31.92 31.01 30.67 31.44 31.37 31.27 31.07 30.71 27.97 28.68 29.70 29.28 28.67 28.81 28.80 28.68 28.48 27.87 27.95 27.48 26.38 25.91 23.33 23.76 23.58 24.36 24.44 24.69 24.78 25.29 24.56 25.57 25.88 24.52 24.47 24.11 23.95 23.82 24.17 25.29 26.10 26.45 25.84
32.03 32.47 30.52 30.98 30.85 30.29 29.41 28.41 28.20 27.09 26.11 25.84 25.96 26.68 27.18 27.89 27.34 26.99 26.75 26.09 23.65 24.44 23.18 23.11 23.62 24.27 24.34 24.70 24.97 24.18 24.59 24.68 24.30 24.04 23.87 24.38 24.70 24.33 23.93 24.56 25.38 25.67 25.78
30.63 30.14 30.11 29.45 29.25 28.99 27.95 27.24 27.11 26.19 25.64 25.33 25.24 25.27 25.57 26.13 26.70 26.42 25.22 22.37 21.76 21.88 23.05 23.18 23.97 24.03 24.91 24.74 24.94 24.66 24.34 23.94 24.28 24.63 24.60 24.38 24.61 23.91 23.63 24.56 25.10 27.45 27.87
30.96 30.79 30.34 28.82 28.02 27.33 26.86 26.28 25.94 25.45 25.02 24.73 24.30 24.27 24.75 25.04 24.84 24.53 23.63 22.76 22.10 22.22 22.77 22.69 23.52 24.19 25.02 24.97 24.14 24.16 23.80 23.42 23.39 24.23 25.07 25.34 25.04 25.76 25.20 25.11 25.29 24.88 25.22
29.98 29.03 29.78 28.25 27.85 27.11 26.55 25.87 25.53 24.95 24.43 24.12 23.93 24.70 24.64 23.85 23.88 23.09 22.41 22.36 22.23 22.43 22.49 22.75 23.35 24.03 25.31 24.83 24.50 24.50 24.37 24.26 24.18 24.40 24.51 24.44 24.90 24.65 25.35 25.52 25.40 25.42 25.66
30.20 29.23 28.39 27.46 27.00 25.69 25.63 25.77 25.25 24.54 24.15 23.67 23.91 24.25 24.50 23.29 23.00 22.50 22.64 22.68 23.13 23.18 23.26 23.02 23.00 23.62 24.24 24.54 23.86 23.39 22.84 22.71 23.49 23.93 24.25 24.30 24.44 24.57 24.67 24.68 25.28 25.60 26.18
29.70 28.83 27.52 26.62 26.11 26.61 25.64 24.83 24.15 23.85 23.74 23.69 23.53 23.28 23.10 22.40 22.28 22.13 22.29 22.58 22.49 22.57 23.14 23.01 22.54 22.32 23.56 23.65 25.00 24.38 23.34 22.09 23.11 24.32 23.11 22.44 22.34 22.71 23.83 23.93 24.90 25.78 26.47
28.88 27.75 26.50 25.90 25.37 25.10 25.13 24.24 23.60 24.13 23.66 23.31 23.16 22.96 22.34 22.13 21.73 21.59 21.62 21.65 21.89 22.34 22.70 22.45 22.23 21.25 21.51 21.29 22.45 23.07 24.12 24.39 25.15 24.36 23.52 22.46 22.18 23.75 23.89 24.49 26.50 29.02 28.75
27.42 26.90 26.04 25.21 24.45 24.95 24.28 23.65 22.82 22.46 22.45 22.47 22.17 22.15 21.87 21.77 21.22 21.46 21.64 21.57 21.41 21.49 21.12 21.29 21.55 20.66 19.96 19.01 19.74 20.25 21.86 25.72 26.78 27.97 28.40 28.09 27.93 28.58 29.07 29.44 29.56 29.35 29.24
26.28 26.15 25.38 25.22 24.25 24.51 23.30 22.66 22.35 22.41 22.37 23.02 22.49 21.99 21.71 21.44 21.31 21.29 21.07 20.93 20.60 20.59 19.97 20.63 20.29 18.97 18.89 19.99 20.52 22.22 26.94 29.19 29.84 31.37 30.35 30.49 30.51 31.00 30.72 30.36 29.52 29.28 29.24

GFSGL_sfc_wetblb_072.txt.gz
Wetbulb
47.47 48.38 48.13 48.52 49.22 49.34 48.55 48.35 48.76 49.17 49.20 49.35 50.86 51.99 51.43 50.66 50.51 48.18 46.42 44.88 42.92 41.59 41.06 40.20 39.15 39.26 39.05 39.21 39.25 39.31 38.42 37.49 35.89 33.14 34.39 34.75 34.78 35.32 35.97 35.78 36.36 36.14 36.10
46.18 46.00 45.15 45.43 44.48 43.19 42.44 43.47 44.45 43.54 43.19 42.46 44.84 44.27 43.50 42.82 43.06 43.43 41.80 41.25 40.06 38.66 38.49 37.91 37.43 38.43 37.44 37.66 37.32 37.20 34.99 34.80 35.39 32.47 32.62 32.40 32.75 34.06 34.23 34.02 34.91 36.12 33.90
43.91 42.83 41.93 41.36 40.68 39.39 39.15 39.37 39.21 38.38 37.58 37.68 37.66 37.73 37.51 37.13 38.13 38.12 37.91 37.47 37.63 37.58 37.46 36.91 36.95 36.63 35.30 35.01 34.68 33.80 33.66 33.90 33.32 32.80 31.82 33.32 33.22 33.65 31.59 32.11 31.99 32.19 34.88
42.12 40.72 39.48 38.46 38.16 37.92 38.07 37.72 37.80 37.29 36.60 36.76 36.92 37.73 38.01 38.17 38.18 38.03 37.74 37.04 36.58 36.30 36.47 36.48 36.35 35.69 34.76 34.26 34.16 33.47 33.25 32.20 32.23 31.47 31.09 31.49 31.43 31.86 30.66 29.73 28.91 29.66 28.22
40.25 39.33 38.56 38.74 38.30 37.71 37.59 37.89 37.65 37.37 37.40 38.47 38.44 38.29 38.42 37.72 37.41 36.70 36.28 35.40 34.77 34.32 34.66 35.30 35.67 36.59 37.21 35.88 33.82 33.24 33.00 31.97 31.44 31.50 31.04 30.92 29.94 29.33 28.07 28.76 27.06 27.33 28.51
38.69 38.47 39.07 38.41 38.05 38.03 38.30 37.52 37.72 37.74 37.87 37.42 37.53 38.47 38.47 39.22 40.07 38.71 35.09 32.80 32.62 32.71 32.16 32.60 33.41 33.91 35.50 37.01 35.76 35.64 34.74 32.07 31.71 28.61 28.19 28.14 27.96 27.76 27.47 26.24 25.76 23.87 22.21
37.49 37.96 37.87 37.65 36.93 36.45 36.58 35.81 35.19 33.71 34.21 34.02 34.18 35.31 36.07 37.00 39.64 38.34 35.91 32.16 31.63 31.64 31.77 31.99 32.40 32.80 32.28 31.52 32.51 33.16 33.38 33.91 33.74 30.89 27.97 27.23 25.86 26.85 25.49 22.78 24.86 21.86 23.73
36.43 37.07 38.07 36.78 36.01 35.37 34.88 34.14 33.63 33.91 32.99 32.22 32.09 33.19 33.84 36.31 38.07 37.17 35.26 32.35 32.02 31.44 31.67 31.85 31.20 30.24 30.66 32.11 31.62 30.00 30.43 30.67 31.57 31.72 28.14 27.26 27.44 28.67 28.65 25.92 25.15 26.02 26.69
35.44 36.62 36.62 36.14 35.29 34.64 33.95 33.62 33.77 32.66 31.72 32.48 32.72 32.45 31.62 31.82 35.53 34.80 32.38 29.45 28.55 27.88 29.77 30.18 30.14 29.54 33.08 34.38 30.74 29.75 28.47 27.43 32.36 32.97 32.46 33.41 34.28 34.78 33.80 25.79 21.10 20.12 22.91
36.00 35.95 35.45 35.31 35.07 33.46 33.77 32.24 32.79 33.84 33.04 33.61 31.94 30.82 33.87 28.91 34.77 34.41 32.61 29.88 26.23 27.02 27.45 28.84 32.39 31.06 32.91 32.63 27.81 25.31 23.76 23.71 25.33 27.49 27.28 28.21 29.71 28.27 33.44 27.62 23.37 15.31 25.39
36.31 35.27 34.69 34.80 34.43 33.99 32.88 32.31 31.34 29.08 27.03 25.97 28.97 29.07 29.33 30.58 30.83 34.96 34.52 28.80 26.46 25.56 25.29 25.45 26.26 31.22 30.85 30.65 30.37 24.53 24.86 27.12 27.95 25.05 23.91 24.21 25.47 25.93 27.02 27.45 27.34 25.96 25.84
35.75 35.02 34.68 34.71 34.96 33.90 31.00 29.03 29.32 28.22 26.14 25.27 25.23 24.83 26.30 28.19 33.43 33.04 33.02 32.23 31.30 24.99 24.24 24.96 25.98 30.24 29.59 29.54 27.78 30.55 31.21 30.39 24.78 23.73 23.81 23.09 23.55 23.94 27.98 29.44 29.10 29.06 29.21
35.48 35.19 34.95 34.04 33.77 33.01 28.00 26.63 25.74 25.80 24.44 23.24 23.38 22.34 22.92 25.53 26.29 31.65 31.61 31.25 30.77 26.00 26.13 28.04 29.30 28.78 29.06 27.41 29.54 30.06 29.57 23.62 23.49 22.01 21.88 21.05 21.29 21.57 24.40 28.28 29.54 29.99 29.68
35.60 35.30 32.28 27.51 27.06 26.95 27.81 27.20 25.73 24.70 23.87 23.15 23.06 22.52 22.22 23.42 24.37 25.47 26.27 24.71 29.77 27.22 27.83 24.94 26.81 27.70 28.69 27.52 26.94 25.87 24.67 23.67 22.61 20.59 19.94 21.08 23.10 26.84 26.34 27.58 26.48 27.12 26.50
32.95 28.35 27.22 27.43 26.14 24.93 27.08 25.45 24.49 25.77 26.73 23.26 22.69 23.16 22.33 22.24 25.97 28.90 27.97 26.22 25.04 26.63 26.20 22.18 21.21 21.89 22.25 23.10 23.36 23.67 23.57 23.63 22.08 21.11 23.90 24.91 24.99 25.42 25.22 26.25 24.90 25.02 24.89
27.40 26.20 25.49 24.83 25.04 26.02 26.07 26.32 32.74 31.58 31.94 31.66 31.07 27.46 26.19 28.93 30.08 29.58 29.23 29.09 28.91 28.21 22.54 19.95 19.35 20.35 21.10 22.44 22.57 22.87 23.34 25.69 25.25 25.31 24.15 23.56 23.34 23.22 23.22 24.35 25.25 24.72 24.03
26.47 25.38 25.57 26.82 26.26 26.54 26.74 25.64 23.65 26.66 30.14 29.61 28.97 29.13 28.89 28.79 28.90 28.14 28.15 28.08 27.99 25.78 19.90 18.87 19.50 20.42 20.82 21.09 20.31 22.63 23.86 24.79 25.15 24.46 24.16 23.84 23.64 23.45 23.80 23.28 23.31 23.48 23.52
26.13 31.40 25.32 26.03 26.39 26.07 24.75 24.03 23.52 22.95 21.15 20.87 26.45 26.41 27.79 27.89 28.21 27.64 27.48 26.27 21.00 22.76 19.24 18.57 18.55 20.18 20.23 19.86 24.09 23.99 23.93 24.00 23.86 23.67 23.27 22.30 22.19 21.42 19.65 19.54 20.15 22.42 23.21
25.67 25.28 24.92 24.93 24.57 24.82 23.15 22.72 22.05 21.61 20.80 19.98 20.03 24.32 26.01 27.08 27.54 27.80 27.19 20.41 18.35 18.21 18.78 18.82 20.03 19.37 18.63 24.07 24.13 24.02 23.83 23.46 23.88 23.76 22.49 23.13 23.75 21.95 21.13 21.04 22.37 26.09 26.41
25.74 29.26 27.50 24.24 23.95 22.73 22.12 21.78 21.31 20.85 20.14 19.79 19.86 20.36 20.67 22.08 19.68 21.39 20.83 19.35 18.35 18.52 19.14 18.51 19.26 18.65 17.25 23.54 24.15 23.91 23.35 23.35 23.06 23.07 23.19 22.96 23.03 22.77 22.17 22.57 23.07 22.47 23.43
25.89 26.31 29.62 24.07 22.78 22.18 21.77 21.38 21.18 20.66 20.28 20.05 20.02 22.70 26.08 20.05 19.49 19.60 18.49 18.09 18.20 18.07 18.08 18.68 17.68 16.60 13.71 22.35 24.10 23.77 23.42 23.39 23.45 22.84 22.02 22.26 22.43 22.13 23.11 23.33 23.21 23.58 24.34
26.21 25.69 24.94 23.17 23.21 22.42 21.56 21.46 20.86 20.94 20.65 19.87 19.87 22.40 26.85 21.79 19.01 18.91 19.17 18.90 18.77 18.75 19.24 18.60 16.19 15.57 14.58 14.08 19.45 22.82 22.10 21.98 21.26 21.44 21.09 21.92 22.39 22.57 22.60 22.34 22.76 23.42 24.16
26.75 25.78 25.05 23.72 23.25 25.10 23.25 21.62 21.09 20.86 20.24 19.83 19.73 21.29 21.33 20.04 19.28 18.20 18.92 18.81 17.98 18.24 19.26 19.15 17.37 15.14 15.18 15.35 14.71 18.65 21.70 21.26 21.74 22.01 21.38 21.49 21.14 20.96 21.16 21.53 22.67 23.75 24.29
27.52 26.38 24.66 23.76 22.64 21.79 21.67 21.17 20.13 22.96 20.77 20.66 20.38 21.17 19.85 19.47 19.15 18.97 18.22 17.42 17.52 18.05 17.45 17.40 17.20 15.36 14.88 14.78 15.32 16.12 18.53 21.77 22.52 22.28 22.05 21.73 20.96 22.18 22.87 23.22 24.07 24.32 24.68
26.99 25.80 24.63 23.75 23.55 22.38 22.19 21.55 20.00 19.51 20.30 20.85 20.71 20.59 19.81 19.37 18.43 17.01 17.20 16.58 15.29 15.33 16.47 17.37 16.66 15.76 15.37 14.25 14.83 14.59 18.25 24.36 24.86 26.04 26.64 26.39 25.90 25.58 26.43 27.53 28.64 29.16 28.51
26.51 25.62 24.85 23.97 22.91 22.42 22.33 20.83 18.89 17.71 18.23 19.95 19.76 18.59 18.69 18.19 18.01 16.84 16.28 15.61 15.13 16.29 15.99 16.25 16.03 14.90 14.09 14.98 14.74 17.53 24.85 27.33 28.07 30.41 29.77 28.93 28.58 28.57 28.62 28.89 29.83 29.37 28.99

GFSGL_sfc_wetblb_075.txt.gz
Wetbulb
46.28 45.10 44.18 43.42 42.97 42.87 42.87 43.65 43.55 42.92 43.30 45.67 47.08 47.09 46.62 47.47 47.22 46.35 45.32 44.62 43.19 42.10 41.87 40.87 39.70 40.39 39.91 39.75 40.10 40.22 39.79 39.54 37.78 34.35 34.93 35.22 34.86 35.54 37.10 37.95 37.49 36.57 36.83
43.33 42.21 41.46 40.79 39.83 38.74 38.02 38.04 38.32 37.26 37.81 38.13 39.59 39.06 37.97 38.43 38.94 41.89 41.46 41.03 40.26 39.15 38.85 38.74 38.21 39.02 37.86 38.06 37.92 36.76 35.88 36.04 37.50 33.31 33.03 33.16 34.05 34.82 34.95 34.36 35.29 36.32 35.25
41.12 39.57 38.69 37.95 37.58 36.58 36.70 37.20 37.13 36.30 35.92 36.16 36.24 35.86 35.86 36.09 36.22 36.56 37.89 38.18 37.93 37.84 37.77 37.47 37.06 36.80 35.55 35.26 34.88 34.41 34.35 35.07 34.81 34.08 32.17 33.80 33.63 33.88 33.27 33.55 33.30 31.74 33.89
39.98 38.47 37.44 36.74 36.64 36.48 36.66 36.55 36.42 36.02 35.65 35.76 36.13 36.44 36.75 36.91 37.01 36.78 36.45 35.85 36.47 36.47 36.71 36.54 36.17 35.54 34.69 34.27 34.04 33.78 33.58 32.42 32.23 31.66 31.34 31.63 31.50 32.70 32.19 29.10 27.70 29.65 28.32
38.87 38.08 37.31 37.31 37.22 36.95 36.56 36.71 37.26 37.02 37.42 37.77 37.43 37.63 37.32 37.19 36.56 34.87 35.40 35.09 34.73 34.58 35.24 36.19 36.43 37.33 38.01 36.84 34.46 33.21 32.96 32.07 31.80 31.92 31.16 30.77 29.96 29.10 27.89 28.08 26.66 27.33 27.87
38.09 37.41 37.69 37.27 38.27 37.59 37.14 36.87 36.50 36.42 36.50 37.06 37.83 37.75 37.54 38.00 39.51 38.36 34.42 33.11 33.49 33.05 32.21 32.87 33.64 34.32 35.68 37.03 37.47 36.75 34.20 31.82 31.76 30.09 28.05 27.97 27.53 26.08 25.87 25.71 24.76 22.83 22.26
36.77 36.81 36.80 37.33 36.53 36.06 36.23 35.12 34.77 34.15 34.43 34.30 35.54 36.52 37.04 37.96 38.98 38.26 35.81 30.28 28.92 29.88 31.00 31.34 32.12 32.86 32.37 31.43 32.98 33.76 33.60 34.32 33.86 29.71 26.71 26.24 25.40 25.31 24.24 21.35 24.91 22.01 22.79
35.95 36.48 37.14 36.63 35.68 35.57 34.34 33.85 33.49 33.31 32.52 32.93 32.76 33.57 34.43 37.25 38.30 37.07 35.48 31.15 30.60 30.72 30.18 28.82 28.16 28.09 28.89 31.07 30.80 29.52 29.57 30.01 30.68 31.26 28.37 27.12 26.45 27.26 27.75 25.88 25.17 25.40 25.59
34.84 36.08 36.47 36.18 35.04 34.92 33.56 33.23 32.97 32.63 32.07 32.44 31.44 29.10 28.68 30.92 35.74 35.18 31.06 26.92 26.77 26.34 27.94 27.82 27.99 27.31 33.18 34.29 27.82 25.87 25.49 25.47 30.98 33.20 32.64 33.74 34.67 35.08 33.76 25.39 21.25 18.99 19.59
35.24 35.60 35.99 35.89 34.90 33.67 33.34 32.77 32.89 33.02 31.67 29.23 26.43 27.97 32.82 27.88 35.63 35.38 30.81 28.11 24.99 26.00 26.41 26.90 32.35 29.87 32.23 31.85 25.82 23.91 22.47 22.71 24.60 26.35 26.16 26.82 27.80 27.14 32.82 26.84 22.81 13.13 15.65
35.72 35.21 35.38 35.39 34.42 33.99 33.17 33.06 30.72 24.82 24.81 24.16 27.33 27.32 27.90 29.39 30.87 34.84 33.60 27.34 25.55 24.54 24.60 24.94 25.72 31.36 30.82 30.54 30.16 24.03 24.46 25.98 27.30 23.81 22.99 23.53 24.70 25.76 26.90 26.94 26.50 16.95 22.49
35.21 34.38 34.14 34.56 34.92 33.53 30.78 27.94 28.13 26.71 24.59 23.84 23.98 24.15 26.10 27.32 32.61 32.80 32.85 32.23 30.04 24.48 24.03 24.73 25.41 30.30 29.69 29.76 27.85 30.35 31.16 29.74 23.98 23.28 23.39 22.72 22.81 22.69 25.56 26.43 28.70 29.10 29.31
34.94 34.26 34.63 35.02 32.44 31.30 28.13 26.86 25.54 24.34 22.92 21.81 22.72 22.04 22.33 25.88 25.30 32.26 32.20 31.46 30.92 25.75 25.84 28.30 29.92 28.88 28.63 26.57 29.67 30.32 29.54 23.24 23.00 21.43 21.02 19.86 19.86 19.18 20.31 27.81 29.17 29.74 29.28
35.03 34.68 32.42 30.89 30.12 28.77 26.41 25.29 23.54 22.42 21.70 22.30 22.84 22.08 21.46 22.45 23.83 24.84 25.38 24.24 28.69 26.67 27.35 23.93 26.96 27.50 28.42 27.47 26.47 25.27 24.23 23.27 22.14 19.91 19.22 20.63 24.34 26.24 25.71 27.23 25.80 26.39 20.79
35.33 33.25 28.76 26.09 24.72 24.54 25.35 22.15 22.60 24.31 24.20 22.18 22.67 23.15 21.99 22.20 25.57 28.66 27.60 26.18 24.86 26.73 25.54 22.23 20.78 21.40 21.90 22.63 22.97 23.25 23.42 23.85 21.63 20.71 23.92 24.32 24.04 24.12 24.51 25.66 25.05 24.53 22.04
31.09 25.87 25.01 24.28 22.77 24.79 25.15 25.33 32.16 31.80 32.81 32.28 31.07 26.66 26.29 29.30 30.62 29.70 29.18 29.17 29.18 28.61 22.66 19.65 18.76 19.97 20.63 22.01 22.14 22.36 22.60 25.22 25.25 25.15 24.46 24.04 23.46 23.41 23.23 23.97 21.92 23.69 20.94
26.74 24.94 25.47 24.59 23.02 23.49 23.86 24.16 23.60 26.90 30.71 30.29 30.11 30.11 29.52 29.09 29.74 28.60 28.26 28.55 28.72 26.70 19.45 18.13 18.63 19.34 19.66 19.94 19.01 19.25 23.73 24.75 24.89 24.12 23.81 23.72 23.58 22.30 21.99 17.19 17.46 19.17 21.66
26.34 30.91 24.11 23.73 24.26 24.29 24.48 24.97 23.70 22.77 21.47 21.41 27.59 27.27 28.86 28.54 29.07 28.55 28.18 26.59 20.55 22.19 18.68 17.29 17.48 18.90 19.02 17.78 21.01 23.69 23.72 24.18 23.91 23.72 23.34 23.25 20.42 21.44 19.41 18.04 17.71 18.10 19.49
25.25 25.36 23.97 23.90 24.23 25.39 23.53 22.70 22.08 21.85 20.29 19.35 19.61 25.06 26.84 28.64 28.07 28.73 28.81 21.10 17.91 17.57 17.77 17.77 18.98 18.17 17.34 16.87 20.57 23.87 23.88 23.38 23.78 23.70 23.09 22.59 16.85 19.37 19.80 19.52 20.56 24.62 25.42
25.18 29.25 27.29 23.78 23.83 23.18 22.61 22.15 21.00 20.43 19.64 19.23 19.17 19.71 20.28 22.79 19.09 20.46 21.27 19.78 18.22 18.09 18.37 17.98 18.49 17.72 15.93 12.91 14.99 23.75 23.47 23.35 23.05 22.01 18.83 18.92 20.11 21.06 20.49 20.63 21.30 20.98 21.24
25.40 26.85 30.26 23.54 22.57 22.19 21.99 21.60 20.86 20.36 19.95 19.51 19.31 22.12 25.70 19.07 18.52 19.46 18.88 17.98 18.18 17.88 17.74 18.02 17.15 15.39 12.01 10.01 10.82 22.49 22.83 22.58 22.63 22.68 19.40 19.50 20.51 20.40 20.82 21.92 22.05 22.29 22.14
26.97 26.97 27.12 23.85 22.79 22.58 21.95 21.04 20.73 20.59 20.21 19.37 19.32 21.51 28.09 22.28 19.35 19.08 19.36 19.02 18.97 18.58 18.82 18.28 15.64 13.96 12.52 10.36 11.48 13.52 21.64 21.26 21.54 21.75 19.59 19.09 19.84 20.77 21.38 20.97 20.85 21.09 22.25
27.81 26.72 26.60 24.30 23.65 25.75 24.97 21.92 21.04 20.29 19.93 19.72 19.64 20.79 21.29 20.14 19.29 17.78 18.26 18.65 18.20 18.53 19.08 18.53 16.34 14.05 13.39 12.47 11.50 12.13 14.06 18.73 19.62 18.59 19.95 19.86 19.85 20.20 20.45 19.73 20.60 21.77 22.77
28.11 26.92 26.31 25.52 23.77 23.53 23.28 22.99 21.46 23.46 21.25 21.00 20.55 21.13 20.16 19.68 18.84 18.76 18.12 17.79 18.12 18.42 17.83 16.78 16.21 14.05 13.12 12.08 12.11 12.37 12.95 15.94 18.14 19.15 19.26 19.57 19.53 20.80 21.98 22.39 22.84 23.91 23.76
28.36 27.11 26.48 25.19 24.61 25.10 23.61 23.22 22.27 21.45 21.76 21.81 21.14 20.86 20.09 19.83 18.72 17.80 17.30 17.27 16.51 16.10 16.20 16.31 15.36 13.83 13.67 12.57 12.48 11.22 14.08 22.68 22.50 23.08 23.31 22.75 22.16 21.94 22.55 24.03 25.39 26.56 26.85
28.90 28.38 27.30 25.63 24.42 24.56 23.58 23.28 22.64 21.92 21.32 21.47 20.66 19.27 19.31 18.82 18.63 17.64 17.58 17.12 16.13 16.46 15.96 15.76 15.35 13.80 12.88 12.93 12.45 15.07 23.53 25.77 26.27 28.15 28.09 27.95 26.25 26.37 27.51 27.37 26.95 27.15 27.70

GFSGL_sfc_wetblb_078.txt.gz
Wetbulb
43.07 41.46 39.97 39.26 39.02 38.85 39.10 39.34 39.20 39.57 41.63 43.38 43.93 42.75 42.54 43.68 46.20 45.95 45.09 44.79 43.52 42.34 41.76 40.95 40.21 40.98 40.26 40.30 40.72 40.61 40.32 40.00 37.19 34.29 35.61 35.78 35.79 36.81 37.69 38.84 38.69 38.34 38.06
41.11 39.68 38.76 38.56 37.82 37.07 36.65 36.65 36.95 36.30 36.81 37.22 37.17 36.71 36.84 37.26 37.99 41.44 41.47 41.38 40.86 39.73 39.55 39.22 38.80 39.32 37.98 38.10 37.59 36.26 36.03 36.07 37.21 33.97 33.86 33.87 34.69 35.80 35.99 35.42 36.35 36.91 35.90
39.16 38.02 37.36 36.72 36.17 35.62 35.71 36.25 36.53 35.98 35.88 36.29 36.49 36.08 35.91 36.20 36.19 36.36 36.46 36.08 37.56 37.92 37.71 37.45 37.47 37.16 35.93 35.73 35.34 34.61 34.58 35.13 34.87 34.51 31.62 34.22 34.09 34.20 33.39 33.77 33.42 31.49 33.42
38.34 37.35 36.42 36.11 36.02 36.01 36.24 36.40 36.36 35.96 35.66 35.87 36.02 35.94 35.99 35.83 35.81 35.47 35.02 34.55 35.06 34.72 35.28 36.01 36.11 35.66 34.92 34.51 34.33 34.18 33.83 32.94 32.96 32.44 31.91 31.84 32.11 32.24 32.20 28.78 27.04 28.28 27.68
37.86 37.11 36.56 36.85 36.75 36.48 36.58 36.55 36.53 36.83 36.57 36.64 36.34 36.22 36.04 36.06 35.78 33.89 34.83 34.59 34.49 34.57 35.66 35.93 36.28 37.83 38.46 36.95 33.13 32.97 33.79 33.13 32.56 32.07 31.25 31.03 26.92 29.03 26.62 25.68 25.02 25.28 25.60
37.52 36.88 37.37 38.18 37.76 37.19 36.77 36.45 36.58 36.60 36.98 37.75 37.54 36.32 37.02 38.03 39.46 38.42 34.91 33.61 33.01 32.75 32.48 33.18 33.84 33.10 35.89 38.40 38.21 36.73 34.81 32.19 28.00 28.15 26.15 26.44 25.90 25.48 25.48 24.98 24.24 21.49 21.15
36.52 36.43 36.93 37.46 36.55 36.16 35.81 35.36 34.72 34.42 35.31 35.23 36.17 37.05 37.21 37.31 39.06 38.29 35.65 28.56 27.27 30.66 29.87 25.41 29.81 32.56 32.22 30.77 32.67 34.00 33.50 34.78 33.54 27.93 25.38 24.60 24.02 24.18 22.21 18.98 23.12 18.96 21.36
35.50 35.86 37.23 36.60 35.84 35.04 34.77 33.91 33.40 33.53 33.53 34.03 33.45 34.09 34.87 37.61 38.37 37.31 35.04 27.74 26.42 25.48 24.62 24.63 26.00 26.63 28.30 29.90 28.68 27.87 27.82 28.07 28.38 30.46 27.25 26.21 25.37 25.41 25.75 23.76 23.65 24.51 25.02
34.97 36.37 36.70 36.21 35.08 34.42 33.38 32.77 33.28 32.77 32.65 32.47 32.28 30.15 28.85 30.26 35.67 34.53 29.83 25.51 26.13 25.62 27.24 26.85 26.87 26.91 33.76 33.78 27.05 25.60 24.72 24.99 30.59 33.93 32.88 33.65 34.39 35.22 32.39 26.12 21.47 18.88 19.22
35.55 36.24 36.13 35.95 35.14 33.68 33.39 32.90 32.49 29.64 26.87 27.56 26.33 26.46 32.41 27.50 35.84 34.57 30.11 27.35 24.92 25.95 25.91 26.08 32.60 29.23 32.20 31.90 25.59 23.81 22.39 22.82 24.12 26.35 25.72 25.86 27.11 27.54 32.46 26.43 22.52 13.33 13.97
36.21 36.03 35.86 35.53 34.66 33.82 33.25 33.19 31.14 24.22 25.44 22.90 26.25 25.93 26.96 29.05 30.34 34.27 32.58 26.57 25.35 24.15 24.54 24.91 25.62 31.56 31.07 30.64 30.11 23.85 24.34 25.42 27.11 23.27 22.64 23.18 24.58 25.34 26.38 26.64 25.23 14.96 21.38
35.35 35.16 34.73 34.48 34.72 34.06 32.96 27.31 27.44 26.19 24.65 23.85 24.23 24.67 25.80 26.39 32.34 32.60 32.84 31.74 29.26 24.51 24.13 24.80 25.35 30.36 29.99 30.00 28.25 30.03 31.09 28.25 23.31 23.10 23.33 22.36 22.24 22.06 22.59 23.67 26.44 28.78 29.24
34.51 34.03 34.52 34.85 33.56 32.79 27.94 26.71 25.43 23.91 22.73 21.81 23.53 22.68 23.14 26.05 24.44 32.26 32.35 31.71 30.94 25.73 25.73 27.73 30.59 29.36 28.73 26.36 29.60 30.45 29.37 23.08 22.78 20.74 20.16 18.97 19.23 18.39 22.61 27.30 28.84 29.17 29.00
33.89 33.99 34.42 32.83 31.40 28.26 28.02 26.37 23.48 22.11 20.86 21.75 22.04 21.67 21.06 22.21 23.67 25.04 25.81 24.22 28.37 26.65 27.46 23.96 26.50 27.40 28.29 27.05 26.07 24.79 23.96 23.12 21.74 19.25 18.62 19.98 25.01 25.62 25.24 26.49 24.93 25.49 24.63
34.85 33.91 32.44 30.22 29.05 26.11 24.22 22.46 20.90 21.48 23.33 21.64 21.72 22.41 21.24 22.21 25.48 28.17 27.40 25.97 24.60 26.99 24.99 21.83 20.56 21.17 21.58 22.33 22.68 23.08 23.24 23.67 20.94 22.26 24.35 24.54 24.70 24.92 24.58 25.36 24.53 23.70 22.38
34.42 31.52 29.28 25.14 22.55 24.02 22.69 23.86 30.95 31.79 32.92 31.69 30.67 26.26 26.15 29.08 31.49 31.10 29.84 29.45 29.46 29.41 22.76 19.32 18.04 19.33 19.99 21.50 21.67 21.94 22.05 24.83 25.22 24.85 24.66 24.30 23.70 23.51 22.42 17.58 14.89 15.99 19.55
33.46 27.05 25.90 24.07 23.11 23.57 23.99 24.37 23.79 27.36 31.58 31.70 31.82 31.60 30.81 29.56 31.35 30.05 29.08 28.93 29.37 27.77 19.27 17.42 17.95 18.41 18.78 19.10 18.19 16.85 22.52 24.50 24.93 24.02 23.72 23.38 23.50 22.83 21.65 16.30 14.76 15.07 17.96
28.44 31.54 25.37 23.15 23.32 23.67 23.83 24.04 23.60 23.09 21.86 21.35 28.56 28.75 30.31 29.94 30.25 30.13 29.32 27.56 20.46 21.67 18.20 16.72 16.57 18.08 18.18 16.93 16.70 16.33 23.73 24.05 24.00 23.79 23.46 23.30 23.07 18.21 16.84 14.92 14.53 14.36 16.53
27.36 26.48 24.57 24.09 24.20 25.74 24.45 24.35 23.58 23.02 21.83 19.60 19.52 25.10 28.70 30.68 29.81 29.79 30.21 22.67 18.47 17.23 17.38 17.18 18.13 17.64 16.81 15.74 15.94 15.62 23.58 23.46 23.57 23.33 23.27 22.80 16.23 13.84 17.86 15.13 17.28 23.48 24.39
26.86 30.04 28.22 25.00 24.52 24.51 22.82 23.01 22.15 21.49 20.32 19.28 18.53 19.27 19.85 24.00 18.78 19.87 20.76 19.98 19.09 18.47 18.10 17.56 17.83 17.29 15.85 11.85 9.40 10.90 21.75 23.01 22.76 22.77 22.71 20.36 16.07 17.12 18.39 18.76 19.52 19.15 19.60
26.61 27.81 31.26 24.96 24.25 24.33 23.32 22.39 21.62 20.37 19.75 19.14 19.05 21.54 25.65 19.04 18.56 18.43 19.02 18.68 18.46 17.99 17.74 17.75 16.74 15.52 13.00 9.10 5.28 7.57 13.49 18.80 22.28 22.04 21.71 21.49 17.13 17.85 18.97 20.20 20.44 20.76 20.48
28.36 27.72 28.98 26.24 24.90 24.12 23.28 22.86 21.97 21.12 20.13 19.44 19.23 20.84 28.67 23.24 19.20 19.10 19.70 19.54 19.48 18.97 18.92 18.17 15.91 14.49 13.46 9.46 9.15 8.13 10.31 14.28 18.43 21.20 20.85 20.59 17.08 18.61 19.28 19.47 19.89 20.20 19.96
30.07 28.04 27.94 27.18 25.33 27.12 25.93 23.39 22.08 21.36 21.04 20.27 19.83 20.51 20.86 20.77 20.03 18.60 19.28 18.78 18.34 18.40 19.17 18.69 16.83 14.09 13.51 11.33 9.49 9.49 9.68 12.69 15.44 14.00 16.01 18.45 18.54 18.73 19.23 18.96 18.86 18.96 19.86
30.36 29.08 27.92 27.54 25.56 25.13 24.72 23.87 22.78 24.18 22.08 22.29 21.42 21.10 20.76 20.49 19.60 19.03 18.82 18.74 18.08 18.53 18.52 17.48 16.49 14.72 12.96 11.69 10.29 9.91 9.90 12.19 12.63 14.42 13.24 16.15 17.67 19.20 19.59 20.30 21.05 21.60 22.03
30.52 29.00 28.01 27.15 25.98 26.23 24.90 24.57 23.27 22.78 22.93 22.56 21.81 21.62 21.18 20.84 19.58 18.98 19.00 18.11 17.64 17.29 17.16 16.62 15.70 14.63 13.82 12.33 11.36 9.89 12.19 21.47 20.77 19.24 18.98 19.19 19.09 18.52 19.26 20.27 20.95 21.92 22.84
30.44 29.25 29.15 28.51 26.42 26.33 25.14 24.66 23.77 23.24 22.75 22.95 22.50 22.13 21.80 21.18 20.22 19.53 19.01 18.79 17.77 17.81 16.89 16.14 15.74 14.57 13.10 12.03 11.59 14.21 22.59 24.88 25.26 26.81 26.11 25.90 25.10 24.94 25.00 24.45 24.63 25.57 25.84

GFSGL_sfc_wetblb_081.txt.gz
Wetbulb
40.78 39.36 38.16 37.60 37.83 37.65 37.42 37.50 38.10 39.27 41.00 41.26 41.20 41.67 42.30 44.04 45.18 44.71 44.67 45.31 44.06 42.81 42.56 41.89 40.95 41.42 39.67 40.69 40.75 40.59 40.02 40.40 37.88 34.62 35.79 36.20 36.67 37.77 38.75 39.55 39.27 39.22 39.26
39.50 37.99 37.13 36.95 36.37 35.57 35.27 35.57 36.19 35.89 36.45 36.62 37.09 37.05 37.30 38.10 38.94 40.73 40.25 41.59 40.69 40.41 40.07 39.93 39.15 39.83 38.31 38.16 37.30 36.76 36.07 36.81 37.60 34.64 34.21 34.28 34.91 36.24 36.54 36.35 37.27 37.80 36.58
38.32 37.31 36.44 35.77 35.56 34.89 34.99 35.56 35.83 35.72 35.94 36.46 36.54 36.17 36.27 36.48 36.39 36.13 36.00 37.66 38.02 37.97 38.13 37.78 37.51 37.28 35.51 35.28 34.76 31.38 30.72 35.24 35.40 34.75 32.70 34.02 34.07 34.44 33.81 34.39 33.87 33.05 33.78
37.63 36.84 35.87 35.44 35.36 35.48 36.09 36.19 36.18 35.95 35.69 35.45 35.54 35.59 35.49 35.34 35.22 34.92 35.11 35.09 34.66 33.98 34.23 33.95 33.61 33.38 32.27 31.48 31.36 31.14 32.07 31.78 31.33 30.42 31.48 32.20 32.57 33.08 32.45 28.91 27.68 27.09 27.17
37.08 36.52 35.96 36.10 36.19 35.85 35.75 35.92 36.17 36.08 35.79 35.77 35.52 35.62 35.35 35.35 35.31 35.26 35.66 35.31 35.01 34.87 35.23 36.44 36.54 37.51 38.37 35.93 32.34 31.02 30.85 30.28 32.02 31.75 30.84 31.14 30.22 27.83 26.30 25.56 24.89 24.58 24.52
36.78 36.34 37.03 37.46 37.56 36.31 36.76 36.82 36.89 37.02 37.08 35.82 35.41 36.33 37.11 37.92 39.25 38.22 35.66 34.22 33.94 33.78 32.92 32.99 33.48 32.68 35.63 38.25 37.61 37.07 35.12 29.18 26.59 25.90 28.58 24.86 24.30 24.01 24.32 24.03 22.53 19.28 19.48
36.22 36.12 36.81 37.66 36.81 36.22 36.08 35.73 35.17 35.34 36.22 36.14 36.69 36.87 36.89 37.28 39.06 38.21 35.57 29.29 30.95 30.92 26.45 24.52 28.93 31.33 30.16 28.62 32.97 34.11 34.45 35.74 33.28 27.11 24.65 23.93 23.62 23.90 21.70 18.29 22.51 17.56 20.61
35.36 35.57 36.71 36.76 35.71 35.46 34.72 34.25 33.87 34.34 34.30 34.58 33.66 34.26 35.09 36.98 38.37 37.16 34.56 25.88 24.91 24.08 23.01 23.53 25.28 25.94 28.64 28.73 27.92 27.34 27.33 26.52 28.41 29.90 26.81 25.97 25.75 25.11 25.07 22.38 22.49 24.11 25.05
34.81 35.36 36.56 36.46 35.16 34.51 33.37 33.20 33.50 33.42 32.76 32.51 32.51 29.92 29.03 30.50 35.28 34.12 29.21 24.86 25.85 25.24 26.68 26.37 26.87 27.00 33.66 33.34 26.59 25.49 24.30 24.67 30.52 33.84 33.00 33.52 34.01 34.27 32.17 28.46 23.86 18.92 19.37
35.67 35.82 36.49 36.11 34.93 33.70 33.30 32.90 32.52 32.56 31.14 28.80 27.23 26.55 32.41 27.67 35.44 34.01 29.34 27.00 24.71 25.74 25.36 25.76 32.68 29.18 32.24 31.94 25.10 23.53 22.05 22.60 23.70 26.16 25.14 25.39 26.83 28.05 32.17 26.22 21.95 11.60 13.31
36.77 36.38 36.04 35.80 34.61 34.11 33.28 32.96 29.60 26.81 25.68 22.55 25.46 24.92 26.44 28.54 30.36 33.96 32.09 26.39 25.20 24.12 24.58 24.92 25.90 32.01 31.73 31.00 30.05 23.64 24.13 25.28 26.96 22.96 22.41 23.15 24.61 24.91 25.77 26.23 24.46 14.66 21.53
36.01 35.62 35.03 34.91 34.75 34.22 32.65 30.91 27.16 26.22 24.71 23.52 23.85 24.77 25.59 25.05 32.22 32.92 33.36 31.58 29.23 24.52 24.07 25.01 25.29 30.38 30.13 30.28 28.28 29.78 31.09 27.64 23.05 22.84 22.90 21.51 21.48 21.33 21.81 22.67 24.91 26.84 29.08
35.18 34.57 34.43 34.45 33.99 33.67 30.07 26.95 25.26 24.70 23.46 22.48 24.32 23.39 23.85 25.98 24.07 32.61 32.64 32.00 31.25 26.03 26.08 27.61 30.76 30.72 29.15 26.51 29.53 30.60 29.16 22.93 22.38 20.06 19.50 18.24 18.62 17.85 22.31 26.97 28.46 28.67 28.39
34.25 34.27 34.48 32.99 32.52 31.28 29.24 27.26 24.30 22.39 21.17 22.36 22.32 21.76 20.79 22.21 23.05 24.37 25.68 24.13 28.33 26.95 27.55 23.91 26.39 27.55 28.34 26.93 26.05 24.70 23.82 22.88 21.21 18.62 17.97 19.06 23.52 25.83 24.80 26.28 24.39 24.85 23.82
34.26 33.89 33.74 32.95 32.41 29.44 26.60 24.31 21.95 21.85 23.50 21.46 21.47 22.25 21.04 21.08 24.51 27.64 27.06 25.84 24.21 27.07 24.83 21.32 20.12 20.72 21.11 21.87 22.25 22.60 22.76 23.19 20.15 21.43 24.01 24.73 25.15 25.30 24.81 25.22 24.19 23.19 18.72
34.09 33.56 33.07 32.01 28.94 26.22 22.94 21.30 30.10 29.61 31.80 31.91 30.56 25.85 25.02 28.82 30.99 32.66 31.77 30.52 30.08 30.04 22.88 19.36 17.50 18.73 19.40 20.89 21.18 21.40 21.51 22.96 23.66 25.22 24.67 24.30 23.55 23.26 23.13 16.17 12.89 12.80 16.45
34.29 32.72 32.64 28.83 23.87 22.27 21.27 22.40 23.77 28.07 32.56 32.96 32.68 32.08 31.19 30.27 32.06 32.15 30.96 29.88 29.87 28.90 20.15 17.03 17.41 17.87 18.08 18.53 17.53 16.28 14.98 21.99 24.77 23.89 23.59 23.35 23.42 23.36 22.13 14.06 13.10 11.63 15.52
33.76 34.31 28.63 24.51 22.93 22.73 22.85 23.65 23.83 23.69 22.93 22.45 29.36 30.30 31.76 31.32 31.13 31.82 30.82 29.02 21.82 21.54 18.01 16.46 16.44 17.55 17.83 17.15 16.31 13.47 14.27 20.98 23.98 23.85 23.48 23.33 23.10 22.58 13.29 12.29 12.53 12.87 15.19
32.64 31.74 26.24 23.96 23.06 25.05 24.63 24.36 23.97 23.48 21.94 20.30 19.89 25.55 30.34 31.71 31.48 31.18 31.38 23.63 20.29 17.42 17.18 17.02 17.74 17.30 16.83 16.32 16.50 13.65 12.19 13.09 17.51 23.07 23.14 23.01 22.84 15.74 13.55 13.12 15.17 22.28 23.53
31.88 31.82 28.39 24.73 23.41 23.87 23.53 23.77 23.55 22.69 21.85 20.80 19.38 20.08 20.52 25.10 19.38 20.91 20.94 20.23 19.50 19.28 18.75 17.78 17.77 17.30 16.29 14.54 12.48 9.86 8.51 12.47 14.14 19.45 22.37 22.43 22.22 19.35 15.30 16.77 17.83 17.45 18.04
31.36 29.74 32.87 25.91 24.67 24.79 23.96 23.53 23.50 22.89 21.68 20.78 20.51 21.75 25.76 19.33 20.00 19.77 18.91 18.72 19.12 19.16 18.87 18.48 17.23 16.27 15.32 13.28 10.56 10.61 9.27 10.87 11.80 12.85 19.12 21.41 21.21 19.74 17.03 18.40 18.85 19.18 19.06
30.66 29.49 29.90 26.91 25.64 24.48 24.78 23.98 22.65 22.81 22.01 20.97 20.39 21.29 28.75 25.27 20.26 19.51 18.93 19.77 20.24 20.16 19.90 19.77 17.27 16.05 16.21 14.24 12.95 11.55 9.71 9.54 10.51 11.77 14.04 19.71 20.30 19.76 17.38 17.56 18.25 18.29 18.72
31.76 29.75 28.97 28.36 26.29 27.90 26.82 24.82 24.08 23.38 22.82 22.03 21.34 21.41 21.35 22.86 22.13 20.73 21.14 21.19 20.62 20.26 20.17 19.62 19.38 17.86 16.46 15.36 12.53 11.62 9.99 11.78 13.34 11.87 12.43 14.78 16.26 17.88 17.24 16.97 17.82 17.89 18.15
32.48 31.63 30.73 29.87 28.09 26.47 25.86 25.70 24.73 25.87 23.77 22.84 21.95 21.98 22.01 21.91 21.54 21.38 21.58 20.95 20.39 20.20 19.61 19.46 19.45 18.59 17.49 15.00 12.46 10.34 10.19 11.76 9.99 11.04 9.88 12.66 14.33 16.29 16.98 18.17 18.90 19.15 19.74
32.98 32.08 31.32 30.48 28.94 28.43 26.35 25.91 24.38 23.98 23.92 23.32 22.59 22.56 22.33 21.85 21.21 21.48 21.51 21.32 20.91 20.22 19.88 19.04 18.84 18.11 17.37 15.70 13.44 10.86 12.69 21.05 20.00 16.33 15.67 15.35 15.33 15.60 17.21 18.44 18.78 19.81 19.98
33.10 31.80 31.22 30.66 29.83 28.70 27.96 26.37 25.23 24.49 23.86 23.85 23.32 22.91 22.62 22.32 22.40 22.56 22.07 21.18 20.50 20.35 20.16 19.25 18.33 17.68 16.90 16.04 14.02 14.73 22.04 24.29 24.79 26.40 25.46 24.14 21.77 21.55 20.45 19.63 19.95 21.39 22.63

GFSGL_sfc_wetblb_084.txt.gz
Wetbulb
39.39 38.21 37.54 36.89 37.03 37.07 36.86 36.80 37.70 38.47 39.56 39.83 41.10 42.40 44.50 45.72 46.50 46.09 45.82 46.17 44.69 43.69 43.39 42.65 41.50 41.94 40.87 40.46 38.97 38.70 38.30 38.54 38.50 35.09 36.27 36.62 37.36 38.38 39.12 39.62 39.76 39.55 39.71
38.28 37.44 36.68 36.12 35.73 35.28 35.21 35.42 36.06 35.74 36.39 36.86 37.78 38.28 38.82 39.06 39.89 41.02 40.72 41.29 41.62 41.03 40.75 40.49 39.62 40.10 38.39 38.00 38.09 36.88 34.37 36.72 38.00 35.10 34.59 34.76 35.16 36.58 36.77 36.63 37.57 38.10 36.97
38.00 36.88 36.07 35.51 34.99 34.32 34.70 35.21 35.60 35.80 36.11 36.49 36.56 36.45 36.42 36.74 36.62 36.06 36.74 38.56 38.54 38.49 38.66 38.27 37.86 37.59 36.17 35.85 35.23 34.52 32.94 33.42 31.76 31.51 31.54 34.03 33.78 34.30 33.48 34.81 34.23 33.78 34.22
37.15 36.24 35.56 35.06 35.13 34.86 35.09 35.40 35.45 35.27 34.86 34.84 35.04 35.10 35.31 34.97 35.43 35.56 35.58 35.32 35.08 34.48 34.50 34.13 33.42 32.70 31.50 30.68 30.39 30.38 30.97 30.25 30.00 29.34 29.11 31.80 32.41 33.28 32.45 30.45 29.50 28.18 27.12
36.63 36.07 35.29 35.60 35.31 35.29 35.46 35.43 35.46 35.50 35.04 35.30 35.01 35.11 34.90 35.33 36.67 36.14 36.20 35.71 35.62 35.27 35.76 36.63 36.70 37.71 38.30 35.91 31.77 29.71 29.62 28.96 29.22 28.68 27.83 28.31 28.95 27.94 27.67 25.09 24.61 24.30 24.23
36.24 35.68 36.13 35.92 36.05 35.84 36.47 36.62 36.24 35.85 35.54 35.49 35.50 36.56 37.42 38.28 39.06 38.55 36.50 34.92 34.66 34.09 32.80 32.59 32.90 33.40 36.47 38.66 37.83 37.29 33.29 28.25 24.51 22.10 19.65 23.21 23.67 23.29 23.86 23.51 21.95 19.24 18.83
36.40 36.37 36.72 37.52 37.04 36.58 36.48 36.28 35.99 36.13 36.48 36.50 36.64 36.97 36.85 37.59 39.11 38.21 36.50 32.79 32.09 29.43 25.88 26.15 28.80 31.24 29.97 28.38 33.46 34.52 34.74 35.73 32.87 26.62 24.21 23.52 23.37 23.59 21.21 18.12 21.93 16.96 20.02
35.32 35.54 36.36 36.77 35.93 35.67 35.36 34.76 34.76 35.37 35.05 34.96 33.91 34.62 35.50 37.72 38.37 37.05 34.34 26.64 25.04 23.89 23.34 23.77 25.30 26.08 29.11 27.62 27.48 27.20 26.12 25.89 28.67 29.20 26.45 25.44 25.37 24.77 24.66 21.75 22.22 23.64 24.94
34.70 35.49 35.90 36.71 35.50 35.01 33.88 33.74 34.22 33.94 32.98 32.73 32.86 31.72 30.66 32.28 36.21 34.45 29.37 25.36 26.00 25.14 26.45 25.90 26.89 26.58 33.39 32.48 26.19 25.63 24.05 24.36 30.70 33.96 32.86 33.38 33.42 33.80 31.01 28.54 27.70 19.30 18.99
35.19 36.46 36.64 36.32 35.31 34.03 33.79 33.20 32.68 33.16 31.77 30.98 28.17 28.42 33.33 29.66 34.90 33.67 29.11 26.77 24.77 25.45 24.98 25.49 32.95 28.84 32.30 32.10 24.95 23.36 21.53 22.12 23.83 25.52 24.39 25.25 27.05 29.26 31.42 25.81 21.56 11.11 13.10
36.93 36.83 36.46 35.97 34.97 34.25 33.45 33.01 32.03 30.88 28.29 25.38 26.59 26.29 27.25 29.18 30.72 33.76 32.01 26.23 25.15 23.96 24.50 24.58 25.66 31.79 31.45 31.02 30.07 23.08 23.96 25.08 26.61 22.85 22.32 23.45 24.42 24.53 25.25 25.55 23.92 13.75 16.26
36.50 35.95 35.47 35.01 35.25 34.38 33.00 30.98 30.25 27.48 25.71 24.68 25.18 25.78 25.86 25.21 32.43 33.85 33.30 30.66 29.20 24.35 23.57 24.55 25.17 30.56 30.08 30.28 28.29 29.77 31.31 27.79 22.95 22.63 22.46 20.71 20.78 20.63 21.38 22.41 24.73 23.78 28.28
35.72 35.03 34.86 34.81 34.36 33.44 31.34 29.26 26.82 26.02 24.93 23.73 25.45 24.30 24.71 26.25 24.11 33.02 32.93 32.64 31.82 25.49 25.70 27.65 30.42 30.56 29.53 26.69 29.38 30.80 29.18 22.78 22.10 19.56 19.01 17.70 18.06 17.55 21.29 26.42 27.94 28.41 27.34
34.91 34.64 34.37 33.41 33.03 31.98 31.29 29.15 26.10 24.68 23.52 24.43 24.12 23.20 22.10 22.69 23.11 24.30 25.84 24.40 29.34 27.06 27.35 23.92 26.44 27.39 28.17 26.95 25.92 24.67 23.51 22.50 20.71 18.20 17.60 18.37 21.10 25.85 25.22 26.19 24.19 24.54 22.90
34.72 34.38 33.64 32.98 32.55 30.88 28.89 27.10 24.83 24.03 25.29 22.82 22.37 22.51 20.80 20.69 23.97 27.15 26.78 25.37 23.83 27.13 24.71 21.02 19.79 20.23 20.50 21.35 21.80 22.11 22.30 22.74 19.73 18.85 20.39 24.86 24.89 25.55 25.15 25.38 24.03 21.07 16.73
33.86 33.45 33.30 32.78 31.37 30.84 27.23 24.35 31.50 30.27 31.49 32.08 30.87 25.65 24.94 28.70 30.83 32.61 32.72 31.89 31.14 30.76 23.22 19.75 17.26 17.99 18.80 20.36 20.63 20.90 21.15 22.45 21.54 20.36 21.60 24.41 23.77 23.46 23.38 23.64 20.30 10.11 11.51
34.06 33.53 33.57 32.81 30.65 28.96 25.03 22.46 22.00 27.42 33.58 34.15 33.78 32.83 31.50 29.39 32.52 33.17 32.97 31.36 30.68 29.62 21.58 17.66 16.70 17.64 17.74 18.03 17.18 15.93 14.48 18.42 16.00 17.34 23.63 23.19 23.48 23.36 23.57 20.77 9.55 9.35 11.15
34.53 35.57 33.22 31.57 30.26 26.36 23.26 22.94 23.04 24.09 23.85 23.68 30.09 31.52 32.95 32.33 32.38 32.87 32.64 30.36 23.52 23.53 18.25 17.10 16.68 17.41 17.29 16.58 15.98 13.19 12.68 13.77 14.31 16.38 16.52 23.02 23.10 22.79 22.11 15.33 9.84 7.95 12.97
33.94 33.78 32.03 28.91 28.37 27.32 24.34 23.05 23.08 23.17 22.49 20.97 19.93 25.60 31.26 32.88 32.44 32.08 32.69 24.64 21.47 19.11 17.20 16.86 17.53 17.03 16.57 15.97 15.99 13.62 11.35 8.85 10.54 10.20 13.57 22.39 22.75 22.40 20.85 17.40 13.74 21.53 22.63
33.96 34.18 31.82 28.65 26.00 25.03 23.42 23.31 22.80 22.44 21.69 21.44 20.53 20.69 21.09 27.08 20.60 22.41 22.90 22.11 20.95 21.19 20.51 19.01 18.33 17.44 16.49 14.48 12.65 11.16 8.04 7.52 8.18 10.13 13.21 12.82 14.07 22.08 20.64 19.45 16.94 15.44 16.00
33.60 33.64 34.50 28.64 25.61 24.99 24.40 23.51 23.60 22.98 22.83 22.56 22.62 23.04 26.72 21.39 22.47 21.68 21.22 21.52 21.85 21.59 21.18 20.48 19.42 18.04 16.85 15.72 14.41 12.76 11.02 9.85 8.57 8.96 9.82 13.21 13.20 15.25 20.71 20.29 18.29 17.02 17.35
34.06 32.49 33.26 29.68 27.04 25.14 24.80 24.73 23.91 23.95 24.12 23.46 22.29 22.00 30.44 26.39 20.39 20.20 20.76 21.39 21.78 21.77 21.26 21.22 20.25 19.13 17.45 16.21 15.19 13.92 14.25 13.36 11.55 9.55 10.23 11.69 14.21 17.93 19.92 18.91 16.57 16.36 16.66
33.72 31.92 31.16 31.15 28.35 28.88 27.50 25.26 24.30 24.20 24.19 23.65 22.91 22.09 22.18 24.23 23.49 22.12 22.01 22.03 21.82 21.72 21.59 21.77 21.37 20.15 19.62 17.82 16.67 16.31 15.25 15.05 14.60 13.58 11.61 12.32 13.18 15.48 16.89 17.19 16.37 15.75 16.51
34.15 32.67 31.54 31.17 29.69 28.57 27.62 26.10 24.95 26.32 24.25 24.06 23.21 23.02 22.66 22.54 22.62 23.10 23.64 22.88 21.89 22.11 22.03 21.56 21.50 21.40 20.99 19.66 17.58 15.72 15.19 15.01 13.16 13.26 11.24 10.84 12.76 15.27 16.43 16.59 16.61 16.40 17.47
34.25 32.98 32.26 31.72 30.94 30.62 29.58 29.22 27.02 25.52 25.13 24.35 23.56 23.40 22.90 22.53 22.11 22.50 22.42 21.67 21.99 22.21 21.83 21.23 21.53 21.07 20.04 19.17 17.85 15.31 15.63 21.30 18.64 15.32 13.59 12.96 13.83 14.85 15.78 16.20 16.53 17.64 18.33
35.07 33.50 32.84 32.59 32.14 31.71 31.04 29.80 29.02 27.63 26.59 26.04 24.58 24.30 23.42 22.96 23.05 23.18 22.57 22.41 22.37 22.22 22.01 21.62 20.43 19.20 18.47 17.86 17.73 18.18 22.77 24.28 23.72 25.61 24.55 21.56 19.21 19.00 19.56 19.17 17.96 18.03 18.56

GFSGL_sfc_wetblb_087.txt.gz
Wetbulb
43.02 42.27 41.96 41.19 40.96 41.16 41.19 41.25 42.06 42.34 43.11 43.98 45.32 46.46 47.02 47.83 48.50 49.83 49.16 48.68 47.26 46.30 46.61 45.03 43.16 43.70 42.58 42.31 43.14 43.83 43.63 43.85 43.32 37.01 38.19 38.49 39.08 40.21 40.09 40.93 40.99 41.18 41.11
41.17 40.67 40.06 39.81 39.83 39.81 39.40 39.46 40.22 40.49 40.58 41.10 42.05 42.37 42.71 43.05 44.80 46.11 45.58 45.51 45.01 44.21 43.84 43.04 41.52 41.33 40.60 41.00 41.38 39.87 39.48 40.80 42.48 37.98 36.59 36.65 37.20 37.50 37.88 37.98 38.45 38.92 39.80
40.24 39.63 39.16 38.82 38.82 38.30 38.57 38.78 39.30 39.33 39.22 39.59 40.10 40.09 40.03 40.17 40.57 41.11 42.04 41.87 41.85 41.94 41.67 40.80 39.82 39.67 38.20 38.27 37.89 37.47 37.22 37.75 39.26 39.17 35.33 36.66 36.26 36.86 36.52 37.04 36.24 35.10 36.00
39.49 38.85 38.15 38.15 38.13 38.06 38.21 38.19 38.26 38.36 38.17 38.13 38.32 38.16 37.98 38.41 38.61 38.75 39.21 38.72 38.01 37.32 37.29 37.35 37.13 37.06 36.32 35.69 35.70 36.06 36.41 37.21 37.16 36.86 36.08 35.12 34.96 35.20 34.50 33.26 33.85 33.78 33.51
39.00 38.35 37.57 37.63 37.82 37.76 37.64 37.50 37.54 37.76 37.46 37.66 37.63 37.47 37.79 38.57 38.26 38.21 38.15 37.64 37.53 37.29 37.96 38.01 37.51 37.55 37.87 37.02 35.78 35.23 35.57 35.40 35.33 35.37 33.26 33.85 32.82 33.09 32.64 32.14 31.76 32.15 32.85
38.56 37.66 37.49 37.38 37.68 37.57 37.84 37.70 37.44 37.37 37.58 37.91 38.06 38.72 38.76 39.02 40.45 39.80 38.21 37.20 36.37 35.76 34.40 34.49 34.93 35.12 38.74 39.36 38.72 37.57 35.68 34.10 32.75 33.27 31.90 31.42 30.46 30.79 31.22 30.84 30.50 30.15 29.10
38.07 37.47 37.58 38.02 37.65 37.80 38.03 37.82 37.38 37.35 38.02 37.79 37.97 38.19 37.92 38.54 39.83 39.31 37.97 34.88 33.88 32.76 31.98 32.46 32.44 33.22 32.88 33.60 36.31 35.77 36.06 36.55 34.11 32.63 30.23 30.40 29.86 30.64 30.30 28.99 29.29 29.44 29.68
37.53 37.42 38.06 38.10 37.48 36.99 36.55 36.09 36.29 36.69 36.38 36.48 34.79 36.16 37.61 38.51 39.04 37.89 35.98 31.74 30.12 29.42 29.79 30.80 31.75 31.79 32.03 31.43 31.68 31.00 30.62 32.70 32.66 31.65 31.74 31.15 31.67 31.09 31.22 30.64 30.62 30.66 31.60
36.78 36.96 37.49 37.49 36.78 35.98 35.11 34.90 35.45 34.87 33.93 33.92 35.04 35.09 35.86 36.82 37.42 35.43 31.13 29.83 29.28 28.76 29.89 31.05 31.48 31.90 34.38 31.67 30.11 29.19 28.77 28.79 33.17 34.40 33.64 33.91 33.42 33.97 32.35 31.76 30.84 29.81 28.22
36.97 37.33 37.81 37.67 36.57 35.27 34.83 34.26 33.46 34.54 32.92 32.55 31.58 32.42 34.31 33.38 34.81 33.82 30.81 30.01 28.87 28.96 29.76 31.21 32.97 32.27 32.86 32.28 28.82 27.77 26.68 27.21 29.64 29.28 29.03 29.34 30.46 32.83 31.51 30.71 30.11 28.19 27.77
37.34 37.82 37.52 37.03 36.08 35.20 34.23 33.76 33.19 32.33 31.15 30.20 30.41 30.63 31.57 32.87 34.23 34.21 32.49 29.20 28.67 27.55 27.62 27.80 29.91 32.39 31.92 31.96 30.01 27.82 27.86 29.52 29.52 27.67 27.83 28.81 28.98 29.22 29.38 29.72 29.03 28.66 27.58
37.60 37.15 36.50 35.98 35.93 34.99 33.77 32.84 32.00 30.19 28.82 28.75 28.92 28.99 29.74 30.10 34.24 34.05 32.71 30.55 30.61 27.60 26.86 28.05 29.05 31.29 30.78 31.20 30.71 31.03 33.13 29.72 27.66 27.13 27.05 26.92 27.27 27.58 28.03 28.52 28.65 29.40 29.45
36.70 36.05 35.66 35.51 35.16 34.34 32.70 31.18 29.90 28.72 28.18 27.36 28.42 28.09 28.10 28.83 29.63 34.54 34.73 33.76 31.69 27.77 28.56 29.65 31.14 31.45 30.75 28.94 30.95 31.73 31.10 27.70 26.51 26.01 26.00 26.44 27.27 27.73 27.20 28.48 29.36 30.17 29.29
35.96 35.46 35.28 34.26 33.70 32.91 32.40 31.16 29.74 28.49 27.29 27.40 27.50 26.77 27.07 27.18 27.52 29.06 30.31 32.00 32.65 29.90 30.49 29.15 28.41 28.46 27.80 28.04 28.74 28.40 26.99 26.84 26.37 26.35 26.11 26.51 27.24 27.82 27.19 28.00 26.72 26.84 26.06
35.77 35.05 34.40 33.97 33.73 31.52 31.57 30.65 29.69 29.43 29.53 27.93 27.66 27.22 25.45 24.84 26.82 29.11 29.15 27.54 27.70 28.43 26.81 25.09 24.15 24.17 24.43 24.83 25.16 25.52 26.00 26.57 26.56 26.14 25.97 26.39 26.61 26.48 26.29 27.70 26.75 25.49 23.01
34.90 34.30 33.54 33.21 32.22 31.55 30.29 29.27 33.29 32.29 33.14 32.85 31.56 28.32 27.21 29.65 31.14 32.60 32.72 31.96 31.25 31.92 26.78 23.88 22.84 22.72 23.16 23.81 24.00 24.41 25.12 26.30 26.32 26.42 26.30 26.18 25.69 25.37 25.48 26.31 25.67 22.86 21.11
35.06 34.13 34.17 33.50 31.92 30.90 29.88 28.79 27.59 30.11 33.77 33.41 33.96 33.73 32.26 29.23 32.73 33.25 33.74 33.65 32.87 32.04 26.51 24.51 23.04 22.47 22.74 23.33 23.82 24.20 24.50 25.60 25.11 25.77 25.70 25.83 25.69 25.45 25.33 24.86 24.27 21.68 21.30
35.23 35.76 33.95 33.28 32.18 31.35 30.53 29.16 27.22 26.25 26.69 27.70 32.52 34.06 34.33 33.25 32.81 33.57 34.53 33.19 27.32 29.03 25.09 24.36 23.62 23.22 22.69 22.74 23.10 23.46 23.87 24.15 23.21 24.63 25.04 25.18 24.90 24.89 24.29 23.69 23.16 20.55 20.53
34.76 34.72 34.08 32.86 32.05 31.84 29.97 27.94 26.64 25.93 26.17 25.55 24.73 28.78 33.40 34.34 33.68 33.78 34.31 28.83 25.82 24.61 23.42 22.52 22.60 22.63 22.61 22.74 22.75 22.43 22.16 21.91 21.78 22.50 23.43 23.40 24.29 24.64 23.46 23.20 22.48 22.72 22.82
34.87 35.51 34.60 31.84 31.26 30.77 28.65 27.53 26.01 25.02 24.68 24.70 24.01 24.02 24.23 30.53 27.95 28.26 28.75 27.43 26.57 25.86 24.68 24.15 23.59 23.14 22.77 22.38 21.94 21.12 20.38 20.08 21.79 21.60 21.33 22.25 23.61 24.02 22.86 22.20 21.57 20.56 20.28
34.68 34.57 36.13 31.62 29.98 30.30 28.95 27.54 26.58 25.33 24.74 24.71 25.03 25.61 27.70 25.37 27.12 26.56 26.77 26.44 26.53 26.08 25.67 25.43 25.50 24.76 23.92 23.01 21.77 20.69 19.02 19.82 19.15 18.67 19.25 19.52 19.84 20.45 22.68 22.93 21.76 21.05 20.11
34.66 34.16 34.44 31.77 30.41 28.62 28.03 27.95 26.30 25.62 25.57 25.14 25.41 25.04 31.05 28.85 24.74 24.75 24.84 25.37 26.29 26.67 26.69 26.19 25.44 24.51 23.94 23.12 22.46 21.28 20.33 19.45 19.02 17.96 17.87 17.31 17.80 19.51 20.88 21.47 20.96 20.33 19.01
35.04 33.73 33.05 33.73 31.29 31.40 30.37 27.85 26.67 26.15 26.06 25.97 25.96 25.00 24.95 27.67 27.73 25.18 24.14 24.27 24.33 24.60 25.00 24.41 24.57 24.49 24.37 23.23 23.50 22.89 20.89 20.62 20.69 19.90 17.92 17.63 17.66 18.78 19.61 19.69 19.88 19.29 18.73
35.10 33.81 32.85 32.44 32.05 30.72 30.56 29.75 27.71 28.41 26.93 26.40 25.76 25.31 25.05 25.03 25.73 25.75 25.86 25.45 24.61 24.65 25.12 24.62 24.86 25.01 24.76 23.83 22.84 21.76 21.65 21.43 20.40 18.90 17.47 16.79 16.94 17.98 19.37 18.83 18.58 18.43 18.31
34.85 34.03 33.18 32.55 31.95 32.19 30.99 31.16 29.74 28.32 28.16 27.18 25.86 25.41 25.37 25.15 24.59 24.98 25.44 25.82 25.45 25.18 24.84 24.83 24.84 24.67 23.92 23.34 22.08 21.04 20.09 22.55 19.23 17.83 17.32 16.38 16.07 16.22 16.90 17.77 18.24 18.76 18.58
35.09 34.46 33.90 33.35 32.70 32.35 31.82 31.32 31.24 30.23 28.80 28.77 28.48 27.73 26.80 25.65 25.53 25.83 25.25 24.76 24.45 24.48 24.80 24.67 24.20 23.88 23.73 22.91 22.20 21.20 23.65 24.95 25.02 26.00 21.36 19.61 18.65 18.84 19.57 19.60 19.09 19.60 19.86

GFSGL_sfc_wetblb_090.txt.gz
Wetbulb
50.61 50.38 50.13 49.20 48.79 49.20 49.21 48.94 48.87 49.44 49.80 50.52 50.30 52.24 52.41 52.76 52.52 52.01 51.15 50.89 49.77 48.98 50.75 50.81 48.74 47.39 46.07 45.78 46.48 48.06 48.81 49.05 47.19 39.83 40.32 40.87 42.47 43.40 44.09 44.74 43.04 42.69 42.73
48.08 48.34 47.57 47.60 47.86 48.01 47.15 46.34 47.05 47.00 46.99 47.38 48.35 48.89 48.51 48.69 49.63 50.54 49.19 50.08 50.14 49.46 48.42 47.31 44.82 44.31 44.32 45.28 46.73 45.52 45.77 46.36 45.60 40.82 39.03 39.70 40.51 40.60 41.40 40.88 40.55 41.30 42.08
46.22 46.61 46.13 45.74 46.22 45.83 45.69 45.38 45.44 45.67 45.67 45.54 45.96 46.14 45.97 46.01 47.07 48.14 48.53 48.12 47.96 47.49 46.94 46.21 44.82 44.33 42.64 42.49 43.24 42.40 42.32 42.00 44.00 42.81 38.15 39.32 39.58 40.78 40.81 41.34 40.17 40.29 38.77
45.55 45.29 44.86 44.68 44.95 44.53 44.34 44.12 44.05 44.42 44.54 44.34 44.20 43.83 43.50 43.88 44.26 44.72 45.38 44.84 44.25 43.48 43.12 42.61 42.18 42.12 41.47 41.27 40.51 40.88 41.60 42.04 42.20 41.45 39.99 39.20 40.46 39.83 39.75 38.69 38.23 38.51 37.81
44.72 44.17 43.29 42.91 42.76 42.73 42.53 42.56 42.74 43.11 42.82 42.86 42.45 42.30 42.32 42.53 42.55 43.09 42.78 42.04 41.25 40.14 39.90 40.05 40.32 39.43 39.37 39.53 40.40 40.05 40.46 40.65 41.05 40.72 38.82 38.71 38.09 37.44 37.57 36.76 35.74 36.31 37.13
44.39 43.28 42.73 42.30 41.99 42.01 42.18 41.68 41.65 41.68 41.87 42.18 41.59 41.76 41.22 41.09 40.94 41.20 41.95 41.32 40.75 39.46 38.40 38.96 39.39 40.36 40.31 39.89 38.91 37.72 38.64 38.60 37.43 38.05 37.11 36.73 35.17 35.65 35.60 34.94 34.17 33.31 32.56
43.84 42.87 42.00 42.04 41.71 41.79 41.71 41.42 40.83 40.87 41.30 40.56 40.40 40.46 40.14 40.69 41.41 41.10 39.97 38.56 36.89 35.59 35.64 35.95 36.19 36.24 37.81 38.21 37.74 37.40 37.36 36.35 36.03 36.56 34.65 34.65 33.64 34.59 33.95 32.37 32.44 32.29 32.22
43.08 42.45 42.33 42.15 41.64 41.02 40.35 39.46 38.77 38.85 38.85 38.59 37.37 39.09 39.29 39.61 40.23 39.73 37.75 36.30 35.82 35.10 35.09 35.42 34.68 34.03 34.22 34.14 34.45 33.85 34.55 34.76 34.55 34.35 35.00 34.11 34.32 34.16 34.20 33.66 33.53 33.24 34.36
42.35 41.86 41.79 41.86 40.87 40.09 38.53 37.86 37.51 36.74 35.81 36.16 37.65 38.19 38.00 38.11 38.47 37.65 35.65 34.49 32.50 32.19 33.67 35.00 35.38 35.23 33.59 33.09 33.42 31.99 32.32 33.33 35.29 34.65 34.93 34.40 33.96 34.14 34.44 34.70 33.15 32.27 31.66
42.15 42.08 42.18 41.27 39.99 39.27 38.36 36.64 34.92 36.36 34.88 35.17 34.81 36.71 37.83 37.17 36.88 34.98 33.87 32.57 31.86 32.03 33.05 33.50 33.32 34.32 34.46 31.54 31.74 31.62 30.37 31.00 31.66 31.47 32.03 31.83 33.39 33.48 32.24 33.85 33.36 31.01 31.19
41.97 41.52 41.02 40.35 39.36 38.51 36.41 35.26 34.68 34.38 33.63 33.16 33.23 35.36 35.42 35.44 34.92 34.34 33.20 32.56 32.44 31.82 31.67 32.35 33.78 33.43 32.95 33.00 30.62 31.11 30.71 32.04 31.31 31.18 31.28 31.73 32.04 32.37 32.76 32.71 32.13 31.59 29.58
41.28 40.40 40.07 39.63 38.46 36.67 35.02 34.33 33.96 32.65 31.70 31.35 32.90 33.18 33.85 35.14 35.29 34.90 33.78 32.04 32.49 30.99 30.01 31.07 31.71 32.22 31.87 32.14 32.08 31.56 33.16 31.67 31.28 30.41 30.22 30.32 30.49 30.69 31.05 31.28 30.77 31.09 31.16
40.03 39.66 39.27 38.30 37.00 36.01 34.41 33.17 31.59 31.25 30.40 31.05 32.34 32.02 31.96 32.71 34.95 34.88 33.93 33.11 32.29 30.32 30.92 31.09 31.65 32.36 31.25 31.19 31.27 32.28 33.42 31.23 29.86 28.95 29.20 29.72 30.59 30.99 29.96 30.20 30.41 30.73 31.27
39.50 39.06 38.13 36.28 35.52 34.90 34.08 33.03 31.75 30.28 30.02 31.52 31.31 30.95 31.26 31.14 32.18 33.64 34.15 34.37 33.06 30.79 30.64 32.06 30.70 30.52 31.17 30.01 30.80 32.28 31.40 30.92 29.83 30.05 29.80 30.35 30.43 29.42 28.70 29.33 28.10 27.93 27.04
39.38 38.30 36.67 35.74 35.79 33.73 33.18 32.52 32.23 32.43 32.80 32.30 31.65 31.66 30.32 29.59 30.53 33.20 33.12 32.46 32.56 31.27 30.35 29.28 28.43 28.23 28.58 28.53 28.88 29.53 29.58 29.39 29.00 29.52 29.35 29.10 29.05 28.89 28.15 29.12 27.78 26.93 24.93
38.34 37.28 36.19 35.00 34.71 33.10 32.13 31.27 35.42 35.41 35.28 34.39 33.66 32.85 31.42 32.43 32.52 33.28 33.66 33.04 32.21 31.56 28.66 27.49 27.17 27.17 26.98 27.38 27.09 27.47 28.37 28.52 29.13 29.73 29.38 29.17 28.47 27.89 27.74 28.02 27.69 25.70 24.16
38.61 37.42 36.25 35.31 33.79 32.41 31.64 30.95 30.55 33.64 34.55 34.64 34.77 33.87 33.19 30.79 32.86 33.09 33.80 33.64 33.11 32.24 29.07 28.24 27.82 27.38 26.65 26.93 27.49 27.72 27.95 28.67 31.03 29.61 29.36 28.81 28.14 27.78 27.08 26.38 25.94 25.25 24.20
37.54 37.51 36.58 36.08 34.22 32.99 32.05 31.57 32.44 32.12 31.10 31.58 34.47 34.77 35.02 34.32 32.64 33.58 34.30 34.16 31.24 32.30 30.95 29.41 28.44 27.90 27.25 26.91 27.25 27.58 28.10 28.38 28.03 28.02 28.09 28.07 27.80 27.25 26.42 25.74 25.00 24.11 23.74
36.15 35.42 36.14 35.32 34.04 33.52 32.36 31.61 31.70 31.78 30.82 30.91 30.81 31.93 35.44 35.47 34.96 33.90 34.64 32.58 31.09 29.64 30.33 28.97 28.69 28.15 27.42 27.65 27.75 27.81 27.63 27.58 27.66 26.96 27.05 27.25 27.19 26.80 26.02 26.26 25.88 25.21 24.80
36.38 36.17 36.09 34.17 33.31 32.77 31.49 30.84 30.07 30.18 29.85 29.51 29.01 29.58 31.18 33.45 32.27 31.79 32.20 32.56 32.02 30.56 29.69 28.80 28.52 27.97 28.07 28.11 27.83 27.27 26.64 26.21 26.15 26.19 25.59 26.29 26.64 26.67 25.69 25.25 24.86 24.10 23.78
35.50 35.15 37.16 33.86 32.33 32.33 31.36 30.50 30.54 30.42 30.27 29.31 29.01 30.36 31.06 30.39 31.49 31.74 31.44 31.53 31.64 31.62 31.17 30.29 30.16 29.70 29.71 29.20 28.30 27.43 25.98 25.89 25.61 25.47 25.48 25.45 25.07 24.09 24.99 24.99 24.83 24.44 23.68
36.48 35.12 34.87 34.49 32.24 31.45 31.78 31.88 31.61 30.76 30.96 30.17 29.86 29.48 32.07 30.27 29.07 30.56 30.63 30.91 31.50 31.90 31.96 31.16 30.63 30.87 30.53 29.62 28.64 27.56 26.38 25.30 25.66 24.68 23.87 23.56 23.60 23.66 23.36 23.34 23.53 23.52 23.41
35.38 34.73 34.34 34.45 33.01 32.96 32.05 31.38 31.11 30.82 30.74 30.71 30.19 28.88 28.15 29.53 29.87 29.36 29.17 29.75 30.17 30.35 30.32 29.96 29.93 30.07 30.15 29.45 29.50 28.84 27.35 26.44 26.48 26.32 24.19 23.23 22.47 22.40 22.51 22.43 22.53 22.41 22.55
35.86 35.34 34.51 34.06 33.92 32.52 32.03 31.42 30.62 31.14 30.43 30.25 29.35 28.80 28.91 28.34 29.34 29.63 30.48 30.33 29.26 28.68 28.77 28.14 28.20 28.70 28.99 28.97 28.81 28.47 27.99 27.75 27.40 26.00 24.51 23.50 22.29 22.39 22.15 21.66 21.91 21.74 21.44
35.01 34.69 34.19 33.75 33.16 33.39 32.48 32.30 31.60 30.67 30.63 30.47 30.18 30.18 29.68 29.05 28.56 29.08 30.22 30.38 30.11 29.24 28.06 27.72 28.00 28.23 28.33 27.91 28.10 27.33 26.49 26.17 25.20 24.15 23.41 22.01 21.22 21.05 21.10 21.20 21.62 21.81 21.74
33.86 34.13 34.33 34.08 33.35 33.11 32.56 32.18 31.93 31.86 30.94 30.89 31.04 30.60 29.90 29.52 29.36 29.18 28.97 29.43 29.20 28.82 28.89 28.19 28.21 28.57 28.68 28.36 27.81 27.11 27.01 26.96 26.41 25.97 22.58 21.80 20.52 20.19 20.60 20.57 20.66 21.39 22.07

GFSGL_sfc_wetblb_093.txt.gz
Wetbulb
52.28 52.18 51.85 51.29 51.30 51.59 51.24 50.95 51.00 51.36 51.62 52.88 52.86 53.88 54.25 54.68 54.21 53.27 52.83 51.90 50.57 50.52 51.17 50.49 49.60 49.95 48.34 48.05 48.33 48.88 49.39 49.37 46.90 40.43 42.12 42.01 42.93 43.69 44.05 44.75 44.02 43.53 43.34
50.53 51.09 50.09 49.73 50.21 49.96 49.00 48.54 48.86 48.97 49.15 49.18 50.13 50.99 50.73 51.01 52.51 52.03 49.81 50.18 50.04 49.81 49.03 48.23 46.35 46.33 46.15 46.90 47.64 47.43 47.86 47.89 46.56 41.88 40.52 40.47 41.59 41.87 42.19 42.11 41.05 41.81 41.88
49.56 49.36 48.86 48.71 48.82 48.40 47.86 47.34 47.39 47.35 47.34 47.55 47.79 47.98 48.13 48.05 49.39 50.79 51.03 50.54 49.79 49.18 47.94 46.90 45.45 45.84 45.09 45.01 45.29 44.08 43.74 43.33 45.10 42.30 38.69 40.24 40.29 41.13 40.55 40.83 39.47 39.13 38.73
48.75 48.32 47.39 47.14 47.05 46.86 46.23 46.00 45.76 46.04 46.05 45.94 45.86 45.52 45.48 45.83 46.37 47.00 48.15 47.63 46.82 45.70 45.45 45.41 44.90 44.77 43.55 43.11 42.44 42.54 42.72 42.55 42.83 41.74 40.07 39.68 39.89 39.50 39.19 37.53 36.52 36.84 35.92
47.52 47.01 46.11 45.59 45.16 44.99 44.47 44.34 44.45 44.56 44.47 44.46 44.34 44.23 44.33 44.43 44.11 45.15 45.64 44.67 43.51 41.89 41.62 41.27 41.32 41.23 42.07 41.78 42.02 41.11 41.58 41.16 41.17 40.80 38.64 38.32 37.41 36.62 35.92 34.61 32.77 33.22 33.95
46.94 46.09 45.28 44.55 44.07 43.95 43.72 43.43 43.20 43.12 43.35 43.52 43.20 43.29 42.78 42.35 41.22 42.46 43.45 42.77 42.31 41.22 40.10 39.97 39.91 40.11 40.11 40.19 39.57 39.30 39.66 39.35 37.97 38.12 37.04 36.34 33.93 33.56 32.88 31.90 31.15 30.44 29.21
46.29 45.54 44.66 44.50 43.91 43.72 43.43 42.81 42.09 42.18 42.43 41.71 41.39 41.43 40.90 41.29 41.71 41.98 41.75 39.43 37.44 36.60 36.24 36.97 37.55 38.61 39.42 37.87 38.62 38.15 37.37 37.56 37.70 35.91 33.70 32.32 31.55 32.30 32.06 30.64 29.90 29.80 29.02
45.56 44.81 44.56 44.21 43.68 43.35 42.69 41.98 41.02 41.02 40.52 39.80 38.45 39.66 40.06 40.37 41.21 40.62 39.38 37.75 37.75 37.70 37.56 37.15 35.78 35.37 35.00 35.07 33.90 33.57 33.29 33.40 33.79 34.35 33.66 32.41 32.87 32.70 32.75 32.17 30.96 30.41 31.25
45.01 44.33 44.30 44.19 43.37 42.49 41.20 39.98 39.65 38.36 37.05 36.77 38.18 38.61 38.48 38.72 40.05 39.50 37.29 35.87 34.36 33.94 34.32 35.13 34.84 33.80 34.60 35.15 33.29 31.89 31.91 32.23 35.21 36.05 35.77 35.56 35.15 35.07 34.53 32.50 30.97 30.15 29.14
44.65 44.52 44.42 43.79 42.97 41.55 40.88 39.16 36.42 37.79 35.77 36.49 35.89 37.78 38.49 37.46 38.51 37.64 36.35 34.11 32.62 32.14 33.50 33.13 34.58 35.23 33.69 33.12 32.10 30.93 28.95 29.52 30.16 30.53 30.56 31.19 34.02 32.30 33.70 31.50 31.19 27.66 28.76
45.01 44.31 43.60 42.89 41.91 41.52 39.85 37.66 36.11 35.53 34.72 34.33 34.07 35.65 36.72 37.81 36.45 35.95 34.41 32.42 31.85 30.93 30.85 31.29 32.14 34.54 34.60 32.61 31.65 29.40 29.77 31.12 31.01 29.09 28.95 29.25 29.75 30.34 30.40 30.30 30.18 30.28 29.03
43.68 42.51 41.95 41.60 40.84 39.40 37.43 36.24 35.34 34.08 33.10 32.51 32.69 33.13 34.69 35.08 35.98 35.53 34.65 33.19 33.68 30.70 29.82 30.88 32.45 33.73 33.02 33.35 30.84 32.72 32.82 32.37 29.36 28.51 28.34 28.39 28.67 29.06 29.24 29.59 29.14 29.47 31.29
41.94 41.35 41.02 40.67 39.53 38.28 36.54 34.76 33.34 32.82 31.72 30.85 31.10 31.81 32.31 33.06 34.33 35.82 35.21 33.87 33.69 30.28 30.35 31.16 32.51 32.99 32.21 31.91 32.68 32.95 33.95 29.60 28.09 27.46 27.78 28.38 29.23 29.93 27.69 27.90 30.73 29.80 27.74
41.24 41.06 40.65 39.15 37.68 36.94 35.64 34.44 33.01 31.62 30.71 30.66 30.83 31.50 32.11 31.45 32.29 33.79 33.09 32.66 33.05 30.50 31.16 31.30 31.87 31.98 32.54 30.88 30.29 31.35 30.68 29.88 28.39 28.36 28.63 29.17 29.38 29.31 28.50 29.96 28.36 28.69 27.45
41.25 40.97 39.54 38.29 37.13 35.74 34.59 33.92 33.44 33.34 32.81 31.45 31.71 31.53 31.17 30.02 31.12 33.98 34.19 32.67 32.05 31.47 30.68 29.32 27.65 27.34 27.26 27.22 27.71 29.26 28.92 27.83 26.99 27.54 28.38 28.39 28.16 27.95 28.33 29.21 28.42 27.59 25.37
39.03 39.65 38.67 36.95 36.72 35.12 33.54 32.89 36.84 35.85 36.46 36.87 36.52 34.48 32.11 34.24 34.58 34.71 35.28 34.95 34.71 33.72 28.87 26.35 25.87 25.87 25.80 26.65 26.33 26.41 26.84 28.07 27.85 28.95 28.52 28.11 26.97 26.14 27.92 28.23 27.83 26.53 24.23
38.48 38.41 38.21 37.24 36.30 34.19 33.03 32.01 30.71 34.24 37.52 37.72 37.20 34.99 34.86 32.60 33.84 33.81 34.62 34.79 34.29 32.90 27.81 26.76 26.35 26.14 25.76 25.86 25.99 26.57 26.89 27.34 27.15 27.95 27.50 27.01 26.32 25.74 27.25 26.19 26.44 25.54 24.81
37.72 39.07 36.38 36.69 36.40 34.76 33.38 32.28 32.15 31.77 31.08 31.92 35.62 35.42 35.72 34.88 33.55 33.62 34.04 34.18 30.53 31.61 28.71 28.31 27.54 27.43 26.71 26.10 26.36 27.05 26.96 27.49 27.16 27.09 27.22 26.23 25.02 24.69 23.74 24.11 25.12 24.65 23.93
36.50 36.11 36.21 35.44 35.00 35.05 33.37 32.33 32.22 32.45 32.62 32.79 32.28 34.03 35.86 36.17 35.78 34.82 34.49 30.90 29.88 29.31 29.79 29.52 29.21 28.46 27.71 27.40 27.24 27.43 26.94 26.84 26.91 26.21 26.04 25.26 25.43 24.94 23.74 23.71 23.64 26.57 25.19
36.44 36.80 36.47 34.69 33.61 33.25 32.45 31.76 31.53 31.73 31.79 31.08 30.27 29.69 30.89 33.33 31.71 31.58 31.05 30.80 30.74 30.73 30.11 29.48 29.23 28.67 28.12 27.60 27.67 27.31 26.60 26.16 25.56 25.63 25.10 25.16 25.55 25.19 24.01 23.42 23.77 22.17 21.85
36.80 35.88 37.60 34.77 32.98 32.66 32.23 31.63 31.51 31.10 31.13 31.24 30.97 30.63 33.06 31.09 31.27 31.13 30.84 30.43 30.72 31.17 30.85 29.65 29.04 28.76 28.21 28.05 27.82 27.46 26.48 26.21 25.46 24.92 25.14 25.26 24.68 23.91 24.50 24.57 23.80 23.02 21.90
36.01 35.24 34.79 35.54 33.61 32.21 32.04 32.10 31.71 31.44 31.55 31.65 31.75 31.27 33.70 30.91 29.66 30.84 31.20 31.28 31.15 31.56 32.12 31.42 30.65 30.30 29.85 28.95 28.60 28.11 27.11 25.70 25.75 24.77 24.76 24.66 24.43 24.04 23.80 22.98 22.42 22.29 21.98
35.73 35.02 34.38 34.20 34.04 34.24 33.23 32.53 31.74 31.80 31.94 32.23 32.39 31.99 29.88 29.74 29.58 28.78 29.42 30.60 31.07 31.34 31.46 31.23 31.20 30.71 31.04 30.85 30.88 29.70 27.63 26.91 26.49 26.47 24.75 23.92 23.16 23.07 23.13 21.99 21.46 21.07 21.27
35.60 34.80 34.47 34.25 34.02 33.38 32.93 32.20 32.00 32.30 31.96 32.01 32.17 32.06 31.51 29.41 29.39 29.64 30.05 29.90 29.81 30.16 30.71 30.81 30.67 30.59 30.62 30.57 30.12 29.62 29.17 28.77 28.50 27.50 25.98 24.38 23.44 23.84 22.70 21.70 21.47 20.96 21.09
33.80 33.72 34.01 34.02 33.58 33.41 33.55 33.09 32.40 31.96 31.29 31.39 31.36 31.65 31.84 31.46 30.70 29.93 30.43 30.60 31.01 30.41 29.59 29.43 29.71 29.73 29.81 29.65 29.32 28.70 28.61 29.71 28.21 27.46 26.45 24.62 23.76 23.10 22.09 21.48 21.37 20.96 21.06
32.22 32.45 32.89 33.55 33.51 33.35 32.97 32.69 32.72 32.75 32.30 31.74 31.48 31.67 31.63 31.51 31.48 31.69 31.43 30.81 30.67 30.69 30.47 29.88 29.15 28.90 28.72 28.98 29.22 29.05 30.00 29.98 28.57 28.56 25.45 23.66 22.41 21.68 21.22 20.55 19.83 20.07 20.27

GFSGL_sfc_wetblb_096.txt.gz
Wetbulb
50.90 50.99 49.91 49.50 48.68 48.05 47.56 47.17 47.18 47.31 48.01 49.59 50.14 50.68 51.24 51.53 51.89 52.56 52.89 52.76 52.30 51.24 51.24 50.44 49.61 49.58 48.15 47.00 46.71 47.14 48.04 48.76 45.86 39.59 41.37 41.63 42.19 42.59 43.09 43.15 43.00 42.55 41.65
48.15 48.66 48.35 47.97 47.80 46.15 45.32 45.01 45.96 45.46 45.75 45.67 46.68 47.69 47.95 47.97 49.14 50.96 49.92 50.54 50.16 49.85 49.04 47.83 46.63 46.61 45.27 46.13 46.61 45.99 46.41 46.13 45.15 40.16 39.72 39.57 40.63 41.25 41.27 39.85 40.27 41.65 39.75
45.96 45.65 45.91 46.51 46.05 45.28 44.68 45.04 45.26 45.06 44.79 44.38 44.67 44.42 44.48 44.95 45.71 46.81 49.41 49.63 49.27 48.41 47.77 46.25 45.18 45.50 44.55 44.16 41.85 40.48 41.09 41.74 42.65 39.34 36.56 39.60 39.33 39.66 39.35 38.15 36.82 34.77 36.30
44.95 44.28 43.64 43.59 43.80 42.68 42.62 42.88 42.65 43.03 42.75 42.50 42.60 42.62 42.62 43.14 43.48 44.19 46.11 46.07 44.90 44.60 44.80 44.90 44.73 44.42 42.83 40.37 39.70 38.81 39.34 38.58 38.89 38.93 38.34 38.15 37.59 36.59 36.38 34.63 32.47 32.97 31.78
43.91 43.08 42.20 41.83 41.85 41.65 41.58 41.48 41.59 41.62 41.62 41.61 41.87 41.54 41.66 41.30 41.77 42.07 42.80 41.54 40.69 40.57 40.64 40.49 39.65 40.98 42.98 41.18 39.03 37.11 38.26 37.81 37.34 36.15 37.27 35.65 33.62 33.49 32.35 30.99 29.07 28.58 28.64
43.30 42.11 42.05 41.36 41.19 40.81 40.71 40.34 40.30 40.22 40.58 40.89 40.62 40.74 40.05 41.41 42.09 43.12 42.88 39.51 39.37 37.94 36.23 36.53 38.96 40.43 40.95 42.00 41.76 41.40 39.72 36.93 35.00 37.47 31.43 31.98 31.82 29.54 29.00 27.75 26.29 23.42 23.96
42.67 42.09 41.84 41.63 41.18 40.70 40.57 39.94 39.34 38.90 39.23 38.37 38.44 39.20 39.87 40.91 42.01 42.60 42.22 38.85 37.44 36.21 35.82 36.26 37.37 38.74 37.26 35.84 39.09 39.25 39.17 39.85 38.23 34.25 32.40 29.08 27.84 28.70 28.42 25.66 26.19 23.86 23.54
41.99 41.56 41.87 41.62 41.05 40.67 40.00 38.94 37.65 37.83 38.97 38.63 35.44 36.83 39.06 40.27 41.94 41.55 40.37 36.91 36.70 36.61 36.53 35.97 34.12 33.02 34.28 32.42 31.97 30.07 29.52 31.55 32.49 32.58 29.07 29.10 29.36 29.47 29.49 28.08 27.36 26.76 27.57
41.59 41.14 41.66 41.56 40.56 39.81 37.75 37.55 39.01 37.84 36.07 35.28 37.11 36.85 37.76 38.58 41.06 40.32 37.14 34.65 33.89 33.08 32.81 32.51 31.82 30.99 36.05 36.65 31.21 29.45 29.44 30.03 36.29 37.20 36.55 36.70 36.58 36.48 33.18 29.06 25.12 23.66 23.53
41.79 41.55 41.59 41.30 40.24 38.57 37.50 38.21 35.54 37.23 35.13 36.26 35.68 37.26 38.53 36.95 39.80 39.50 36.59 32.63 30.60 29.47 30.15 31.37 36.33 32.47 35.92 36.03 30.14 28.33 27.55 28.08 28.74 28.14 27.66 32.19 31.80 32.31 34.78 27.96 25.81 18.38 20.30
42.58 41.77 41.03 40.50 39.31 38.03 36.61 36.70 35.58 35.14 34.86 34.47 34.62 35.80 36.84 36.90 36.96 38.26 36.76 30.49 28.85 28.06 28.80 28.40 29.81 36.29 34.35 33.31 32.33 27.03 27.89 28.69 30.44 26.38 25.26 25.92 27.19 27.21 27.13 27.41 28.02 20.35 16.33
41.16 40.60 39.65 38.76 39.11 38.15 37.16 35.62 35.31 34.55 33.70 33.15 32.96 32.63 33.82 34.58 37.20 37.43 35.76 34.00 33.50 28.49 27.59 28.60 30.28 34.93 34.55 33.90 30.20 33.26 34.75 32.56 26.66 25.65 25.34 24.86 24.95 23.82 24.36 25.83 27.22 25.89 24.58
39.58 38.78 38.23 38.49 38.40 38.05 36.49 35.21 33.91 33.64 32.82 31.91 31.53 31.07 30.77 31.36 30.87 36.49 36.33 35.26 34.12 28.26 28.00 30.74 34.36 34.53 33.82 32.79 33.16 33.78 33.95 27.08 25.67 24.59 24.51 23.63 22.73 22.58 22.22 23.16 25.14 26.80 21.23
38.48 38.05 37.82 36.78 37.55 36.86 35.62 35.06 33.62 32.59 31.88 31.15 30.55 30.37 30.36 30.03 29.75 29.84 30.58 30.88 33.56 30.29 31.44 29.38 31.14 31.67 31.70 29.87 30.40 30.26 29.34 27.62 25.45 24.45 24.22 24.38 24.13 20.38 21.00 21.57 22.81 27.36 26.14
38.54 39.26 38.46 37.92 37.36 35.56 34.93 34.19 33.67 33.82 33.42 31.69 31.73 31.81 30.84 28.93 30.09 33.26 31.89 29.31 28.34 29.38 28.79 28.06 26.37 25.48 26.24 25.82 25.45 27.45 27.96 27.39 25.04 23.80 23.24 23.32 25.29 24.67 22.73 22.25 27.31 26.33 24.36
38.65 38.28 37.58 36.40 36.10 35.17 33.81 33.15 37.09 36.57 36.83 37.09 36.36 34.55 31.80 34.48 35.35 35.89 36.19 36.06 35.23 34.57 28.00 25.19 24.61 24.59 24.78 25.31 25.21 25.76 26.28 27.68 25.26 24.49 22.84 24.13 22.92 22.24 20.27 23.50 26.92 25.79 24.01
37.94 37.89 37.45 36.55 35.68 34.38 33.32 32.34 31.19 34.02 37.86 37.46 37.92 37.97 37.41 33.45 35.47 35.41 35.62 35.97 35.85 34.68 27.21 24.96 24.26 24.28 24.14 24.67 25.02 24.68 23.56 24.54 20.42 22.96 24.52 22.01 19.53 18.69 24.08 21.27 25.87 25.55 24.81
37.39 39.21 36.13 36.52 35.81 34.64 33.28 32.45 32.21 31.48 31.09 32.30 36.84 37.85 37.79 35.80 34.63 34.63 34.80 34.91 30.49 32.18 27.59 26.05 25.45 25.58 25.11 24.92 24.76 23.73 23.54 22.45 22.82 23.64 20.79 20.78 20.99 19.47 14.47 14.40 17.27 17.65 17.37
36.77 36.06 36.29 35.09 34.65 34.59 33.01 32.16 32.05 31.87 31.88 31.70 31.27 34.58 37.60 37.76 36.43 35.50 34.80 29.76 29.08 28.41 28.32 26.99 27.54 26.95 26.57 25.90 24.77 24.81 24.03 22.77 20.89 18.51 22.11 22.45 21.26 19.00 17.13 18.62 18.90 26.18 23.37
36.32 37.14 36.67 34.30 33.83 33.62 32.56 31.64 31.38 31.42 31.64 31.97 30.82 30.67 31.43 33.96 31.80 31.69 31.68 29.71 29.07 29.14 28.99 28.85 28.79 28.41 27.80 26.82 26.37 25.55 23.83 26.14 22.95 23.48 24.14 23.89 22.98 23.07 21.45 20.55 20.60 19.16 21.30
36.04 35.60 37.75 34.82 33.25 33.01 32.51 31.73 31.65 31.36 31.31 31.54 31.38 32.38 33.56 29.84 30.61 30.89 30.82 30.58 29.76 29.89 30.01 29.48 29.02 28.75 28.70 27.73 26.48 25.27 25.15 25.27 24.66 24.28 24.61 24.33 23.56 23.23 23.48 23.31 22.37 21.84 20.46
35.91 34.64 34.08 34.21 33.36 32.44 32.34 32.47 32.01 31.53 31.27 31.22 31.64 32.28 36.08 33.06 29.96 30.27 30.90 31.07 30.80 30.52 30.77 30.55 29.68 29.34 28.55 27.29 26.76 25.90 25.52 25.20 24.83 24.53 24.38 24.38 24.17 24.19 23.58 23.37 23.05 21.36 20.07
34.56 34.15 33.84 33.68 33.54 34.61 33.48 32.67 31.82 31.70 31.68 31.76 32.12 32.03 31.71 32.07 31.48 29.82 29.90 30.97 31.18 30.67 30.78 30.91 30.99 30.11 29.84 29.29 28.47 28.12 27.05 26.92 27.31 26.35 24.35 24.55 24.43 24.19 23.72 22.85 22.41 21.69 21.18
34.00 33.30 33.52 33.84 33.51 33.24 33.01 32.45 32.24 32.80 32.15 32.03 32.14 32.20 32.29 31.61 31.25 31.17 30.61 30.02 29.91 30.01 30.60 30.21 30.74 31.02 31.02 30.58 30.56 30.44 30.23 30.10 29.34 26.94 25.85 24.83 24.00 24.41 22.99 22.69 22.10 21.68 21.10
31.05 31.75 32.11 32.47 32.81 33.02 32.92 33.05 32.32 31.93 31.71 31.74 31.75 31.94 32.33 32.39 31.91 30.70 30.16 30.28 30.45 30.20 29.63 29.78 30.71 31.02 31.14 31.13 31.12 30.96 30.84 31.52 29.16 28.13 26.74 25.51 24.20 23.50 23.22 22.33 22.01 21.58 21.53
28.23 28.48 29.03 30.06 31.09 31.82 32.20 32.20 32.26 32.49 32.24 32.28 31.87 31.87 31.78 31.73 31.95 32.08 32.06 31.43 31.34 30.91 30.93 31.31 30.84 30.66 30.79 31.03 31.23 31.20 31.83 31.94 30.70 30.63 27.66 26.04 24.48 23.62 23.32 22.37 21.71 21.50 21.29

GFSGL_sfc_wetblb_099.txt.gz
Wetbulb
48.64 48.48 48.63 49.69 49.00 48.64 47.86 47.98 48.28 47.69 48.65 48.90 49.46 50.04 50.04 50.28 51.10 50.98 51.35 52.37 53.19 52.53 52.23 52.14 50.95 50.82 49.64 47.98 48.93 49.14 49.31 50.10 47.24 40.03 41.44 42.42 42.69 42.65 43.12 43.09 43.55 42.23 42.94
47.44 47.39 47.39 48.34 48.26 46.98 46.54 45.99 46.14 44.97 45.32 45.73 46.33 46.96 46.93 47.02 47.63 49.22 49.06 49.27 51.24 51.05 50.60 49.57 48.34 48.19 47.44 47.27 47.38 46.86 45.50 47.26 45.64 40.31 39.71 39.87 40.70 42.08 41.93 40.34 40.11 41.28 40.04
45.48 45.04 44.90 45.31 43.84 43.33 43.74 44.22 45.03 44.69 44.25 44.58 44.32 43.51 43.56 43.75 44.11 45.08 47.59 49.77 49.06 49.45 48.60 47.57 46.52 46.54 45.02 45.53 45.21 43.95 43.96 43.76 44.01 40.61 38.00 39.93 39.33 39.83 39.58 39.55 38.14 35.06 36.20
44.06 43.51 42.86 42.32 41.62 41.41 41.63 42.28 42.29 41.94 42.36 41.83 41.53 41.84 41.77 42.41 42.20 42.82 44.34 45.96 46.03 45.82 46.12 45.85 45.50 45.32 44.36 43.48 42.55 41.60 39.48 39.13 40.29 39.50 38.19 37.95 38.13 38.75 38.61 34.20 32.25 32.84 31.18
42.68 41.97 41.04 40.85 40.61 40.48 40.39 40.47 40.58 40.55 41.24 40.60 40.56 40.86 40.44 40.35 41.56 41.19 41.63 41.55 42.20 41.56 41.36 41.29 41.74 43.08 43.85 42.73 40.87 37.75 37.72 36.87 36.34 38.17 37.44 36.94 35.40 33.32 32.93 31.64 30.59 28.71 28.27
41.80 40.90 40.82 40.49 40.19 39.79 39.67 39.50 39.33 39.34 39.53 39.91 39.66 39.87 39.23 40.85 42.49 43.51 42.18 38.97 38.76 37.74 36.64 37.79 39.56 41.83 42.61 43.77 42.56 41.89 39.59 36.43 34.44 32.23 33.83 29.55 30.97 30.90 29.18 28.55 27.23 23.85 24.21
41.22 40.83 40.58 40.36 40.02 39.55 39.42 39.03 38.42 37.77 37.82 36.88 36.71 37.76 37.54 38.48 42.24 42.75 42.69 40.12 38.57 37.13 35.99 36.13 36.88 38.60 38.59 38.05 40.88 40.60 40.99 41.29 39.39 35.72 33.84 31.67 28.55 28.84 28.37 26.26 25.98 24.26 23.83
40.64 40.50 40.58 40.40 39.87 39.47 38.70 37.66 36.52 36.27 36.25 36.37 35.97 35.36 35.97 39.04 42.17 42.41 40.85 37.48 37.53 37.40 37.20 37.08 36.60 34.07 33.77 33.03 30.31 29.55 30.32 31.83 31.19 32.15 30.29 28.99 29.24 29.52 29.66 28.46 27.12 26.36 27.06
40.14 40.04 40.49 40.48 39.54 38.82 37.14 36.04 36.76 38.04 36.85 37.02 36.76 34.46 34.59 37.63 41.97 40.89 38.48 36.18 35.54 35.09 35.36 34.99 34.12 32.31 37.13 36.94 30.08 29.16 28.80 30.53 36.66 37.15 36.41 36.81 36.46 35.76 32.58 28.39 25.51 25.13 23.64
40.37 40.41 40.62 40.31 39.36 37.70 36.50 35.84 35.88 37.61 35.91 35.63 34.43 35.18 37.98 37.50 40.86 40.06 36.70 33.80 31.99 31.21 31.79 32.58 36.43 33.07 37.56 37.22 29.73 28.96 27.46 28.13 29.22 28.87 30.07 32.46 32.26 33.95 34.60 28.99 26.77 19.89 21.00
41.50 40.86 40.32 39.74 38.72 37.30 35.46 35.30 36.68 35.65 35.09 34.66 35.06 36.42 37.10 37.28 37.69 40.01 38.76 32.30 30.76 29.81 30.12 29.53 30.19 36.51 36.77 36.69 33.89 28.30 28.86 29.46 31.29 26.68 26.00 27.33 26.84 27.04 26.97 27.99 27.42 21.88 15.68
40.62 39.81 39.03 38.12 38.52 37.19 35.47 36.18 35.72 35.35 34.52 34.15 34.15 33.73 35.00 36.09 38.51 39.33 38.83 35.10 33.66 29.16 28.46 28.07 29.30 36.79 35.08 34.38 31.35 33.07 34.70 33.06 26.98 25.47 25.43 24.99 25.44 24.58 25.65 26.55 27.20 26.08 24.71
38.97 38.09 37.42 37.31 36.85 36.36 36.31 35.31 34.52 34.59 33.80 33.07 32.56 32.31 31.97 31.89 32.88 37.82 38.40 36.50 35.19 28.64 28.03 30.76 33.73 35.75 35.01 33.75 32.83 34.29 35.20 27.59 26.19 25.04 25.25 24.91 24.74 24.72 23.57 23.89 24.80 23.30 19.47
37.58 36.99 36.68 35.86 36.68 37.04 36.38 35.61 34.59 33.55 33.01 32.48 31.72 31.44 31.52 30.48 30.51 31.29 32.82 33.10 35.14 31.77 31.83 30.91 32.98 33.24 32.70 30.76 31.66 31.39 29.04 27.12 25.75 25.37 25.44 25.16 24.47 21.01 21.37 20.84 16.20 18.00 23.33
37.49 37.90 38.55 38.28 38.37 36.02 35.42 35.09 34.51 34.72 34.25 32.60 32.10 32.27 31.27 30.28 30.62 33.33 32.44 29.87 28.69 29.07 28.23 28.33 27.82 27.41 27.41 26.86 26.42 27.68 28.49 28.42 26.64 25.75 25.49 25.55 25.98 24.77 23.85 17.97 18.10 20.99 23.66
37.75 38.35 38.06 37.25 36.55 35.35 34.40 34.08 37.67 37.50 37.41 37.93 37.48 34.81 33.46 36.00 35.82 36.50 36.39 35.94 34.83 34.05 28.37 26.67 26.55 25.98 25.63 26.61 25.49 25.20 27.16 29.29 26.88 26.38 25.82 26.22 25.03 23.16 21.76 19.12 20.27 21.37 21.93
36.41 37.82 37.57 37.08 34.95 35.21 34.18 33.15 31.99 34.15 38.26 38.34 38.27 38.50 38.18 35.43 36.81 36.49 36.47 36.68 36.66 35.12 28.46 26.46 25.85 25.58 25.04 25.13 25.29 25.18 25.18 27.17 26.31 25.54 24.12 24.10 22.75 20.25 25.72 20.01 17.57 17.89 17.44
35.18 38.65 36.14 36.64 35.95 35.37 34.16 33.02 32.62 31.87 31.68 32.62 37.23 38.02 38.58 38.77 36.37 35.88 35.89 35.79 31.66 33.72 30.07 27.42 25.73 25.10 24.65 24.73 25.10 25.18 25.19 25.33 24.94 24.30 23.90 23.79 22.69 19.93 17.51 16.92 17.14 15.92 15.32
35.12 36.19 36.25 35.36 34.68 34.99 33.46 32.59 32.37 31.99 31.89 32.06 31.89 34.51 37.42 39.09 38.37 36.95 35.79 30.99 30.18 29.96 30.17 28.35 28.07 27.19 26.35 26.05 25.47 25.19 24.99 24.65 24.68 24.19 24.42 23.47 23.05 22.38 19.73 21.93 20.00 25.72 22.37
36.32 37.48 37.51 34.36 33.98 33.87 33.27 32.27 31.83 31.60 31.62 31.75 31.81 31.78 32.21 34.89 33.59 33.66 33.30 30.82 29.66 29.78 29.63 29.20 28.67 28.09 27.71 27.09 26.37 25.69 24.58 25.34 26.14 24.27 24.30 23.89 23.79 23.23 23.99 22.00 21.44 21.66 22.48
36.19 35.78 37.35 35.44 33.63 33.27 32.91 32.34 32.24 31.65 31.47 31.63 32.09 33.11 34.74 31.59 31.89 32.21 31.76 31.32 30.44 29.75 29.58 29.33 29.29 28.88 28.71 28.58 28.11 26.57 25.60 25.31 25.92 25.92 24.34 23.68 23.78 23.15 24.67 24.58 23.93 23.39 22.85
34.85 34.25 33.99 33.56 33.52 32.71 32.70 32.92 32.34 31.82 31.70 31.49 31.87 32.44 36.37 34.18 31.03 30.50 31.16 31.54 31.98 31.84 31.02 30.39 30.03 30.01 30.01 29.65 28.88 27.59 26.38 25.60 25.24 25.09 24.64 25.10 25.05 24.98 24.70 24.31 24.05 23.41 22.63
33.34 32.94 32.93 33.28 33.24 34.45 33.84 33.12 31.90 31.78 31.84 31.92 32.03 31.99 32.02 32.40 32.46 32.04 31.21 31.57 32.03 31.72 31.30 30.54 30.78 30.78 30.76 30.55 29.94 28.72 27.42 26.91 26.99 25.94 24.73 25.20 25.15 24.83 24.74 23.91 23.56 22.91 22.29
31.10 30.92 31.54 32.14 32.63 32.78 32.31 32.24 32.14 32.93 32.24 31.84 31.95 32.07 32.14 32.16 32.06 32.30 32.48 31.93 31.51 31.90 31.94 31.00 30.66 31.15 31.50 30.82 30.39 29.69 29.35 29.25 28.71 27.46 26.78 25.65 25.03 25.90 24.75 23.92 23.47 22.86 22.21
26.44 26.71 27.89 28.49 29.89 31.07 31.41 32.08 32.22 31.80 31.75 31.75 31.72 31.77 32.14 32.26 32.21 32.29 32.21 32.09 32.02 30.72 30.55 31.33 31.68 31.53 31.42 31.76 30.81 29.85 29.96 31.23 29.92 29.55 28.21 26.81 25.65 25.20 24.81 23.81 23.25 22.32 21.80
24.86 24.69 24.40 24.69 26.20 27.06 27.28 28.39 29.21 30.76 31.85 32.21 32.12 32.14 31.98 32.04 32.13 32.45 32.58 32.18 31.32 31.30 31.18 31.04 30.69 30.86 31.67 31.93 32.05 32.24 32.76 32.91 32.02 32.38 28.77 27.00 25.49 24.74 24.34 23.67 22.95 22.23 21.79

GFSGL_sfc_wetblb_102.txt.gz
Wetbulb
49.27 48.96 49.47 49.10 49.38 49.62 49.48 49.18 49.11 49.58 49.90 49.33 50.44 50.48 50.24 50.03 49.74 50.38 51.02 51.25 51.41 51.81 52.57 53.34 53.62 52.45 51.68 51.06 50.55 50.23 51.25 51.40 48.91 40.38 41.79 42.80 42.79 43.14 43.38 43.64 43.37 42.23 43.89
46.90 47.05 46.83 46.90 46.74 46.39 45.99 46.18 45.62 44.80 44.91 46.21 45.99 46.23 46.07 46.07 46.43 47.57 48.56 48.43 48.82 51.71 51.84 49.92 50.78 49.30 49.27 48.65 48.65 48.54 48.29 48.34 46.44 40.73 39.76 40.32 41.06 42.51 42.35 40.44 40.68 41.20 41.65
45.88 45.22 44.63 44.33 44.08 43.09 43.19 44.04 44.12 43.02 43.10 43.72 43.79 43.58 43.46 43.46 43.48 44.11 45.19 47.57 48.45 49.62 50.06 48.49 48.63 47.79 46.87 46.44 46.44 45.90 45.73 45.07 44.56 41.52 38.74 40.13 39.68 40.85 40.16 39.52 37.45 35.93 37.86
44.23 43.65 42.91 42.36 41.80 41.42 41.37 41.50 41.73 41.51 41.23 40.93 41.33 41.62 41.51 41.24 41.54 41.71 42.81 44.88 45.91 46.85 46.82 46.62 46.60 46.30 45.83 44.89 44.09 43.47 42.74 42.66 42.63 40.37 38.82 38.13 38.38 39.22 38.88 35.72 34.09 33.61 30.15
42.65 42.17 41.29 40.72 40.50 40.25 40.06 39.98 40.02 40.03 39.92 40.01 40.20 40.08 39.35 39.82 41.18 40.56 40.46 41.21 40.70 40.64 41.32 41.89 42.67 43.99 45.25 44.53 42.82 41.52 40.87 40.11 39.22 39.50 37.79 37.56 36.00 35.77 35.94 34.47 31.83 28.39 27.48
41.52 40.74 40.36 39.94 39.66 39.24 38.98 38.94 38.84 38.68 38.81 39.03 38.76 38.96 38.23 40.37 42.93 43.58 42.66 39.03 38.44 37.81 37.08 38.90 40.29 42.60 43.54 44.54 43.67 42.85 40.98 36.63 34.69 36.96 36.23 34.81 34.48 34.12 32.29 30.63 27.52 24.82 25.39
40.74 40.10 39.95 39.72 39.34 38.90 38.82 38.48 37.68 37.00 37.17 36.41 36.18 36.86 36.77 37.64 42.76 43.00 43.22 40.47 39.26 38.05 36.34 36.80 37.52 39.24 39.80 40.15 41.75 41.41 42.35 42.89 40.32 36.26 35.33 34.55 31.52 31.11 28.89 26.92 27.16 25.57 25.13
40.22 39.85 39.79 39.57 39.10 38.63 37.96 37.02 35.93 35.55 35.33 34.96 36.70 35.70 35.07 37.39 42.23 43.02 41.60 38.30 38.38 38.20 37.99 37.85 37.49 35.70 35.43 34.20 32.11 31.22 30.49 30.20 32.97 35.32 35.20 32.49 30.91 30.28 30.67 29.86 28.38 27.02 27.08
39.72 39.49 39.64 39.68 38.78 37.91 36.65 35.49 35.35 35.20 34.58 37.06 37.15 35.94 33.61 34.90 41.09 41.95 39.65 36.91 36.05 35.66 36.59 36.26 36.05 34.71 38.04 36.56 30.19 29.53 29.85 31.13 36.80 36.94 35.88 36.40 36.54 35.91 32.85 29.29 27.57 27.37 25.14
39.83 39.86 39.89 39.58 38.68 37.22 36.10 35.08 33.31 35.20 36.80 36.32 35.06 33.95 36.25 34.70 40.63 41.42 37.99 35.15 33.72 33.16 32.41 33.30 37.88 34.64 38.14 37.65 29.71 27.65 28.87 29.63 29.82 30.69 31.20 32.49 33.55 34.35 35.36 29.40 28.62 25.20 23.43
40.92 40.46 39.80 39.32 38.30 37.38 35.14 36.12 34.03 35.29 35.57 34.94 34.59 35.16 37.12 38.06 37.56 41.07 39.87 33.62 32.43 30.75 30.75 30.49 31.86 37.14 37.40 38.05 34.19 28.33 28.16 29.56 31.40 28.08 27.37 26.91 27.29 27.95 28.45 28.69 28.21 24.94 18.97
40.82 39.92 39.16 38.37 38.32 36.57 34.61 34.85 34.21 35.81 35.20 34.93 34.82 34.55 35.55 36.60 38.88 39.05 40.79 38.43 34.57 30.31 29.88 30.35 30.87 37.04 36.50 36.61 33.93 33.56 35.00 33.43 27.48 26.15 26.86 26.60 26.39 26.25 26.63 27.68 27.85 26.91 26.21
39.28 38.35 37.45 36.83 36.42 36.78 36.37 34.00 35.11 35.21 34.51 34.08 33.43 33.24 33.57 33.79 33.92 38.96 39.49 39.66 36.80 30.85 30.08 31.36 33.32 35.99 36.53 34.07 34.40 33.72 35.42 27.80 26.74 25.25 25.37 25.42 26.21 26.24 25.57 25.92 26.18 25.24 22.74
37.39 36.51 35.92 35.27 34.90 35.91 36.77 35.99 35.12 34.24 33.81 33.12 32.63 32.50 33.13 32.35 31.16 31.33 34.12 34.39 37.07 33.49 32.35 31.44 33.33 33.74 33.86 31.32 31.46 31.33 28.58 27.24 26.41 26.12 25.80 26.20 25.41 24.61 24.54 23.69 20.03 19.13 18.83
36.85 36.37 37.32 37.87 38.72 36.74 36.11 35.85 35.23 35.54 34.97 33.48 33.46 33.25 32.24 31.73 32.35 33.76 33.00 30.49 30.10 30.87 28.86 27.88 27.90 27.96 27.51 27.26 27.75 28.07 28.64 28.19 26.85 25.96 25.95 25.82 26.40 26.05 25.29 21.44 20.26 17.52 16.39
37.41 37.25 37.95 37.31 37.66 36.22 35.10 34.90 38.30 38.21 38.15 38.54 38.67 36.25 33.73 36.54 37.81 36.89 37.14 37.02 36.36 35.48 29.12 27.15 27.04 26.71 27.00 27.45 26.43 25.81 27.07 29.76 27.80 26.46 25.60 26.57 26.63 25.36 23.82 19.37 18.50 18.23 17.03
35.33 35.69 35.46 37.99 36.61 35.61 34.44 33.96 33.05 34.93 38.29 38.93 39.20 38.95 39.29 38.44 37.13 38.23 37.38 37.58 37.10 35.68 29.12 26.52 26.54 27.02 26.91 26.35 26.58 25.39 25.10 27.30 26.87 26.53 24.18 26.36 26.29 25.67 27.14 21.57 20.52 19.18 17.69
33.81 37.18 34.89 34.39 34.08 35.59 35.04 33.75 33.24 32.42 32.19 32.70 36.29 38.60 38.99 39.03 38.83 37.95 38.03 36.44 31.56 34.23 30.82 28.49 27.19 26.96 26.41 26.07 25.82 25.59 25.49 25.29 26.39 25.99 25.53 25.35 25.41 23.66 22.09 21.11 21.55 21.42 18.78
33.31 34.08 35.79 35.17 34.82 35.16 34.02 33.23 32.95 32.45 32.30 32.47 32.48 34.44 36.74 38.61 39.29 39.29 37.53 32.88 30.26 30.46 30.40 29.70 29.37 27.97 26.71 26.07 25.62 25.13 25.16 24.76 24.86 24.71 25.29 24.93 24.43 24.24 24.39 23.29 23.57 26.31 23.83
36.13 37.14 37.44 34.76 34.05 33.89 33.66 32.95 32.56 32.31 32.11 32.08 31.99 32.15 32.39 33.87 32.93 34.39 34.96 32.81 30.27 30.17 30.28 30.13 29.24 28.43 28.09 27.79 26.95 25.92 24.73 25.35 25.61 24.86 24.43 24.92 25.27 25.34 25.26 24.36 23.59 22.17 24.63
35.37 34.92 37.14 34.74 33.97 33.57 33.20 32.77 32.65 32.34 32.01 31.82 32.16 33.44 35.85 32.03 31.94 32.94 33.37 33.24 32.62 31.20 30.33 30.18 29.83 29.49 28.95 28.57 28.08 27.27 26.40 25.97 25.87 26.18 25.14 25.04 25.11 23.90 25.32 25.64 23.93 23.58 23.72
33.73 33.12 32.86 32.67 33.05 32.88 32.77 32.94 32.67 32.16 32.08 31.85 32.40 32.71 36.37 34.58 32.53 31.90 32.32 32.94 33.34 33.19 31.94 30.74 30.12 29.94 29.95 29.37 28.83 27.96 26.93 26.35 26.19 26.23 26.01 25.15 24.77 24.79 25.06 24.95 24.60 23.77 23.67
29.55 30.48 31.83 32.09 32.25 33.67 32.75 32.75 31.99 31.89 31.97 32.10 32.21 32.12 32.02 32.27 32.51 32.52 32.07 32.11 32.39 32.74 32.94 32.24 31.23 31.10 31.20 30.87 30.47 29.89 28.53 28.10 28.59 27.80 26.18 25.65 25.19 24.96 25.13 24.20 24.19 23.81 23.65
26.97 26.76 27.00 28.26 29.87 31.29 31.72 31.82 31.98 32.87 32.38 31.99 32.05 32.20 32.09 32.07 32.06 32.19 32.68 32.97 32.51 32.36 32.63 32.30 32.02 31.52 31.91 31.74 30.96 31.11 31.07 31.02 30.41 29.01 27.55 26.25 25.58 26.37 25.29 24.62 24.58 24.45 24.06
25.38 24.80 24.78 24.41 25.13 25.88 27.33 27.72 28.96 30.27 30.92 31.76 31.78 32.13 32.02 32.18 32.23 32.35 32.72 32.63 32.47 32.20 31.83 32.13 32.34 32.08 31.31 31.73 32.15 31.67 31.13 31.77 30.63 29.62 28.24 27.22 25.62 25.44 25.53 24.93 24.68 24.17 23.71
24.41 24.41 24.07 23.84 23.10 23.32 25.03 25.18 25.23 25.96 26.53 27.68 28.14 29.50 31.28 31.83 32.11 32.18 32.38 32.41 32.31 32.05 31.98 31.83 31.50 31.63 32.04 32.08 32.17 32.63 33.97 33.78 32.42 32.59 29.36 27.80 26.38 25.74 25.73 25.39 24.74 24.06 23.33

GFSGL_sfc_wetblb_105.txt.gz
Wetbulb
52.91 51.13 51.75 51.19 50.63 50.12 50.39 49.74 49.58 49.27 49.95 50.18 50.31 50.25 50.18 49.16 49.77 49.22 49.51 49.58 49.27 49.48 52.00 52.26 52.67 53.41 52.78 52.59 52.04 52.08 52.50 52.47 50.07 40.89 42.23 43.18 43.38 43.76 44.08 44.34 43.91 43.56 44.89
49.09 49.32 48.75 48.09 47.88 46.96 46.34 45.76 46.27 45.74 46.66 46.04 46.48 46.13 45.62 45.43 45.57 45.20 45.86 47.11 47.68 48.64 50.92 51.21 50.97 50.26 50.24 50.10 49.82 50.08 49.80 49.52 47.32 40.99 40.02 41.03 41.66 43.05 42.53 41.71 41.77 41.28 42.38
46.27 46.27 45.43 44.77 44.20 43.38 43.37 43.53 43.61 43.24 43.10 44.41 43.50 42.97 42.60 42.31 42.37 42.30 43.02 44.36 45.83 46.96 47.65 49.36 48.82 48.60 48.15 47.47 46.89 46.67 46.62 46.08 45.37 42.26 38.96 40.62 40.45 42.19 40.53 39.52 37.90 36.62 39.05
44.52 43.99 43.26 42.74 42.08 41.62 41.55 41.83 42.03 42.08 42.23 40.79 40.72 40.69 40.54 40.26 40.60 40.66 41.10 41.55 42.60 43.23 43.40 43.83 44.04 45.54 45.95 45.90 45.04 44.77 44.25 44.00 43.50 41.36 39.67 38.60 38.91 39.86 39.66 36.46 34.19 33.96 32.83
43.24 42.73 41.72 41.08 40.59 40.16 39.98 39.88 40.00 40.01 39.69 39.69 39.50 39.06 38.56 39.37 41.00 40.02 39.52 38.96 39.01 39.37 39.35 39.66 40.69 42.65 45.08 45.54 43.91 43.17 42.48 42.07 41.69 40.05 38.46 37.83 35.48 37.01 36.83 35.25 33.21 30.85 30.00
42.12 41.34 40.85 40.08 39.60 39.22 38.86 38.63 38.64 38.29 38.23 38.31 37.92 38.16 37.55 39.93 43.41 43.83 42.20 38.32 37.56 37.05 36.67 36.96 38.19 40.96 42.28 45.03 44.73 43.89 42.70 40.42 38.35 38.18 37.20 35.93 35.66 35.81 34.02 33.63 30.26 29.33 27.63
41.20 40.30 39.75 39.47 39.03 38.57 38.31 37.98 37.09 36.58 36.67 35.74 35.39 35.80 35.76 36.63 42.56 43.63 43.56 37.78 37.23 38.69 37.94 37.54 38.23 39.38 39.81 40.02 41.07 41.17 41.67 43.01 41.69 38.00 36.65 36.70 34.94 34.71 33.19 30.92 29.87 28.22 26.83
40.29 39.67 39.50 39.19 38.54 37.89 37.48 36.57 35.39 35.07 34.85 34.43 36.80 36.65 33.82 36.41 41.54 42.53 42.39 35.46 35.56 37.29 38.27 38.13 37.79 37.14 36.59 36.10 34.03 33.39 32.64 32.63 33.97 36.74 36.59 36.67 35.00 32.85 33.98 30.96 29.57 27.41 27.53
39.81 39.40 39.45 39.29 38.26 37.28 36.16 34.97 34.65 34.56 33.89 34.04 36.86 36.66 34.48 33.80 39.96 42.37 40.67 34.67 33.89 35.26 36.90 36.88 36.82 35.90 37.57 37.61 32.79 32.10 31.45 32.05 36.88 37.44 36.97 37.31 37.14 36.84 33.29 30.21 28.17 27.64 25.22
39.69 39.74 39.55 39.22 38.25 36.78 35.82 34.59 33.58 34.38 34.42 35.99 35.77 35.88 35.76 34.23 38.94 41.79 40.49 35.62 32.97 34.27 33.88 33.74 38.02 36.34 38.05 37.93 31.11 30.67 30.23 30.12 30.37 31.60 29.80 32.44 34.12 35.22 35.77 29.66 29.25 26.20 23.88
40.77 40.18 39.48 38.84 38.08 36.94 34.92 35.37 35.27 32.63 33.49 35.79 35.20 35.51 33.27 35.53 37.69 40.42 41.31 35.33 33.21 32.29 31.33 31.35 31.89 37.92 38.28 38.87 35.18 29.72 30.06 31.28 32.31 27.98 27.31 28.08 27.86 28.83 28.78 28.49 28.64 26.40 23.51
40.62 39.73 38.96 38.26 38.15 36.63 34.67 35.16 33.01 35.31 35.75 35.55 35.34 33.96 34.21 36.24 38.56 39.73 40.46 40.84 36.39 30.75 30.40 30.96 31.27 35.58 37.65 37.66 36.79 34.33 34.95 33.77 26.92 27.23 26.39 25.89 26.64 26.59 27.45 27.30 27.89 27.64 27.72
39.12 38.39 37.77 36.84 36.34 35.21 34.00 34.86 35.74 35.68 35.23 34.67 34.10 33.79 33.30 33.62 33.97 38.40 39.70 40.72 40.71 32.72 29.99 31.82 34.76 35.24 37.64 35.22 35.84 34.24 35.26 28.34 26.26 25.42 25.67 26.28 26.69 26.78 25.85 26.01 26.59 26.18 25.08
37.96 37.11 36.30 35.78 35.22 34.92 36.14 36.20 35.66 35.05 34.51 33.46 33.10 33.02 33.77 32.35 32.97 32.89 32.93 35.85 37.16 36.49 34.32 31.65 33.10 34.19 34.93 33.12 32.90 30.37 28.46 27.56 26.11 25.15 26.02 26.55 26.00 24.59 24.43 24.57 22.50 20.94 21.58
37.18 36.62 36.19 36.08 36.63 35.39 36.56 36.57 34.96 36.03 35.54 33.90 33.93 33.73 32.98 32.74 33.26 35.52 33.77 31.80 32.26 32.65 30.16 26.96 27.12 28.81 29.68 28.81 27.99 28.11 27.75 27.94 26.46 26.34 25.36 25.27 26.15 25.84 25.10 23.17 21.05 21.36 21.34
36.35 36.69 36.65 37.20 35.48 35.59 35.43 35.23 38.95 38.80 38.75 39.13 39.20 37.23 34.22 37.18 38.23 38.72 38.60 37.91 37.61 37.17 30.36 25.75 25.64 27.24 28.13 28.20 27.55 26.79 27.10 29.25 27.59 26.48 26.18 26.71 26.58 25.68 25.07 22.32 21.53 21.96 21.36
33.75 34.21 34.16 36.37 36.73 36.66 35.51 33.96 31.64 35.59 38.98 39.39 39.65 39.80 39.74 39.40 38.78 38.70 38.64 38.05 38.25 37.79 30.29 26.42 26.01 26.23 27.06 27.08 26.72 26.51 26.43 27.31 27.65 27.13 25.90 25.67 24.88 25.40 27.20 23.47 23.29 22.85 22.04
32.48 36.19 32.61 32.23 32.59 34.62 33.70 32.19 33.44 33.03 33.00 33.36 36.75 38.05 38.68 39.65 39.84 39.49 38.94 37.87 34.15 33.86 29.03 29.27 26.45 26.31 26.34 26.26 26.54 26.56 26.40 25.57 26.82 27.20 26.19 25.68 26.18 25.09 24.87 24.18 23.61 22.72 22.67
34.33 32.55 32.29 31.74 33.28 33.78 33.38 33.71 33.54 33.09 32.80 33.00 33.00 34.90 36.45 37.97 38.69 39.64 39.76 35.19 32.32 28.55 29.41 29.34 28.33 27.91 27.65 26.92 26.13 25.56 25.33 24.49 24.70 24.95 26.06 26.07 25.74 25.14 24.48 25.43 24.42 26.61 25.24
35.58 36.48 37.17 34.70 34.21 33.87 33.69 33.21 32.90 32.65 32.66 32.83 32.63 32.65 32.93 33.64 32.44 32.74 34.13 34.42 33.17 31.34 29.56 29.15 29.45 29.61 28.85 27.62 27.29 26.08 24.80 25.44 26.00 25.29 24.97 25.49 25.53 25.03 24.71 24.74 24.51 24.65 26.32
34.06 33.19 35.63 32.92 33.27 33.41 33.19 32.96 32.87 32.69 32.37 32.43 32.69 33.55 36.32 32.77 32.00 32.29 32.75 33.38 33.26 32.76 31.82 29.36 29.61 29.02 29.28 29.21 28.38 27.85 26.50 25.92 24.98 25.07 24.31 24.11 24.50 23.86 25.32 25.83 25.29 25.03 24.86
28.45 32.07 32.27 31.84 32.07 32.18 32.59 32.83 32.55 32.21 32.18 32.10 32.49 32.85 36.36 34.72 32.92 32.31 32.39 33.04 33.91 34.26 34.41 33.15 31.32 30.71 30.69 29.89 29.49 28.62 27.60 27.27 27.11 26.20 25.83 24.77 24.55 24.69 25.17 25.10 25.28 24.38 24.10
26.94 26.88 27.07 28.63 30.46 32.48 32.01 32.05 31.68 31.70 31.80 31.97 32.11 32.09 32.15 32.06 32.25 32.25 32.51 32.78 32.71 32.95 33.44 33.07 32.27 31.32 30.76 30.84 30.82 30.31 29.11 28.61 28.66 28.05 26.81 26.20 25.37 25.09 24.91 24.42 24.55 24.28 23.82
26.07 25.21 25.11 25.15 25.55 26.40 27.20 28.74 29.33 30.87 31.44 31.58 31.69 31.82 31.84 31.89 31.75 31.77 32.12 32.48 32.52 32.42 32.47 32.42 32.44 32.52 32.42 31.92 31.39 31.05 31.00 31.37 31.02 29.34 28.02 26.46 25.62 26.18 24.91 24.85 24.90 24.57 24.25
25.36 24.72 24.51 23.84 24.06 24.01 24.40 24.86 24.97 25.57 26.76 27.38 27.97 28.04 28.58 30.30 31.50 31.82 32.06 32.18 32.26 32.21 32.18 32.22 32.34 32.32 32.22 32.20 32.27 32.34 31.84 32.88 31.91 30.74 29.34 28.44 27.15 26.67 26.32 25.57 25.06 24.67 24.51
24.70 24.26 24.21 23.85 23.35 23.46 23.69 24.28 24.89 25.21 24.83 25.63 25.97 25.51 25.77 27.20 28.20 28.97 30.06 30.68 32.13 32.17 32.29 32.50 32.37 32.04 32.13 32.29 32.29 32.56 34.12 34.44 33.23 34.11 30.82 28.82 27.53 26.58 26.36 25.98 25.53 24.99 24.61

GFSGL_sfc_wetblb_108.txt.gz
Wetbulb
53.03 52.63 53.06 52.10 51.51 51.54 51.15 50.27 49.73 49.57 50.00 49.98 50.03 49.81 49.38 48.70 48.29 48.70 48.85 48.96 49.93 49.79 49.92 52.15 51.93 52.17 50.58 50.94 51.86 51.99 52.40 52.80 51.71 41.75 42.89 43.79 44.06 44.59 44.96 44.93 44.90 44.83 46.66
50.03 50.44 49.49 48.96 48.87 48.19 47.04 46.66 47.22 46.09 46.33 46.65 46.52 45.67 44.74 44.16 43.82 43.96 44.26 44.98 45.51 46.18 47.17 49.49 50.16 50.21 48.54 49.69 49.82 49.52 49.52 50.38 48.90 43.46 40.66 41.61 42.32 43.72 43.24 42.37 41.40 42.25 43.69
48.48 47.17 46.77 46.48 45.73 44.77 44.37 44.24 44.13 43.75 43.53 43.65 43.43 42.54 41.99 41.53 41.13 40.84 41.27 41.87 42.89 43.86 44.25 44.36 46.01 45.83 45.33 46.55 47.38 46.75 46.75 46.62 46.23 42.78 39.40 41.04 41.16 42.71 40.99 40.10 38.77 38.72 40.65
45.11 44.82 43.96 43.81 43.17 42.58 42.28 42.14 42.08 42.20 41.48 41.06 40.81 40.70 39.97 39.65 39.80 39.76 39.85 39.66 40.15 40.64 40.79 40.62 40.53 40.94 42.22 45.18 45.31 45.25 44.86 44.60 44.05 42.25 40.30 39.13 39.61 41.13 40.21 36.77 34.34 34.65 33.39
43.19 42.78 41.65 40.89 40.49 40.22 40.06 39.87 39.85 39.74 39.40 39.83 39.04 38.40 38.45 39.41 41.17 39.36 39.02 38.06 37.67 37.73 38.03 38.35 38.66 41.13 44.03 44.96 44.07 43.05 43.15 42.78 42.57 41.12 39.42 38.50 37.32 37.81 37.76 36.67 34.05 31.54 30.89
42.19 40.84 40.21 39.71 39.41 38.98 38.80 38.61 38.25 38.02 38.18 38.12 37.88 37.73 37.20 39.57 43.89 44.16 41.13 37.48 36.98 36.36 36.00 36.33 37.06 39.79 41.29 44.08 45.10 44.67 43.65 41.23 39.32 38.62 37.83 37.05 36.54 36.88 35.53 35.01 31.39 30.27 29.71
41.00 39.98 39.57 39.10 38.61 38.38 37.99 37.69 37.03 36.52 36.74 35.65 35.50 35.75 35.17 36.01 42.97 43.61 42.88 36.21 35.80 35.08 35.25 35.42 37.47 38.94 39.61 39.50 39.88 40.26 40.57 42.04 43.32 39.76 37.86 37.85 36.53 35.75 35.11 32.61 31.54 31.24 30.42
39.50 39.00 39.03 38.81 37.87 37.54 37.28 36.30 34.97 35.59 35.25 35.68 36.59 36.86 34.17 35.88 41.17 42.19 42.04 34.61 33.96 33.97 34.57 35.04 36.70 37.20 37.34 37.87 35.33 34.49 33.62 33.95 34.84 37.91 37.80 38.58 38.04 36.78 36.78 35.18 32.43 29.23 29.04
38.86 38.77 39.04 38.86 37.53 36.86 36.17 35.40 35.37 34.83 33.78 33.54 35.74 37.01 35.80 32.86 39.39 41.95 39.59 35.94 33.63 32.28 34.95 36.60 36.95 36.48 38.14 39.44 33.71 32.85 32.03 32.48 36.62 38.32 38.09 38.17 38.34 38.53 34.94 32.53 30.09 30.20 27.17
39.13 39.27 39.20 38.93 37.90 37.40 36.02 35.29 33.84 34.61 34.63 34.06 36.02 36.53 36.72 34.26 38.38 40.74 40.85 36.40 34.49 33.83 32.21 33.94 36.01 38.33 38.74 39.33 32.06 31.16 30.67 31.22 32.06 32.16 31.64 31.87 33.18 35.76 36.00 29.77 29.95 27.74 24.52
40.28 39.61 38.97 38.77 38.10 37.42 35.21 35.52 35.75 33.36 33.46 35.07 35.87 36.17 35.43 33.64 34.62 40.40 41.07 37.36 34.57 32.80 30.24 30.25 32.04 35.76 38.73 38.99 36.73 30.02 30.28 31.93 33.27 29.72 29.37 28.43 28.53 29.08 28.73 28.62 29.06 24.48 22.45
40.27 39.60 38.77 37.89 38.11 36.47 34.87 35.83 33.13 33.27 33.48 35.15 35.43 33.88 33.55 35.06 38.01 39.19 40.77 40.91 39.39 32.89 31.25 29.30 29.81 35.32 36.57 37.91 37.17 36.33 35.64 34.23 29.76 28.78 28.15 26.65 26.28 25.76 27.37 28.09 28.58 28.34 27.35
39.64 39.08 38.42 38.04 37.50 36.31 35.25 34.96 33.84 34.24 35.09 35.53 34.43 33.53 34.46 34.94 34.34 38.01 39.97 40.63 41.23 34.77 31.74 31.84 34.82 35.41 36.10 36.60 36.72 36.09 35.13 30.35 27.74 27.37 27.10 23.46 26.74 27.06 25.53 25.54 26.81 27.20 26.63
38.66 37.60 36.87 36.13 35.25 34.36 35.04 34.88 34.86 35.42 35.26 33.92 33.41 33.16 34.10 33.75 33.80 34.13 34.09 34.14 37.70 36.93 36.31 32.52 32.64 33.49 34.82 33.50 33.65 31.82 29.45 29.71 27.65 25.37 23.35 24.06 25.67 22.78 24.06 25.15 22.02 22.66 21.08
38.34 37.60 36.73 36.69 36.87 35.19 35.10 35.06 34.60 36.27 34.74 32.51 33.39 33.85 32.76 32.18 33.77 35.41 34.46 32.10 32.48 33.97 33.47 27.13 26.26 27.06 27.87 28.34 28.07 28.12 27.61 28.47 26.65 25.02 24.69 24.69 25.58 25.48 25.63 21.53 22.64 21.79 20.86
36.72 36.69 36.62 36.42 35.92 35.61 34.54 35.96 39.27 38.88 39.21 39.58 39.27 36.84 34.54 37.35 38.59 39.09 39.29 39.38 38.99 37.70 33.21 27.71 24.99 24.80 25.80 27.66 27.44 26.69 26.93 28.64 27.17 26.86 26.34 26.13 25.19 24.11 24.30 23.07 21.79 18.45 19.70
33.22 33.68 33.67 35.58 36.55 36.84 35.81 34.79 34.01 36.18 39.67 39.98 39.92 40.02 40.20 39.75 39.75 39.65 39.61 39.05 38.71 37.97 33.83 29.25 25.35 25.28 25.16 26.25 26.43 25.95 24.77 26.40 26.06 26.30 24.25 23.96 25.20 25.47 26.94 23.51 22.47 21.74 20.75
32.08 35.71 31.66 31.01 31.11 31.74 31.79 32.42 33.85 33.02 32.86 33.68 37.52 38.80 39.17 39.28 39.36 40.13 40.01 39.39 34.16 35.01 31.80 30.87 28.61 25.68 25.44 24.65 25.81 25.33 25.03 24.79 26.19 27.05 26.04 25.02 25.29 24.94 24.28 22.74 24.15 23.19 23.20
35.11 35.19 34.44 31.72 30.38 31.92 32.45 33.30 33.06 33.30 33.22 33.42 33.27 35.30 37.20 38.17 38.45 39.05 39.55 35.86 33.67 32.48 31.59 29.92 27.80 26.78 25.96 24.89 25.01 25.20 25.87 24.55 25.11 26.14 26.31 25.77 25.20 25.31 24.87 25.68 24.79 27.14 26.09
34.67 35.59 35.94 33.67 33.72 33.71 33.55 33.16 33.09 32.96 32.90 32.92 32.73 32.86 33.42 33.80 32.35 32.51 33.12 32.18 33.06 33.27 32.02 30.76 30.08 28.82 27.85 26.72 24.73 25.67 25.01 25.91 25.60 24.34 24.04 25.25 25.92 26.11 25.70 25.21 25.23 24.22 26.61
29.70 32.12 34.23 32.42 32.21 32.26 32.47 32.49 32.58 32.41 32.16 32.09 32.44 33.59 36.73 33.40 32.16 32.16 32.37 32.41 32.69 33.09 33.00 32.11 30.88 30.47 30.64 28.08 27.71 26.72 26.22 27.05 26.08 26.52 25.51 23.95 24.06 24.11 25.69 26.12 25.80 25.29 25.45
27.12 27.85 27.73 29.24 31.54 31.56 32.22 32.18 32.04 31.76 31.80 31.74 32.22 32.86 35.96 34.07 32.48 32.16 32.21 32.56 33.16 33.78 34.25 33.72 32.81 31.73 31.42 30.74 29.95 29.10 28.73 27.13 27.05 26.34 26.00 25.59 25.20 25.25 25.43 25.27 25.23 24.90 24.67
26.22 25.70 25.37 25.39 25.96 27.87 27.62 30.26 30.85 31.21 31.46 31.69 31.80 31.84 31.97 31.81 31.79 31.61 31.69 32.14 32.26 32.35 32.92 32.77 32.94 32.90 32.67 32.27 31.97 30.75 29.40 28.62 28.76 27.96 26.41 26.27 25.45 25.06 25.01 24.55 24.50 24.34 23.93
25.68 25.15 24.74 24.31 24.39 24.78 24.77 25.44 25.47 26.75 27.49 27.84 28.14 29.52 29.34 29.65 30.68 31.47 31.77 32.05 31.89 32.10 32.22 32.12 32.16 32.29 32.63 32.28 31.96 31.69 31.26 31.29 31.75 30.17 29.52 27.76 26.16 26.90 25.65 25.02 24.96 24.88 24.83
25.08 24.36 24.41 23.95 23.80 23.75 23.80 24.08 24.09 24.29 24.37 25.05 25.47 25.93 25.19 25.47 25.93 26.70 26.11 29.93 30.57 31.58 31.99 32.18 32.27 32.33 32.43 32.37 32.39 32.35 32.22 33.27 31.79 31.63 30.52 29.53 27.76 26.33 26.01 25.08 24.94 24.93 24.81
24.74 24.22 23.77 23.97 22.99 23.13 23.54 23.69 23.18 23.41 22.79 24.43 25.24 24.45 22.92 22.46 23.18 22.80 22.38 22.79 22.73 25.74 27.46 29.40 30.23 30.88 32.15 32.39 32.34 32.76 34.24 34.52 33.66 34.61 32.10 30.02 28.25 27.54 27.18 26.63 26.04 25.52 25.10

GFSGL_sfc_wetblb_111.txt.gz
Wetbulb
56.75 56.90 57.27 56.65 56.48 56.62 55.85 54.45 53.80 54.71 54.92 54.59 54.24 53.41 52.03 50.94 51.36 51.83 51.90 51.83 51.83 52.12 53.10 53.37 52.26 53.17 53.48 54.04 54.31 54.33 53.89 54.02 51.61 46.13 45.64 45.66 45.48 46.32 46.53 46.55 46.78 47.02 49.06
54.48 54.59 54.15 53.81 53.81 52.81 51.78 51.59 51.87 51.10 51.46 51.17 50.28 48.86 47.86 47.15 47.70 48.05 47.62 48.21 49.04 49.49 50.05 51.07 50.92 50.81 51.25 51.65 52.03 51.74 51.44 50.92 50.05 48.44 43.02 43.37 44.56 45.87 46.06 43.91 42.73 44.02 45.65
52.02 51.59 50.86 50.68 50.43 49.44 49.23 48.98 48.55 48.29 47.86 47.56 47.13 45.82 44.96 44.75 44.73 44.80 45.24 45.81 46.73 47.00 46.96 47.19 46.74 47.31 47.87 48.82 48.93 49.52 49.27 48.11 47.52 44.65 41.43 41.95 42.25 43.82 42.67 41.72 40.45 40.90 43.01
49.18 49.18 48.37 48.32 48.06 47.09 46.19 45.93 45.79 45.75 44.92 44.38 44.02 43.48 43.03 43.12 43.18 43.13 43.20 43.73 44.15 44.08 43.85 43.85 43.89 44.31 44.90 46.13 46.67 46.80 46.68 46.62 45.89 44.12 41.62 40.53 41.13 42.64 41.82 38.35 36.12 36.97 35.79
46.76 46.65 45.39 44.83 44.29 43.91 43.43 43.20 43.17 43.22 42.79 42.38 41.73 41.67 42.33 43.04 42.47 42.62 42.42 42.22 42.20 41.97 41.74 41.62 42.27 42.69 43.25 45.29 45.77 45.86 45.62 44.97 44.50 43.24 40.69 39.79 38.86 38.84 39.04 38.21 35.83 33.39 32.98
44.87 43.17 42.50 42.26 42.26 41.83 41.59 41.32 41.38 41.19 41.19 41.30 40.97 41.26 41.74 42.94 44.94 44.35 41.94 41.18 40.45 40.15 40.24 40.71 40.97 41.25 42.33 43.50 44.79 44.52 44.90 44.02 42.76 41.32 40.16 38.62 38.95 38.90 37.70 36.57 33.02 31.93 31.21
43.01 42.11 41.81 41.76 41.15 40.83 40.57 40.48 40.09 39.93 39.84 39.03 39.03 39.64 39.62 42.44 44.41 43.90 41.33 39.85 39.10 38.95 38.89 39.31 39.91 40.39 40.68 40.79 40.82 40.15 39.52 40.54 42.06 42.62 40.32 40.30 39.20 38.78 37.72 35.79 34.12 34.82 34.62
42.32 41.45 41.27 41.11 40.29 40.09 40.06 39.34 38.71 38.92 38.39 38.41 38.68 38.22 38.57 40.55 43.08 43.20 41.58 38.98 38.33 37.79 38.19 38.64 39.19 39.52 39.69 40.21 38.82 37.22 35.46 35.28 36.51 36.59 39.50 40.23 40.01 39.24 38.61 37.95 36.31 31.69 30.39
40.86 40.80 40.94 40.72 39.43 39.26 38.40 38.11 38.24 37.88 36.91 37.36 38.75 38.81 37.90 38.08 40.93 42.47 40.62 38.38 37.50 37.05 37.68 38.22 38.25 38.52 38.86 40.15 36.45 35.38 34.07 33.93 36.69 39.66 39.37 39.25 39.39 40.38 37.30 34.58 32.66 32.40 29.35
40.56 40.69 40.64 40.38 39.71 39.04 38.53 37.54 36.29 37.89 37.32 38.16 38.14 38.80 38.66 37.64 39.39 41.51 41.57 38.81 37.63 36.87 36.03 36.16 36.21 37.58 40.06 39.77 35.47 34.37 32.88 32.73 33.15 33.00 32.52 33.57 34.65 37.82 36.56 34.02 34.65 33.61 30.60
41.28 40.90 40.32 40.22 39.94 39.05 37.55 37.51 37.10 36.69 36.62 37.83 37.86 38.00 37.88 37.40 37.78 40.92 41.74 39.22 38.07 36.62 35.60 34.41 34.94 36.48 37.63 39.38 38.79 33.87 32.93 33.16 34.35 31.52 30.86 30.74 31.03 31.27 30.64 31.54 33.19 34.68 32.37
41.10 40.51 40.01 39.76 39.39 37.95 37.35 37.84 36.71 36.64 36.49 37.02 37.15 36.75 36.36 36.58 39.01 40.04 41.18 41.46 40.32 36.99 35.72 34.30 33.44 35.89 36.79 37.92 38.31 37.42 37.11 34.90 31.97 30.44 29.97 29.72 29.57 30.18 30.81 30.55 31.02 31.66 32.50
40.51 40.02 39.58 38.97 38.77 37.76 37.57 36.64 35.96 35.96 36.18 36.93 36.07 35.83 36.25 36.73 37.13 38.86 40.26 41.14 41.49 38.33 35.31 34.49 35.20 35.82 36.01 36.33 37.63 37.61 37.22 32.81 30.44 29.46 29.26 29.28 29.78 30.65 29.70 29.49 30.16 30.34 30.52
39.98 39.36 38.89 38.69 38.19 37.68 37.60 37.34 37.04 36.51 36.70 36.11 35.37 35.26 35.78 35.69 36.28 36.29 36.40 36.60 37.82 38.46 38.48 35.82 35.18 34.89 34.68 34.40 35.50 34.29 32.44 32.71 31.18 30.34 29.47 29.57 29.15 29.05 28.86 29.18 28.74 28.66 29.13
39.29 38.58 38.17 38.05 38.71 37.29 36.99 37.28 37.30 37.95 37.65 35.98 35.98 35.33 35.15 35.02 35.10 36.95 35.89 34.59 34.98 35.15 34.98 31.30 30.41 30.37 30.63 31.42 31.92 31.85 31.25 30.90 31.01 30.11 29.45 28.58 28.46 28.49 28.32 28.08 27.92 27.60 28.05
37.78 37.94 37.98 37.78 37.49 36.74 36.61 37.10 39.44 39.41 39.75 39.87 39.39 37.75 36.15 37.96 38.20 38.77 39.28 39.70 40.01 39.63 34.47 31.15 30.37 29.77 29.41 29.72 30.13 30.76 30.58 30.87 30.27 30.30 29.47 29.21 28.63 28.28 27.96 27.21 27.45 27.43 26.78
34.03 34.58 34.83 35.49 36.33 37.63 36.92 36.13 35.22 37.23 40.43 40.57 40.40 40.36 40.39 39.85 39.73 39.92 40.13 40.18 40.00 39.20 34.68 31.65 30.68 29.67 29.54 29.47 29.77 29.88 29.88 30.37 30.57 30.38 30.03 29.36 28.85 28.24 28.85 27.15 27.00 27.02 26.61
34.84 36.05 34.02 33.55 33.51 33.78 33.91 33.90 34.20 34.43 34.95 35.37 38.22 39.69 40.17 40.34 40.04 39.75 40.01 40.38 35.86 36.72 33.75 33.18 31.55 30.36 29.20 29.93 29.82 29.59 29.67 29.58 29.30 29.67 29.52 29.24 28.63 28.32 27.66 27.37 27.04 26.54 26.81
34.93 35.32 35.43 34.64 34.38 35.04 34.22 33.82 34.16 34.19 34.04 34.34 34.39 35.90 37.52 39.08 39.44 39.40 39.75 36.06 34.34 33.68 33.84 32.87 32.35 31.41 30.94 30.38 30.23 29.73 29.25 29.02 28.95 28.62 29.04 28.85 28.69 28.70 27.69 28.39 27.85 28.12 27.73
32.44 34.01 35.16 33.05 32.94 33.11 33.39 33.26 33.25 33.21 33.30 33.40 33.22 33.35 33.85 34.77 32.78 33.23 33.83 33.18 32.97 33.44 33.35 33.07 32.23 31.26 30.76 30.77 30.41 29.52 28.62 28.69 29.28 28.35 28.20 28.73 28.62 28.54 28.12 28.01 28.13 27.55 28.54
28.61 29.88 32.79 31.66 32.17 32.04 32.23 32.15 32.32 32.15 32.05 32.11 32.34 33.60 36.26 33.33 32.40 32.34 32.62 32.58 32.65 32.67 33.16 33.53 33.20 32.09 32.05 31.72 30.96 29.83 28.97 29.40 28.88 29.03 28.68 27.77 27.85 27.20 28.22 28.65 28.46 28.03 28.35
27.74 27.63 27.66 27.62 28.56 28.62 31.60 32.05 32.01 31.73 31.78 31.72 32.00 32.36 35.19 33.13 32.13 32.17 32.19 32.28 32.72 33.16 33.48 33.34 33.25 33.02 32.70 32.33 32.07 31.57 30.50 29.84 30.10 29.31 28.89 28.05 27.65 27.22 27.45 27.31 27.36 27.49 27.39
27.09 26.60 26.21 26.10 26.24 27.69 26.63 27.22 28.08 28.60 29.10 29.41 30.02 31.24 31.81 32.13 31.99 32.10 32.08 32.24 32.30 32.41 32.75 32.53 32.52 32.88 33.40 32.81 32.56 32.31 31.79 31.46 31.98 31.26 29.25 28.34 27.88 27.71 27.54 27.10 26.86 26.61 26.45
26.31 25.86 25.43 25.43 25.29 25.88 25.02 25.51 25.52 26.06 26.18 25.99 26.39 27.44 27.12 27.26 27.12 28.34 29.94 30.52 31.45 31.56 32.12 32.17 32.14 32.21 32.11 32.61 32.65 32.58 32.44 32.44 32.36 32.08 31.48 30.44 28.80 28.11 27.34 26.84 26.72 26.42 26.52
26.00 25.11 24.75 24.64 24.35 24.09 24.22 24.64 24.77 24.79 24.98 25.02 25.02 25.86 25.34 24.60 24.13 24.54 25.70 26.83 27.06 28.38 28.93 29.27 30.15 30.84 31.28 31.77 32.23 32.51 32.14 33.58 32.34 31.85 32.14 31.20 30.39 29.28 28.44 27.88 27.12 26.86 26.57
25.07 24.42 24.13 24.03 23.74 23.27 22.63 22.77 23.43 24.05 24.01 24.63 24.83 25.28 24.46 23.25 23.11 23.20 23.74 24.63 25.08 24.11 24.30 25.65 25.21 24.31 24.92 26.73 27.42 28.18 30.75 32.45 33.46 34.60 32.97 31.48 30.07 29.72 29.30 28.25 27.81 27.06 26.99

GFSGL_sfc_wetblb_114.txt.gz
Wetbulb
61.46 61.87 61.46 61.05 60.80 61.05 60.77 60.16 59.95 60.25 60.59 60.12 59.51 58.71 57.57 57.74 58.28 58.01 56.89 56.26 55.81 55.40 56.00 55.29 54.50 54.75 55.24 55.42 55.67 55.37 53.70 54.37 52.16 51.99 52.29 50.73 48.28 50.03 49.27 49.73 49.96 50.35 51.13
59.46 59.39 59.56 58.82 58.81 58.77 57.61 57.66 58.16 57.96 58.04 56.99 56.47 55.36 54.94 54.91 55.55 55.35 53.50 53.98 53.80 53.43 53.64 53.74 52.79 51.94 53.06 53.78 54.24 53.34 52.53 53.53 51.25 50.41 48.14 46.76 47.40 48.50 48.17 46.62 45.29 45.76 47.37
58.00 56.80 56.23 56.60 56.61 55.50 54.87 55.17 55.30 55.16 54.52 54.10 54.01 52.24 51.13 51.18 51.47 51.75 51.41 51.17 51.43 51.50 51.36 51.35 50.54 50.88 50.91 51.16 50.53 49.84 50.38 49.94 50.05 48.79 46.76 44.01 44.45 45.39 44.21 42.93 42.22 42.65 43.73
56.22 55.42 54.46 54.25 54.53 54.53 53.56 52.76 53.03 53.05 51.95 51.48 50.99 49.75 48.70 48.43 48.55 48.17 48.76 48.94 48.82 48.37 48.17 48.19 48.04 48.17 48.55 49.10 49.48 49.58 48.33 48.57 48.61 47.10 44.70 43.42 43.67 43.92 43.32 40.32 38.13 39.19 37.99
53.97 53.64 52.76 52.21 51.89 51.67 51.32 51.10 50.10 50.07 49.03 48.20 47.44 47.08 47.18 47.27 46.55 47.02 47.17 47.24 46.84 46.03 45.73 45.41 45.79 44.50 43.27 45.72 47.18 47.15 46.01 45.50 46.49 45.76 43.51 42.22 41.26 40.25 40.49 39.26 37.05 35.63 35.24
51.60 50.37 49.53 48.26 48.37 48.31 47.57 47.89 48.08 47.14 46.59 46.38 46.02 46.17 46.23 45.24 44.13 44.75 45.96 45.29 44.57 44.50 43.99 44.03 44.40 42.45 43.78 43.20 44.59 44.35 45.13 44.60 43.49 43.52 43.05 40.66 41.07 40.48 39.53 37.51 34.38 33.50 33.29
48.02 47.52 47.23 47.23 46.37 46.33 45.98 45.81 45.03 44.95 45.27 44.99 44.97 45.45 45.51 45.88 45.11 43.62 43.36 44.33 43.44 42.73 42.30 42.85 43.14 43.23 42.96 43.67 42.74 41.22 41.28 40.50 40.92 40.99 41.35 42.04 41.41 41.36 39.34 36.58 35.24 35.20 35.56
46.71 46.12 46.00 46.08 45.26 44.98 44.89 44.41 43.87 44.00 43.34 43.17 42.86 43.73 44.41 44.70 44.48 43.17 42.00 42.92 42.66 41.93 42.01 42.30 42.68 42.85 42.81 42.13 42.39 41.73 41.33 40.01 38.26 38.67 38.00 39.37 40.81 41.29 40.13 39.10 37.61 33.39 31.42
46.17 45.86 45.69 45.46 44.34 44.32 43.44 43.34 43.56 42.80 41.27 41.60 42.08 42.29 43.02 42.93 43.60 43.48 42.66 42.61 41.60 41.23 41.25 41.88 41.96 41.84 40.61 40.17 40.08 38.18 39.73 39.12 37.52 38.80 38.68 39.37 40.25 40.70 39.65 35.99 33.48 33.12 30.74
46.05 45.88 45.75 45.40 44.64 44.18 43.82 42.86 42.84 43.31 40.87 42.17 41.72 42.32 42.34 42.64 42.07 43.20 42.90 42.70 41.67 41.15 40.69 40.61 37.95 39.76 39.66 40.38 40.40 38.75 37.76 37.83 36.65 35.04 34.01 34.62 35.74 38.06 36.88 34.12 35.33 33.98 32.90
45.83 45.68 45.33 45.24 44.81 44.58 43.33 42.45 41.92 41.63 40.77 40.21 40.74 41.75 41.76 42.19 42.50 42.09 42.87 42.76 42.38 41.38 40.58 39.59 39.45 37.55 38.20 39.55 40.64 38.12 37.16 36.71 35.98 34.59 33.02 32.48 32.66 32.48 31.99 32.34 33.43 35.02 33.56
45.11 44.54 44.42 44.61 43.40 43.10 42.77 41.17 42.41 42.38 42.08 41.01 41.12 40.38 41.27 41.71 40.19 40.68 41.96 42.19 41.84 40.78 40.03 39.90 37.90 36.28 37.47 38.10 39.19 39.16 38.25 36.35 35.76 33.76 31.99 31.91 31.46 31.92 32.10 32.50 32.43 33.51 34.06
44.64 44.38 44.17 43.78 43.38 43.22 42.93 41.57 41.79 42.07 42.19 40.92 39.07 39.87 40.85 40.59 41.78 40.95 41.31 41.79 41.80 40.79 39.40 39.60 37.23 36.20 36.64 37.24 37.86 38.46 38.60 37.34 34.82 32.72 31.69 31.94 32.31 32.88 31.89 32.35 32.73 33.04 32.40
42.31 42.64 43.01 43.03 42.88 42.65 42.36 42.42 42.50 41.39 41.30 40.85 39.42 39.40 40.76 40.36 40.79 40.96 40.35 41.16 41.06 40.79 40.40 39.06 37.55 36.71 35.74 35.85 35.46 37.13 36.86 36.23 34.86 33.91 33.57 33.04 32.65 32.03 31.83 32.87 32.64 32.61 32.75
39.98 39.64 39.37 39.34 40.10 39.64 39.85 40.95 41.32 42.58 41.93 40.61 40.32 40.59 39.70 39.21 39.66 40.17 39.52 38.29 39.20 38.45 38.01 35.60 34.24 33.41 32.26 33.33 34.36 34.92 35.43 34.80 33.51 33.94 33.09 32.72 31.74 31.58 31.24 31.77 31.42 31.35 31.20
39.46 38.73 38.76 38.91 38.86 37.85 37.75 38.02 39.90 40.02 40.05 40.33 40.08 39.19 37.98 39.83 39.09 39.40 39.47 39.53 39.72 39.19 35.83 34.76 33.65 32.30 31.11 32.09 33.14 33.18 33.79 33.46 33.54 33.63 33.19 32.94 32.04 31.45 31.12 30.85 31.10 30.47 30.03
37.35 38.05 38.40 38.40 38.90 39.73 38.42 36.34 35.30 38.04 40.49 40.62 40.55 40.66 40.49 39.00 39.80 39.90 40.13 40.27 40.60 40.05 36.58 34.18 32.86 32.12 31.35 30.93 32.83 33.82 33.29 33.62 33.83 34.04 33.57 33.07 32.78 31.77 31.04 30.39 30.01 29.99 29.42
36.44 36.71 36.82 36.56 36.58 37.03 37.27 37.14 37.36 37.11 37.39 38.04 39.54 40.49 40.86 40.89 40.80 40.74 40.75 40.55 37.37 38.38 35.70 35.01 33.94 33.13 32.26 31.63 31.94 34.27 34.47 33.77 32.82 32.87 33.38 33.18 32.60 32.24 30.59 30.36 30.01 29.28 29.38
34.64 35.56 36.07 35.69 35.59 36.19 35.97 35.41 35.84 36.25 36.46 37.43 37.86 37.14 38.50 39.98 40.06 40.26 40.44 36.85 35.68 35.08 35.48 34.87 34.83 33.86 32.89 32.77 34.45 35.39 34.60 34.30 33.35 32.55 32.80 32.38 32.36 31.93 30.94 31.15 30.79 30.17 29.77
32.59 32.16 34.22 34.12 33.76 33.79 33.98 33.80 34.05 34.22 34.40 34.56 34.37 34.30 34.63 35.61 34.26 34.49 34.69 33.75 33.61 33.91 34.42 34.55 34.41 33.84 33.18 32.92 33.04 33.62 33.62 33.25 32.98 32.59 32.46 32.58 32.54 32.07 30.82 30.57 30.33 30.20 29.76
30.00 30.18 30.99 30.20 30.81 31.65 32.65 33.14 32.98 32.63 32.57 32.67 32.79 33.72 36.17 33.07 32.60 32.47 32.67 33.14 33.30 33.39 33.56 34.03 34.68 34.67 34.25 33.53 33.04 32.43 32.20 32.56 32.85 32.58 32.69 32.70 32.32 31.01 30.87 30.75 30.45 30.36 30.41
29.45 28.71 28.67 28.28 28.51 28.67 30.25 30.84 31.69 31.80 32.29 32.50 32.31 32.64 35.15 33.52 32.66 32.63 32.55 32.62 32.85 33.18 33.46 33.26 33.48 33.86 33.93 33.09 32.80 32.45 32.64 32.36 32.56 32.13 32.06 31.67 31.28 31.20 30.95 30.40 29.97 30.17 29.93
30.10 28.45 27.62 27.64 27.60 28.13 28.02 28.27 28.56 28.82 29.16 29.76 29.88 30.21 31.23 31.66 31.85 32.19 32.58 32.92 33.09 32.76 32.96 32.88 32.99 33.02 34.11 33.40 32.82 32.55 32.15 32.64 33.09 33.09 32.42 31.57 30.43 29.91 30.21 30.25 29.82 29.24 29.11
29.91 28.59 27.57 27.16 26.87 27.62 26.87 26.89 27.18 26.79 27.06 26.99 27.10 27.66 28.12 27.66 27.58 27.91 28.65 29.89 29.88 30.71 31.78 32.23 32.58 32.13 32.65 32.67 32.85 32.74 32.44 32.56 32.76 32.56 32.38 32.02 31.43 30.92 30.31 29.49 29.27 29.54 29.35
29.57 28.35 27.30 27.07 26.24 25.98 25.78 25.96 26.24 26.25 26.05 26.12 25.87 26.05 26.94 26.56 26.14 26.13 26.20 27.07 27.88 28.78 28.93 28.80 29.54 28.61 28.54 28.25 28.95 28.75 29.69 32.38 32.65 32.23 32.35 31.86 31.58 31.57 31.05 30.39 29.60 29.18 28.99
28.95 27.41 26.80 26.50 26.05 25.45 24.63 24.07 24.23 25.04 25.16 25.27 25.69 26.13 26.24 25.93 25.32 25.09 25.03 25.74 26.66 27.07 25.98 26.21 26.33 25.59 25.72 26.56 26.62 26.69 27.86 28.99 29.73 30.34 30.35 31.88 31.38 31.17 31.10 30.54 29.82 29.57 29.20

GFSGL_sfc_wetblb_117.txt.gz
Wetbulb
60.88 60.55 60.53 60.56 60.46 60.58 60.19 60.96 61.03 61.00 61.87 61.91 61.91 61.40 60.95 60.46 61.06 60.49 59.44 59.19 58.87 56.74 56.55 56.26 55.56 55.69 55.27 55.32 55.67 54.49 53.12 53.35 50.67 52.21 52.62 52.09 51.35 51.31 49.89 50.45 50.25 50.34 51.19
60.94 60.59 60.47 59.79 59.66 59.58 60.10 60.80 61.12 60.87 61.28 60.89 60.17 58.97 58.40 58.68 58.56 57.95 56.51 56.01 55.65 54.82 54.78 54.54 53.86 52.83 53.40 53.75 53.94 53.47 51.74 52.01 50.26 47.85 49.85 49.01 48.57 49.14 49.25 47.58 46.17 46.23 47.60
59.97 60.14 59.00 58.69 59.37 58.54 57.69 58.20 58.82 58.69 58.29 57.97 57.53 56.68 56.13 55.44 55.51 55.50 54.30 53.97 53.57 53.47 53.04 52.84 52.65 51.84 51.75 51.77 51.18 50.04 49.80 49.19 49.36 48.03 47.01 45.65 45.63 45.84 44.69 43.50 42.83 43.39 44.13
57.31 56.99 57.01 57.17 56.57 56.11 56.14 56.22 55.75 56.07 55.90 55.33 54.47 52.81 52.02 51.73 51.38 51.15 51.23 51.23 51.01 50.69 50.41 50.69 50.02 49.55 49.36 49.78 49.38 49.57 48.03 47.66 47.57 46.81 46.79 44.98 44.04 44.69 44.26 41.49 39.28 40.15 39.26
55.51 55.08 54.77 54.97 54.49 53.57 53.02 53.69 53.63 54.10 53.14 51.52 49.86 49.45 48.91 48.68 47.93 48.56 48.95 48.90 48.28 47.44 47.11 46.96 47.06 44.42 43.76 45.04 46.22 47.28 46.66 45.18 44.67 44.10 43.09 43.27 42.07 40.88 40.52 40.68 38.06 36.65 36.56
53.53 52.10 52.12 52.24 51.76 51.24 50.58 50.02 50.04 48.92 48.09 47.96 47.50 47.17 46.84 45.54 46.20 47.54 47.83 46.90 46.45 46.04 45.00 44.72 45.13 42.58 43.57 43.50 44.53 44.11 43.90 43.50 42.60 42.36 42.09 40.96 41.39 40.84 40.20 38.12 35.31 34.17 34.45
49.98 49.53 49.50 50.16 49.23 49.08 49.10 48.87 48.91 47.78 47.17 46.68 46.56 46.40 45.50 44.63 45.42 45.77 46.20 45.58 44.85 44.07 43.51 43.47 43.84 43.50 42.52 44.06 43.62 42.45 42.01 40.97 40.43 40.21 39.53 41.08 40.93 41.48 39.49 36.37 35.08 34.81 35.39
48.70 48.72 49.43 48.92 47.92 47.61 47.36 46.23 45.63 45.62 45.40 45.14 45.23 46.04 45.77 44.96 44.54 44.00 44.43 43.85 43.45 43.03 43.07 43.24 43.26 43.27 43.16 42.16 42.52 41.27 41.27 41.15 39.81 39.76 38.91 38.53 38.32 39.64 40.12 38.88 37.57 34.75 31.74
46.97 46.86 47.51 46.79 45.75 45.80 44.80 44.68 44.76 44.37 43.88 43.57 44.14 44.33 44.72 43.91 44.31 43.25 43.37 43.16 42.36 41.72 42.18 42.54 42.48 42.15 41.70 40.49 40.76 37.52 39.15 39.74 38.53 38.86 38.12 38.51 39.59 41.41 41.54 36.43 33.45 32.77 31.15
47.04 46.66 47.04 46.94 46.18 45.43 45.94 44.59 44.41 43.51 42.18 43.12 42.85 43.73 44.39 43.51 44.17 43.71 43.19 43.19 41.68 41.42 41.05 41.43 39.93 41.06 40.69 40.80 39.88 39.27 36.06 37.14 35.35 35.25 34.38 34.29 35.40 35.21 36.24 33.56 34.37 33.23 32.59
46.90 46.41 46.17 46.25 45.79 45.59 44.56 43.64 43.68 42.31 41.84 42.08 41.99 42.82 42.24 43.64 42.55 43.55 43.50 43.00 42.16 41.30 40.21 39.61 40.22 39.60 39.15 39.32 40.59 39.10 36.86 36.32 35.85 33.91 33.03 32.25 32.58 32.33 31.84 31.83 32.44 33.73 32.76
46.43 45.75 45.45 45.73 44.55 44.35 43.34 42.78 42.84 42.00 41.51 40.98 41.37 41.42 42.09 42.57 42.17 42.74 43.23 43.13 42.91 40.84 39.73 40.03 39.07 37.65 37.79 38.11 38.54 39.65 39.46 38.04 34.50 32.64 31.58 31.22 31.40 32.11 32.26 32.17 32.11 33.00 33.19
45.84 45.52 45.06 44.85 44.16 44.36 43.39 42.43 42.35 42.82 42.62 41.79 40.75 40.54 40.94 41.50 41.90 42.25 42.66 42.96 42.57 40.78 40.48 40.28 39.74 37.39 37.17 37.03 38.01 38.83 38.88 36.67 33.91 31.56 30.86 30.93 31.22 32.77 31.91 32.23 32.50 32.52 32.20
41.22 41.27 41.76 43.41 43.77 43.80 43.63 43.68 43.16 42.63 42.44 42.20 40.24 39.57 41.62 40.88 41.20 41.42 41.01 41.41 42.06 41.62 41.11 39.41 39.09 38.02 37.92 36.54 35.30 35.38 35.08 34.81 33.18 32.43 32.00 31.69 31.11 29.94 29.55 30.57 30.08 32.10 31.50
40.01 39.85 39.64 39.56 39.94 39.30 39.32 40.42 41.02 42.25 42.05 41.44 41.55 41.23 40.94 39.70 40.31 42.29 41.14 39.85 40.16 39.92 39.34 35.76 34.53 33.17 32.93 32.55 32.66 33.36 33.41 33.29 31.70 31.79 31.59 30.96 30.60 30.06 29.28 29.78 28.08 30.18 27.82
40.27 39.98 39.47 39.60 39.16 38.20 37.82 38.27 40.66 40.79 41.05 41.04 41.03 40.23 39.06 40.46 40.67 41.08 41.04 40.72 40.81 40.24 36.42 34.17 34.09 33.54 31.92 31.66 31.27 31.84 31.85 32.62 31.56 31.87 31.52 30.84 29.74 28.75 28.07 29.31 27.65 25.83 25.58
37.50 37.67 38.61 39.36 39.09 39.15 39.39 37.05 35.44 38.08 40.85 41.03 41.08 41.16 41.01 39.28 40.44 40.16 40.34 40.11 40.40 40.31 34.77 33.91 33.69 33.30 32.36 31.46 31.54 32.14 32.56 32.06 31.33 31.87 30.96 30.01 29.32 30.80 29.89 27.20 27.65 25.69 25.54
36.78 36.63 36.81 36.65 36.29 36.19 36.14 36.12 36.56 36.34 36.56 37.03 40.46 41.03 41.20 41.16 40.84 40.41 40.60 40.52 37.02 38.95 35.88 35.04 34.21 33.87 33.15 32.43 31.97 32.19 33.06 33.21 31.47 30.84 30.51 29.60 28.55 28.40 29.23 28.52 26.74 24.34 24.72
35.28 35.34 35.45 35.59 35.44 35.40 34.82 34.46 34.78 35.05 35.43 35.78 37.22 37.96 38.75 40.23 40.92 41.14 41.36 38.01 36.07 35.48 35.90 35.25 35.13 34.44 33.55 32.99 32.77 32.86 33.32 33.82 32.64 31.14 30.24 28.89 28.94 29.02 28.05 27.87 27.34 30.15 28.64
33.46 31.76 32.67 34.00 33.24 33.35 33.36 32.96 33.05 33.31 33.57 33.89 34.08 34.30 34.83 34.92 33.67 34.54 35.50 34.18 34.85 34.95 34.20 34.48 33.96 34.07 33.74 33.40 33.12 33.37 33.30 33.18 32.86 32.17 31.59 31.35 30.93 30.36 28.18 27.25 27.84 27.18 27.37
31.56 30.92 30.88 30.42 30.30 30.37 30.70 32.22 32.43 32.11 32.03 32.29 32.54 33.50 36.27 33.50 32.53 32.33 32.60 32.77 32.89 32.83 32.92 33.17 33.66 33.85 33.87 33.63 33.01 32.61 32.33 32.39 32.47 32.22 32.12 31.62 31.01 29.78 30.12 28.66 28.01 27.46 26.98
30.95 30.19 29.65 28.98 28.92 28.58 29.23 29.81 29.61 30.47 31.08 31.47 31.89 32.66 35.06 32.82 32.18 32.07 32.03 32.04 32.13 32.30 32.51 32.20 32.71 33.13 33.22 32.65 32.43 32.30 32.21 32.11 32.26 32.22 32.06 32.09 31.92 31.38 30.98 30.55 29.04 27.94 26.62
30.88 29.62 28.72 28.46 28.52 28.57 28.69 28.38 28.26 28.34 28.42 28.63 29.26 29.30 30.34 30.70 30.94 31.30 31.49 31.81 31.99 31.92 32.01 32.03 32.13 32.34 33.16 32.98 32.50 32.14 31.93 32.10 32.60 32.57 32.09 31.75 31.32 30.88 30.75 30.12 29.85 29.09 27.83
30.54 29.47 28.38 27.95 27.94 27.64 27.73 27.06 27.46 27.48 27.17 27.01 27.15 27.22 27.64 27.56 27.40 27.68 27.96 28.80 29.19 29.61 30.55 31.33 31.30 30.36 30.51 31.22 32.02 32.23 32.09 32.09 32.07 32.14 32.23 31.75 31.19 31.24 30.64 29.82 29.53 29.12 29.16
30.49 29.64 28.48 27.75 27.38 26.86 26.74 26.54 26.36 26.37 26.43 26.31 26.32 26.27 26.42 26.87 26.43 26.58 26.56 26.74 27.47 27.69 28.20 27.94 28.00 26.64 26.13 28.00 27.80 28.12 28.69 29.78 30.52 30.26 31.82 31.59 30.97 30.52 30.51 30.17 29.36 28.98 28.55
30.73 29.32 27.81 27.30 26.74 26.55 26.09 25.50 25.22 25.43 25.50 25.82 25.72 26.13 26.17 26.12 26.17 25.85 25.42 25.26 25.74 26.94 26.88 26.31 25.75 23.99 23.33 23.59 23.82 24.77 27.37 28.02 28.25 29.56 29.28 28.15 29.11 29.92 30.25 29.88 29.39 29.04 28.48